<?xml version='1.0' encoding='UTF-8'?><gpx version="1.1" creator="JPX - https://github.com/jenetics/jpx" xmlns="http://www.topografix.com/GPX/1/1"><trk><trkseg><trkpt lat="45.60440751245438" lon="8.21081426502955"><ele>393.0</ele><time>2026-04-06T11:47:10.999Z</time></trkpt><trkpt lat="45.60442770186794" lon="8.210952590222206"><ele>393.0</ele><time>2026-04-06T11:47:12.999Z</time></trkpt><trkpt lat="45.60444812871205" lon="8.211056515078416"><ele>393.0</ele><time>2026-04-06T11:47:13.999Z</time></trkpt><trkpt lat="45.60445572701994" lon="8.211164434832016"><ele>393.0</ele><time>2026-04-06T11:47:14.999Z</time></trkpt><trkpt lat="45.604459561698405" lon="8.21127999275709"><ele>393.0</ele><time>2026-04-06T11:47:15.999Z</time></trkpt><trkpt lat="45.604481750520435" lon="8.211404591824197"><ele>393.0</ele><time>2026-04-06T11:47:16.999Z</time></trkpt><trkpt lat="45.604496830069166" lon="8.211530932417785"><ele>393.79999999999995</ele><time>2026-04-06T11:47:17.999Z</time></trkpt><trkpt lat="45.60454015878721" lon="8.211650719020902"><ele>394.6</ele><time>2026-04-06T11:47:18.999Z</time></trkpt><trkpt lat="45.60460374144239" lon="8.211750715766792"><ele>395.4</ele><time>2026-04-06T11:47:19.999Z</time></trkpt><trkpt lat="45.6046670036688" lon="8.211844477269857"><ele>396.20000000000005</ele><time>2026-04-06T11:47:20.999Z</time></trkpt><trkpt lat="45.604734241494896" lon="8.211937430338333"><ele>397.0</ele><time>2026-04-06T11:47:21.999Z</time></trkpt><trkpt lat="45.60481325195181" lon="8.212008359056803"><ele>397.0</ele><time>2026-04-06T11:47:22.999Z</time></trkpt><trkpt lat="45.60489821789075" lon="8.212065984964411"><ele>397.0</ele><time>2026-04-06T11:47:23.999Z</time></trkpt><trkpt lat="45.6049795386583" lon="8.212119370242954"><ele>397.0</ele><time>2026-04-06T11:47:24.999Z</time></trkpt><trkpt lat="45.60506474115684" lon="8.212182728230694"><ele>397.0</ele><time>2026-04-06T11:47:25.999Z</time></trkpt><trkpt lat="45.60514880513362" lon="8.212233408680962"><ele>397.0</ele><time>2026-04-06T11:47:26.999Z</time></trkpt><trkpt lat="45.60523611137326" lon="8.212275306993057"><ele>397.0</ele><time>2026-04-06T11:47:27.999Z</time></trkpt><trkpt lat="45.60532489794642" lon="8.212307482237689"><ele>397.0</ele><time>2026-04-06T11:47:28.999Z</time></trkpt><trkpt lat="45.605415364950034" lon="8.212321977119114"><ele>397.0</ele><time>2026-04-06T11:47:29.999Z</time></trkpt><trkpt lat="45.605506661530576" lon="8.212331629263998"><ele>397.0</ele><time>2026-04-06T11:47:30.999Z</time></trkpt><trkpt lat="45.605595005064146" lon="8.212350613282219"><ele>397.0</ele><time>2026-04-06T11:47:31.999Z</time></trkpt><trkpt lat="45.60567743560305" lon="8.212386902733325"><ele>397.00000000000006</ele><time>2026-04-06T11:47:32.999Z</time></trkpt><trkpt lat="45.60575662467543" lon="8.212451113850197"><ele>397.0</ele><time>2026-04-06T11:47:33.999Z</time></trkpt><trkpt lat="45.60582763358362" lon="8.212534927041355"><ele>397.0</ele><time>2026-04-06T11:47:34.999Z</time></trkpt><trkpt lat="45.605892350326336" lon="8.212619584812368"><ele>397.0</ele><time>2026-04-06T11:47:35.999Z</time></trkpt><trkpt lat="45.60593849670274" lon="8.212721741990059"><ele>397.00000000000006</ele><time>2026-04-06T11:47:36.999Z</time></trkpt><trkpt lat="45.60598769676419" lon="8.212815769807744"><ele>397.0</ele><time>2026-04-06T11:47:37.999Z</time></trkpt><trkpt lat="45.60603652894015" lon="8.212913028761422"><ele>397.00000000000006</ele><time>2026-04-06T11:47:38.999Z</time></trkpt><trkpt lat="45.60609365940392" lon="8.213016995361357"><ele>397.0</ele><time>2026-04-06T11:47:39.999Z</time></trkpt><trkpt lat="45.606135930852744" lon="8.213114798161895"><ele>397.0</ele><time>2026-04-06T11:47:40.999Z</time></trkpt><trkpt lat="45.606157233035994" lon="8.213225123621827"><ele>397.0</ele><time>2026-04-06T11:47:41.999Z</time></trkpt><trkpt lat="45.60617103770062" lon="8.213359550716802"><ele>397.00000000000006</ele><time>2026-04-06T11:47:42.999Z</time></trkpt><trkpt lat="45.60619146988861" lon="8.213484270167953"><ele>397.0</ele><time>2026-04-06T11:47:43.999Z</time></trkpt><trkpt lat="45.60621608774413" lon="8.213592045746578"><ele>395.83333333333337</ele><time>2026-04-06T11:47:44.999Z</time></trkpt><trkpt lat="45.606219248832" lon="8.213719518028041"><ele>394.6666666666667</ele><time>2026-04-06T11:47:45.999Z</time></trkpt><trkpt lat="45.60620880907735" lon="8.213831032533502"><ele>393.5</ele><time>2026-04-06T11:47:46.999Z</time></trkpt><trkpt lat="45.6062009043701" lon="8.213924678583927"><ele>392.33333333333337</ele><time>2026-04-06T11:47:47.999Z</time></trkpt><trkpt lat="45.60618085582051" lon="8.214052542550672"><ele>391.1666666666667</ele><time>2026-04-06T11:47:48.999Z</time></trkpt><trkpt lat="45.60615542924789" lon="8.21419144448411"><ele>390.0</ele><time>2026-04-06T11:47:49.999Z</time></trkpt><trkpt lat="45.606149403129486" lon="8.214302952494137"><ele>389.0</ele><time>2026-04-06T11:47:50.999Z</time></trkpt><trkpt lat="45.60618739142572" lon="8.214396362504266"><ele>388.0</ele><time>2026-04-06T11:47:51.999Z</time></trkpt><trkpt lat="45.60626519940969" lon="8.214471023448366"><ele>387.0</ele><time>2026-04-06T11:47:52.999Z</time></trkpt><trkpt lat="45.6063520002353" lon="8.21451158748375"><ele>386.0</ele><time>2026-04-06T11:47:53.999Z</time></trkpt><trkpt lat="45.60643748567325" lon="8.214521961208185"><ele>385.0</ele><time>2026-04-06T11:47:54.999Z</time></trkpt><trkpt lat="45.60651636232536" lon="8.214594744827584"><ele>384.0</ele><time>2026-04-06T11:47:55.999Z</time></trkpt><trkpt lat="45.606591761114494" lon="8.214691929026246"><ele>384.0</ele><time>2026-04-06T11:47:56.999Z</time></trkpt><trkpt lat="45.606670441369154" lon="8.214779335347396"><ele>384.0</ele><time>2026-04-06T11:47:57.999Z</time></trkpt><trkpt lat="45.60674798063473" lon="8.21485276255142"><ele>384.0</ele><time>2026-04-06T11:47:58.999Z</time></trkpt><trkpt lat="45.60682209170067" lon="8.214921529023664"><ele>384.0</ele><time>2026-04-06T11:47:59.999Z</time></trkpt><trkpt lat="45.60688395108768" lon="8.215000774142975"><ele>384.0</ele><time>2026-04-06T11:48:00.999Z</time></trkpt><trkpt lat="45.60692754086327" lon="8.215086542528153"><ele>384.0</ele><time>2026-04-06T11:48:01.999Z</time></trkpt><trkpt lat="45.60696005679551" lon="8.215191309852404"><ele>384.4</ele><time>2026-04-06T11:48:02.999Z</time></trkpt><trkpt lat="45.606974583550596" lon="8.215358956015258"><ele>384.79999999999995</ele><time>2026-04-06T11:48:04.999Z</time></trkpt><trkpt lat="45.60693405753899" lon="8.215526355778541"><ele>385.20000000000005</ele><time>2026-04-06T11:48:06.999Z</time></trkpt><trkpt lat="45.606875400297916" lon="8.215609748254893"><ele>385.6</ele><time>2026-04-06T11:48:07.999Z</time></trkpt><trkpt lat="45.606813851112506" lon="8.215668758210352"><ele>386.0</ele><time>2026-04-06T11:48:08.999Z</time></trkpt><trkpt lat="45.60675308834667" lon="8.215713262474454"><ele>384.99999999999994</ele><time>2026-04-06T11:48:09.999Z</time></trkpt><trkpt lat="45.60670120468361" lon="8.215766386520121"><ele>384.0</ele><time>2026-04-06T11:48:10.999Z</time></trkpt><trkpt lat="45.6066330843659" lon="8.21583809705599"><ele>383.0</ele><time>2026-04-06T11:48:11.999Z</time></trkpt><trkpt lat="45.60657914382587" lon="8.215918872870764"><ele>382.0</ele><time>2026-04-06T11:48:12.999Z</time></trkpt><trkpt lat="45.606525746964024" lon="8.216004291938932"><ele>381.0</ele><time>2026-04-06T11:48:13.999Z</time></trkpt><trkpt lat="45.606489906603855" lon="8.216106124202742"><ele>380.0</ele><time>2026-04-06T11:48:14.999Z</time></trkpt><trkpt lat="45.60648384088738" lon="8.216241941943931"><ele>380.0</ele><time>2026-04-06T11:48:15.999Z</time></trkpt><trkpt lat="45.60649126265748" lon="8.216358716664349"><ele>380.0</ele><time>2026-04-06T11:48:16.999Z</time></trkpt><trkpt lat="45.606502064200626" lon="8.216462437011186"><ele>380.0</ele><time>2026-04-06T11:48:17.999Z</time></trkpt><trkpt lat="45.60649452744508" lon="8.216563005811333"><ele>380.0</ele><time>2026-04-06T11:48:18.999Z</time></trkpt><trkpt lat="45.60647601627104" lon="8.216654179905873"><ele>380.0</ele><time>2026-04-06T11:48:19.999Z</time></trkpt><trkpt lat="45.60644089955254" lon="8.216745575521841"><ele>380.0</ele><time>2026-04-06T11:48:20.999Z</time></trkpt><trkpt lat="45.60639643140923" lon="8.216837226941006"><ele>380.0</ele><time>2026-04-06T11:48:21.999Z</time></trkpt><trkpt lat="45.606325588240786" lon="8.216897283317273"><ele>377.6</ele><time>2026-04-06T11:48:22.999Z</time></trkpt><trkpt lat="45.60624061764545" lon="8.216966102915539"><ele>375.2</ele><time>2026-04-06T11:48:23.998Z</time></trkpt><trkpt lat="45.60617099884758" lon="8.217051793183833"><ele>372.79999999999995</ele><time>2026-04-06T11:48:24.998Z</time></trkpt><trkpt lat="45.606112244062444" lon="8.21714774702245"><ele>370.4</ele><time>2026-04-06T11:48:25.998Z</time></trkpt><trkpt lat="45.60605025447012" lon="8.217238812665835"><ele>368.0</ele><time>2026-04-06T11:48:26.998Z</time></trkpt><trkpt lat="45.605987232601784" lon="8.217318712953203"><ele>367.83333333333337</ele><time>2026-04-06T11:48:27.998Z</time></trkpt><trkpt lat="45.605914583411156" lon="8.217408773143902"><ele>367.6666666666667</ele><time>2026-04-06T11:48:28.998Z</time></trkpt><trkpt lat="45.605857811912436" lon="8.217507831395674"><ele>367.5</ele><time>2026-04-06T11:48:29.998Z</time></trkpt><trkpt lat="45.60580150913384" lon="8.217606768197149"><ele>367.3333333333333</ele><time>2026-04-06T11:48:30.998Z</time></trkpt><trkpt lat="45.6057475974632" lon="8.217690834668979"><ele>367.16666666666663</ele><time>2026-04-06T11:48:31.998Z</time></trkpt><trkpt lat="45.60568378624266" lon="8.217762901624214"><ele>367.0</ele><time>2026-04-06T11:48:32.998Z</time></trkpt><trkpt lat="45.60563251942555" lon="8.217843845405659"><ele>367.0</ele><time>2026-04-06T11:48:33.998Z</time></trkpt><trkpt lat="45.605581015290106" lon="8.217919543037654"><ele>367.0</ele><time>2026-04-06T11:48:34.998Z</time></trkpt><trkpt lat="45.605534493593204" lon="8.217991546597357"><ele>367.0</ele><time>2026-04-06T11:48:35.998Z</time></trkpt><trkpt lat="45.60547638323929" lon="8.218104358591782"><ele>367.0</ele><time>2026-04-06T11:48:36.998Z</time></trkpt><trkpt lat="45.60542219815926" lon="8.218211771332031"><ele>367.0</ele><time>2026-04-06T11:48:37.998Z</time></trkpt><trkpt lat="45.605361383787" lon="8.218316308293657"><ele>367.0</ele><time>2026-04-06T11:48:38.998Z</time></trkpt><trkpt lat="45.60530076243177" lon="8.218415745346967"><ele>366.8333333333333</ele><time>2026-04-06T11:48:39.998Z</time></trkpt><trkpt lat="45.60522427059263" lon="8.218501846605054"><ele>366.66666666666663</ele><time>2026-04-06T11:48:40.999Z</time></trkpt><trkpt lat="45.60515858598284" lon="8.21857868498954"><ele>366.5</ele><time>2026-04-06T11:48:41.999Z</time></trkpt><trkpt lat="45.60508846065226" lon="8.218682610727074"><ele>366.3333333333333</ele><time>2026-04-06T11:48:42.999Z</time></trkpt><trkpt lat="45.6050357465384" lon="8.21877546299475"><ele>366.1666666666667</ele><time>2026-04-06T11:48:43.999Z</time></trkpt><trkpt lat="45.60496795727208" lon="8.218832836170487"><ele>366.0</ele><time>2026-04-06T11:48:44.999Z</time></trkpt><trkpt lat="45.60490371831488" lon="8.218863291038492"><ele>366.0</ele><time>2026-04-06T11:48:45.999Z</time></trkpt><trkpt lat="45.60482703126264" lon="8.218856435122614"><ele>366.0</ele><time>2026-04-06T11:48:46.999Z</time></trkpt><trkpt lat="45.60474161643502" lon="8.218883925545374"><ele>366.0</ele><time>2026-04-06T11:48:47.999Z</time></trkpt><trkpt lat="45.604669579652864" lon="8.218914044564983"><ele>366.0</ele><time>2026-04-06T11:48:48.999Z</time></trkpt><trkpt lat="45.60460380950947" lon="8.218959322434982"><ele>366.0</ele><time>2026-04-06T11:48:49.999Z</time></trkpt><trkpt lat="45.60454868002954" lon="8.219027973707018"><ele>366.0</ele><time>2026-04-06T11:48:50.999Z</time></trkpt><trkpt lat="45.60448023895726" lon="8.2191031631717"><ele>364.3333333333333</ele><time>2026-04-06T11:48:51.999Z</time></trkpt><trkpt lat="45.604405341938666" lon="8.21916932177208"><ele>362.6666666666667</ele><time>2026-04-06T11:48:52.999Z</time></trkpt><trkpt lat="45.60432740980908" lon="8.219216025981307"><ele>361.0</ele><time>2026-04-06T11:48:54Z</time></trkpt><trkpt lat="45.60424174038594" lon="8.219226971742856"><ele>359.33333333333337</ele><time>2026-04-06T11:48:55Z</time></trkpt><trkpt lat="45.60416058537389" lon="8.219258065530829"><ele>357.6666666666667</ele><time>2026-04-06T11:48:56Z</time></trkpt><trkpt lat="45.60409084182583" lon="8.21934366018017"><ele>356.0</ele><time>2026-04-06T11:48:57Z</time></trkpt><trkpt lat="45.60403192666669" lon="8.21944028559643"><ele>356.0</ele><time>2026-04-06T11:48:57.999Z</time></trkpt><trkpt lat="45.603962157666516" lon="8.219536120967032"><ele>356.0</ele><time>2026-04-06T11:48:58.999Z</time></trkpt><trkpt lat="45.603879100392064" lon="8.219636035274096"><ele>356.0</ele><time>2026-04-06T11:48:59.999Z</time></trkpt><trkpt lat="45.60379327464686" lon="8.219756582246495"><ele>356.0</ele><time>2026-04-06T11:49:00.999Z</time></trkpt><trkpt lat="45.60373076727486" lon="8.219865886410458"><ele>356.0</ele><time>2026-04-06T11:49:01.999Z</time></trkpt><trkpt lat="45.60369122858024" lon="8.219971973664624"><ele>354.83333333333337</ele><time>2026-04-06T11:49:02.999Z</time></trkpt><trkpt lat="45.60366265776487" lon="8.220070904638128"><ele>353.6666666666667</ele><time>2026-04-06T11:49:03.999Z</time></trkpt><trkpt lat="45.603623887571395" lon="8.220151987241433"><ele>352.5</ele><time>2026-04-06T11:49:04.999Z</time></trkpt><trkpt lat="45.60355765557159" lon="8.220209692765833"><ele>351.3333333333333</ele><time>2026-04-06T11:49:05.999Z</time></trkpt><trkpt lat="45.60348136137897" lon="8.220296025547944"><ele>350.16666666666663</ele><time>2026-04-06T11:49:06.999Z</time></trkpt><trkpt lat="45.603434780081265" lon="8.220441101636622"><ele>349.0</ele><time>2026-04-06T11:49:07.999Z</time></trkpt><trkpt lat="45.603397177034836" lon="8.2206013342092"><ele>349.6</ele><time>2026-04-06T11:49:08.999Z</time></trkpt><trkpt lat="45.603359658258064" lon="8.220723439168514"><ele>350.2</ele><time>2026-04-06T11:49:09.999Z</time></trkpt><trkpt lat="45.603305328081404" lon="8.220841667428248"><ele>350.8</ele><time>2026-04-06T11:49:10.999Z</time></trkpt><trkpt lat="45.60324904505928" lon="8.220971916270452"><ele>351.40000000000003</ele><time>2026-04-06T11:49:11.999Z</time></trkpt><trkpt lat="45.60320707759417" lon="8.221076374850007"><ele>352.0</ele><time>2026-04-06T11:49:12.999Z</time></trkpt><trkpt lat="45.603184184886935" lon="8.221176079369242"><ele>352.0</ele><time>2026-04-06T11:49:13.999Z</time></trkpt><trkpt lat="45.603193286711374" lon="8.221278321950791"><ele>352.0</ele><time>2026-04-06T11:49:14.999Z</time></trkpt><trkpt lat="45.603211084952804" lon="8.22137075170825"><ele>352.0</ele><time>2026-04-06T11:49:15.999Z</time></trkpt><trkpt lat="45.60320673724068" lon="8.221475363788981"><ele>352.0</ele><time>2026-04-06T11:49:16.999Z</time></trkpt><trkpt lat="45.603162773890354" lon="8.221614298120643"><ele>352.0</ele><time>2026-04-06T11:49:17.999Z</time></trkpt><trkpt lat="45.60314539586217" lon="8.221780040193481"><ele>352.0</ele><time>2026-04-06T11:49:18.999Z</time></trkpt><trkpt lat="45.60312413329497" lon="8.221924500242814"><ele>352.0</ele><time>2026-04-06T11:49:19.999Z</time></trkpt><trkpt lat="45.60311582755539" lon="8.22206090696305"><ele>352.0</ele><time>2026-04-06T11:49:20.999Z</time></trkpt><trkpt lat="45.60309148619047" lon="8.222187804878363"><ele>352.0</ele><time>2026-04-06T11:49:21.999Z</time></trkpt><trkpt lat="45.603050593470854" lon="8.222314680312374"><ele>352.0</ele><time>2026-04-06T11:49:22.999Z</time></trkpt><trkpt lat="45.60300508634135" lon="8.222425036659816"><ele>352.0</ele><time>2026-04-06T11:49:23.999Z</time></trkpt><trkpt lat="45.60296072254334" lon="8.222526395070517"><ele>350.8</ele><time>2026-04-06T11:49:24.999Z</time></trkpt><trkpt lat="45.60293770788165" lon="8.222675149937052"><ele>349.6</ele><time>2026-04-06T11:49:25.999Z</time></trkpt><trkpt lat="45.60290902655178" lon="8.222819036942358"><ele>348.40000000000003</ele><time>2026-04-06T11:49:26.999Z</time></trkpt><trkpt lat="45.602876822434204" lon="8.222946024724887"><ele>347.20000000000005</ele><time>2026-04-06T11:49:27.999Z</time></trkpt><trkpt lat="45.602850290413336" lon="8.223067925964706"><ele>346.0</ele><time>2026-04-06T11:49:28.999Z</time></trkpt><trkpt lat="45.602812534246844" lon="8.223188388699706"><ele>345.3333333333333</ele><time>2026-04-06T11:49:29.999Z</time></trkpt><trkpt lat="45.60275774030407" lon="8.223281403313017"><ele>344.66666666666663</ele><time>2026-04-06T11:49:30.999Z</time></trkpt><trkpt lat="45.60268261716961" lon="8.223366338320941"><ele>344.0</ele><time>2026-04-06T11:49:31.999Z</time></trkpt><trkpt lat="45.60261991805543" lon="8.22344989606313"><ele>343.3333333333333</ele><time>2026-04-06T11:49:32.999Z</time></trkpt><trkpt lat="45.60257234427649" lon="8.22355653834996"><ele>342.6666666666667</ele><time>2026-04-06T11:49:33.999Z</time></trkpt><trkpt lat="45.602528816420914" lon="8.223665171849449"><ele>342.0</ele><time>2026-04-06T11:49:34.999Z</time></trkpt><trkpt lat="45.60247552370407" lon="8.223753064942702"><ele>342.0</ele><time>2026-04-06T11:49:35.999Z</time></trkpt><trkpt lat="45.6024281258381" lon="8.223860095736415"><ele>342.0</ele><time>2026-04-06T11:49:36.999Z</time></trkpt><trkpt lat="45.60239598553206" lon="8.22398776181122"><ele>342.0</ele><time>2026-04-06T11:49:37.999Z</time></trkpt><trkpt lat="45.60237878411248" lon="8.224142580275505"><ele>342.0</ele><time>2026-04-06T11:49:38.999Z</time></trkpt><trkpt lat="45.602347246697505" lon="8.224260429785838"><ele>342.0</ele><time>2026-04-06T11:49:39.999Z</time></trkpt><trkpt lat="45.60230096732184" lon="8.224377861326381"><ele>341.3333333333333</ele><time>2026-04-06T11:49:40.999Z</time></trkpt><trkpt lat="45.60226976753242" lon="8.22449346628879"><ele>340.6666666666667</ele><time>2026-04-06T11:49:41.999Z</time></trkpt><trkpt lat="45.60226562258758" lon="8.224623818280088"><ele>340.0</ele><time>2026-04-06T11:49:42.999Z</time></trkpt><trkpt lat="45.60225950095315" lon="8.22475556911346"><ele>339.33333333333337</ele><time>2026-04-06T11:49:43.999Z</time></trkpt><trkpt lat="45.602244121993905" lon="8.224851715063032"><ele>338.6666666666667</ele><time>2026-04-06T11:49:44.999Z</time></trkpt><trkpt lat="45.60220871119528" lon="8.22495328728437"><ele>338.0</ele><time>2026-04-06T11:49:46.999Z</time></trkpt><trkpt lat="45.60215828650624" lon="8.225016206727325"><ele>336.42857142857144</ele><time>2026-04-06T11:49:49.999Z</time></trkpt><trkpt lat="45.602114548079065" lon="8.225094619671772"><ele>334.85714285714283</ele><time>2026-04-06T11:50:12.999Z</time></trkpt><trkpt lat="45.602052095476786" lon="8.225150934986582"><ele>333.2857142857143</ele><time>2026-04-06T11:50:17.999Z</time></trkpt><trkpt lat="45.60199973096022" lon="8.225215727987491"><ele>331.7142857142857</ele><time>2026-04-06T11:50:20.999Z</time></trkpt><trkpt lat="45.60194000565935" lon="8.22525618585938"><ele>330.14285714285717</ele><time>2026-04-06T11:50:23.999Z</time></trkpt><trkpt lat="45.60186398186886" lon="8.225280351912872"><ele>328.57142857142856</ele><time>2026-04-06T11:50:26.998Z</time></trkpt><trkpt lat="45.601779722960835" lon="8.225261455873708"><ele>327.0</ele><time>2026-04-06T11:50:28.998Z</time></trkpt><trkpt lat="45.60170403067116" lon="8.225241325009565"><ele>326.1666666666667</ele><time>2026-04-06T11:50:30.998Z</time></trkpt><trkpt lat="45.60162950111316" lon="8.225256309525088"><ele>325.3333333333333</ele><time>2026-04-06T11:50:32.998Z</time></trkpt><trkpt lat="45.601642879420076" lon="8.225346516070585"><ele>324.5</ele><time>2026-04-06T11:50:36.998Z</time></trkpt><trkpt lat="45.60170861336576" lon="8.225376811415174"><ele>323.66666666666663</ele><time>2026-04-06T11:50:39.998Z</time></trkpt><trkpt lat="45.60178746658324" lon="8.225456267594696"><ele>322.8333333333333</ele><time>2026-04-06T11:50:42.998Z</time></trkpt><trkpt lat="45.601849765113585" lon="8.225507948486639"><ele>322.0</ele><time>2026-04-06T11:50:44.998Z</time></trkpt><trkpt lat="45.60193165350116" lon="8.225550654283076"><ele>322.7142857142857</ele><time>2026-04-06T11:50:47.999Z</time></trkpt><trkpt lat="45.6020085494865" lon="8.225577889436943"><ele>323.42857142857144</ele><time>2026-04-06T11:50:50.999Z</time></trkpt><trkpt lat="45.60203909122363" lon="8.225660533110686"><ele>324.1428571428571</ele><time>2026-04-06T11:50:53.999Z</time></trkpt><trkpt lat="45.60210454846155" lon="8.225730978059897"><ele>324.8571428571429</ele><time>2026-04-06T11:50:57Z</time></trkpt><trkpt lat="45.602161404488804" lon="8.225685748544713"><ele>325.57142857142856</ele><time>2026-04-06T11:50:59Z</time></trkpt><trkpt lat="45.60222965303138" lon="8.225621968276403"><ele>326.2857142857143</ele><time>2026-04-06T11:51:03Z</time></trkpt><trkpt lat="45.602157639829066" lon="8.225645738862935"><ele>327.0</ele><time>2026-04-06T11:51:45.999Z</time></trkpt><trkpt lat="45.60209767936111" lon="8.225678610411"><ele>324.6</ele><time>2026-04-06T11:51:47.999Z</time></trkpt><trkpt lat="45.602030687863596" lon="8.225661380928921"><ele>322.20000000000005</ele><time>2026-04-06T11:51:51.999Z</time></trkpt><trkpt lat="45.60194085777515" lon="8.225690799690357"><ele>319.8</ele><time>2026-04-06T11:51:54.999Z</time></trkpt><trkpt lat="45.60185331942941" lon="8.225703145635627"><ele>317.4</ele><time>2026-04-06T11:51:56.999Z</time></trkpt><trkpt lat="45.60175817183337" lon="8.225726800377378"><ele>315.0</ele><time>2026-04-06T11:51:58.999Z</time></trkpt><trkpt lat="45.60169734891837" lon="8.225849267108112"><ele>315.0</ele><time>2026-04-06T11:52:00.999Z</time></trkpt><trkpt lat="45.60170343738974" lon="8.226028245805637"><ele>315.0</ele><time>2026-04-06T11:52:02.999Z</time></trkpt><trkpt lat="45.60171496150698" lon="8.226203471661604"><ele>315.0</ele><time>2026-04-06T11:52:04.999Z</time></trkpt><trkpt lat="45.601691943106644" lon="8.226367106861753"><ele>315.0</ele><time>2026-04-06T11:52:06.999Z</time></trkpt><trkpt lat="45.601628741739106" lon="8.226521463070615"><ele>313.14285714285717</ele><time>2026-04-06T11:52:08.999Z</time></trkpt><trkpt lat="45.60157592767731" lon="8.22659325160587"><ele>311.2857142857143</ele><time>2026-04-06T11:52:09.999Z</time></trkpt><trkpt lat="45.60152258155141" lon="8.226665153588161"><ele>309.42857142857144</ele><time>2026-04-06T11:52:10.999Z</time></trkpt><trkpt lat="45.60146159452424" lon="8.226718452759302"><ele>307.57142857142856</ele><time>2026-04-06T11:52:11.999Z</time></trkpt><trkpt lat="45.60139901596169" lon="8.2267732733101"><ele>305.7142857142857</ele><time>2026-04-06T11:52:12.999Z</time></trkpt><trkpt lat="45.6013341085192" lon="8.226828041637662"><ele>303.8571428571429</ele><time>2026-04-06T11:52:13.999Z</time></trkpt><trkpt lat="45.60125890935779" lon="8.226846985809937"><ele>302.0</ele><time>2026-04-06T11:52:14.999Z</time></trkpt><trkpt lat="45.6011890632369" lon="8.226877943136618"><ele>301.28571428571433</ele><time>2026-04-06T11:52:15.999Z</time></trkpt><trkpt lat="45.601127810829645" lon="8.226918027513905"><ele>300.57142857142856</ele><time>2026-04-06T11:52:16.999Z</time></trkpt><trkpt lat="45.601054223619265" lon="8.226921763772998"><ele>299.8571428571429</ele><time>2026-04-06T11:52:17.999Z</time></trkpt><trkpt lat="45.60097728521292" lon="8.226920450920037"><ele>299.14285714285717</ele><time>2026-04-06T11:52:18.999Z</time></trkpt><trkpt lat="45.60090534267647" lon="8.22691541697266"><ele>298.42857142857144</ele><time>2026-04-06T11:52:19.999Z</time></trkpt><trkpt lat="45.600841590237515" lon="8.226891324552966"><ele>297.7142857142857</ele><time>2026-04-06T11:52:20.999Z</time></trkpt><trkpt lat="45.60077355664943" lon="8.226851806743102"><ele>297.0</ele><time>2026-04-06T11:52:21.999Z</time></trkpt><trkpt lat="45.60072164918034" lon="8.226799639551428"><ele>297.0</ele><time>2026-04-06T11:52:22.999Z</time></trkpt><trkpt lat="45.60064797333917" lon="8.226679011608184"><ele>297.0</ele><time>2026-04-06T11:52:24.999Z</time></trkpt><trkpt lat="45.60062790423493" lon="8.226552749270336"><ele>297.0</ele><time>2026-04-06T11:52:26.999Z</time></trkpt><trkpt lat="45.60064825659103" lon="8.226405451837165"><ele>297.0</ele><time>2026-04-06T11:52:28.999Z</time></trkpt><trkpt lat="45.60065255470073" lon="8.226274606593478"><ele>297.0</ele><time>2026-04-06T11:52:30.999Z</time></trkpt><trkpt lat="45.600639101461034" lon="8.226131700285002"><ele>298.4</ele><time>2026-04-06T11:52:32.999Z</time></trkpt><trkpt lat="45.60057520880475" lon="8.225992623445267"><ele>299.79999999999995</ele><time>2026-04-06T11:52:34.999Z</time></trkpt><trkpt lat="45.60051529863064" lon="8.225944641411632"><ele>301.2</ele><time>2026-04-06T11:52:35.999Z</time></trkpt><trkpt lat="45.60043287730941" lon="8.225854993450117"><ele>302.59999999999997</ele><time>2026-04-06T11:52:37.999Z</time></trkpt><trkpt lat="45.600356088297396" lon="8.22573746517801"><ele>304.0</ele><time>2026-04-06T11:52:39.998Z</time></trkpt><trkpt lat="45.60031794608233" lon="8.225606050434182"><ele>303.8333333333333</ele><time>2026-04-06T11:52:41.998Z</time></trkpt><trkpt lat="45.600339443490164" lon="8.225471188691444"><ele>303.66666666666663</ele><time>2026-04-06T11:52:43.998Z</time></trkpt><trkpt lat="45.60036474538542" lon="8.225367449033262"><ele>303.5</ele><time>2026-04-06T11:52:45.998Z</time></trkpt><trkpt lat="45.60031806045719" lon="8.225306688821316"><ele>303.3333333333333</ele><time>2026-04-06T11:52:46.998Z</time></trkpt><trkpt lat="45.6002288839021" lon="8.225384076461483"><ele>303.1666666666667</ele><time>2026-04-06T11:52:47.998Z</time></trkpt><trkpt lat="45.60021992136421" lon="8.225526543197121"><ele>303.0</ele><time>2026-04-06T11:52:48.998Z</time></trkpt><trkpt lat="45.60018434612807" lon="8.225694207960744"><ele>299.0</ele><time>2026-04-06T11:52:49.998Z</time></trkpt><trkpt lat="45.60016540558655" lon="8.225846757252318"><ele>295.0</ele><time>2026-04-06T11:52:50.998Z</time></trkpt><trkpt lat="45.60016851863411" lon="8.225961599115664"><ele>291.0</ele><time>2026-04-06T11:52:51.998Z</time></trkpt><trkpt lat="45.600177085175396" lon="8.22606870073211"><ele>287.0</ele><time>2026-04-06T11:52:53Z</time></trkpt><trkpt lat="45.60022085813998" lon="8.22616702940058"><ele>283.0</ele><time>2026-04-06T11:52:54Z</time></trkpt><trkpt lat="45.60027104470543" lon="8.226246258209754"><ele>279.0</ele><time>2026-04-06T11:52:55Z</time></trkpt><trkpt lat="45.60021711533222" lon="8.226334245370893"><ele>279.0</ele><time>2026-04-06T11:52:57Z</time></trkpt><trkpt lat="45.60015265027288" lon="8.226303432285121"><ele>279.0</ele><time>2026-04-06T11:52:58Z</time></trkpt><trkpt lat="45.60010275950264" lon="8.226231090758882"><ele>279.0</ele><time>2026-04-06T11:52:59Z</time></trkpt><trkpt lat="45.600003974279566" lon="8.226169912122135"><ele>279.0</ele><time>2026-04-06T11:53:00Z</time></trkpt><trkpt lat="45.59992211498946" lon="8.226094779189888"><ele>279.0</ele><time>2026-04-06T11:53:01Z</time></trkpt><trkpt lat="45.599854565437205" lon="8.226081158074843"><ele>279.0</ele><time>2026-04-06T11:53:02Z</time></trkpt><trkpt lat="45.599800604100786" lon="8.226269803561328"><ele>279.0</ele><time>2026-04-06T11:53:04Z</time></trkpt><trkpt lat="45.59982977906054" lon="8.226389826901409"><ele>279.0</ele><time>2026-04-06T11:53:05Z</time></trkpt><trkpt lat="45.599873298146925" lon="8.226508071560877"><ele>279.0</ele><time>2026-04-06T11:53:06Z</time></trkpt><trkpt lat="45.599902204112915" lon="8.22662020598408"><ele>279.0</ele><time>2026-04-06T11:53:07Z</time></trkpt><trkpt lat="45.59992348955128" lon="8.226733778166444"><ele>279.0</ele><time>2026-04-06T11:53:08Z</time></trkpt><trkpt lat="45.59992830423288" lon="8.22683819153368"><ele>279.0</ele><time>2026-04-06T11:53:09Z</time></trkpt><trkpt lat="45.59989099509336" lon="8.22698642263024"><ele>278.0</ele><time>2026-04-06T11:53:11Z</time></trkpt><trkpt lat="45.599791198195305" lon="8.2269149398293"><ele>277.0</ele><time>2026-04-06T11:53:14Z</time></trkpt><trkpt lat="45.59975275970886" lon="8.227031146026345"><ele>276.0</ele><time>2026-04-06T11:53:17Z</time></trkpt><trkpt lat="45.59983127103201" lon="8.22712371748059"><ele>275.0</ele><time>2026-04-06T11:53:19Z</time></trkpt><trkpt lat="45.59985810138339" lon="8.227241514165565"><ele>274.0</ele><time>2026-04-06T11:53:21Z</time></trkpt><trkpt lat="45.59982353638461" lon="8.227371731539241"><ele>272.8</ele><time>2026-04-06T11:53:23Z</time></trkpt><trkpt lat="45.59981689686904" lon="8.227507753205781"><ele>271.59999999999997</ele><time>2026-04-06T11:53:24.999Z</time></trkpt><trkpt lat="45.59987903015917" lon="8.227598355610514"><ele>270.4</ele><time>2026-04-06T11:53:26.999Z</time></trkpt><trkpt lat="45.59994338292724" lon="8.227643017433621"><ele>269.2</ele><time>2026-04-06T11:53:28.999Z</time></trkpt><trkpt lat="45.600029754834175" lon="8.227679681266054"><ele>268.0</ele><time>2026-04-06T11:53:30.999Z</time></trkpt><trkpt lat="45.60013615723808" lon="8.227728884891183"><ele>268.0</ele><time>2026-04-06T11:53:32.999Z</time></trkpt><trkpt lat="45.60020072103371" lon="8.227760298925633"><ele>268.0</ele><time>2026-04-06T11:53:33.999Z</time></trkpt><trkpt lat="45.60029616084215" lon="8.227814029325025"><ele>268.0</ele><time>2026-04-06T11:53:34.999Z</time></trkpt><trkpt lat="45.600394249797944" lon="8.227902008930334"><ele>268.0</ele><time>2026-04-06T11:53:35.999Z</time></trkpt><trkpt lat="45.60048075005478" lon="8.227987402434822"><ele>268.0</ele><time>2026-04-06T11:53:36.999Z</time></trkpt><trkpt lat="45.60051624382446" lon="8.228068786963316"><ele>268.0</ele><time>2026-04-06T11:53:37.999Z</time></trkpt><trkpt lat="45.600572507811314" lon="8.228180732012362"><ele>268.0</ele><time>2026-04-06T11:53:38.999Z</time></trkpt><trkpt lat="45.60063473753357" lon="8.228276344270313"><ele>268.0</ele><time>2026-04-06T11:53:39.999Z</time></trkpt><trkpt lat="45.600686813495024" lon="8.228372295555712"><ele>268.0</ele><time>2026-04-06T11:53:40.999Z</time></trkpt><trkpt lat="45.60074526660991" lon="8.228475231078672"><ele>268.0</ele><time>2026-04-06T11:53:41.999Z</time></trkpt><trkpt lat="45.6008075499314" lon="8.228555386060709"><ele>268.0</ele><time>2026-04-06T11:53:42.999Z</time></trkpt><trkpt lat="45.60088551229419" lon="8.228598182077999"><ele>268.0</ele><time>2026-04-06T11:53:43.999Z</time></trkpt><trkpt lat="45.60098831769599" lon="8.228629868454856"><ele>268.0</ele><time>2026-04-06T11:53:45.999Z</time></trkpt><trkpt lat="45.60102796158144" lon="8.228706869006846"><ele>268.0</ele><time>2026-04-06T11:53:47.999Z</time></trkpt><trkpt lat="45.601011477122505" lon="8.228904834412889"><ele>268.0</ele><time>2026-04-06T11:54:04.999Z</time></trkpt><trkpt lat="45.60103840588332" lon="8.229181431769597"><ele>268.66666666666663</ele><time>2026-04-06T11:54:07.999Z</time></trkpt><trkpt lat="45.601032307335046" lon="8.229280370335635"><ele>269.3333333333333</ele><time>2026-04-06T11:54:08.999Z</time></trkpt><trkpt lat="45.60103582141348" lon="8.22941765403992"><ele>270.0</ele><time>2026-04-06T11:54:09.999Z</time></trkpt><trkpt lat="45.60105784192229" lon="8.22955106356452"><ele>270.6666666666667</ele><time>2026-04-06T11:54:10.999Z</time></trkpt><trkpt lat="45.601066541753966" lon="8.229656945514122"><ele>271.33333333333337</ele><time>2026-04-06T11:54:11.999Z</time></trkpt><trkpt lat="45.60104404313609" lon="8.229765173734908"><ele>272.0</ele><time>2026-04-06T11:54:12.999Z</time></trkpt><trkpt lat="45.60100583204607" lon="8.229860406657004"><ele>273.0</ele><time>2026-04-06T11:54:13.999Z</time></trkpt><trkpt lat="45.600962877162566" lon="8.229950181003316"><ele>274.0</ele><time>2026-04-06T11:54:14.999Z</time></trkpt><trkpt lat="45.600949246834936" lon="8.23004430918506"><ele>275.0</ele><time>2026-04-06T11:54:15.999Z</time></trkpt><trkpt lat="45.60091203890316" lon="8.230153904298142"><ele>276.0</ele><time>2026-04-06T11:54:16.999Z</time></trkpt><trkpt lat="45.60087572085593" lon="8.230276509236102"><ele>277.0</ele><time>2026-04-06T11:54:17.999Z</time></trkpt><trkpt lat="45.600850287443876" lon="8.230409822784129"><ele>278.0</ele><time>2026-04-06T11:54:18.999Z</time></trkpt><trkpt lat="45.60083561758114" lon="8.230537889476132"><ele>279.2</ele><time>2026-04-06T11:54:19.999Z</time></trkpt><trkpt lat="45.60080695997394" lon="8.230660518066232"><ele>280.4</ele><time>2026-04-06T11:54:20.999Z</time></trkpt><trkpt lat="45.60074552254859" lon="8.23079824788355"><ele>281.59999999999997</ele><time>2026-04-06T11:54:21.999Z</time></trkpt><trkpt lat="45.600679631376565" lon="8.230947350488753"><ele>282.8</ele><time>2026-04-06T11:54:22.999Z</time></trkpt><trkpt lat="45.60062854092119" lon="8.231066195914664"><ele>284.0</ele><time>2026-04-06T11:54:23.999Z</time></trkpt><trkpt lat="45.600581979833365" lon="8.231183755078648"><ele>284.0</ele><time>2026-04-06T11:54:25.999Z</time></trkpt><trkpt lat="45.60062111956808" lon="8.231266501779146"><ele>284.0</ele><time>2026-04-06T11:54:26.999Z</time></trkpt><trkpt lat="45.600699655404675" lon="8.23131609503341"><ele>284.0</ele><time>2026-04-06T11:54:27.999Z</time></trkpt><trkpt lat="45.60075807319165" lon="8.23140247295737"><ele>284.0</ele><time>2026-04-06T11:54:29.999Z</time></trkpt><trkpt lat="45.600811264710984" lon="8.231463499254442"><ele>284.0</ele><time>2026-04-06T11:54:30.999Z</time></trkpt><trkpt lat="45.600882713679255" lon="8.23151162865806"><ele>284.0</ele><time>2026-04-06T11:54:31.999Z</time></trkpt><trkpt lat="45.600981091214386" lon="8.231565995116547"><ele>284.59999999999997</ele><time>2026-04-06T11:54:32.999Z</time></trkpt><trkpt lat="45.60108502990245" lon="8.231614186332937"><ele>285.2</ele><time>2026-04-06T11:54:33.999Z</time></trkpt><trkpt lat="45.60118171846147" lon="8.231682653235417"><ele>285.79999999999995</ele><time>2026-04-06T11:54:34.999Z</time></trkpt><trkpt lat="45.60126319282121" lon="8.231734293114007"><ele>286.4</ele><time>2026-04-06T11:54:35.999Z</time></trkpt><trkpt lat="45.601334071822635" lon="8.231786112873836"><ele>287.0</ele><time>2026-04-06T11:54:36.999Z</time></trkpt><trkpt lat="45.60141333663731" lon="8.231814467569867"><ele>287.0</ele><time>2026-04-06T11:54:37.999Z</time></trkpt><trkpt lat="45.601508076216135" lon="8.23188755159128"><ele>287.0</ele><time>2026-04-06T11:54:38.999Z</time></trkpt><trkpt lat="45.60160580721307" lon="8.232023029575577"><ele>287.0</ele><time>2026-04-06T11:54:39.999Z</time></trkpt><trkpt lat="45.6016863280865" lon="8.232134703042039"><ele>287.0</ele><time>2026-04-06T11:54:40.999Z</time></trkpt><trkpt lat="45.60176432339271" lon="8.232214026805954"><ele>287.0</ele><time>2026-04-06T11:54:41.999Z</time></trkpt><trkpt lat="45.60185243376789" lon="8.232283384110135"><ele>287.0</ele><time>2026-04-06T11:54:42.999Z</time></trkpt><trkpt lat="45.60192797685075" lon="8.232362924335776"><ele>287.0</ele><time>2026-04-06T11:54:43.999Z</time></trkpt><trkpt lat="45.60200675645039" lon="8.232462604438233"><ele>287.0</ele><time>2026-04-06T11:54:44.999Z</time></trkpt><trkpt lat="45.602081252201096" lon="8.232541269847278"><ele>287.0</ele><time>2026-04-06T11:54:45.999Z</time></trkpt><trkpt lat="45.60213879480344" lon="8.232610128213615"><ele>289.0</ele><time>2026-04-06T11:54:46.999Z</time></trkpt><trkpt lat="45.60219987863819" lon="8.23263340459274"><ele>291.0</ele><time>2026-04-06T11:54:47.999Z</time></trkpt><trkpt lat="45.60230723843441" lon="8.232599469576012"><ele>293.0</ele><time>2026-04-06T11:54:49.999Z</time></trkpt><trkpt lat="45.602359813511825" lon="8.232683765211274"><ele>295.0</ele><time>2026-04-06T11:54:50.998Z</time></trkpt><trkpt lat="45.60239810408663" lon="8.232792586136439"><ele>297.0</ele><time>2026-04-06T11:54:51.998Z</time></trkpt><trkpt lat="45.60244882897753" lon="8.23289956506152"><ele>299.0</ele><time>2026-04-06T11:54:52.998Z</time></trkpt><trkpt lat="45.60252469551727" lon="8.233004498758978"><ele>299.0</ele><time>2026-04-06T11:54:53.998Z</time></trkpt><trkpt lat="45.60259737089483" lon="8.233095540172773"><ele>299.0</ele><time>2026-04-06T11:54:54.998Z</time></trkpt><trkpt lat="45.60265350490458" lon="8.233213013131197"><ele>299.0</ele><time>2026-04-06T11:54:55.998Z</time></trkpt><trkpt lat="45.60270471509222" lon="8.2333045705046"><ele>299.0</ele><time>2026-04-06T11:54:56.998Z</time></trkpt><trkpt lat="45.60277515926035" lon="8.233380799986572"><ele>299.0</ele><time>2026-04-06T11:54:57.998Z</time></trkpt><trkpt lat="45.60284219424395" lon="8.233429649178705"><ele>299.0</ele><time>2026-04-06T11:54:59Z</time></trkpt><trkpt lat="45.60291840236207" lon="8.233440965716417"><ele>301.33333333333337</ele><time>2026-04-06T11:55:00Z</time></trkpt><trkpt lat="45.602997791516806" lon="8.23345844008887"><ele>303.6666666666667</ele><time>2026-04-06T11:55:01Z</time></trkpt><trkpt lat="45.60309478691633" lon="8.233488429071823"><ele>306.0</ele><time>2026-04-06T11:55:02Z</time></trkpt><trkpt lat="45.603169836280685" lon="8.233512709580564"><ele>308.3333333333333</ele><time>2026-04-06T11:55:03Z</time></trkpt><trkpt lat="45.60324143705792" lon="8.23357176554452"><ele>310.66666666666663</ele><time>2026-04-06T11:55:04Z</time></trkpt><trkpt lat="45.6033253158492" lon="8.23363561594507"><ele>313.0</ele><time>2026-04-06T11:55:05Z</time></trkpt><trkpt lat="45.60338755556999" lon="8.233693986493359"><ele>313.0</ele><time>2026-04-06T11:55:06Z</time></trkpt><trkpt lat="45.603456329688804" lon="8.233752076946976"><ele>313.0</ele><time>2026-04-06T11:55:07Z</time></trkpt><trkpt lat="45.60353942809203" lon="8.233826634689358"><ele>313.0</ele><time>2026-04-06T11:55:08Z</time></trkpt><trkpt lat="45.603646221614376" lon="8.233896180067553"><ele>313.0</ele><time>2026-04-06T11:55:09Z</time></trkpt><trkpt lat="45.60374652828692" lon="8.233905754131515"><ele>313.0</ele><time>2026-04-06T11:55:10Z</time></trkpt><trkpt lat="45.60381596222655" lon="8.233894313336219"><ele>314.1428571428571</ele><time>2026-04-06T11:55:11Z</time></trkpt><trkpt lat="45.603883602009326" lon="8.2338855068246"><ele>315.2857142857143</ele><time>2026-04-06T11:55:12Z</time></trkpt><trkpt lat="45.603955705170634" lon="8.233853417590197"><ele>316.42857142857144</ele><time>2026-04-06T11:55:13Z</time></trkpt><trkpt lat="45.604036632605194" lon="8.233842063005087"><ele>317.57142857142856</ele><time>2026-04-06T11:55:14Z</time></trkpt><trkpt lat="45.60409761205614" lon="8.233867876340398"><ele>318.7142857142857</ele><time>2026-04-06T11:55:15Z</time></trkpt><trkpt lat="45.60412442470397" lon="8.233953846764384"><ele>319.85714285714283</ele><time>2026-04-06T11:55:16Z</time></trkpt><trkpt lat="45.60416902804513" lon="8.234042579169731"><ele>321.0</ele><time>2026-04-06T11:55:17Z</time></trkpt><trkpt lat="45.604235095022425" lon="8.234131419345424"><ele>321.1666666666667</ele><time>2026-04-06T11:55:18Z</time></trkpt><trkpt lat="45.60427309416762" lon="8.234256105965287"><ele>321.3333333333333</ele><time>2026-04-06T11:55:19Z</time></trkpt><trkpt lat="45.60427914539335" lon="8.234368093935378"><ele>321.5</ele><time>2026-04-06T11:55:20Z</time></trkpt><trkpt lat="45.60427995736979" lon="8.234460934297502"><ele>321.66666666666663</ele><time>2026-04-06T11:55:21Z</time></trkpt><trkpt lat="45.604319978227664" lon="8.23455957915345"><ele>321.8333333333333</ele><time>2026-04-06T11:55:22Z</time></trkpt><trkpt lat="45.604391812704826" lon="8.23463213746963"><ele>322.0</ele><time>2026-04-06T11:55:23Z</time></trkpt><trkpt lat="45.60448016013701" lon="8.234729371930428"><ele>324.6</ele><time>2026-04-06T11:55:24Z</time></trkpt><trkpt lat="45.60455918889713" lon="8.234831102070382"><ele>327.20000000000005</ele><time>2026-04-06T11:55:25Z</time></trkpt><trkpt lat="45.60462760852085" lon="8.23493478177685"><ele>329.8</ele><time>2026-04-06T11:55:26Z</time></trkpt><trkpt lat="45.604683167407" lon="8.235041283549167"><ele>332.4</ele><time>2026-04-06T11:55:27Z</time></trkpt><trkpt lat="45.6047245881256" lon="8.235169078505601"><ele>335.0</ele><time>2026-04-06T11:55:27.999Z</time></trkpt><trkpt lat="45.60474739510604" lon="8.235280057444111"><ele>335.0</ele><time>2026-04-06T11:55:28.999Z</time></trkpt><trkpt lat="45.60477186234605" lon="8.235409803800854"><ele>335.0</ele><time>2026-04-06T11:55:29.999Z</time></trkpt><trkpt lat="45.604843843329256" lon="8.235503341061987"><ele>335.0</ele><time>2026-04-06T11:55:30.999Z</time></trkpt><trkpt lat="45.60494559281566" lon="8.235588037706453"><ele>335.0</ele><time>2026-04-06T11:55:31.999Z</time></trkpt><trkpt lat="45.60504726012931" lon="8.235678793729473"><ele>335.0</ele><time>2026-04-06T11:55:32.999Z</time></trkpt><trkpt lat="45.60514952489319" lon="8.235758929679545"><ele>334.83333333333337</ele><time>2026-04-06T11:55:33.999Z</time></trkpt><trkpt lat="45.60523913428466" lon="8.23582006067684"><ele>334.6666666666667</ele><time>2026-04-06T11:55:34.999Z</time></trkpt><trkpt lat="45.60532060219232" lon="8.23586695038235"><ele>334.5</ele><time>2026-04-06T11:55:35.999Z</time></trkpt><trkpt lat="45.605395124302845" lon="8.235888187486433"><ele>334.3333333333333</ele><time>2026-04-06T11:55:36.999Z</time></trkpt><trkpt lat="45.60548122810706" lon="8.235883326459652"><ele>334.16666666666663</ele><time>2026-04-06T11:55:37.999Z</time></trkpt><trkpt lat="45.60557395922666" lon="8.235865115164087"><ele>334.0</ele><time>2026-04-06T11:55:38.999Z</time></trkpt><trkpt lat="45.6056763360066" lon="8.235855781623064"><ele>335.0</ele><time>2026-04-06T11:55:39.999Z</time></trkpt><trkpt lat="45.605767264870806" lon="8.235846676739506"><ele>336.0</ele><time>2026-04-06T11:55:40.999Z</time></trkpt><trkpt lat="45.60585885480561" lon="8.235846457407106"><ele>337.0</ele><time>2026-04-06T11:55:41.999Z</time></trkpt><trkpt lat="45.605946862352226" lon="8.235844143128876"><ele>338.0</ele><time>2026-04-06T11:55:42.999Z</time></trkpt><trkpt lat="45.60602111739998" lon="8.23584395033713"><ele>339.0</ele><time>2026-04-06T11:55:43.999Z</time></trkpt><trkpt lat="45.60602755448322" lon="8.235971817451912"><ele>340.0</ele><time>2026-04-06T11:55:45.999Z</time></trkpt><trkpt lat="45.60600445046505" lon="8.236113449283613"><ele>340.0</ele><time>2026-04-06T11:55:46.999Z</time></trkpt><trkpt lat="45.60599308417995" lon="8.23628524266662"><ele>340.0</ele><time>2026-04-06T11:55:47.999Z</time></trkpt><trkpt lat="45.60598227832806" lon="8.236421898460883"><ele>340.0</ele><time>2026-04-06T11:55:48.999Z</time></trkpt><trkpt lat="45.60596385244473" lon="8.236510734105323"><ele>340.0</ele><time>2026-04-06T11:55:49.999Z</time></trkpt><trkpt lat="45.60589780835578" lon="8.236531993714499"><ele>340.0</ele><time>2026-04-06T11:55:52.999Z</time></trkpt><trkpt lat="45.605819754582086" lon="8.236539133246474"><ele>340.0</ele><time>2026-04-06T11:55:55.999Z</time></trkpt><trkpt lat="45.60572822465358" lon="8.236601597759725"><ele>340.0</ele><time>2026-04-06T11:55:57.999Z</time></trkpt><trkpt lat="45.60566606684289" lon="8.23665256391443"><ele>340.0</ele><time>2026-04-06T11:55:58.999Z</time></trkpt><trkpt lat="45.60562842657944" lon="8.23675385054658"><ele>340.0</ele><time>2026-04-06T11:55:59.999Z</time></trkpt><trkpt lat="45.605536597981725" lon="8.236865762607948"><ele>340.0</ele><time>2026-04-06T11:56:01.999Z</time></trkpt><trkpt lat="45.6054803337325" lon="8.23692179218746"><ele>340.0</ele><time>2026-04-06T11:56:02.999Z</time></trkpt><trkpt lat="45.60541546655227" lon="8.237011646483424"><ele>340.0</ele><time>2026-04-06T11:56:03.999Z</time></trkpt><trkpt lat="45.605362992852555" lon="8.237071184325671"><ele>340.66666666666663</ele><time>2026-04-06T11:56:04.999Z</time></trkpt><trkpt lat="45.6052619652585" lon="8.237190043531138"><ele>341.3333333333333</ele><time>2026-04-06T11:56:06.999Z</time></trkpt><trkpt lat="45.60520853768024" lon="8.237275355096793"><ele>342.0</ele><time>2026-04-06T11:56:07.999Z</time></trkpt><trkpt lat="45.60517562783441" lon="8.237375984864526"><ele>342.6666666666667</ele><time>2026-04-06T11:56:08.999Z</time></trkpt><trkpt lat="45.60512120487308" lon="8.237441689025667"><ele>343.33333333333337</ele><time>2026-04-06T11:56:09.999Z</time></trkpt><trkpt lat="45.60506467678911" lon="8.237510580880075"><ele>344.0</ele><time>2026-04-06T11:56:10.999Z</time></trkpt><trkpt lat="45.60500324759882" lon="8.237561418396114"><ele>344.6666666666667</ele><time>2026-04-06T11:56:11.999Z</time></trkpt><trkpt lat="45.60493999833846" lon="8.237609501965082"><ele>345.33333333333337</ele><time>2026-04-06T11:56:12.999Z</time></trkpt><trkpt lat="45.60488769652327" lon="8.237673995664109"><ele>346.0</ele><time>2026-04-06T11:56:13.999Z</time></trkpt><trkpt lat="45.60483538081148" lon="8.237738601661974"><ele>346.6666666666667</ele><time>2026-04-06T11:56:14.999Z</time></trkpt><trkpt lat="45.60478188709682" lon="8.237792342194295"><ele>347.3333333333333</ele><time>2026-04-06T11:56:15.999Z</time></trkpt><trkpt lat="45.60467484958834" lon="8.23786625950348"><ele>348.0</ele><time>2026-04-06T11:56:17.999Z</time></trkpt><trkpt lat="45.60453714703256" lon="8.237878919495497"><ele>347.6666666666667</ele><time>2026-04-06T11:56:19.999Z</time></trkpt><trkpt lat="45.604462741006195" lon="8.237870253754467"><ele>347.3333333333333</ele><time>2026-04-06T11:56:21.999Z</time></trkpt><trkpt lat="45.60437689971533" lon="8.237921557975247"><ele>347.0</ele><time>2026-04-06T11:56:23.999Z</time></trkpt><trkpt lat="45.604298235325345" lon="8.237962981876779"><ele>346.66666666666663</ele><time>2026-04-06T11:56:25.999Z</time></trkpt><trkpt lat="45.60422624610342" lon="8.237994266785464"><ele>346.3333333333333</ele><time>2026-04-06T11:56:27.999Z</time></trkpt><trkpt lat="45.60415847363424" lon="8.23804409710082"><ele>346.0</ele><time>2026-04-06T11:56:29.999Z</time></trkpt><trkpt lat="45.604065205914196" lon="8.238075872682879"><ele>346.0</ele><time>2026-04-06T11:56:31.999Z</time></trkpt><trkpt lat="45.60397368659081" lon="8.238109659614805"><ele>346.0</ele><time>2026-04-06T11:56:33.999Z</time></trkpt><trkpt lat="45.603882435044525" lon="8.238112973079614"><ele>346.0</ele><time>2026-04-06T11:56:35.999Z</time></trkpt><trkpt lat="45.60379385589664" lon="8.238121819214827"><ele>346.0</ele><time>2026-04-06T11:56:37.999Z</time></trkpt><trkpt lat="45.60370466085062" lon="8.238150554537556"><ele>346.0</ele><time>2026-04-06T11:56:39.999Z</time></trkpt><trkpt lat="45.603603623908576" lon="8.238177744691605"><ele>345.8</ele><time>2026-04-06T11:56:41.999Z</time></trkpt><trkpt lat="45.60351057117268" lon="8.238178594540104"><ele>345.6</ele><time>2026-04-06T11:56:43.999Z</time></trkpt><trkpt lat="45.60339047296979" lon="8.238180390385805"><ele>345.4</ele><time>2026-04-06T11:56:45.999Z</time></trkpt><trkpt lat="45.60329494648647" lon="8.238192585904375"><ele>345.2</ele><time>2026-04-06T11:56:47.999Z</time></trkpt><trkpt lat="45.603231240890466" lon="8.238175552155578"><ele>345.0</ele><time>2026-04-06T11:56:48.999Z</time></trkpt><trkpt lat="45.603130508457284" lon="8.238177289073645"><ele>345.0</ele><time>2026-04-06T11:56:50.999Z</time></trkpt><trkpt lat="45.60306690026733" lon="8.238171781881313"><ele>345.0</ele><time>2026-04-06T11:56:51.999Z</time></trkpt><trkpt lat="45.60299163633584" lon="8.238179476096938"><ele>345.0</ele><time>2026-04-06T11:56:52.999Z</time></trkpt><trkpt lat="45.60292264974784" lon="8.238158063863894"><ele>345.0</ele><time>2026-04-06T11:56:53.999Z</time></trkpt><trkpt lat="45.602854614279146" lon="8.238149900262737"><ele>345.0</ele><time>2026-04-06T11:56:54.999Z</time></trkpt><trkpt lat="45.602777725097845" lon="8.238087925954783"><ele>345.0</ele><time>2026-04-06T11:56:56.998Z</time></trkpt><trkpt lat="45.60271467427047" lon="8.238041238566058"><ele>345.0</ele><time>2026-04-06T11:56:58.998Z</time></trkpt><trkpt lat="45.60266473401272" lon="8.237920462754708"><ele>344.0</ele><time>2026-04-06T11:57:00.998Z</time></trkpt><trkpt lat="45.60262540963699" lon="8.237842078218984"><ele>343.0</ele><time>2026-04-06T11:57:01.998Z</time></trkpt><trkpt lat="45.60258706988352" lon="8.237764612912489"><ele>342.0</ele><time>2026-04-06T11:57:02.998Z</time></trkpt><trkpt lat="45.602541785769674" lon="8.237675600159436"><ele>341.0</ele><time>2026-04-06T11:57:04Z</time></trkpt><trkpt lat="45.6024906321119" lon="8.237579052709489"><ele>340.0</ele><time>2026-04-06T11:57:05Z</time></trkpt><trkpt lat="45.60243337478633" lon="8.23750494545406"><ele>339.0</ele><time>2026-04-06T11:57:06Z</time></trkpt><trkpt lat="45.60234026367754" lon="8.23751895899141"><ele>339.0</ele><time>2026-04-06T11:57:07Z</time></trkpt><trkpt lat="45.60224868951396" lon="8.237539758931646"><ele>339.0</ele><time>2026-04-06T11:57:08Z</time></trkpt><trkpt lat="45.60215795876212" lon="8.23754503096103"><ele>339.0</ele><time>2026-04-06T11:57:09Z</time></trkpt><trkpt lat="45.60206637110655" lon="8.237591387524569"><ele>339.0</ele><time>2026-04-06T11:57:10Z</time></trkpt><trkpt lat="45.60196813478148" lon="8.237636366269639"><ele>339.0</ele><time>2026-04-06T11:57:11Z</time></trkpt><trkpt lat="45.6018914339451" lon="8.23769407982725"><ele>336.6666666666667</ele><time>2026-04-06T11:57:12Z</time></trkpt><trkpt lat="45.60181105655086" lon="8.237765617148353"><ele>334.3333333333333</ele><time>2026-04-06T11:57:13Z</time></trkpt><trkpt lat="45.60173347942055" lon="8.237846564871365"><ele>332.0</ele><time>2026-04-06T11:57:14Z</time></trkpt><trkpt lat="45.60167146094269" lon="8.237917292559965"><ele>329.66666666666663</ele><time>2026-04-06T11:57:15Z</time></trkpt><trkpt lat="45.60160777964754" lon="8.237956740136564"><ele>327.3333333333333</ele><time>2026-04-06T11:57:16Z</time></trkpt><trkpt lat="45.601537799323516" lon="8.23794274829591"><ele>325.0</ele><time>2026-04-06T11:57:17Z</time></trkpt><trkpt lat="45.60149307361223" lon="8.237837232173117"><ele>325.0</ele><time>2026-04-06T11:57:18Z</time></trkpt><trkpt lat="45.601440708552374" lon="8.237756209708452"><ele>325.0</ele><time>2026-04-06T11:57:19Z</time></trkpt><trkpt lat="45.601371177524534" lon="8.237694753468693"><ele>325.0</ele><time>2026-04-06T11:57:20Z</time></trkpt><trkpt lat="45.601308153497314" lon="8.237627067212161"><ele>325.0</ele><time>2026-04-06T11:57:21Z</time></trkpt><trkpt lat="45.601241310874094" lon="8.237593065587598"><ele>325.0</ele><time>2026-04-06T11:57:22Z</time></trkpt><trkpt lat="45.601163049248875" lon="8.237533026518374"><ele>325.0</ele><time>2026-04-06T11:57:24Z</time></trkpt><trkpt lat="45.60111647811477" lon="8.237396994012958"><ele>323.2</ele><time>2026-04-06T11:57:25.999Z</time></trkpt><trkpt lat="45.60109697204205" lon="8.237146889652909"><ele>321.4</ele><time>2026-04-06T11:57:27.999Z</time></trkpt><trkpt lat="45.60107752223414" lon="8.23703980197356"><ele>319.6</ele><time>2026-04-06T11:57:28.999Z</time></trkpt><trkpt lat="45.60105949327903" lon="8.236948561672667"><ele>317.8</ele><time>2026-04-06T11:57:29.999Z</time></trkpt><trkpt lat="45.6010275370402" lon="8.236797641757388"><ele>316.0</ele><time>2026-04-06T11:57:31.999Z</time></trkpt><trkpt lat="45.60096880412282" lon="8.23669456437017"><ele>316.00000000000006</ele><time>2026-04-06T11:57:33.999Z</time></trkpt><trkpt lat="45.60087012651719" lon="8.236676757113221"><ele>316.0</ele><time>2026-04-06T11:57:36.999Z</time></trkpt><trkpt lat="45.60080039347693" lon="8.236692542559474"><ele>316.0</ele><time>2026-04-06T11:57:37.999Z</time></trkpt><trkpt lat="45.60072736512263" lon="8.236686170391492"><ele>316.0</ele><time>2026-04-06T11:57:38.999Z</time></trkpt><trkpt lat="45.60066621060334" lon="8.236662730143482"><ele>316.0</ele><time>2026-04-06T11:57:39.999Z</time></trkpt><trkpt lat="45.600588501881255" lon="8.236660097065174"><ele>316.00000000000006</ele><time>2026-04-06T11:57:40.999Z</time></trkpt><trkpt lat="45.60052623249586" lon="8.236644924974142"><ele>316.0</ele><time>2026-04-06T11:57:41.999Z</time></trkpt><trkpt lat="45.600489630646464" lon="8.236537304551971"><ele>316.0</ele><time>2026-04-06T11:57:43.999Z</time></trkpt><trkpt lat="45.600497493028286" lon="8.236447363265512"><ele>316.0</ele><time>2026-04-06T11:57:44.999Z</time></trkpt><trkpt lat="45.600504063095386" lon="8.236351261345131"><ele>316.0</ele><time>2026-04-06T11:57:45.999Z</time></trkpt><trkpt lat="45.60049364825248" lon="8.236252767669786"><ele>316.0</ele><time>2026-04-06T11:57:46.999Z</time></trkpt><trkpt lat="45.600444528848286" lon="8.236154030387809"><ele>316.0</ele><time>2026-04-06T11:57:47.999Z</time></trkpt><trkpt lat="45.60036952297983" lon="8.236051126033383"><ele>316.0</ele><time>2026-04-06T11:57:48.999Z</time></trkpt><trkpt lat="45.600298857000375" lon="8.235966397495883"><ele>314.66666666666663</ele><time>2026-04-06T11:57:49.999Z</time></trkpt><trkpt lat="45.6002257538776" lon="8.235916046201137"><ele>313.3333333333333</ele><time>2026-04-06T11:57:50.999Z</time></trkpt><trkpt lat="45.60015782904099" lon="8.235888758775774"><ele>312.0</ele><time>2026-04-06T11:57:51.999Z</time></trkpt><trkpt lat="45.600102040219404" lon="8.235784619030497"><ele>310.6666666666667</ele><time>2026-04-06T11:57:53.999Z</time></trkpt><trkpt lat="45.6000683135915" lon="8.235688270401358"><ele>309.33333333333337</ele><time>2026-04-06T11:57:54.999Z</time></trkpt><trkpt lat="45.60004367472083" lon="8.235596902962154"><ele>308.0</ele><time>2026-04-06T11:57:55.999Z</time></trkpt><trkpt lat="45.599984760315074" lon="8.235465979309657"><ele>308.0</ele><time>2026-04-06T11:57:57.999Z</time></trkpt><trkpt lat="45.59989099771462" lon="8.235317705080119"><ele>308.0</ele><time>2026-04-06T11:57:59.999Z</time></trkpt><trkpt lat="45.59984247198512" lon="8.235232838509543"><ele>308.0</ele><time>2026-04-06T11:58:00.999Z</time></trkpt><trkpt lat="45.599797156566" lon="8.235164500868889"><ele>308.0</ele><time>2026-04-06T11:58:01.999Z</time></trkpt><trkpt lat="45.59974269581547" lon="8.235033081400308"><ele>308.0</ele><time>2026-04-06T11:58:05.999Z</time></trkpt><trkpt lat="45.59970720241201" lon="8.234941032804011"><ele>308.0</ele><time>2026-04-06T11:58:06.999Z</time></trkpt><trkpt lat="45.59967489383359" lon="8.234828881428738"><ele>308.0</ele><time>2026-04-06T11:58:07.999Z</time></trkpt><trkpt lat="45.599647419693966" lon="8.234729496761615"><ele>308.0</ele><time>2026-04-06T11:58:08.999Z</time></trkpt><trkpt lat="45.599621856048785" lon="8.234619124681881"><ele>308.0</ele><time>2026-04-06T11:58:09.999Z</time></trkpt><trkpt lat="45.59959506034539" lon="8.234501840750651"><ele>308.0</ele><time>2026-04-06T11:58:10.999Z</time></trkpt><trkpt lat="45.59955335452072" lon="8.234397480555678"><ele>308.0</ele><time>2026-04-06T11:58:11.999Z</time></trkpt><trkpt lat="45.599508570482186" lon="8.234298013486057"><ele>306.8</ele><time>2026-04-06T11:58:12.999Z</time></trkpt><trkpt lat="45.59944109950168" lon="8.23419749592096"><ele>305.6</ele><time>2026-04-06T11:58:13.999Z</time></trkpt><trkpt lat="45.59938560306464" lon="8.234115574293558"><ele>304.4</ele><time>2026-04-06T11:58:14.999Z</time></trkpt><trkpt lat="45.59930077772191" lon="8.233957510804418"><ele>303.2</ele><time>2026-04-06T11:58:16.999Z</time></trkpt><trkpt lat="45.59924885330725" lon="8.233888960651363"><ele>302.0</ele><time>2026-04-06T11:58:17.999Z</time></trkpt><trkpt lat="45.59917079415822" lon="8.233858145636775"><ele>300.6666666666667</ele><time>2026-04-06T11:58:18.999Z</time></trkpt><trkpt lat="45.59910015937502" lon="8.233872783753649"><ele>299.33333333333337</ele><time>2026-04-06T11:58:19.999Z</time></trkpt><trkpt lat="45.59901309764682" lon="8.23390010991712"><ele>298.0</ele><time>2026-04-06T11:58:20.999Z</time></trkpt><trkpt lat="45.59892475034723" lon="8.233934422820372"><ele>296.6666666666667</ele><time>2026-04-06T11:58:21.999Z</time></trkpt><trkpt lat="45.5988402983127" lon="8.233944902672912"><ele>295.3333333333333</ele><time>2026-04-06T11:58:22.999Z</time></trkpt><trkpt lat="45.59875647208407" lon="8.233939085021047"><ele>294.0</ele><time>2026-04-06T11:58:23.999Z</time></trkpt><trkpt lat="45.59865527922357" lon="8.233919012874383"><ele>293.0</ele><time>2026-04-06T11:58:24.999Z</time></trkpt><trkpt lat="45.59854970062911" lon="8.233915528707165"><ele>292.0</ele><time>2026-04-06T11:58:25.999Z</time></trkpt><trkpt lat="45.59844693331746" lon="8.233904698201005"><ele>291.0</ele><time>2026-04-06T11:58:26.999Z</time></trkpt><trkpt lat="45.59834797025197" lon="8.233882970147077"><ele>290.0</ele><time>2026-04-06T11:58:27.999Z</time></trkpt><trkpt lat="45.59825806581659" lon="8.233857328042804"><ele>289.0</ele><time>2026-04-06T11:58:28.999Z</time></trkpt><trkpt lat="45.5981743266456" lon="8.233843187156781"><ele>289.0</ele><time>2026-04-06T11:58:29.999Z</time></trkpt><trkpt lat="45.5980941730288" lon="8.233831463622563"><ele>289.0</ele><time>2026-04-06T11:58:30.999Z</time></trkpt><trkpt lat="45.59800857022866" lon="8.23382961994947"><ele>289.0</ele><time>2026-04-06T11:58:31.999Z</time></trkpt><trkpt lat="45.59792435033108" lon="8.233809266433779"><ele>289.0</ele><time>2026-04-06T11:58:32.999Z</time></trkpt><trkpt lat="45.59785219809172" lon="8.23379799751574"><ele>289.0</ele><time>2026-04-06T11:58:33.999Z</time></trkpt><trkpt lat="45.59773651959646" lon="8.233790223278382"><ele>289.0</ele><time>2026-04-06T11:58:35.999Z</time></trkpt><trkpt lat="45.597624405259964" lon="8.233791064339036"><ele>288.8</ele><time>2026-04-06T11:58:37.999Z</time></trkpt><trkpt lat="45.59748149558973" lon="8.233808290316732"><ele>288.59999999999997</ele><time>2026-04-06T11:58:39.999Z</time></trkpt><trkpt lat="45.59741087514402" lon="8.233794141590119"><ele>288.4</ele><time>2026-04-06T11:58:40.999Z</time></trkpt><trkpt lat="45.59734155804135" lon="8.23376117144162"><ele>288.2</ele><time>2026-04-06T11:58:41.999Z</time></trkpt><trkpt lat="45.597229683927225" lon="8.233688461815197"><ele>288.0</ele><time>2026-04-06T11:58:43.999Z</time></trkpt><trkpt lat="45.59717050587215" lon="8.23365053025751"><ele>288.0</ele><time>2026-04-06T11:58:44.999Z</time></trkpt><trkpt lat="45.59711342624676" lon="8.233608097570048"><ele>288.0</ele><time>2026-04-06T11:58:45.999Z</time></trkpt><trkpt lat="45.59700635077229" lon="8.233528768580797"><ele>288.0</ele><time>2026-04-06T11:58:47.999Z</time></trkpt><trkpt lat="45.5969639917217" lon="8.2334600769413"><ele>288.0</ele><time>2026-04-06T11:58:48.999Z</time></trkpt><trkpt lat="45.59687996287514" lon="8.233355895770025"><ele>288.0</ele><time>2026-04-06T11:58:50.999Z</time></trkpt><trkpt lat="45.59682708503969" lon="8.233291236274267"><ele>288.0</ele><time>2026-04-06T11:58:51.999Z</time></trkpt><trkpt lat="45.596741517525196" lon="8.233226238246857"><ele>286.3333333333333</ele><time>2026-04-06T11:58:52.999Z</time></trkpt><trkpt lat="45.59666317198794" lon="8.233173580662868"><ele>284.6666666666667</ele><time>2026-04-06T11:58:53.999Z</time></trkpt><trkpt lat="45.59659035090706" lon="8.233128824128196"><ele>283.0</ele><time>2026-04-06T11:58:54.999Z</time></trkpt><trkpt lat="45.596511718765406" lon="8.233079783847842"><ele>281.33333333333337</ele><time>2026-04-06T11:58:55.999Z</time></trkpt><trkpt lat="45.59640816972575" lon="8.233034797588074"><ele>279.6666666666667</ele><time>2026-04-06T11:58:56.998Z</time></trkpt><trkpt lat="45.59632991031065" lon="8.232992705484492"><ele>278.0</ele><time>2026-04-06T11:58:57.998Z</time></trkpt><trkpt lat="45.596263498068225" lon="8.232931851107313"><ele>277.0</ele><time>2026-04-06T11:58:58.998Z</time></trkpt><trkpt lat="45.5962007261379" lon="8.232879831022329"><ele>276.0</ele><time>2026-04-06T11:58:59.998Z</time></trkpt><trkpt lat="45.59614702527658" lon="8.23280716006226"><ele>275.0</ele><time>2026-04-06T11:59:00.998Z</time></trkpt><trkpt lat="45.59609454596859" lon="8.232738865294236"><ele>274.0</ele><time>2026-04-06T11:59:01.998Z</time></trkpt><trkpt lat="45.59603439905525" lon="8.232679362948675"><ele>273.0</ele><time>2026-04-06T11:59:02.998Z</time></trkpt><trkpt lat="45.595968961178485" lon="8.23265980377894"><ele>272.0</ele><time>2026-04-06T11:59:03.998Z</time></trkpt><trkpt lat="45.59589757870276" lon="8.232664961433883"><ele>271.0</ele><time>2026-04-06T11:59:04.998Z</time></trkpt><trkpt lat="45.595834317202566" lon="8.232713219205314"><ele>270.3333333333333</ele><time>2026-04-06T11:59:05.998Z</time></trkpt><trkpt lat="45.59578302729994" lon="8.232776314841635"><ele>269.66666666666663</ele><time>2026-04-06T11:59:06.998Z</time></trkpt><trkpt lat="45.59573192330349" lon="8.232849955826236"><ele>269.0</ele><time>2026-04-06T11:59:07.998Z</time></trkpt><trkpt lat="45.59568326787223" lon="8.232932751700282"><ele>268.3333333333333</ele><time>2026-04-06T11:59:09Z</time></trkpt><trkpt lat="45.59562385900057" lon="8.233011291020311"><ele>267.6666666666667</ele><time>2026-04-06T11:59:10Z</time></trkpt><trkpt lat="45.595556398799204" lon="8.233078035945463"><ele>267.0</ele><time>2026-04-06T11:59:11Z</time></trkpt><trkpt lat="45.59548542739806" lon="8.233156510852112"><ele>266.8</ele><time>2026-04-06T11:59:12Z</time></trkpt><trkpt lat="45.595419814146" lon="8.23321789201106"><ele>266.6</ele><time>2026-04-06T11:59:13Z</time></trkpt><trkpt lat="45.595348796695355" lon="8.233276944526802"><ele>266.40000000000003</ele><time>2026-04-06T11:59:14Z</time></trkpt><trkpt lat="45.595289213228725" lon="8.233347436608847"><ele>266.2</ele><time>2026-04-06T11:59:15Z</time></trkpt><trkpt lat="45.595219734363944" lon="8.233454506380761"><ele>266.0</ele><time>2026-04-06T11:59:17Z</time></trkpt><trkpt lat="45.59510688202422" lon="8.233517152363191"><ele>265.0</ele><time>2026-04-06T11:59:19Z</time></trkpt><trkpt lat="45.59503030379929" lon="8.233512894338764"><ele>264.0</ele><time>2026-04-06T11:59:20Z</time></trkpt><trkpt lat="45.59496114500202" lon="8.233463886528757"><ele>263.0</ele><time>2026-04-06T11:59:21Z</time></trkpt><trkpt lat="45.59489748498716" lon="8.233433147590478"><ele>262.0</ele><time>2026-04-06T11:59:23Z</time></trkpt><trkpt lat="45.59491627180491" lon="8.233284153457626"><ele>261.0</ele><time>2026-04-06T11:59:40.999Z</time></trkpt><trkpt lat="45.59494823390968" lon="8.233128854910708"><ele>260.0</ele><time>2026-04-06T11:59:42.999Z</time></trkpt><trkpt lat="45.59496305197421" lon="8.233027549627392"><ele>260.0</ele><time>2026-04-06T11:59:43.999Z</time></trkpt><trkpt lat="45.59498170015468" lon="8.23291150412701"><ele>260.0</ele><time>2026-04-06T11:59:44.999Z</time></trkpt><trkpt lat="45.59500403091535" lon="8.232787398114228"><ele>260.0</ele><time>2026-04-06T11:59:45.999Z</time></trkpt><trkpt lat="45.595027575972175" lon="8.232654542133073"><ele>260.0</ele><time>2026-04-06T11:59:46.999Z</time></trkpt><trkpt lat="45.595053536052525" lon="8.232517594088552"><ele>260.0</ele><time>2026-04-06T11:59:47.999Z</time></trkpt><trkpt lat="45.595078065923865" lon="8.232379887870913"><ele>260.4</ele><time>2026-04-06T11:59:48.999Z</time></trkpt><trkpt lat="45.59510308473785" lon="8.232240960951733"><ele>260.8</ele><time>2026-04-06T11:59:49.999Z</time></trkpt><trkpt lat="45.595123127792576" lon="8.232104171279664"><ele>261.2</ele><time>2026-04-06T11:59:50.999Z</time></trkpt><trkpt lat="45.59513113161547" lon="8.231972317151776"><ele>261.6</ele><time>2026-04-06T11:59:51.999Z</time></trkpt><trkpt lat="45.59510868389208" lon="8.23185445961953"><ele>262.0</ele><time>2026-04-06T11:59:52.999Z</time></trkpt><trkpt lat="45.595047940471" lon="8.231761514812437"><ele>262.0</ele><time>2026-04-06T11:59:53.999Z</time></trkpt><trkpt lat="45.59496817962228" lon="8.231706123094908"><ele>262.0</ele><time>2026-04-06T11:59:54.999Z</time></trkpt><trkpt lat="45.59488249132151" lon="8.231689673287574"><ele>262.0</ele><time>2026-04-06T11:59:55.999Z</time></trkpt><trkpt lat="45.59479587815419" lon="8.231708275389204"><ele>262.0</ele><time>2026-04-06T11:59:56.999Z</time></trkpt><trkpt lat="45.59471363511778" lon="8.231738582698972"><ele>262.0</ele><time>2026-04-06T11:59:57.999Z</time></trkpt><trkpt lat="45.5946395286324" lon="8.231744432613418"><ele>262.0</ele><time>2026-04-06T11:59:58.999Z</time></trkpt><trkpt lat="45.59457496226716" lon="8.231757504468327"><ele>263.6</ele><time>2026-04-06T11:59:59.999Z</time></trkpt><trkpt lat="45.5944729137095" lon="8.23176882744662"><ele>265.2</ele><time>2026-04-06T12:00:01.999Z</time></trkpt><trkpt lat="45.594359417607286" lon="8.231852569746934"><ele>266.8</ele><time>2026-04-06T12:00:04.999Z</time></trkpt><trkpt lat="45.59429745570528" lon="8.231918832106832"><ele>268.4</ele><time>2026-04-06T12:00:05.999Z</time></trkpt><trkpt lat="45.59420575698133" lon="8.232069506274287"><ele>270.0</ele><time>2026-04-06T12:00:07.999Z</time></trkpt><trkpt lat="45.59416043757486" lon="8.23213327813046"><ele>270.0</ele><time>2026-04-06T12:00:08.999Z</time></trkpt><trkpt lat="45.59411096496092" lon="8.232190007438422"><ele>270.0</ele><time>2026-04-06T12:00:09.999Z</time></trkpt><trkpt lat="45.594003728655515" lon="8.232263372790918"><ele>270.0</ele><time>2026-04-06T12:00:11.999Z</time></trkpt><trkpt lat="45.59392326012485" lon="8.232282740146625"><ele>270.0</ele><time>2026-04-06T12:00:13.999Z</time></trkpt><trkpt lat="45.59384651732259" lon="8.232270628491062"><ele>270.0</ele><time>2026-04-06T12:00:15.999Z</time></trkpt><trkpt lat="45.59376684117393" lon="8.232262172034064"><ele>270.0</ele><time>2026-04-06T12:00:17.999Z</time></trkpt><trkpt lat="45.59368289535865" lon="8.232261048875104"><ele>270.6</ele><time>2026-04-06T12:00:19.999Z</time></trkpt><trkpt lat="45.59358544321397" lon="8.232258095797173"><ele>271.2</ele><time>2026-04-06T12:00:21.999Z</time></trkpt><trkpt lat="45.5934766838076" lon="8.232254550736751"><ele>271.8</ele><time>2026-04-06T12:00:23.999Z</time></trkpt><trkpt lat="45.59336797722775" lon="8.232251007395384"><ele>272.4</ele><time>2026-04-06T12:00:25.999Z</time></trkpt><trkpt lat="45.59326749189293" lon="8.232247732031734"><ele>273.0</ele><time>2026-04-06T12:00:28.999Z</time></trkpt><trkpt lat="45.59320024865781" lon="8.23224266679712"><ele>273.0</ele><time>2026-04-06T12:00:30.999Z</time></trkpt><trkpt lat="45.593132808324825" lon="8.232237255399284"><ele>273.0</ele><time>2026-04-06T12:00:32.999Z</time></trkpt><trkpt lat="45.59298203313186" lon="8.232951734811685"><ele>272.0</ele><time>2026-04-06T12:00:35.999Z</time></trkpt><trkpt lat="45.59290002224798" lon="8.232952606953763"><ele>271.0</ele><time>2026-04-06T12:00:37.999Z</time></trkpt><trkpt lat="45.59282788474154" lon="8.232951238656439"><ele>270.0</ele><time>2026-04-06T12:00:39.999Z</time></trkpt><trkpt lat="45.59276009130005" lon="8.232955614038854"><ele>269.0</ele><time>2026-04-06T12:00:41.999Z</time></trkpt><trkpt lat="45.592689320043675" lon="8.232945858255027"><ele>268.0</ele><time>2026-04-06T12:00:43.999Z</time></trkpt><trkpt lat="45.59260114714604" lon="8.23295345039978"><ele>267.0</ele><time>2026-04-06T12:00:46.999Z</time></trkpt><trkpt lat="45.59252641760124" lon="8.23295779469693"><ele>267.00000000000006</ele><time>2026-04-06T12:00:49.999Z</time></trkpt><trkpt lat="45.592446178822286" lon="8.232960639565023"><ele>267.0</ele><time>2026-04-06T12:00:52.999Z</time></trkpt><trkpt lat="45.59236661572978" lon="8.232961714413738"><ele>267.0</ele><time>2026-04-06T12:00:55.999Z</time></trkpt><trkpt lat="45.59229487283472" lon="8.232933398574545"><ele>267.0</ele><time>2026-04-06T12:00:58.999Z</time></trkpt><trkpt lat="45.592231806318395" lon="8.232894209851535"><ele>267.0</ele><time>2026-04-06T12:01:01.999Z</time></trkpt><trkpt lat="45.59216930039034" lon="8.232851447147345"><ele>267.00000000000006</ele><time>2026-04-06T12:01:04.998Z</time></trkpt><trkpt lat="45.59211483256416" lon="8.232787821665157"><ele>267.0</ele><time>2026-04-06T12:01:08.998Z</time></trkpt><trkpt lat="45.592066258279324" lon="8.232713364854625"><ele>267.00000000000006</ele><time>2026-04-06T12:01:11.998Z</time></trkpt><trkpt lat="45.592019085937345" lon="8.232649060333753"><ele>267.0</ele><time>2026-04-06T12:01:13.998Z</time></trkpt><trkpt lat="45.59197219719652" lon="8.232577347951775"><ele>267.0</ele><time>2026-04-06T12:01:16Z</time></trkpt><trkpt lat="45.59192198841866" lon="8.232492015321274"><ele>267.0</ele><time>2026-04-06T12:01:18Z</time></trkpt><trkpt lat="45.59186541181867" lon="8.232418345787597"><ele>267.0</ele><time>2026-04-06T12:01:20Z</time></trkpt><trkpt lat="45.59179745157763" lon="8.232388284959038"><ele>267.00000000000006</ele><time>2026-04-06T12:01:22Z</time></trkpt><trkpt lat="45.59172748614659" lon="8.232383200620948"><ele>267.0</ele><time>2026-04-06T12:01:24Z</time></trkpt><trkpt lat="45.59163836332246" lon="8.232390308081248"><ele>265.8</ele><time>2026-04-06T12:01:26Z</time></trkpt><trkpt lat="45.59153579262148" lon="8.232387623210563"><ele>264.6</ele><time>2026-04-06T12:01:28Z</time></trkpt><trkpt lat="45.5914418113643" lon="8.232308097247325"><ele>263.40000000000003</ele><time>2026-04-06T12:01:30Z</time></trkpt><trkpt lat="45.591336180684316" lon="8.232314588403405"><ele>262.2</ele><time>2026-04-06T12:01:32Z</time></trkpt><trkpt lat="45.591228001566776" lon="8.232356541214179"><ele>261.0</ele><time>2026-04-06T12:01:34Z</time></trkpt><trkpt lat="45.59112018178829" lon="8.232428087691277"><ele>259.25</ele><time>2026-04-06T12:01:36Z</time></trkpt><trkpt lat="45.59101567727745" lon="8.232498541170402"><ele>257.5</ele><time>2026-04-06T12:01:38Z</time></trkpt><trkpt lat="45.59090494991373" lon="8.232552463719962"><ele>255.75</ele><time>2026-04-06T12:01:39.999Z</time></trkpt><trkpt lat="45.59078318346825" lon="8.232540953883074"><ele>254.0</ele><time>2026-04-06T12:01:41.999Z</time></trkpt><trkpt lat="45.59066912089522" lon="8.232528613490743"><ele>254.00000000000003</ele><time>2026-04-06T12:01:43.999Z</time></trkpt><trkpt lat="45.590603052684365" lon="8.232520746486554"><ele>254.0</ele><time>2026-04-06T12:01:44.999Z</time></trkpt><trkpt lat="45.59053486384933" lon="8.232534852759596"><ele>254.0</ele><time>2026-04-06T12:01:45.999Z</time></trkpt><trkpt lat="45.59047146291471" lon="8.232525473013961"><ele>254.0</ele><time>2026-04-06T12:01:46.999Z</time></trkpt><trkpt lat="45.59040710925512" lon="8.232516692711028"><ele>254.00000000000003</ele><time>2026-04-06T12:01:47.999Z</time></trkpt><trkpt lat="45.590343138023705" lon="8.232521188890855"><ele>254.0</ele><time>2026-04-06T12:01:48.999Z</time></trkpt><trkpt lat="45.59022097504864" lon="8.232541273993492"><ele>253.83333333333334</ele><time>2026-04-06T12:01:50.999Z</time></trkpt><trkpt lat="45.59015749066447" lon="8.232531961449999"><ele>253.66666666666669</ele><time>2026-04-06T12:01:51.999Z</time></trkpt><trkpt lat="45.590093236233145" lon="8.232546138093591"><ele>253.5</ele><time>2026-04-06T12:01:52.999Z</time></trkpt><trkpt lat="45.58996977470335" lon="8.232581423659791"><ele>253.33333333333331</ele><time>2026-04-06T12:01:54.999Z</time></trkpt><trkpt lat="45.58984780980644" lon="8.23262681343413"><ele>253.16666666666666</ele><time>2026-04-06T12:01:56.999Z</time></trkpt><trkpt lat="45.58978681937314" lon="8.23266984333899"><ele>253.0</ele><time>2026-04-06T12:01:57.999Z</time></trkpt><trkpt lat="45.58971805491776" lon="8.232667604313333"><ele>252.99999999999997</ele><time>2026-04-06T12:01:58.999Z</time></trkpt><trkpt lat="45.589650350008476" lon="8.23268651196379"><ele>253.0</ele><time>2026-04-06T12:01:59.999Z</time></trkpt><trkpt lat="45.589586599577295" lon="8.232708775807547"><ele>253.0</ele><time>2026-04-06T12:02:00.999Z</time></trkpt><trkpt lat="45.58952823865245" lon="8.232762898746314"><ele>253.0</ele><time>2026-04-06T12:02:01.999Z</time></trkpt><trkpt lat="45.58946752144356" lon="8.232791816015883"><ele>252.99999999999997</ele><time>2026-04-06T12:02:02.999Z</time></trkpt><trkpt lat="45.589351830695925" lon="8.232847329622517"><ele>253.0</ele><time>2026-04-06T12:02:04.999Z</time></trkpt><trkpt lat="45.58923441115923" lon="8.23287152824294"><ele>253.0</ele><time>2026-04-06T12:02:06.999Z</time></trkpt><trkpt lat="45.58912520094136" lon="8.232893389787225"><ele>253.0</ele><time>2026-04-06T12:02:08.999Z</time></trkpt><trkpt lat="45.58901383218048" lon="8.232902061307751"><ele>253.0</ele><time>2026-04-06T12:02:10.999Z</time></trkpt><trkpt lat="45.58889905077936" lon="8.232915906742765"><ele>253.0</ele><time>2026-04-06T12:02:12.999Z</time></trkpt><trkpt lat="45.58878827350413" lon="8.232941021800766"><ele>253.0</ele><time>2026-04-06T12:02:14.999Z</time></trkpt><trkpt lat="45.588683887836616" lon="8.232895490169552"><ele>252.60000000000002</ele><time>2026-04-06T12:02:16.999Z</time></trkpt><trkpt lat="45.58857533398857" lon="8.232854446270588"><ele>252.20000000000002</ele><time>2026-04-06T12:02:18.999Z</time></trkpt><trkpt lat="45.588481720166634" lon="8.23280448714835"><ele>251.8</ele><time>2026-04-06T12:02:20.999Z</time></trkpt><trkpt lat="45.58839747535931" lon="8.232725743601046"><ele>251.4</ele><time>2026-04-06T12:02:22.999Z</time></trkpt><trkpt lat="45.5882945337701" lon="8.232705866667391"><ele>251.0</ele><time>2026-04-06T12:02:24.999Z</time></trkpt><trkpt lat="45.58818173061194" lon="8.232763280135122"><ele>251.0</ele><time>2026-04-06T12:02:26.999Z</time></trkpt><trkpt lat="45.58807659770647" lon="8.2328157643566"><ele>251.00000000000003</ele><time>2026-04-06T12:02:28.999Z</time></trkpt><trkpt lat="45.58797469445337" lon="8.23287133592446"><ele>251.00000000000003</ele><time>2026-04-06T12:02:30.999Z</time></trkpt><trkpt lat="45.58787875470099" lon="8.232939261645143"><ele>251.0</ele><time>2026-04-06T12:02:32.999Z</time></trkpt><trkpt lat="45.58777613037485" lon="8.233005258428738"><ele>251.0</ele><time>2026-04-06T12:02:34.999Z</time></trkpt><trkpt lat="45.58767395733348" lon="8.233063945521504"><ele>250.0</ele><time>2026-04-06T12:02:36.999Z</time></trkpt><trkpt lat="45.58757277319054" lon="8.233100537505198"><ele>249.00000000000003</ele><time>2026-04-06T12:02:38.999Z</time></trkpt><trkpt lat="45.58748204273209" lon="8.23306680351822"><ele>248.00000000000003</ele><time>2026-04-06T12:02:40.999Z</time></trkpt><trkpt lat="45.58741030384532" lon="8.232951131773428"><ele>247.0</ele><time>2026-04-06T12:02:42.999Z</time></trkpt><trkpt lat="45.58737952687905" lon="8.232860661684006"><ele>246.0</ele><time>2026-04-06T12:02:43.999Z</time></trkpt><trkpt lat="45.58729316262245" lon="8.23277017783721"><ele>246.0</ele><time>2026-04-06T12:02:45.999Z</time></trkpt><trkpt lat="45.58716853256507" lon="8.232945333911264"><ele>246.00000000000003</ele><time>2026-04-06T12:02:47.999Z</time></trkpt><trkpt lat="45.587095121920576" lon="8.23299165960503"><ele>246.00000000000003</ele><time>2026-04-06T12:02:48.999Z</time></trkpt><trkpt lat="45.58701370908609" lon="8.23301552993095"><ele>246.0</ele><time>2026-04-06T12:02:49.999Z</time></trkpt><trkpt lat="45.58692136488149" lon="8.233042060378406"><ele>246.0</ele><time>2026-04-06T12:02:50.999Z</time></trkpt><trkpt lat="45.58685536003005" lon="8.233081384940968"><ele>245.83333333333334</ele><time>2026-04-06T12:02:51.999Z</time></trkpt><trkpt lat="45.58678268093427" lon="8.233090869853836"><ele>245.66666666666669</ele><time>2026-04-06T12:02:52.999Z</time></trkpt><trkpt lat="45.58672100895773" lon="8.233113139423375"><ele>245.5</ele><time>2026-04-06T12:02:53.999Z</time></trkpt><trkpt lat="45.58661799532375" lon="8.2331609305199"><ele>245.33333333333334</ele><time>2026-04-06T12:02:55.999Z</time></trkpt><trkpt lat="45.58654472749997" lon="8.233173989273448"><ele>245.16666666666669</ele><time>2026-04-06T12:02:58.999Z</time></trkpt><trkpt lat="45.58646732416089" lon="8.233272963190707"><ele>245.0</ele><time>2026-04-06T12:03:01.999Z</time></trkpt><trkpt lat="45.58640551442726" lon="8.23336768218252"><ele>245.0</ele><time>2026-04-06T12:03:04.999Z</time></trkpt><trkpt lat="45.586330126812996" lon="8.233442551498976"><ele>245.0</ele><time>2026-04-06T12:03:06.999Z</time></trkpt><trkpt lat="45.586210562917344" lon="8.233472843809537"><ele>245.0</ele><time>2026-04-06T12:03:08.999Z</time></trkpt><trkpt lat="45.586119025583315" lon="8.233467600557328"><ele>245.0</ele><time>2026-04-06T12:03:09.999Z</time></trkpt><trkpt lat="45.5860101815195" lon="8.233481314499945"><ele>245.0</ele><time>2026-04-06T12:03:10.998Z</time></trkpt><trkpt lat="45.58588914054511" lon="8.233501417626528"><ele>245.25</ele><time>2026-04-06T12:03:11.998Z</time></trkpt><trkpt lat="45.58575270013016" lon="8.233551517069628"><ele>245.5</ele><time>2026-04-06T12:03:12.998Z</time></trkpt><trkpt lat="45.58563812703867" lon="8.233643930445705"><ele>245.75</ele><time>2026-04-06T12:03:13.998Z</time></trkpt><trkpt lat="45.58550629188789" lon="8.233668592172457"><ele>246.0</ele><time>2026-04-06T12:03:14.998Z</time></trkpt><trkpt lat="45.58539808860943" lon="8.233695355881878"><ele>246.25</ele><time>2026-04-06T12:03:15.998Z</time></trkpt><trkpt lat="45.58530285418082" lon="8.233685256215251"><ele>246.5</ele><time>2026-04-06T12:03:16.998Z</time></trkpt><trkpt lat="45.58521889748858" lon="8.233763773152239"><ele>246.75</ele><time>2026-04-06T12:03:18.998Z</time></trkpt><trkpt lat="45.585254444493835" lon="8.233968872555677"><ele>247.0</ele><time>2026-04-06T12:03:20Z</time></trkpt><trkpt lat="45.58528758231206" lon="8.23419141600531"><ele>247.5</ele><time>2026-04-06T12:03:21Z</time></trkpt><trkpt lat="45.58533951071239" lon="8.234410766701851"><ele>248.0</ele><time>2026-04-06T12:03:22Z</time></trkpt><trkpt lat="45.58540205842293" lon="8.234591324303336"><ele>248.5</ele><time>2026-04-06T12:03:23Z</time></trkpt><trkpt lat="45.5854481431154" lon="8.234721754422788"><ele>249.0</ele><time>2026-04-06T12:03:24Z</time></trkpt><trkpt lat="45.585424655456556" lon="8.234859964932024"><ele>249.39999999999998</ele><time>2026-04-06T12:03:25Z</time></trkpt><trkpt lat="45.58542465545514" lon="8.234979080389946"><ele>249.79999999999998</ele><time>2026-04-06T12:03:26Z</time></trkpt><trkpt lat="45.58540156561545" lon="8.235092645197126"><ele>250.20000000000002</ele><time>2026-04-06T12:03:28Z</time></trkpt><trkpt lat="45.58538881978448" lon="8.235238275231879"><ele>250.60000000000002</ele><time>2026-04-06T12:03:29Z</time></trkpt><trkpt lat="45.58538730119818" lon="8.235395321131929"><ele>251.0</ele><time>2026-04-06T12:03:31Z</time></trkpt><trkpt lat="45.58568777898028" lon="8.235492554608967"><ele>251.0</ele><time>2026-04-06T12:03:32Z</time></trkpt><trkpt lat="45.58578063231681" lon="8.235547660756518"><ele>251.00000000000003</ele><time>2026-04-06T12:03:34Z</time></trkpt><trkpt lat="45.58584707066312" lon="8.235567507833796"><ele>251.00000000000003</ele><time>2026-04-06T12:03:35Z</time></trkpt><trkpt lat="45.585941032553215" lon="8.235588196676655"><ele>251.0</ele><time>2026-04-06T12:03:36Z</time></trkpt><trkpt lat="45.586044355748726" lon="8.23557922688038"><ele>251.0</ele><time>2026-04-06T12:03:37Z</time></trkpt><trkpt lat="45.586137530568685" lon="8.23554647012023"><ele>251.00000000000003</ele><time>2026-04-06T12:03:38Z</time></trkpt><trkpt lat="45.58620449154444" lon="8.235544585598902"><ele>251.0</ele><time>2026-04-06T12:03:39Z</time></trkpt><trkpt lat="45.58628398551152" lon="8.235614379028451"><ele>251.0</ele><time>2026-04-06T12:03:41Z</time></trkpt><trkpt lat="45.58633893201143" lon="8.235673380961394"><ele>251.0</ele><time>2026-04-06T12:03:42Z</time></trkpt><trkpt lat="45.58641951368967" lon="8.235735638952136"><ele>251.00000000000003</ele><time>2026-04-06T12:03:43Z</time></trkpt><trkpt lat="45.586456786475054" lon="8.235838464874476"><ele>251.0</ele><time>2026-04-06T12:03:45Z</time></trkpt><trkpt lat="45.586412694367986" lon="8.23603032273047"><ele>252.0</ele><time>2026-04-06T12:03:46.999Z</time></trkpt><trkpt lat="45.58635096656586" lon="8.23597311946695"><ele>253.00000000000003</ele><time>2026-04-06T12:03:49.999Z</time></trkpt><trkpt lat="45.58623445041168" lon="8.23602524562095"><ele>254.00000000000003</ele><time>2026-04-06T12:03:51.999Z</time></trkpt><trkpt lat="45.586165523501805" lon="8.23611961259472"><ele>255.0</ele><time>2026-04-06T12:03:52.999Z</time></trkpt><trkpt lat="45.58612510602563" lon="8.23621989792272"><ele>256.0</ele><time>2026-04-06T12:03:53.999Z</time></trkpt><trkpt lat="45.58615320956711" lon="8.23643351597253"><ele>258.0</ele><time>2026-04-06T12:03:54.999Z</time></trkpt><trkpt lat="45.5861305078153" lon="8.236538710136895"><ele>260.0</ele><time>2026-04-06T12:03:55.999Z</time></trkpt><trkpt lat="45.586119935927314" lon="8.236658529561199"><ele>262.0</ele><time>2026-04-06T12:03:56.999Z</time></trkpt><trkpt lat="45.5860818136304" lon="8.23678098690666"><ele>264.0</ele><time>2026-04-06T12:03:57.999Z</time></trkpt><trkpt lat="45.58604907368778" lon="8.236874903382292"><ele>266.0</ele><time>2026-04-06T12:03:58.999Z</time></trkpt><trkpt lat="45.58596079238993" lon="8.236840927707616"><ele>268.0</ele><time>2026-04-06T12:04:00.999Z</time></trkpt><trkpt lat="45.58585713658333" lon="8.236934083503574"><ele>268.0</ele><time>2026-04-06T12:04:02.999Z</time></trkpt><trkpt lat="45.58580522223494" lon="8.236998570607668"><ele>268.0</ele><time>2026-04-06T12:04:03.999Z</time></trkpt><trkpt lat="45.58575775584396" lon="8.237103437333033"><ele>268.0</ele><time>2026-04-06T12:04:04.999Z</time></trkpt><trkpt lat="45.58571821773778" lon="8.237206963038092"><ele>268.0</ele><time>2026-04-06T12:04:05.999Z</time></trkpt><trkpt lat="45.5857105641668" lon="8.237333371109397"><ele>268.0</ele><time>2026-04-06T12:04:06.999Z</time></trkpt><trkpt lat="45.585713366082054" lon="8.23742904845584"><ele>268.0</ele><time>2026-04-06T12:04:07.999Z</time></trkpt><trkpt lat="45.585729777813846" lon="8.237526654078923"><ele>269.6</ele><time>2026-04-06T12:04:08.999Z</time></trkpt><trkpt lat="45.58574324102385" lon="8.23764334524364"><ele>271.20000000000005</ele><time>2026-04-06T12:04:09.999Z</time></trkpt><trkpt lat="45.58574897807789" lon="8.237758526978302"><ele>272.8</ele><time>2026-04-06T12:04:10.999Z</time></trkpt><trkpt lat="45.58577258042883" lon="8.237885226661653"><ele>274.40000000000003</ele><time>2026-04-06T12:04:11.999Z</time></trkpt><trkpt lat="45.58581728201745" lon="8.238095653877123"><ele>276.0</ele><time>2026-04-06T12:04:12.999Z</time></trkpt><trkpt lat="45.58581259795779" lon="8.238250644870051"><ele>278.25</ele><time>2026-04-06T12:04:13.999Z</time></trkpt><trkpt lat="45.58576012753013" lon="8.238382692564468"><ele>280.5</ele><time>2026-04-06T12:04:14.999Z</time></trkpt><trkpt lat="45.58573904923587" lon="8.238520969614076"><ele>282.75</ele><time>2026-04-06T12:04:15.999Z</time></trkpt><trkpt lat="45.58572095747708" lon="8.238708816422383"><ele>285.0</ele><time>2026-04-06T12:04:16.999Z</time></trkpt><trkpt lat="45.585691542518894" lon="8.23888050814913"><ele>286.4</ele><time>2026-04-06T12:04:17.999Z</time></trkpt><trkpt lat="45.585679836761926" lon="8.239007755399992"><ele>287.8</ele><time>2026-04-06T12:04:18.999Z</time></trkpt><trkpt lat="45.585689658936474" lon="8.239136581639658"><ele>289.2</ele><time>2026-04-06T12:04:19.999Z</time></trkpt><trkpt lat="45.58569330453012" lon="8.239276121569175"><ele>290.6</ele><time>2026-04-06T12:04:20.999Z</time></trkpt><trkpt lat="45.58567647357743" lon="8.23942614715951"><ele>292.0</ele><time>2026-04-06T12:04:21.999Z</time></trkpt><trkpt lat="45.58566157552407" lon="8.23954237036542"><ele>292.0</ele><time>2026-04-06T12:04:22.999Z</time></trkpt><trkpt lat="45.58561681243274" lon="8.239648557285346"><ele>292.0</ele><time>2026-04-06T12:04:23.999Z</time></trkpt><trkpt lat="45.585544348254174" lon="8.239702267918732"><ele>292.0</ele><time>2026-04-06T12:04:24.999Z</time></trkpt><trkpt lat="45.58548824673548" lon="8.239755094733631"><ele>292.0</ele><time>2026-04-06T12:04:25.999Z</time></trkpt><trkpt lat="45.58553059554505" lon="8.239839844087019"><ele>292.0</ele><time>2026-04-06T12:04:26.999Z</time></trkpt><trkpt lat="45.58557226130185" lon="8.23994547718175"><ele>292.0</ele><time>2026-04-06T12:04:27.999Z</time></trkpt><trkpt lat="45.58565654063109" lon="8.240041589218754"><ele>292.16666666666663</ele><time>2026-04-06T12:04:29.999Z</time></trkpt><trkpt lat="45.58569271717929" lon="8.240141495087396"><ele>292.3333333333333</ele><time>2026-04-06T12:04:30.999Z</time></trkpt><trkpt lat="45.58563036577862" lon="8.240167117388877"><ele>292.5</ele><time>2026-04-06T12:04:34.999Z</time></trkpt><trkpt lat="45.585567480304285" lon="8.24021629633563"><ele>292.6666666666667</ele><time>2026-04-06T12:04:49.999Z</time></trkpt><trkpt lat="45.58548936742443" lon="8.240275450778404"><ele>292.83333333333337</ele><time>2026-04-06T12:04:52.999Z</time></trkpt><trkpt lat="45.58543538058815" lon="8.240334442951099"><ele>293.0</ele><time>2026-04-06T12:04:54.999Z</time></trkpt><trkpt lat="45.585363833064235" lon="8.240413598017598"><ele>293.4</ele><time>2026-04-06T12:04:56.999Z</time></trkpt><trkpt lat="45.585292664655846" lon="8.24053436551398"><ele>293.8</ele><time>2026-04-06T12:04:58.999Z</time></trkpt><trkpt lat="45.58519897496543" lon="8.240673866676365"><ele>294.2</ele><time>2026-04-06T12:05:00.999Z</time></trkpt><trkpt lat="45.58513286640309" lon="8.240732974164876"><ele>294.6</ele><time>2026-04-06T12:05:01.999Z</time></trkpt><trkpt lat="45.58504439895286" lon="8.2407911391953"><ele>295.0</ele><time>2026-04-06T12:05:02.999Z</time></trkpt><trkpt lat="45.584946637976905" lon="8.24084609386923"><ele>295.0</ele><time>2026-04-06T12:05:03.999Z</time></trkpt><trkpt lat="45.584856558805065" lon="8.24090151553863"><ele>295.0</ele><time>2026-04-06T12:05:04.999Z</time></trkpt><trkpt lat="45.58479129721221" lon="8.240930910630231"><ele>295.0</ele><time>2026-04-06T12:05:05.999Z</time></trkpt><trkpt lat="45.584721396216814" lon="8.240943902682462"><ele>295.0</ele><time>2026-04-06T12:05:06.999Z</time></trkpt><trkpt lat="45.584615714344054" lon="8.240994181826432"><ele>295.0</ele><time>2026-04-06T12:05:08.999Z</time></trkpt><trkpt lat="45.584563069515774" lon="8.2411664802051"><ele>294.4</ele><time>2026-04-06T12:05:10.999Z</time></trkpt><trkpt lat="45.58450460035435" lon="8.24128677378707"><ele>293.8</ele><time>2026-04-06T12:05:11.999Z</time></trkpt><trkpt lat="45.584401654279866" lon="8.241348113181738"><ele>293.2</ele><time>2026-04-06T12:05:12.999Z</time></trkpt><trkpt lat="45.58431560388494" lon="8.241395732103639"><ele>292.6</ele><time>2026-04-06T12:05:13.999Z</time></trkpt><trkpt lat="45.58431016676831" lon="8.24155339788389"><ele>292.0</ele><time>2026-04-06T12:05:15.998Z</time></trkpt><trkpt lat="45.58424789624765" lon="8.241625017794668"><ele>293.2</ele><time>2026-04-06T12:05:17.998Z</time></trkpt><trkpt lat="45.58419099072621" lon="8.241675806630477"><ele>294.4</ele><time>2026-04-06T12:05:18.998Z</time></trkpt><trkpt lat="45.58415175103734" lon="8.241766656693986"><ele>295.6</ele><time>2026-04-06T12:05:20.998Z</time></trkpt><trkpt lat="45.58410998825138" lon="8.241924288379963"><ele>296.8</ele><time>2026-04-06T12:05:21.998Z</time></trkpt><trkpt lat="45.58412987346757" lon="8.242022126085693"><ele>298.0</ele><time>2026-04-06T12:05:22.998Z</time></trkpt><trkpt lat="45.584103480848114" lon="8.242212550337237"><ele>298.0</ele><time>2026-04-06T12:05:25Z</time></trkpt><trkpt lat="45.584060923432475" lon="8.242297404028307"><ele>298.0</ele><time>2026-04-06T12:05:26Z</time></trkpt><trkpt lat="45.58400133284321" lon="8.242394299053005"><ele>298.0</ele><time>2026-04-06T12:05:27Z</time></trkpt><trkpt lat="45.58392613885355" lon="8.24248799380119"><ele>298.0</ele><time>2026-04-06T12:05:28Z</time></trkpt><trkpt lat="45.58385268665812" lon="8.242555442537949"><ele>298.0</ele><time>2026-04-06T12:05:29Z</time></trkpt><trkpt lat="45.5837915106482" lon="8.24260366613396"><ele>298.0</ele><time>2026-04-06T12:05:30Z</time></trkpt><trkpt lat="45.58370746449052" lon="8.242488680356573"><ele>297.5</ele><time>2026-04-06T12:05:32Z</time></trkpt><trkpt lat="45.58363950938261" lon="8.242453260434313"><ele>297.0</ele><time>2026-04-06T12:05:33Z</time></trkpt><trkpt lat="45.58355430119182" lon="8.24243164178724"><ele>296.5</ele><time>2026-04-06T12:05:34Z</time></trkpt><trkpt lat="45.583501091679864" lon="8.242359777435794"><ele>296.0</ele><time>2026-04-06T12:05:35Z</time></trkpt><trkpt lat="45.58343497135541" lon="8.242311036718327"><ele>295.5</ele><time>2026-04-06T12:05:36Z</time></trkpt><trkpt lat="45.58333566610983" lon="8.242247638637501"><ele>295.0</ele><time>2026-04-06T12:05:37Z</time></trkpt><trkpt lat="45.58324375067422" lon="8.242204827490134"><ele>293.8</ele><time>2026-04-06T12:05:38Z</time></trkpt><trkpt lat="45.58315907981199" lon="8.242207488322144"><ele>292.6</ele><time>2026-04-06T12:05:39Z</time></trkpt><trkpt lat="45.58305458658405" lon="8.242199275206106"><ele>291.4</ele><time>2026-04-06T12:05:40Z</time></trkpt><trkpt lat="45.582968121533966" lon="8.242202426341663"><ele>290.2</ele><time>2026-04-06T12:05:41Z</time></trkpt><trkpt lat="45.58283233168836" lon="8.242181773256938"><ele>289.0</ele><time>2026-04-06T12:05:41.999Z</time></trkpt><trkpt lat="45.582744251876065" lon="8.242122929149048"><ele>289.0</ele><time>2026-04-06T12:05:42.999Z</time></trkpt><trkpt lat="45.58267696001368" lon="8.242161715807027"><ele>289.0</ele><time>2026-04-06T12:05:44.999Z</time></trkpt><trkpt lat="45.582604187287004" lon="8.242239916967918"><ele>289.0</ele><time>2026-04-06T12:05:45.999Z</time></trkpt><trkpt lat="45.58253035695591" lon="8.242296098025568"><ele>289.0</ele><time>2026-04-06T12:05:46.999Z</time></trkpt><trkpt lat="45.58240967119049" lon="8.242384850992543"><ele>289.0</ele><time>2026-04-06T12:05:48.999Z</time></trkpt><trkpt lat="45.58234107905029" lon="8.24244205895826"><ele>291.5</ele><time>2026-04-06T12:05:49.999Z</time></trkpt><trkpt lat="45.58224057516797" lon="8.242491118726816"><ele>294.0</ele><time>2026-04-06T12:05:50.999Z</time></trkpt><trkpt lat="45.58211067046132" lon="8.242543277228071"><ele>296.5</ele><time>2026-04-06T12:05:51.999Z</time></trkpt><trkpt lat="45.581973925035456" lon="8.242608395643"><ele>299.0</ele><time>2026-04-06T12:05:52.999Z</time></trkpt><trkpt lat="45.58185082084311" lon="8.242633908873314"><ele>299.0</ele><time>2026-04-06T12:05:53.999Z</time></trkpt><trkpt lat="45.58175680378214" lon="8.242578360087657"><ele>299.0</ele><time>2026-04-06T12:05:55.999Z</time></trkpt><trkpt lat="45.581699140413185" lon="8.242521939379783"><ele>299.0</ele><time>2026-04-06T12:05:56.999Z</time></trkpt><trkpt lat="45.58156776722486" lon="8.242390376861579"><ele>299.0</ele><time>2026-04-06T12:05:58.999Z</time></trkpt><trkpt lat="45.58147762488578" lon="8.242348852183122"><ele>299.0</ele><time>2026-04-06T12:06:00.999Z</time></trkpt><trkpt lat="45.581397598586186" lon="8.24233991560817"><ele>299.0</ele><time>2026-04-06T12:06:33.999Z</time></trkpt><trkpt lat="45.5813141886975" lon="8.242302406587042"><ele>299.0</ele><time>2026-04-06T12:06:37.999Z</time></trkpt><trkpt lat="45.581248183136" lon="8.242219232779513"><ele>299.0</ele><time>2026-04-06T12:06:40.999Z</time></trkpt><trkpt lat="45.58116425942259" lon="8.242215594219438"><ele>299.0</ele><time>2026-04-06T12:06:42.999Z</time></trkpt><trkpt lat="45.58105499685701" lon="8.242314969156126"><ele>299.0</ele><time>2026-04-06T12:06:44.999Z</time></trkpt><trkpt lat="45.58098851437839" lon="8.242343155504905"><ele>298.4</ele><time>2026-04-06T12:06:45.999Z</time></trkpt><trkpt lat="45.580924905470724" lon="8.242329261921556"><ele>297.79999999999995</ele><time>2026-04-06T12:06:46.999Z</time></trkpt><trkpt lat="45.58084758982051" lon="8.24228478910417"><ele>297.20000000000005</ele><time>2026-04-06T12:06:47.999Z</time></trkpt><trkpt lat="45.58073749585254" lon="8.242243470781641"><ele>296.6</ele><time>2026-04-06T12:06:48.999Z</time></trkpt><trkpt lat="45.580584103203904" lon="8.242221313145242"><ele>296.0</ele><time>2026-04-06T12:06:49.999Z</time></trkpt><trkpt lat="45.58041498632975" lon="8.242228734916031"><ele>294.40000000000003</ele><time>2026-04-06T12:06:50.999Z</time></trkpt><trkpt lat="45.580276005760915" lon="8.24223723046148"><ele>292.8</ele><time>2026-04-06T12:06:51.999Z</time></trkpt><trkpt lat="45.5801489519245" lon="8.242279364569413"><ele>291.20000000000005</ele><time>2026-04-06T12:06:52.999Z</time></trkpt><trkpt lat="45.580075661752296" lon="8.242308731292173"><ele>289.6</ele><time>2026-04-06T12:06:53.999Z</time></trkpt><trkpt lat="45.580049151122175" lon="8.242392971031697"><ele>288.0</ele><time>2026-04-06T12:07:59Z</time></trkpt><trkpt lat="45.58003313408219" lon="8.242488230847972"><ele>288.0</ele><time>2026-04-06T12:12:50Z</time></trkpt><trkpt lat="45.58005294926367" lon="8.242367151274276"><ele>288.0</ele><time>2026-04-06T12:25:33.999Z</time></trkpt><trkpt lat="45.57997690580633" lon="8.242300908584928"><ele>288.0</ele><time>2026-04-06T12:25:53.999Z</time></trkpt><trkpt lat="45.57989875383807" lon="8.242235548772273"><ele>288.0</ele><time>2026-04-06T12:25:55.999Z</time></trkpt><trkpt lat="45.57984314007527" lon="8.242175673451017"><ele>288.0</ele><time>2026-04-06T12:25:56.999Z</time></trkpt><trkpt lat="45.57978922242021" lon="8.242101140086065"><ele>288.0</ele><time>2026-04-06T12:25:57.999Z</time></trkpt><trkpt lat="45.57974754771024" lon="8.242003435516247"><ele>288.0</ele><time>2026-04-06T12:25:58.999Z</time></trkpt><trkpt lat="45.57968807739639" lon="8.24193069298303"><ele>288.0</ele><time>2026-04-06T12:25:59.999Z</time></trkpt><trkpt lat="45.57962663089622" lon="8.241883314952126"><ele>288.0</ele><time>2026-04-06T12:26:00.999Z</time></trkpt><trkpt lat="45.57954632988651" lon="8.241854114548431"><ele>288.0</ele><time>2026-04-06T12:26:01.999Z</time></trkpt><trkpt lat="45.57947137886613" lon="8.241806587617923"><ele>288.0</ele><time>2026-04-06T12:26:02.999Z</time></trkpt><trkpt lat="45.579387633322945" lon="8.241762943500117"><ele>288.0</ele><time>2026-04-06T12:26:03.999Z</time></trkpt><trkpt lat="45.57930438450196" lon="8.241728742029403"><ele>288.8333333333333</ele><time>2026-04-06T12:26:04.999Z</time></trkpt><trkpt lat="45.57922182768549" lon="8.241770096194013"><ele>289.6666666666667</ele><time>2026-04-06T12:26:05.999Z</time></trkpt><trkpt lat="45.579141118508815" lon="8.24183676675702"><ele>290.5</ele><time>2026-04-06T12:26:06.999Z</time></trkpt><trkpt lat="45.57906507569878" lon="8.24190923192874"><ele>291.33333333333337</ele><time>2026-04-06T12:26:07.999Z</time></trkpt><trkpt lat="45.57900651504388" lon="8.241966545681203"><ele>292.1666666666667</ele><time>2026-04-06T12:26:08.999Z</time></trkpt><trkpt lat="45.57893763274007" lon="8.242042875058527"><ele>293.0</ele><time>2026-04-06T12:26:10.999Z</time></trkpt><trkpt lat="45.5788428525237" lon="8.242095332528406"><ele>293.0</ele><time>2026-04-06T12:26:12.999Z</time></trkpt><trkpt lat="45.578762673279364" lon="8.242153083649292"><ele>293.0</ele><time>2026-04-06T12:26:13.999Z</time></trkpt><trkpt lat="45.57869822831453" lon="8.242234496517055"><ele>293.0</ele><time>2026-04-06T12:26:14.999Z</time></trkpt><trkpt lat="45.578632469048635" lon="8.242189007604162"><ele>293.0</ele><time>2026-04-06T12:26:17.999Z</time></trkpt><trkpt lat="45.57864666184478" lon="8.242086429620304"><ele>293.0</ele><time>2026-04-06T12:26:19.999Z</time></trkpt><trkpt lat="45.578547449814536" lon="8.242009111550951"><ele>293.0</ele><time>2026-04-06T12:26:21.999Z</time></trkpt><trkpt lat="45.57847442567989" lon="8.241922408832036"><ele>291.2</ele><time>2026-04-06T12:26:22.999Z</time></trkpt><trkpt lat="45.578405313752405" lon="8.241914028868376"><ele>289.4</ele><time>2026-04-06T12:26:23.999Z</time></trkpt><trkpt lat="45.57830396231512" lon="8.241885379488954"><ele>287.59999999999997</ele><time>2026-04-06T12:26:25Z</time></trkpt><trkpt lat="45.578216970495966" lon="8.24177907092315"><ele>285.8</ele><time>2026-04-06T12:26:26Z</time></trkpt><trkpt lat="45.57813409077" lon="8.241633688993888"><ele>284.0</ele><time>2026-04-06T12:26:27Z</time></trkpt><trkpt lat="45.57805470540016" lon="8.241539443737558"><ele>283.8</ele><time>2026-04-06T12:26:28Z</time></trkpt><trkpt lat="45.57799148834653" lon="8.241453584711863"><ele>283.59999999999997</ele><time>2026-04-06T12:26:29Z</time></trkpt><trkpt lat="45.57792875744328" lon="8.2413456299147"><ele>283.4</ele><time>2026-04-06T12:26:30Z</time></trkpt><trkpt lat="45.577860191354404" lon="8.241270321069845"><ele>283.2</ele><time>2026-04-06T12:26:31Z</time></trkpt><trkpt lat="45.577750761234874" lon="8.241177297438655"><ele>283.0</ele><time>2026-04-06T12:26:32Z</time></trkpt><trkpt lat="45.57766399742957" lon="8.24109432536305"><ele>281.4</ele><time>2026-04-06T12:26:33Z</time></trkpt><trkpt lat="45.577583606078036" lon="8.241012066298532"><ele>279.8</ele><time>2026-04-06T12:26:34Z</time></trkpt><trkpt lat="45.57752281987576" lon="8.240929185578644"><ele>278.2</ele><time>2026-04-06T12:26:35Z</time></trkpt><trkpt lat="45.57747077953087" lon="8.240837686753535"><ele>276.6</ele><time>2026-04-06T12:26:36Z</time></trkpt><trkpt lat="45.57743629961291" lon="8.24071218845529"><ele>275.0</ele><time>2026-04-06T12:26:37Z</time></trkpt><trkpt lat="45.5773848468834" lon="8.240595640197029"><ele>275.0</ele><time>2026-04-06T12:26:38Z</time></trkpt><trkpt lat="45.57732155710782" lon="8.240527887348295"><ele>275.0</ele><time>2026-04-06T12:26:39Z</time></trkpt><trkpt lat="45.57725344259687" lon="8.240502201366333"><ele>275.0</ele><time>2026-04-06T12:26:40Z</time></trkpt><trkpt lat="45.57716853877719" lon="8.240487992054454"><ele>275.0</ele><time>2026-04-06T12:26:41Z</time></trkpt><trkpt lat="45.577091135884004" lon="8.240611852730666"><ele>275.0</ele><time>2026-04-06T12:26:43Z</time></trkpt><trkpt lat="45.57705016467758" lon="8.240737970377543"><ele>275.0</ele><time>2026-04-06T12:26:45Z</time></trkpt><trkpt lat="45.57700336966666" lon="8.240851595736565"><ele>275.0</ele><time>2026-04-06T12:26:47Z</time></trkpt><trkpt lat="45.57703926490039" lon="8.2409467443657"><ele>275.0</ele><time>2026-04-06T12:26:49Z</time></trkpt><trkpt lat="45.577011882077976" lon="8.241033459289328"><ele>275.0</ele><time>2026-04-06T12:26:51Z</time></trkpt><trkpt lat="45.57715501462446" lon="8.241498057420442"><ele>275.0</ele><time>2026-04-06T12:26:53Z</time></trkpt><trkpt lat="45.57713148367144" lon="8.241629636810812"><ele>275.0</ele><time>2026-04-06T12:26:55Z</time></trkpt><trkpt lat="45.5770777729675" lon="8.241727017620274"><ele>275.0</ele><time>2026-04-06T12:26:57Z</time></trkpt><trkpt lat="45.57701499391873" lon="8.241647706872186"><ele>275.0</ele><time>2026-04-06T12:27:00Z</time></trkpt><trkpt lat="45.57692358104878" lon="8.241556211553752"><ele>275.0</ele><time>2026-04-06T12:27:02Z</time></trkpt><trkpt lat="45.57683589123099" lon="8.241394110435222"><ele>274.0</ele><time>2026-04-06T12:27:04Z</time></trkpt><trkpt lat="45.57674809121841" lon="8.241283252163408"><ele>273.0</ele><time>2026-04-06T12:27:05Z</time></trkpt><trkpt lat="45.576676235073045" lon="8.2412144900096"><ele>272.0</ele><time>2026-04-06T12:27:06Z</time></trkpt><trkpt lat="45.5766039789731" lon="8.241152752556491"><ele>271.0</ele><time>2026-04-06T12:27:07Z</time></trkpt><trkpt lat="45.57655248918931" lon="8.24106875767904"><ele>270.0</ele><time>2026-04-06T12:27:08Z</time></trkpt><trkpt lat="45.57650607002378" lon="8.24096081229233"><ele>270.0</ele><time>2026-04-06T12:27:09Z</time></trkpt><trkpt lat="45.57646308125079" lon="8.240841934559425"><ele>270.0</ele><time>2026-04-06T12:27:10Z</time></trkpt><trkpt lat="45.576418455612284" lon="8.240727458799645"><ele>270.0</ele><time>2026-04-06T12:27:11Z</time></trkpt><trkpt lat="45.57637722742126" lon="8.240653044673243"><ele>270.0</ele><time>2026-04-06T12:27:12Z</time></trkpt><trkpt lat="45.576317027205526" lon="8.240604877916518"><ele>270.0</ele><time>2026-04-06T12:27:13Z</time></trkpt><trkpt lat="45.57622493625128" lon="8.240592873034176"><ele>270.0</ele><time>2026-04-06T12:27:14Z</time></trkpt><trkpt lat="45.57611882370191" lon="8.240612782479397"><ele>269.5</ele><time>2026-04-06T12:27:15Z</time></trkpt><trkpt lat="45.57603999672889" lon="8.240584328502413"><ele>269.0</ele><time>2026-04-06T12:27:16Z</time></trkpt><trkpt lat="45.57593585639692" lon="8.240545335551563"><ele>268.5</ele><time>2026-04-06T12:27:17Z</time></trkpt><trkpt lat="45.57601201605515" lon="8.240539881947756"><ele>268.0</ele><time>2026-04-06T12:27:18Z</time></trkpt><trkpt lat="45.57591774787803" lon="8.24051734601197"><ele>267.5</ele><time>2026-04-06T12:27:19Z</time></trkpt><trkpt lat="45.57583223671556" lon="8.240524173146428"><ele>267.0</ele><time>2026-04-06T12:27:20Z</time></trkpt><trkpt lat="45.57579034386699" lon="8.24061050560785"><ele>267.0</ele><time>2026-04-06T12:27:22Z</time></trkpt><trkpt lat="45.57569742018037" lon="8.240629496568369"><ele>267.0</ele><time>2026-04-06T12:27:24Z</time></trkpt><trkpt lat="45.575635008823575" lon="8.240546389862997"><ele>267.0</ele><time>2026-04-06T12:27:26Z</time></trkpt><trkpt lat="45.57567115670048" lon="8.240416067218153"><ele>267.0</ele><time>2026-04-06T12:27:28Z</time></trkpt><trkpt lat="45.57570513011814" lon="8.240307175310893"><ele>267.0</ele><time>2026-04-06T12:27:29.999Z</time></trkpt><trkpt lat="45.57570998242734" lon="8.240185050801193"><ele>267.0</ele><time>2026-04-06T12:27:31.999Z</time></trkpt><trkpt lat="45.575665515734116" lon="8.240115301630114"><ele>267.0</ele><time>2026-04-06T12:27:32.999Z</time></trkpt><trkpt lat="45.575605199721366" lon="8.239950254995378"><ele>267.0</ele><time>2026-04-06T12:27:34.999Z</time></trkpt><trkpt lat="45.57554675994757" lon="8.239843285279342"><ele>267.0</ele><time>2026-04-06T12:27:35.999Z</time></trkpt><trkpt lat="45.57549679668458" lon="8.239754942813464"><ele>267.0</ele><time>2026-04-06T12:27:36.999Z</time></trkpt><trkpt lat="45.57542237995764" lon="8.239768807364896"><ele>267.0</ele><time>2026-04-06T12:27:40.999Z</time></trkpt><trkpt lat="45.57535167558084" lon="8.23984206252937"><ele>266.3333333333333</ele><time>2026-04-06T12:27:43.999Z</time></trkpt><trkpt lat="45.575115548565535" lon="8.24020312447564"><ele>265.66666666666663</ele><time>2026-04-06T12:27:45.999Z</time></trkpt><trkpt lat="45.57505517676536" lon="8.240234193225959"><ele>265.0</ele><time>2026-04-06T12:27:46.999Z</time></trkpt><trkpt lat="45.57492088767278" lon="8.240237179165009"><ele>265.0</ele><time>2026-04-06T12:27:48.999Z</time></trkpt><trkpt lat="45.57482457508009" lon="8.24024331681515"><ele>265.0</ele><time>2026-04-06T12:27:49.999Z</time></trkpt><trkpt lat="45.57473614979779" lon="8.240251546675252"><ele>265.0</ele><time>2026-04-06T12:27:50.999Z</time></trkpt><trkpt lat="45.57465390193806" lon="8.240250278230707"><ele>265.0</ele><time>2026-04-06T12:27:51.999Z</time></trkpt><trkpt lat="45.57458068908188" lon="8.24024747961758"><ele>265.0</ele><time>2026-04-06T12:27:52.999Z</time></trkpt><trkpt lat="45.57447093704328" lon="8.240258476120895"><ele>264.6</ele><time>2026-04-06T12:27:53.999Z</time></trkpt><trkpt lat="45.57437445410756" lon="8.24025813598408"><ele>264.2</ele><time>2026-04-06T12:27:54.999Z</time></trkpt><trkpt lat="45.574283453845865" lon="8.24025917061768"><ele>263.8</ele><time>2026-04-06T12:27:55.999Z</time></trkpt><trkpt lat="45.574194496070604" lon="8.240272985462363"><ele>263.4</ele><time>2026-04-06T12:27:56.999Z</time></trkpt><trkpt lat="45.57411300289814" lon="8.240291541317566"><ele>263.0</ele><time>2026-04-06T12:27:57.999Z</time></trkpt><trkpt lat="45.57401885473893" lon="8.24030648176417"><ele>263.0</ele><time>2026-04-06T12:27:58.999Z</time></trkpt><trkpt lat="45.57395316998268" lon="8.240302573619001"><ele>263.0</ele><time>2026-04-06T12:27:59.999Z</time></trkpt><trkpt lat="45.573884952812044" lon="8.240256858206232"><ele>263.0</ele><time>2026-04-06T12:28:09.999Z</time></trkpt><trkpt lat="45.573852767018856" lon="8.240351931640914"><ele>263.0</ele><time>2026-04-06T12:28:12.999Z</time></trkpt><trkpt lat="45.57376497867453" lon="8.240371924929152"><ele>263.0</ele><time>2026-04-06T12:28:15.999Z</time></trkpt><trkpt lat="45.57364929259605" lon="8.240453129952845"><ele>263.0</ele><time>2026-04-06T12:28:17.999Z</time></trkpt><trkpt lat="45.57359419286478" lon="8.240519270107876"><ele>262.33333333333337</ele><time>2026-04-06T12:28:18.999Z</time></trkpt><trkpt lat="45.5735536015142" lon="8.24059940869385"><ele>261.6666666666667</ele><time>2026-04-06T12:28:19.999Z</time></trkpt><trkpt lat="45.57355319348015" lon="8.240728018190149"><ele>261.0</ele><time>2026-04-06T12:28:20.999Z</time></trkpt><trkpt lat="45.573561661682135" lon="8.240841738654339"><ele>260.3333333333333</ele><time>2026-04-06T12:28:21.999Z</time></trkpt><trkpt lat="45.57359507120904" lon="8.240968933684801"><ele>259.66666666666663</ele><time>2026-04-06T12:28:22.999Z</time></trkpt><trkpt lat="45.5736044610914" lon="8.241101917719735"><ele>259.0</ele><time>2026-04-06T12:28:23.999Z</time></trkpt><trkpt lat="45.57359586630082" lon="8.241232946552959"><ele>258.59999999999997</ele><time>2026-04-06T12:28:24.999Z</time></trkpt><trkpt lat="45.573592085110086" lon="8.241361109738676"><ele>258.2</ele><time>2026-04-06T12:28:25.999Z</time></trkpt><trkpt lat="45.57358913353877" lon="8.241472333759058"><ele>257.79999999999995</ele><time>2026-04-06T12:28:26.999Z</time></trkpt><trkpt lat="45.5735870631904" lon="8.241596310044013"><ele>257.4</ele><time>2026-04-06T12:28:27.999Z</time></trkpt><trkpt lat="45.573602668131564" lon="8.241741488624367"><ele>257.0</ele><time>2026-04-06T12:28:28.999Z</time></trkpt><trkpt lat="45.57363445111105" lon="8.241888162659986"><ele>256.0</ele><time>2026-04-06T12:28:29.999Z</time></trkpt><trkpt lat="45.57364413819601" lon="8.242020622571355"><ele>255.0</ele><time>2026-04-06T12:28:31Z</time></trkpt><trkpt lat="45.57366704546244" lon="8.242120127707409"><ele>254.0</ele><time>2026-04-06T12:28:32Z</time></trkpt><trkpt lat="45.57368733654354" lon="8.242235925833626"><ele>253.0</ele><time>2026-04-06T12:28:33Z</time></trkpt><trkpt lat="45.57358968368281" lon="8.242338211733035"><ele>252.00000000000003</ele><time>2026-04-06T12:28:35Z</time></trkpt><trkpt lat="45.573513253780106" lon="8.242358601298042"><ele>251.0</ele><time>2026-04-06T12:28:36Z</time></trkpt><trkpt lat="45.573418841714265" lon="8.242279915904069"><ele>251.0</ele><time>2026-04-06T12:28:38Z</time></trkpt><trkpt lat="45.5733852632556" lon="8.242121581213134"><ele>251.00000000000003</ele><time>2026-04-06T12:28:40Z</time></trkpt><trkpt lat="45.57337149821475" lon="8.241995085749416"><ele>251.00000000000003</ele><time>2026-04-06T12:28:41Z</time></trkpt><trkpt lat="45.573354323555314" lon="8.241905822381534"><ele>251.0</ele><time>2026-04-06T12:28:42Z</time></trkpt><trkpt lat="45.57335278240208" lon="8.241758369733459"><ele>251.0</ele><time>2026-04-06T12:28:44Z</time></trkpt><trkpt lat="45.57337198811781" lon="8.241648299541799"><ele>251.0</ele><time>2026-04-06T12:28:45Z</time></trkpt><trkpt lat="45.57337986842448" lon="8.241506395797702"><ele>251.00000000000003</ele><time>2026-04-06T12:28:46Z</time></trkpt><trkpt lat="45.57334330095153" lon="8.241341810386267"><ele>251.00000000000003</ele><time>2026-04-06T12:28:48Z</time></trkpt><trkpt lat="45.573299475090366" lon="8.24123081233524"><ele>251.0</ele><time>2026-04-06T12:28:50Z</time></trkpt><trkpt lat="45.573227447204125" lon="8.241168492037124"><ele>251.0</ele><time>2026-04-06T12:28:54Z</time></trkpt><trkpt lat="45.57314148616728" lon="8.241109279096591"><ele>250.8</ele><time>2026-04-06T12:28:57Z</time></trkpt><trkpt lat="45.57300961292386" lon="8.241028096975514"><ele>250.60000000000002</ele><time>2026-04-06T12:28:59Z</time></trkpt><trkpt lat="45.57294240124358" lon="8.24099221802267"><ele>250.4</ele><time>2026-04-06T12:29:01Z</time></trkpt><trkpt lat="45.57284206977553" lon="8.240951886240103"><ele>250.2</ele><time>2026-04-06T12:29:03Z</time></trkpt><trkpt lat="45.572767771322525" lon="8.240927303621827"><ele>250.0</ele><time>2026-04-06T12:29:04Z</time></trkpt><trkpt lat="45.57265667829521" lon="8.240902551016973"><ele>250.0</ele><time>2026-04-06T12:29:05Z</time></trkpt><trkpt lat="45.572563106573476" lon="8.240877022201733"><ele>250.0</ele><time>2026-04-06T12:29:07Z</time></trkpt><trkpt lat="45.5724591518858" lon="8.24084292147173"><ele>250.0</ele><time>2026-04-06T12:29:09Z</time></trkpt><trkpt lat="45.57234840537398" lon="8.240750592500467"><ele>250.0</ele><time>2026-04-06T12:29:11Z</time></trkpt><trkpt lat="45.57228810494379" lon="8.240705853476133"><ele>250.0</ele><time>2026-04-06T12:29:12Z</time></trkpt><trkpt lat="45.57218070413572" lon="8.240626173819397"><ele>249.99999999999997</ele><time>2026-04-06T12:29:13Z</time></trkpt><trkpt lat="45.572095977631726" lon="8.240563276389734"><ele>250.0</ele><time>2026-04-06T12:29:14Z</time></trkpt><trkpt lat="45.57203090423446" lon="8.240527394793885"><ele>250.0</ele><time>2026-04-06T12:29:15Z</time></trkpt><trkpt lat="45.57195618938678" lon="8.24048785692165"><ele>250.0</ele><time>2026-04-06T12:29:16Z</time></trkpt><trkpt lat="45.57189398718612" lon="8.240459776371118"><ele>249.99999999999997</ele><time>2026-04-06T12:29:18Z</time></trkpt><trkpt lat="45.57179421661148" lon="8.240474629743925"><ele>250.0</ele><time>2026-04-06T12:29:20Z</time></trkpt><trkpt lat="45.57168732964736" lon="8.24037818765285"><ele>250.0</ele><time>2026-04-06T12:29:22Z</time></trkpt><trkpt lat="45.5716168754786" lon="8.24034600292899"><ele>250.0</ele><time>2026-04-06T12:29:23Z</time></trkpt><trkpt lat="45.571532042229606" lon="8.240390239389995"><ele>250.0</ele><time>2026-04-06T12:29:24Z</time></trkpt><trkpt lat="45.571445349567185" lon="8.240450256624332"><ele>250.0</ele><time>2026-04-06T12:29:25Z</time></trkpt><trkpt lat="45.571340924643046" lon="8.240501875558724"><ele>250.0</ele><time>2026-04-06T12:29:26Z</time></trkpt><trkpt lat="45.57125418305485" lon="8.240556214394472"><ele>249.83333333333331</ele><time>2026-04-06T12:29:27Z</time></trkpt><trkpt lat="45.57117266901416" lon="8.240574436233016"><ele>249.66666666666666</ele><time>2026-04-06T12:29:28Z</time></trkpt><trkpt lat="45.57111111664062" lon="8.240610861780093"><ele>249.5</ele><time>2026-04-06T12:29:29Z</time></trkpt><trkpt lat="45.571038932007305" lon="8.240567916627164"><ele>249.33333333333331</ele><time>2026-04-06T12:29:30Z</time></trkpt><trkpt lat="45.57093606296955" lon="8.240565807716925"><ele>249.16666666666666</ele><time>2026-04-06T12:29:31Z</time></trkpt><trkpt lat="45.570858996555984" lon="8.240552815475148"><ele>249.0</ele><time>2026-04-06T12:29:32Z</time></trkpt><trkpt lat="45.57082166290931" lon="8.24047168906259"><ele>249.0</ele><time>2026-04-06T12:29:34Z</time></trkpt><trkpt lat="45.570767895093084" lon="8.240424280377956"><ele>249.0</ele><time>2026-04-06T12:29:35Z</time></trkpt><trkpt lat="45.570719857948276" lon="8.240279706444001"><ele>249.0</ele><time>2026-04-06T12:29:35.999Z</time></trkpt><trkpt lat="45.570690966307154" lon="8.24019349152376"><ele>249.0</ele><time>2026-04-06T12:29:36.999Z</time></trkpt><trkpt lat="45.5707301061152" lon="8.240095503366893"><ele>249.0</ele><time>2026-04-06T12:29:37.999Z</time></trkpt><trkpt lat="45.570741649710165" lon="8.239983942104013"><ele>249.0</ele><time>2026-04-06T12:29:38.999Z</time></trkpt><trkpt lat="45.57075561471131" lon="8.2398422030974"><ele>249.5</ele><time>2026-04-06T12:29:39.999Z</time></trkpt><trkpt lat="45.57075193353243" lon="8.239714294508037"><ele>250.0</ele><time>2026-04-06T12:29:40.999Z</time></trkpt><trkpt lat="45.570741537504794" lon="8.239607477413918"><ele>250.5</ele><time>2026-04-06T12:29:42.999Z</time></trkpt><trkpt lat="45.570724693236315" lon="8.239464949082294"><ele>251.0</ele><time>2026-04-06T12:29:44.999Z</time></trkpt><trkpt lat="45.57069847657219" lon="8.239328408999917"><ele>251.5</ele><time>2026-04-06T12:29:45.999Z</time></trkpt><trkpt lat="45.57066603400501" lon="8.23923106480252"><ele>252.0</ele><time>2026-04-06T12:29:46.999Z</time></trkpt><trkpt lat="45.570597073377115" lon="8.239091913834061"><ele>252.0</ele><time>2026-04-06T12:29:48.999Z</time></trkpt><trkpt lat="45.570553876371896" lon="8.239008833232846"><ele>252.0</ele><time>2026-04-06T12:29:49.999Z</time></trkpt><trkpt lat="45.57051051178123" lon="8.238925430301405"><ele>252.0</ele><time>2026-04-06T12:29:50.999Z</time></trkpt><trkpt lat="45.57046573556657" lon="8.23883931239829"><ele>252.0</ele><time>2026-04-06T12:29:51.999Z</time></trkpt><trkpt lat="45.570420272234635" lon="8.23875187296827"><ele>252.0</ele><time>2026-04-06T12:29:52.999Z</time></trkpt><trkpt lat="45.570371108881226" lon="8.238657317299166"><ele>252.0</ele><time>2026-04-06T12:29:53.999Z</time></trkpt><trkpt lat="45.570353124277545" lon="8.23853431572117"><ele>251.83333333333334</ele><time>2026-04-06T12:29:54.999Z</time></trkpt><trkpt lat="45.57029950642062" lon="8.238452490641379"><ele>251.66666666666669</ele><time>2026-04-06T12:29:55.999Z</time></trkpt><trkpt lat="45.57027247094409" lon="8.238343004603466"><ele>251.5</ele><time>2026-04-06T12:29:56.999Z</time></trkpt><trkpt lat="45.57023997762273" lon="8.23823766589583"><ele>251.33333333333334</ele><time>2026-04-06T12:29:57.999Z</time></trkpt><trkpt lat="45.57020822402814" lon="8.23813236026532"><ele>251.16666666666669</ele><time>2026-04-06T12:29:58.999Z</time></trkpt><trkpt lat="45.57016853454509" lon="8.238025822046701"><ele>251.0</ele><time>2026-04-06T12:29:59.999Z</time></trkpt><trkpt lat="45.57014559492679" lon="8.237919957335183"><ele>251.00000000000003</ele><time>2026-04-06T12:30:00.999Z</time></trkpt><trkpt lat="45.570129381811704" lon="8.23781909955737"><ele>251.0</ele><time>2026-04-06T12:30:01.999Z</time></trkpt><trkpt lat="45.570121557781256" lon="8.237709281486241"><ele>251.0</ele><time>2026-04-06T12:30:02.999Z</time></trkpt><trkpt lat="45.57011826228151" lon="8.237611184414119"><ele>251.0</ele><time>2026-04-06T12:30:03.999Z</time></trkpt><trkpt lat="45.57011433821933" lon="8.23751393170774"><ele>251.00000000000003</ele><time>2026-04-06T12:30:04.999Z</time></trkpt><trkpt lat="45.570107402153944" lon="8.237338591930058"><ele>251.0</ele><time>2026-04-06T12:30:06.999Z</time></trkpt><trkpt lat="45.570051456865244" lon="8.237158709404897"><ele>249.83333333333334</ele><time>2026-04-06T12:30:08.999Z</time></trkpt><trkpt lat="45.57000544887884" lon="8.237054064349277"><ele>248.66666666666669</ele><time>2026-04-06T12:30:09.999Z</time></trkpt><trkpt lat="45.56995646718444" lon="8.236946737862308"><ele>247.5</ele><time>2026-04-06T12:30:10.999Z</time></trkpt><trkpt lat="45.56991073778711" lon="8.236847411218145"><ele>246.33333333333331</ele><time>2026-04-06T12:30:11.999Z</time></trkpt><trkpt lat="45.569877792481336" lon="8.236753755291856"><ele>245.16666666666666</ele><time>2026-04-06T12:30:12.999Z</time></trkpt><trkpt lat="45.56985997252381" lon="8.236660117948631"><ele>244.0</ele><time>2026-04-06T12:30:13.999Z</time></trkpt><trkpt lat="45.56979273173066" lon="8.236524362747257"><ele>243.16666666666666</ele><time>2026-04-06T12:30:15.999Z</time></trkpt><trkpt lat="45.5697407558866" lon="8.236364480333071"><ele>242.33333333333331</ele><time>2026-04-06T12:30:17.999Z</time></trkpt><trkpt lat="45.56971824716308" lon="8.236266664283717"><ele>241.5</ele><time>2026-04-06T12:30:18.999Z</time></trkpt><trkpt lat="45.56970367050522" lon="8.236175183767832"><ele>240.66666666666669</ele><time>2026-04-06T12:30:19.999Z</time></trkpt><trkpt lat="45.56968160317577" lon="8.236086769337229"><ele>239.83333333333334</ele><time>2026-04-06T12:30:20.999Z</time></trkpt><trkpt lat="45.56964528919194" lon="8.235990318889776"><ele>239.0</ele><time>2026-04-06T12:30:21.999Z</time></trkpt><trkpt lat="45.56962931455343" lon="8.235888848017089"><ele>239.0</ele><time>2026-04-06T12:30:22.999Z</time></trkpt><trkpt lat="45.569580254977666" lon="8.235711589135002"><ele>238.99999999999997</ele><time>2026-04-06T12:30:24.999Z</time></trkpt><trkpt lat="45.56956443852526" lon="8.235584886525515"><ele>238.99999999999997</ele><time>2026-04-06T12:30:25.999Z</time></trkpt><trkpt lat="45.56955379173195" lon="8.235457058870333"><ele>239.0</ele><time>2026-04-06T12:30:26.999Z</time></trkpt><trkpt lat="45.56956871862855" lon="8.235323351162728"><ele>239.0</ele><time>2026-04-06T12:30:27.999Z</time></trkpt><trkpt lat="45.56960530164357" lon="8.235188270327214"><ele>238.33333333333334</ele><time>2026-04-06T12:30:28.999Z</time></trkpt><trkpt lat="45.56963181342828" lon="8.235063765876335"><ele>237.66666666666669</ele><time>2026-04-06T12:30:29.999Z</time></trkpt><trkpt lat="45.56965420907465" lon="8.234953589991424"><ele>237.0</ele><time>2026-04-06T12:30:30.999Z</time></trkpt><trkpt lat="45.569686141157824" lon="8.234849033842849"><ele>236.33333333333331</ele><time>2026-04-06T12:30:31.999Z</time></trkpt><trkpt lat="45.569723048293405" lon="8.23474860307614"><ele>235.66666666666666</ele><time>2026-04-06T12:30:32.999Z</time></trkpt><trkpt lat="45.56975580898595" lon="8.234656475738918"><ele>235.0</ele><time>2026-04-06T12:30:33.999Z</time></trkpt><trkpt lat="45.569766686071596" lon="8.234551822117277"><ele>234.66666666666666</ele><time>2026-04-06T12:30:34.999Z</time></trkpt><trkpt lat="45.569749814258685" lon="8.234451352088536"><ele>234.33333333333331</ele><time>2026-04-06T12:30:35.999Z</time></trkpt><trkpt lat="45.56973899723044" lon="8.234337745372898"><ele>234.0</ele><time>2026-04-06T12:30:37Z</time></trkpt><trkpt lat="45.56973358328395" lon="8.234228731737453"><ele>233.66666666666669</ele><time>2026-04-06T12:30:38Z</time></trkpt><trkpt lat="45.56973117705272" lon="8.234115429745435"><ele>233.33333333333334</ele><time>2026-04-06T12:30:39Z</time></trkpt><trkpt lat="45.569734382553165" lon="8.234010682356923"><ele>233.0</ele><time>2026-04-06T12:30:40Z</time></trkpt><trkpt lat="45.5697294004289" lon="8.23391093266628"><ele>233.8</ele><time>2026-04-06T12:30:41Z</time></trkpt><trkpt lat="45.56974901089867" lon="8.233791477692176"><ele>234.60000000000002</ele><time>2026-04-06T12:30:43Z</time></trkpt><trkpt lat="45.569673210556594" lon="8.233713496908752"><ele>235.39999999999998</ele><time>2026-04-06T12:30:46Z</time></trkpt><trkpt lat="45.56952947460271" lon="8.233688479532857"><ele>236.2</ele><time>2026-04-06T12:30:48Z</time></trkpt><trkpt lat="45.56943448251389" lon="8.233688098878963"><ele>237.0</ele><time>2026-04-06T12:30:49Z</time></trkpt><trkpt lat="45.56933485009432" lon="8.233663239180698"><ele>237.2</ele><time>2026-04-06T12:30:50Z</time></trkpt><trkpt lat="45.56922965252095" lon="8.233636804215367"><ele>237.39999999999998</ele><time>2026-04-06T12:30:51Z</time></trkpt><trkpt lat="45.56912121333586" lon="8.233620986044027"><ele>237.60000000000002</ele><time>2026-04-06T12:30:52Z</time></trkpt><trkpt lat="45.5690097326763" lon="8.233607178521394"><ele>237.8</ele><time>2026-04-06T12:30:53Z</time></trkpt><trkpt lat="45.56889861959338" lon="8.233592959830645"><ele>238.0</ele><time>2026-04-06T12:30:54Z</time></trkpt><trkpt lat="45.56878308389573" lon="8.233578107102236"><ele>238.0</ele><time>2026-04-06T12:30:55Z</time></trkpt><trkpt lat="45.56866626565431" lon="8.23355620342309"><ele>238.0</ele><time>2026-04-06T12:30:56Z</time></trkpt><trkpt lat="45.568547104834124" lon="8.233537669563418"><ele>238.0</ele><time>2026-04-06T12:30:57Z</time></trkpt><trkpt lat="45.56842727063505" lon="8.233517067876916"><ele>238.0</ele><time>2026-04-06T12:30:58Z</time></trkpt><trkpt lat="45.56830328051564" lon="8.23349881439576"><ele>238.0</ele><time>2026-04-06T12:30:59Z</time></trkpt><trkpt lat="45.5681848281288" lon="8.23347807391209"><ele>238.0</ele><time>2026-04-06T12:31:00Z</time></trkpt><trkpt lat="45.568071453648564" lon="8.233461382776806"><ele>238.0</ele><time>2026-04-06T12:31:01Z</time></trkpt><trkpt lat="45.56796208891998" lon="8.233439015094808"><ele>238.0</ele><time>2026-04-06T12:31:02Z</time></trkpt><trkpt lat="45.5678585134528" lon="8.233395013373142"><ele>236.75</ele><time>2026-04-06T12:31:03Z</time></trkpt><trkpt lat="45.56776260705636" lon="8.233313741880552"><ele>235.5</ele><time>2026-04-06T12:31:04Z</time></trkpt><trkpt lat="45.56768306592595" lon="8.233194725031504"><ele>234.25</ele><time>2026-04-06T12:31:05Z</time></trkpt><trkpt lat="45.56762266330315" lon="8.233057970527991"><ele>233.0</ele><time>2026-04-06T12:31:06Z</time></trkpt><trkpt lat="45.56757378603472" lon="8.2329132890849"><ele>232.8</ele><time>2026-04-06T12:31:07Z</time></trkpt><trkpt lat="45.56752768739373" lon="8.232764892926946"><ele>232.60000000000002</ele><time>2026-04-06T12:31:08Z</time></trkpt><trkpt lat="45.56747765776916" lon="8.232626890305353"><ele>232.39999999999998</ele><time>2026-04-06T12:31:09Z</time></trkpt><trkpt lat="45.56742949644383" lon="8.232488408580712"><ele>232.2</ele><time>2026-04-06T12:31:10Z</time></trkpt><trkpt lat="45.56738048589765" lon="8.23235592840694"><ele>232.0</ele><time>2026-04-06T12:31:11Z</time></trkpt><trkpt lat="45.56733223042244" lon="8.232226119821291"><ele>231.8</ele><time>2026-04-06T12:31:12Z</time></trkpt><trkpt lat="45.56728424799643" lon="8.232093763319902"><ele>231.6</ele><time>2026-04-06T12:31:13Z</time></trkpt><trkpt lat="45.56723591303526" lon="8.231969410694708"><ele>231.40000000000003</ele><time>2026-04-06T12:31:14Z</time></trkpt><trkpt lat="45.56718557902226" lon="8.231841766587209"><ele>231.20000000000002</ele><time>2026-04-06T12:31:15Z</time></trkpt><trkpt lat="45.56713809300289" lon="8.231713664142205"><ele>231.0</ele><time>2026-04-06T12:31:16Z</time></trkpt><trkpt lat="45.56709408097198" lon="8.231577764312025"><ele>231.0</ele><time>2026-04-06T12:31:17Z</time></trkpt><trkpt lat="45.5670445105732" lon="8.231444589463585"><ele>231.00000000000003</ele><time>2026-04-06T12:31:17.999Z</time></trkpt><trkpt lat="45.56699371688817" lon="8.231320919501746"><ele>231.00000000000003</ele><time>2026-04-06T12:31:18.999Z</time></trkpt><trkpt lat="45.56695124229166" lon="8.231205484775217"><ele>231.0</ele><time>2026-04-06T12:31:19.999Z</time></trkpt><trkpt lat="45.566909966769" lon="8.231102640637967"><ele>231.0</ele><time>2026-04-06T12:31:20.999Z</time></trkpt><trkpt lat="45.56687095087914" lon="8.23100538508304"><ele>231.0</ele><time>2026-04-06T12:31:21.999Z</time></trkpt><trkpt lat="45.566838967893595" lon="8.230921198087172"><ele>231.00000000000003</ele><time>2026-04-06T12:31:22.999Z</time></trkpt><trkpt lat="45.56681398036575" lon="8.230809736563456"><ele>231.00000000000003</ele><time>2026-04-06T12:31:24.999Z</time></trkpt><trkpt lat="45.56692179989868" lon="8.230821120192239"><ele>231.0</ele><time>2026-04-06T12:31:26.999Z</time></trkpt><trkpt lat="45.56705350184087" lon="8.230797406001304"><ele>231.0</ele><time>2026-04-06T12:31:28.999Z</time></trkpt><trkpt lat="45.56711537825437" lon="8.230696751227114"><ele>231.83333333333334</ele><time>2026-04-06T12:31:29.999Z</time></trkpt><trkpt lat="45.56718041176116" lon="8.230635859503222"><ele>232.66666666666669</ele><time>2026-04-06T12:31:30.999Z</time></trkpt><trkpt lat="45.567246831903695" lon="8.230510470731275"><ele>233.5</ele><time>2026-04-06T12:31:32.999Z</time></trkpt><trkpt lat="45.5673004361094" lon="8.230460845695534"><ele>234.33333333333334</ele><time>2026-04-06T12:31:33.999Z</time></trkpt><trkpt lat="45.56734933507098" lon="8.230355182551685"><ele>235.16666666666669</ele><time>2026-04-06T12:31:34.999Z</time></trkpt><trkpt lat="45.56741043089301" lon="8.230264763728437"><ele>236.0</ele><time>2026-04-06T12:31:35.999Z</time></trkpt><trkpt lat="45.56748735601845" lon="8.230184108663186"><ele>236.0</ele><time>2026-04-06T12:31:36.999Z</time></trkpt><trkpt lat="45.567559389474724" lon="8.230148882767299"><ele>236.00000000000003</ele><time>2026-04-06T12:31:37.999Z</time></trkpt><trkpt lat="45.56764191431377" lon="8.230089993162252"><ele>236.00000000000003</ele><time>2026-04-06T12:31:39.999Z</time></trkpt><trkpt lat="45.56773480086955" lon="8.230044747608302"><ele>236.0</ele><time>2026-04-06T12:31:41.999Z</time></trkpt><trkpt lat="45.56781981755652" lon="8.23001468380646"><ele>236.0</ele><time>2026-04-06T12:31:43.999Z</time></trkpt><trkpt lat="45.56794409648486" lon="8.229983466317332"><ele>236.00000000000003</ele><time>2026-04-06T12:31:45.999Z</time></trkpt><trkpt lat="45.56801063084984" lon="8.229972228170428"><ele>236.0</ele><time>2026-04-06T12:31:46.999Z</time></trkpt><trkpt lat="45.568075036843624" lon="8.22995792604247"><ele>236.0</ele><time>2026-04-06T12:31:47.999Z</time></trkpt><trkpt lat="45.56820000592849" lon="8.22996564100966"><ele>236.0</ele><time>2026-04-06T12:31:49.999Z</time></trkpt><trkpt lat="45.568262343084086" lon="8.229939632284731"><ele>236.00000000000003</ele><time>2026-04-06T12:31:50.999Z</time></trkpt><trkpt lat="45.56832601760555" lon="8.229903636406554"><ele>236.0</ele><time>2026-04-06T12:31:51.999Z</time></trkpt><trkpt lat="45.56838332059564" lon="8.229863656789382"><ele>236.0</ele><time>2026-04-06T12:31:52.999Z</time></trkpt><trkpt lat="45.568435851217174" lon="8.229813276540904"><ele>236.00000000000003</ele><time>2026-04-06T12:31:53.999Z</time></trkpt><trkpt lat="45.56850618909845" lon="8.229690340420127"><ele>236.00000000000003</ele><time>2026-04-06T12:31:55.999Z</time></trkpt><trkpt lat="45.56856639764541" lon="8.229562782237622"><ele>236.0</ele><time>2026-04-06T12:31:57.999Z</time></trkpt><trkpt lat="45.56863408281335" lon="8.229493907065855"><ele>236.0</ele><time>2026-04-06T12:31:58.999Z</time></trkpt><trkpt lat="45.56861484946302" lon="8.22929907353642"><ele>236.00000000000003</ele><time>2026-04-06T12:31:59.999Z</time></trkpt><trkpt lat="45.56864989767192" lon="8.229190657376229"><ele>236.0</ele><time>2026-04-06T12:32:00.999Z</time></trkpt><trkpt lat="45.568694862213064" lon="8.229080351144146"><ele>236.0</ele><time>2026-04-06T12:32:01.999Z</time></trkpt><trkpt lat="45.56873242777535" lon="8.228958691551123"><ele>236.0</ele><time>2026-04-06T12:32:02.999Z</time></trkpt><trkpt lat="45.568770037025715" lon="8.228857692591971"><ele>236.00000000000003</ele><time>2026-04-06T12:32:03.999Z</time></trkpt><trkpt lat="45.56880233629508" lon="8.228738839677474"><ele>236.0</ele><time>2026-04-06T12:32:04.999Z</time></trkpt><trkpt lat="45.568835524112046" lon="8.228605080285007"><ele>237.66666666666669</ele><time>2026-04-06T12:32:05.999Z</time></trkpt><trkpt lat="45.56886464995103" lon="8.228488029207627"><ele>239.33333333333334</ele><time>2026-04-06T12:32:06.999Z</time></trkpt><trkpt lat="45.56889495376026" lon="8.228377708468017"><ele>241.0</ele><time>2026-04-06T12:32:07.999Z</time></trkpt><trkpt lat="45.568928811576605" lon="8.228267088312327"><ele>242.66666666666669</ele><time>2026-04-06T12:32:08.999Z</time></trkpt><trkpt lat="45.56897580068889" lon="8.22818435091434"><ele>244.33333333333334</ele><time>2026-04-06T12:32:09.999Z</time></trkpt><trkpt lat="45.56902257337138" lon="8.228089236983633"><ele>246.0</ele><time>2026-04-06T12:32:10.999Z</time></trkpt><trkpt lat="45.569056130905835" lon="8.22799097556529"><ele>249.0</ele><time>2026-04-06T12:32:11.999Z</time></trkpt><trkpt lat="45.5691050922294" lon="8.227892387995428"><ele>252.00000000000003</ele><time>2026-04-06T12:32:12.999Z</time></trkpt><trkpt lat="45.56914375937" lon="8.227770941796994"><ele>255.00000000000003</ele><time>2026-04-06T12:32:13.999Z</time></trkpt><trkpt lat="45.569190771796386" lon="8.227650660953667"><ele>258.0</ele><time>2026-04-06T12:32:14.999Z</time></trkpt><trkpt lat="45.5692386675591" lon="8.22752524868139"><ele>261.0</ele><time>2026-04-06T12:32:15.999Z</time></trkpt><trkpt lat="45.5692916268299" lon="8.227417851964201"><ele>261.40000000000003</ele><time>2026-04-06T12:32:16.999Z</time></trkpt><trkpt lat="45.56933660649261" lon="8.227300743290272"><ele>261.8</ele><time>2026-04-06T12:32:17.999Z</time></trkpt><trkpt lat="45.5693879445671" lon="8.227187952968537"><ele>262.20000000000005</ele><time>2026-04-06T12:32:18.999Z</time></trkpt><trkpt lat="45.569449062783455" lon="8.227073392331254"><ele>262.6</ele><time>2026-04-06T12:32:19.999Z</time></trkpt><trkpt lat="45.56950949639971" lon="8.226969884201074"><ele>263.0</ele><time>2026-04-06T12:32:20.999Z</time></trkpt><trkpt lat="45.56955215986491" lon="8.22685313694921"><ele>263.0</ele><time>2026-04-06T12:32:21.999Z</time></trkpt><trkpt lat="45.56958455617417" lon="8.226746338988457"><ele>263.0</ele><time>2026-04-06T12:32:22.999Z</time></trkpt><trkpt lat="45.56962833348808" lon="8.226637759873586"><ele>263.0</ele><time>2026-04-06T12:32:23.999Z</time></trkpt><trkpt lat="45.56966775442334" lon="8.226523476451888"><ele>263.0</ele><time>2026-04-06T12:32:24.999Z</time></trkpt><trkpt lat="45.56970062115004" lon="8.22641745516962"><ele>263.0</ele><time>2026-04-06T12:32:25.999Z</time></trkpt><trkpt lat="45.56974575184978" lon="8.226311194159866"><ele>263.0</ele><time>2026-04-06T12:32:26.999Z</time></trkpt><trkpt lat="45.56978929147412" lon="8.226205530121524"><ele>264.6666666666667</ele><time>2026-04-06T12:32:27.999Z</time></trkpt><trkpt lat="45.569843228105874" lon="8.226118735415536"><ele>266.33333333333337</ele><time>2026-04-06T12:32:28.999Z</time></trkpt><trkpt lat="45.5698963535652" lon="8.226027336908492"><ele>268.0</ele><time>2026-04-06T12:32:29.999Z</time></trkpt><trkpt lat="45.56996062817905" lon="8.225939546683556"><ele>269.6666666666667</ele><time>2026-04-06T12:32:30.999Z</time></trkpt><trkpt lat="45.570015844558945" lon="8.22584021685006"><ele>271.3333333333333</ele><time>2026-04-06T12:32:31.999Z</time></trkpt><trkpt lat="45.570068841881465" lon="8.225744240088453"><ele>273.0</ele><time>2026-04-06T12:32:32.999Z</time></trkpt><trkpt lat="45.57012044255534" lon="8.22565693224896"><ele>273.1666666666667</ele><time>2026-04-06T12:32:33.999Z</time></trkpt><trkpt lat="45.570173616773374" lon="8.225562457439908"><ele>273.3333333333333</ele><time>2026-04-06T12:32:34.999Z</time></trkpt><trkpt lat="45.57022651041455" lon="8.225466478616084"><ele>273.5</ele><time>2026-04-06T12:32:35.999Z</time></trkpt><trkpt lat="45.570269826942045" lon="8.225364052321039"><ele>273.66666666666663</ele><time>2026-04-06T12:32:36.999Z</time></trkpt><trkpt lat="45.57030729135588" lon="8.225263182666378"><ele>273.8333333333333</ele><time>2026-04-06T12:32:37.999Z</time></trkpt><trkpt lat="45.57034790599459" lon="8.225193699729866"><ele>274.0</ele><time>2026-04-06T12:32:38.999Z</time></trkpt><trkpt lat="45.57040795042416" lon="8.225087956447997"><ele>274.0</ele><time>2026-04-06T12:32:40.999Z</time></trkpt><trkpt lat="45.57046880425061" lon="8.225000199229832"><ele>274.0</ele><time>2026-04-06T12:32:43Z</time></trkpt><trkpt lat="45.57051971827006" lon="8.224924789760225"><ele>274.0</ele><time>2026-04-06T12:32:45Z</time></trkpt><trkpt lat="45.57060434794246" lon="8.224772041173035"><ele>274.0</ele><time>2026-04-06T12:32:49Z</time></trkpt><trkpt lat="45.57066635061125" lon="8.224711573995348"><ele>274.0</ele><time>2026-04-06T12:32:51Z</time></trkpt><trkpt lat="45.570767290816875" lon="8.22462714802253"><ele>275.0</ele><time>2026-04-06T12:32:53Z</time></trkpt><trkpt lat="45.570895725232944" lon="8.224548376812045"><ele>276.0</ele><time>2026-04-06T12:32:55Z</time></trkpt><trkpt lat="45.570963433180914" lon="8.224539997416864"><ele>277.0</ele><time>2026-04-06T12:32:56Z</time></trkpt><trkpt lat="45.571028291664526" lon="8.224541535396767"><ele>278.0</ele><time>2026-04-06T12:32:57Z</time></trkpt><trkpt lat="45.571094846852965" lon="8.224533341695906"><ele>279.0</ele><time>2026-04-06T12:32:58Z</time></trkpt><trkpt lat="45.57116306093126" lon="8.224517643594037"><ele>280.0</ele><time>2026-04-06T12:32:59Z</time></trkpt><trkpt lat="45.57123289866796" lon="8.224498961677563"><ele>281.3333333333333</ele><time>2026-04-06T12:33:00Z</time></trkpt><trkpt lat="45.57130542814559" lon="8.224492344737355"><ele>282.66666666666663</ele><time>2026-04-06T12:33:01Z</time></trkpt><trkpt lat="45.57138108402227" lon="8.224494502082154"><ele>284.0</ele><time>2026-04-06T12:33:02Z</time></trkpt><trkpt lat="45.57145615115788" lon="8.224487543987737"><ele>285.3333333333333</ele><time>2026-04-06T12:33:03Z</time></trkpt><trkpt lat="45.571531664231955" lon="8.224476627688777"><ele>286.6666666666667</ele><time>2026-04-06T12:33:04Z</time></trkpt><trkpt lat="45.57161024417867" lon="8.22446937091906"><ele>288.0</ele><time>2026-04-06T12:33:05Z</time></trkpt><trkpt lat="45.57169001790139" lon="8.22446246589552"><ele>288.0</ele><time>2026-04-06T12:33:06Z</time></trkpt><trkpt lat="45.57177043510684" lon="8.224447731074736"><ele>288.0</ele><time>2026-04-06T12:33:07Z</time></trkpt><trkpt lat="45.57185221488128" lon="8.224438421277881"><ele>288.0</ele><time>2026-04-06T12:33:08Z</time></trkpt><trkpt lat="45.57193760048545" lon="8.22443306907082"><ele>288.0</ele><time>2026-04-06T12:33:09Z</time></trkpt><trkpt lat="45.5720208860853" lon="8.22442093128502"><ele>288.0</ele><time>2026-04-06T12:33:10Z</time></trkpt><trkpt lat="45.572099792618644" lon="8.22440876947968"><ele>288.0</ele><time>2026-04-06T12:33:11Z</time></trkpt><trkpt lat="45.57217841755801" lon="8.224395725040901"><ele>289.1666666666667</ele><time>2026-04-06T12:33:12Z</time></trkpt><trkpt lat="45.57225106399206" lon="8.224389839473561"><ele>290.3333333333333</ele><time>2026-04-06T12:33:13Z</time></trkpt><trkpt lat="45.57232449073224" lon="8.224377113786156"><ele>291.5</ele><time>2026-04-06T12:33:14Z</time></trkpt><trkpt lat="45.572397062443756" lon="8.224364248079269"><ele>292.66666666666663</ele><time>2026-04-06T12:33:15Z</time></trkpt><trkpt lat="45.57246446283196" lon="8.224345571392263"><ele>293.8333333333333</ele><time>2026-04-06T12:33:16Z</time></trkpt><trkpt lat="45.57252744628278" lon="8.224315082720233"><ele>295.0</ele><time>2026-04-06T12:33:17Z</time></trkpt><trkpt lat="45.5726364932946" lon="8.224230683400373"><ele>295.0</ele><time>2026-04-06T12:33:19Z</time></trkpt><trkpt lat="45.57270015280518" lon="8.22420629005515"><ele>295.0</ele><time>2026-04-06T12:33:20Z</time></trkpt><trkpt lat="45.57277084418217" lon="8.224170984743862"><ele>295.0</ele><time>2026-04-06T12:33:21Z</time></trkpt><trkpt lat="45.572834227164485" lon="8.22413414788114"><ele>295.0</ele><time>2026-04-06T12:33:22Z</time></trkpt><trkpt lat="45.57289182276316" lon="8.22408492980467"><ele>295.0</ele><time>2026-04-06T12:33:23Z</time></trkpt><trkpt lat="45.572953899283476" lon="8.223928998844773"><ele>295.0</ele><time>2026-04-06T12:33:25Z</time></trkpt><trkpt lat="45.572968621870494" lon="8.22376532726018"><ele>295.0</ele><time>2026-04-06T12:33:27Z</time></trkpt><trkpt lat="45.57298854460794" lon="8.223653246820959"><ele>295.0</ele><time>2026-04-06T12:33:28Z</time></trkpt><trkpt lat="45.57299824580823" lon="8.223549836413031"><ele>295.0</ele><time>2026-04-06T12:33:29Z</time></trkpt><trkpt lat="45.57301075589839" lon="8.223430683129726"><ele>295.0</ele><time>2026-04-06T12:33:30Z</time></trkpt><trkpt lat="45.573028978987466" lon="8.223234581201718"><ele>295.0</ele><time>2026-04-06T12:33:32Z</time></trkpt><trkpt lat="45.5730312097781" lon="8.223142737433928"><ele>295.0</ele><time>2026-04-06T12:33:33Z</time></trkpt><trkpt lat="45.573031625414096" lon="8.223034497086122"><ele>295.8333333333333</ele><time>2026-04-06T12:33:34Z</time></trkpt><trkpt lat="45.573022080316626" lon="8.222912336962725"><ele>296.66666666666663</ele><time>2026-04-06T12:33:35Z</time></trkpt><trkpt lat="45.57300809557008" lon="8.222800997188209"><ele>297.5</ele><time>2026-04-06T12:33:36Z</time></trkpt><trkpt lat="45.57298736266245" lon="8.222684373430772"><ele>298.3333333333333</ele><time>2026-04-06T12:33:37Z</time></trkpt><trkpt lat="45.57297589629839" lon="8.222584333893279"><ele>299.1666666666667</ele><time>2026-04-06T12:33:38Z</time></trkpt><trkpt lat="45.57297658523482" lon="8.222451889226388"><ele>300.0</ele><time>2026-04-06T12:33:40Z</time></trkpt><trkpt lat="45.57300891613148" lon="8.222305291356392"><ele>300.0</ele><time>2026-04-06T12:33:43Z</time></trkpt><trkpt lat="45.57309048159316" lon="8.222233926860628"><ele>300.0</ele><time>2026-04-06T12:33:45Z</time></trkpt><trkpt lat="45.57318618324805" lon="8.222119823779035"><ele>300.0</ele><time>2026-04-06T12:33:47Z</time></trkpt><trkpt lat="45.57325976852972" lon="8.222081987947938"><ele>300.0</ele><time>2026-04-06T12:33:48Z</time></trkpt><trkpt lat="45.57332343194818" lon="8.222012130348439"><ele>300.0</ele><time>2026-04-06T12:33:49Z</time></trkpt><trkpt lat="45.573385409148884" lon="8.221938068304183"><ele>300.0</ele><time>2026-04-06T12:33:50Z</time></trkpt><trkpt lat="45.57343925196771" lon="8.221849774808765"><ele>300.0</ele><time>2026-04-06T12:33:51Z</time></trkpt><trkpt lat="45.57349005843359" lon="8.221758517182423"><ele>300.0</ele><time>2026-04-06T12:33:52Z</time></trkpt><trkpt lat="45.57357521963671" lon="8.221598605931415"><ele>300.0</ele><time>2026-04-06T12:33:53.999Z</time></trkpt><trkpt lat="45.57363756962863" lon="8.22146935200622"><ele>300.0</ele><time>2026-04-06T12:33:54.999Z</time></trkpt><trkpt lat="45.57369404348658" lon="8.221374748412929"><ele>299.0</ele><time>2026-04-06T12:33:55.999Z</time></trkpt><trkpt lat="45.57373605753845" lon="8.221284651148636"><ele>298.0</ele><time>2026-04-06T12:33:56.999Z</time></trkpt><trkpt lat="45.57377467790015" lon="8.221189560607325"><ele>297.0</ele><time>2026-04-06T12:33:57.999Z</time></trkpt><trkpt lat="45.57381156688819" lon="8.221101786591289"><ele>296.0</ele><time>2026-04-06T12:33:58.999Z</time></trkpt><trkpt lat="45.573855371032096" lon="8.221014963221984"><ele>295.0</ele><time>2026-04-06T12:33:59.999Z</time></trkpt><trkpt lat="45.57390887282187" lon="8.220937599183069"><ele>294.0</ele><time>2026-04-06T12:34:00.999Z</time></trkpt><trkpt lat="45.57395850583523" lon="8.220854177026297"><ele>294.0</ele><time>2026-04-06T12:34:01.999Z</time></trkpt><trkpt lat="45.57401378594814" lon="8.220778610845795"><ele>294.0</ele><time>2026-04-06T12:34:02.999Z</time></trkpt><trkpt lat="45.57406863990649" lon="8.220706935329554"><ele>294.0</ele><time>2026-04-06T12:34:03.999Z</time></trkpt><trkpt lat="45.574116137284754" lon="8.220627414459818"><ele>294.0</ele><time>2026-04-06T12:34:04.999Z</time></trkpt><trkpt lat="45.574152601384114" lon="8.220539417700296"><ele>294.0</ele><time>2026-04-06T12:34:05.999Z</time></trkpt><trkpt lat="45.57419735747556" lon="8.220458628732095"><ele>294.0</ele><time>2026-04-06T12:34:06.999Z</time></trkpt><trkpt lat="45.57423803671551" lon="8.220380723588296"><ele>294.0</ele><time>2026-04-06T12:34:07.999Z</time></trkpt><trkpt lat="45.574314093117216" lon="8.220256818454487"><ele>296.5</ele><time>2026-04-06T12:34:09.999Z</time></trkpt><trkpt lat="45.57436356201499" lon="8.220162477876467"><ele>299.0</ele><time>2026-04-06T12:34:11.999Z</time></trkpt><trkpt lat="45.57461125890725" lon="8.220252532219412"><ele>301.5</ele><time>2026-04-06T12:34:19.999Z</time></trkpt><trkpt lat="45.57468660247183" lon="8.220286460513618"><ele>304.0</ele><time>2026-04-06T12:34:20.999Z</time></trkpt><trkpt lat="45.57476248986251" lon="8.22034476302546"><ele>305.3333333333333</ele><time>2026-04-06T12:34:21.999Z</time></trkpt><trkpt lat="45.57482792565958" lon="8.220432490900212"><ele>306.66666666666663</ele><time>2026-04-06T12:34:22.999Z</time></trkpt><trkpt lat="45.574895069337835" lon="8.22049802880927"><ele>308.0</ele><time>2026-04-06T12:34:23.999Z</time></trkpt><trkpt lat="45.57497853272198" lon="8.220521374304305"><ele>309.3333333333333</ele><time>2026-04-06T12:34:24.999Z</time></trkpt><trkpt lat="45.575062379690706" lon="8.220521107132328"><ele>310.6666666666667</ele><time>2026-04-06T12:34:25.999Z</time></trkpt><trkpt lat="45.57514199597446" lon="8.22050800520098"><ele>312.0</ele><time>2026-04-06T12:34:26.999Z</time></trkpt><trkpt lat="45.57521655476216" lon="8.220484567895156"><ele>312.0</ele><time>2026-04-06T12:34:27.999Z</time></trkpt><trkpt lat="45.575286580791236" lon="8.220472128558292"><ele>312.0</ele><time>2026-04-06T12:34:28.999Z</time></trkpt><trkpt lat="45.57535882292449" lon="8.220425652070926"><ele>312.0</ele><time>2026-04-06T12:34:29.999Z</time></trkpt><trkpt lat="45.57543292697559" lon="8.220376784341031"><ele>312.0</ele><time>2026-04-06T12:34:30.999Z</time></trkpt><trkpt lat="45.575556883717155" lon="8.220381619257347"><ele>312.0</ele><time>2026-04-06T12:34:32.999Z</time></trkpt><trkpt lat="45.57560982690149" lon="8.220477763576262"><ele>312.0</ele><time>2026-04-06T12:34:33.999Z</time></trkpt><trkpt lat="45.57565278486755" lon="8.220615111186284"><ele>309.3333333333333</ele><time>2026-04-06T12:34:34.999Z</time></trkpt><trkpt lat="45.5757082535289" lon="8.220673951584809"><ele>306.6666666666667</ele><time>2026-04-06T12:34:35.999Z</time></trkpt><trkpt lat="45.5758136688496" lon="8.220740722761493"><ele>304.0</ele><time>2026-04-06T12:34:37.999Z</time></trkpt><trkpt lat="45.5758781638418" lon="8.220800178367073"><ele>301.33333333333337</ele><time>2026-04-06T12:34:38.999Z</time></trkpt><trkpt lat="45.575937921414344" lon="8.220891595428965"><ele>298.6666666666667</ele><time>2026-04-06T12:34:39.999Z</time></trkpt><trkpt lat="45.57595947290314" lon="8.221008682675148"><ele>296.0</ele><time>2026-04-06T12:34:40.999Z</time></trkpt><trkpt lat="45.57597362663826" lon="8.221151120201565"><ele>296.0</ele><time>2026-04-06T12:34:41.999Z</time></trkpt><trkpt lat="45.57599287061712" lon="8.221299354703513"><ele>296.0</ele><time>2026-04-06T12:34:42.999Z</time></trkpt><trkpt lat="45.57601408016291" lon="8.221435477415913"><ele>296.0</ele><time>2026-04-06T12:34:44.999Z</time></trkpt><trkpt lat="45.57609454761134" lon="8.22155672405483"><ele>296.0</ele><time>2026-04-06T12:34:46.999Z</time></trkpt><trkpt lat="45.57617996089121" lon="8.221611810891075"><ele>296.0</ele><time>2026-04-06T12:34:49Z</time></trkpt><trkpt lat="45.57625245142165" lon="8.22154308212783"><ele>292.2</ele><time>2026-04-06T12:34:51Z</time></trkpt><trkpt lat="45.57638309410986" lon="8.221510230747553"><ele>288.40000000000003</ele><time>2026-04-06T12:34:53Z</time></trkpt><trkpt lat="45.57648177573944" lon="8.221508660247427"><ele>284.6</ele><time>2026-04-06T12:34:54Z</time></trkpt><trkpt lat="45.57654659408789" lon="8.221525769414525"><ele>280.8</ele><time>2026-04-06T12:34:55Z</time></trkpt><trkpt lat="45.57659062920257" lon="8.221608957562772"><ele>277.0</ele><time>2026-04-06T12:34:57Z</time></trkpt><trkpt lat="45.57653175535609" lon="8.221694757643762"><ele>277.0</ele><time>2026-04-06T12:34:59Z</time></trkpt><trkpt lat="45.576480676023806" lon="8.22188743224544"><ele>277.0</ele><time>2026-04-06T12:35:01Z</time></trkpt><trkpt lat="45.57643334826306" lon="8.22199796608805"><ele>277.0</ele><time>2026-04-06T12:35:02Z</time></trkpt><trkpt lat="45.57640604903698" lon="8.222096082530715"><ele>277.0</ele><time>2026-04-06T12:35:03Z</time></trkpt><trkpt lat="45.57639657681235" lon="8.222186892649173"><ele>277.0</ele><time>2026-04-06T12:35:04Z</time></trkpt><trkpt lat="45.576351465798346" lon="8.222349421087285"><ele>275.6</ele><time>2026-04-06T12:35:06Z</time></trkpt><trkpt lat="45.57628468824849" lon="8.222460403846727"><ele>274.2</ele><time>2026-04-06T12:35:07Z</time></trkpt><trkpt lat="45.57619524858376" lon="8.2225658970562"><ele>272.8</ele><time>2026-04-06T12:35:08Z</time></trkpt><trkpt lat="45.57611370857797" lon="8.22265740963481"><ele>271.4</ele><time>2026-04-06T12:35:09Z</time></trkpt><trkpt lat="45.57604248477917" lon="8.222763547028261"><ele>270.0</ele><time>2026-04-06T12:35:10Z</time></trkpt><trkpt lat="45.57596851641182" lon="8.222849625310207"><ele>270.0</ele><time>2026-04-06T12:35:11Z</time></trkpt><trkpt lat="45.57590633733876" lon="8.222915617137003"><ele>270.0</ele><time>2026-04-06T12:35:12Z</time></trkpt><trkpt lat="45.5758278322371" lon="8.222971296357152"><ele>270.0</ele><time>2026-04-06T12:35:13Z</time></trkpt><trkpt lat="45.575757400772865" lon="8.223028837918287"><ele>270.0</ele><time>2026-04-06T12:35:14Z</time></trkpt><trkpt lat="45.575710698982974" lon="8.223106305457605"><ele>270.0</ele><time>2026-04-06T12:35:15Z</time></trkpt><trkpt lat="45.57566151822312" lon="8.223184338507101"><ele>270.0</ele><time>2026-04-06T12:35:16Z</time></trkpt><trkpt lat="45.57560209383825" lon="8.223260763861832"><ele>268.0</ele><time>2026-04-06T12:35:17Z</time></trkpt><trkpt lat="45.57556844499512" lon="8.223341436321302"><ele>266.0</ele><time>2026-04-06T12:35:18Z</time></trkpt><trkpt lat="45.57557394375347" lon="8.223462178261236"><ele>264.0</ele><time>2026-04-06T12:35:19Z</time></trkpt><trkpt lat="45.57561969962523" lon="8.223596977088988"><ele>262.0</ele><time>2026-04-06T12:35:20Z</time></trkpt><trkpt lat="45.57566010402584" lon="8.223720735729904"><ele>260.0</ele><time>2026-04-06T12:35:21Z</time></trkpt><trkpt lat="45.575724694499264" lon="8.223840100798695"><ele>257.75</ele><time>2026-04-06T12:35:22Z</time></trkpt><trkpt lat="45.57582529207714" lon="8.223985203382295"><ele>255.5</ele><time>2026-04-06T12:35:23Z</time></trkpt><trkpt lat="45.57588990727347" lon="8.22413862606284"><ele>253.25</ele><time>2026-04-06T12:35:24Z</time></trkpt><trkpt lat="45.57592777018028" lon="8.224231757819213"><ele>251.0</ele><time>2026-04-06T12:35:25Z</time></trkpt><trkpt lat="45.57605656046109" lon="8.224204965398705"><ele>251.0</ele><time>2026-04-06T12:35:27Z</time></trkpt><trkpt lat="45.57615946537664" lon="8.224092746785777"><ele>251.00000000000003</ele><time>2026-04-06T12:35:28Z</time></trkpt><trkpt lat="45.57627513632645" lon="8.224004021265193"><ele>251.00000000000003</ele><time>2026-04-06T12:35:29Z</time></trkpt><trkpt lat="45.57634473302847" lon="8.223935259753645"><ele>251.0</ele><time>2026-04-06T12:35:30Z</time></trkpt><trkpt lat="45.57639356477202" lon="8.22386839184872"><ele>251.0</ele><time>2026-04-06T12:35:31Z</time></trkpt><trkpt lat="45.57646279519685" lon="8.22377534116664"><ele>251.8</ele><time>2026-04-06T12:35:32Z</time></trkpt><trkpt lat="45.576497926249985" lon="8.223670742871192"><ele>252.60000000000002</ele><time>2026-04-06T12:35:33Z</time></trkpt><trkpt lat="45.57663451479289" lon="8.223662522295598"><ele>253.4</ele><time>2026-04-06T12:35:35Z</time></trkpt><trkpt lat="45.57671022851025" lon="8.22358043406198"><ele>254.2</ele><time>2026-04-06T12:35:36Z</time></trkpt><trkpt lat="45.57681093009613" lon="8.22346932151712"><ele>255.0</ele><time>2026-04-06T12:35:37Z</time></trkpt><trkpt lat="45.57692437189166" lon="8.223357503052954"><ele>253.33333333333331</ele><time>2026-04-06T12:35:38Z</time></trkpt><trkpt lat="45.57707667150359" lon="8.223244299713384"><ele>251.66666666666666</ele><time>2026-04-06T12:35:39Z</time></trkpt><trkpt lat="45.57726776022437" lon="8.223126150785516"><ele>250.0</ele><time>2026-04-06T12:35:40Z</time></trkpt><trkpt lat="45.57740875542921" lon="8.223057549717439"><ele>250.0</ele><time>2026-04-06T12:35:41Z</time></trkpt><trkpt lat="45.57746762292028" lon="8.222990754230652"><ele>250.0</ele><time>2026-04-06T12:35:42Z</time></trkpt><trkpt lat="45.57750959739694" lon="8.222916372865036"><ele>250.0</ele><time>2026-04-06T12:35:43Z</time></trkpt><trkpt lat="45.57755348260026" lon="8.222782154460555"><ele>250.0</ele><time>2026-04-06T12:35:44Z</time></trkpt><trkpt lat="45.577587971729955" lon="8.222580147564273"><ele>250.0</ele><time>2026-04-06T12:35:45Z</time></trkpt><trkpt lat="45.577621384427125" lon="8.22235927327936"><ele>249.4</ele><time>2026-04-06T12:35:46Z</time></trkpt><trkpt lat="45.577711831488216" lon="8.222305139219396"><ele>248.8</ele><time>2026-04-06T12:35:47Z</time></trkpt><trkpt lat="45.57776403572972" lon="8.222254661955533"><ele>248.2</ele><time>2026-04-06T12:35:48Z</time></trkpt><trkpt lat="45.57785475257391" lon="8.222235196352498"><ele>247.6</ele><time>2026-04-06T12:35:49Z</time></trkpt><trkpt lat="45.57795290093461" lon="8.222139625879862"><ele>247.0</ele><time>2026-04-06T12:35:50Z</time></trkpt><trkpt lat="45.57803945168939" lon="8.222034312079833"><ele>247.0</ele><time>2026-04-06T12:35:51Z</time></trkpt><trkpt lat="45.57812921681675" lon="8.221865756593587"><ele>247.0</ele><time>2026-04-06T12:35:52Z</time></trkpt><trkpt lat="45.578224925182674" lon="8.221777116920162"><ele>247.0</ele><time>2026-04-06T12:35:53Z</time></trkpt><trkpt lat="45.57835720806398" lon="8.221664167869305"><ele>247.0</ele><time>2026-04-06T12:35:54Z</time></trkpt><trkpt lat="45.57847565161471" lon="8.22173010808125"><ele>247.0</ele><time>2026-04-06T12:35:55Z</time></trkpt><trkpt lat="45.5785591870951" lon="8.221847634720222"><ele>247.0</ele><time>2026-04-06T12:35:56Z</time></trkpt><trkpt lat="45.57866038883407" lon="8.221864999760788"><ele>247.0</ele><time>2026-04-06T12:35:57Z</time></trkpt><trkpt lat="45.578772858462855" lon="8.221885553486178"><ele>247.0</ele><time>2026-04-06T12:35:58Z</time></trkpt><trkpt lat="45.578858765770306" lon="8.221875328828483"><ele>247.0</ele><time>2026-04-06T12:35:59Z</time></trkpt><trkpt lat="45.578974751517705" lon="8.221867057612588"><ele>247.5</ele><time>2026-04-06T12:35:59.999Z</time></trkpt><trkpt lat="45.579079863682296" lon="8.221794279409902"><ele>248.0</ele><time>2026-04-06T12:36:00.999Z</time></trkpt><trkpt lat="45.57919852759424" lon="8.221707254733749"><ele>248.5</ele><time>2026-04-06T12:36:01.999Z</time></trkpt><trkpt lat="45.57933920446016" lon="8.221652976909855"><ele>249.0</ele><time>2026-04-06T12:36:02.999Z</time></trkpt><trkpt lat="45.579423941709784" lon="8.221566126592334"><ele>249.2</ele><time>2026-04-06T12:36:03.999Z</time></trkpt><trkpt lat="45.579548435656434" lon="8.221552919638302"><ele>249.39999999999998</ele><time>2026-04-06T12:36:04.999Z</time></trkpt><trkpt lat="45.57965496339241" lon="8.221529520779951"><ele>249.6</ele><time>2026-04-06T12:36:05.999Z</time></trkpt><trkpt lat="45.57971892668993" lon="8.221481799215747"><ele>249.8</ele><time>2026-04-06T12:36:06.999Z</time></trkpt><trkpt lat="45.579778570851886" lon="8.22151611088041"><ele>250.0</ele><time>2026-04-06T12:36:07.999Z</time></trkpt><trkpt lat="45.57977711932894" lon="8.22133390073335"><ele>249.49999999999997</ele><time>2026-04-06T12:36:10.999Z</time></trkpt><trkpt lat="45.579728329781126" lon="8.221233205321047"><ele>249.0</ele><time>2026-04-06T12:36:44.999Z</time></trkpt><trkpt lat="45.579701458819045" lon="8.221144546249192"><ele>248.5</ele><time>2026-04-06T12:36:46.999Z</time></trkpt><trkpt lat="45.579670248806025" lon="8.221055539772989"><ele>248.0</ele><time>2026-04-06T12:36:48.999Z</time></trkpt><trkpt lat="45.579631987838226" lon="8.220945053860897"><ele>247.49999999999997</ele><time>2026-04-06T12:36:50.999Z</time></trkpt><trkpt lat="45.579602361742964" lon="8.220801617469208"><ele>247.0</ele><time>2026-04-06T12:36:53Z</time></trkpt><trkpt lat="45.579607415814216" lon="8.220666074468078"><ele>247.0</ele><time>2026-04-06T12:36:55Z</time></trkpt><trkpt lat="45.579639208656346" lon="8.220504100523767"><ele>247.0</ele><time>2026-04-06T12:36:57Z</time></trkpt><trkpt lat="45.57965614109197" lon="8.220387699705665"><ele>247.0</ele><time>2026-04-06T12:36:58Z</time></trkpt><trkpt lat="45.57967403583036" lon="8.220266781392729"><ele>247.0</ele><time>2026-04-06T12:36:59Z</time></trkpt><trkpt lat="45.57969392341529" lon="8.220133270760194"><ele>247.0</ele><time>2026-04-06T12:37:00Z</time></trkpt><trkpt lat="45.579690831727206" lon="8.22001376983354"><ele>246.99999999999997</ele><time>2026-04-06T12:37:01Z</time></trkpt><trkpt lat="45.57967339396048" lon="8.219912304620799"><ele>247.0</ele><time>2026-04-06T12:37:02Z</time></trkpt><trkpt lat="45.57968644597787" lon="8.219780218851726"><ele>247.0</ele><time>2026-04-06T12:37:04Z</time></trkpt><trkpt lat="45.57977951071024" lon="8.219690508223504"><ele>247.0</ele><time>2026-04-06T12:37:06Z</time></trkpt><trkpt lat="45.57981590521696" lon="8.219616892170931"><ele>246.99999999999997</ele><time>2026-04-06T12:37:07Z</time></trkpt><trkpt lat="45.579862854254195" lon="8.219532852938302"><ele>247.0</ele><time>2026-04-06T12:37:08Z</time></trkpt><trkpt lat="45.57991868614972" lon="8.219440269546949"><ele>247.6</ele><time>2026-04-06T12:37:09Z</time></trkpt><trkpt lat="45.57999109729884" lon="8.219350022576217"><ele>248.2</ele><time>2026-04-06T12:37:10Z</time></trkpt><trkpt lat="45.58007288843985" lon="8.219248910389013"><ele>248.8</ele><time>2026-04-06T12:37:11Z</time></trkpt><trkpt lat="45.58015663275319" lon="8.219184308783827"><ele>249.4</ele><time>2026-04-06T12:37:12Z</time></trkpt><trkpt lat="45.58021532335901" lon="8.219123430865839"><ele>250.0</ele><time>2026-04-06T12:37:13Z</time></trkpt><trkpt lat="45.58032601762555" lon="8.219084213030895"><ele>250.16666666666666</ele><time>2026-04-06T12:37:15Z</time></trkpt><trkpt lat="45.58039164489073" lon="8.219010520200477"><ele>250.33333333333331</ele><time>2026-04-06T12:37:17Z</time></trkpt><trkpt lat="45.580401895269134" lon="8.218905908788903"><ele>250.5</ele><time>2026-04-06T12:37:21Z</time></trkpt><trkpt lat="45.580396769391726" lon="8.218772647882924"><ele>250.66666666666669</ele><time>2026-04-06T12:37:22Z</time></trkpt><trkpt lat="45.580366837287755" lon="8.218635369220681"><ele>250.83333333333334</ele><time>2026-04-06T12:37:23Z</time></trkpt><trkpt lat="45.580354187988924" lon="8.218529606201647"><ele>251.0</ele><time>2026-04-06T12:37:25Z</time></trkpt><trkpt lat="45.58033799193605" lon="8.218414522653234"><ele>251.50000000000003</ele><time>2026-04-06T12:37:28Z</time></trkpt><trkpt lat="45.580324156459405" lon="8.218316139259386"><ele>252.0</ele><time>2026-04-06T12:37:30Z</time></trkpt><trkpt lat="45.58035908958868" lon="8.218212980172678"><ele>252.5</ele><time>2026-04-06T12:37:32Z</time></trkpt><trkpt lat="45.58038228998061" lon="8.218117917384374"><ele>253.0</ele><time>2026-04-06T12:37:33Z</time></trkpt><trkpt lat="45.58044007914532" lon="8.21798641072499"><ele>253.50000000000003</ele><time>2026-04-06T12:37:35Z</time></trkpt><trkpt lat="45.580510443239824" lon="8.217964052258516"><ele>254.0</ele><time>2026-04-06T12:37:36Z</time></trkpt><trkpt lat="45.58059153589262" lon="8.217904091567776"><ele>255.0</ele><time>2026-04-06T12:37:37Z</time></trkpt><trkpt lat="45.58064387707795" lon="8.217845665875775"><ele>255.99999999999997</ele><time>2026-04-06T12:37:38Z</time></trkpt><trkpt lat="45.5806423251535" lon="8.217748230988741"><ele>257.0</ele><time>2026-04-06T12:37:39Z</time></trkpt><trkpt lat="45.580609130980264" lon="8.217604752317648"><ele>258.0</ele><time>2026-04-06T12:37:40Z</time></trkpt><trkpt lat="45.58061020681335" lon="8.217347654648199"><ele>259.0</ele><time>2026-04-06T12:37:41Z</time></trkpt><trkpt lat="45.580651717628584" lon="8.217114108470515"><ele>260.4</ele><time>2026-04-06T12:37:42Z</time></trkpt><trkpt lat="45.58067785880413" lon="8.217013947905045"><ele>261.79999999999995</ele><time>2026-04-06T12:37:43Z</time></trkpt><trkpt lat="45.58075985462684" lon="8.216987038368387"><ele>263.20000000000005</ele><time>2026-04-06T12:37:46Z</time></trkpt><trkpt lat="45.58082423296973" lon="8.216995898154613"><ele>264.6</ele><time>2026-04-06T12:37:49Z</time></trkpt><trkpt lat="45.58090720899347" lon="8.2168283060355"><ele>266.0</ele><time>2026-04-06T12:37:51Z</time></trkpt><trkpt lat="45.58095366617539" lon="8.216694604270424"><ele>266.0</ele><time>2026-04-06T12:37:52Z</time></trkpt><trkpt lat="45.5810250025773" lon="8.216578053931602"><ele>266.0</ele><time>2026-04-06T12:37:53Z</time></trkpt><trkpt lat="45.5811269393799" lon="8.21666049415163"><ele>266.0</ele><time>2026-04-06T12:37:55Z</time></trkpt><trkpt lat="45.58121053536473" lon="8.216718170751065"><ele>266.0</ele><time>2026-04-06T12:37:56Z</time></trkpt><trkpt lat="45.581303971157034" lon="8.216742671981235"><ele>266.0</ele><time>2026-04-06T12:37:57Z</time></trkpt><trkpt lat="45.581376077717806" lon="8.21673692114537"><ele>268.2</ele><time>2026-04-06T12:37:58Z</time></trkpt><trkpt lat="45.58145588550187" lon="8.216750009964445"><ele>270.40000000000003</ele><time>2026-04-06T12:37:59Z</time></trkpt><trkpt lat="45.581552026290446" lon="8.216750874344267"><ele>272.6</ele><time>2026-04-06T12:38:00Z</time></trkpt><trkpt lat="45.5816552405724" lon="8.216725975797294"><ele>274.8</ele><time>2026-04-06T12:38:01Z</time></trkpt><trkpt lat="45.58177606265021" lon="8.21666765609472"><ele>277.0</ele><time>2026-04-06T12:38:02Z</time></trkpt><trkpt lat="45.58192048463793" lon="8.216592179788224"><ele>276.75</ele><time>2026-04-06T12:38:02.999Z</time></trkpt><trkpt lat="45.58206608720317" lon="8.21652047077881"><ele>276.5</ele><time>2026-04-06T12:38:03.999Z</time></trkpt><trkpt lat="45.58217463627577" lon="8.216409445587988"><ele>276.25</ele><time>2026-04-06T12:38:04.999Z</time></trkpt><trkpt lat="45.58224082265731" lon="8.216348802118423"><ele>276.0</ele><time>2026-04-06T12:38:05.999Z</time></trkpt><trkpt lat="45.58229109195611" lon="8.216248729927655"><ele>279.2</ele><time>2026-04-06T12:38:07.999Z</time></trkpt><trkpt lat="45.58236177575401" lon="8.216100958626123"><ele>282.40000000000003</ele><time>2026-04-06T12:38:09.999Z</time></trkpt><trkpt lat="45.58242710227274" lon="8.215982784141067"><ele>285.6</ele><time>2026-04-06T12:38:10.999Z</time></trkpt><trkpt lat="45.58248823865379" lon="8.215871510145162"><ele>288.8</ele><time>2026-04-06T12:38:11.999Z</time></trkpt><trkpt lat="45.58253015888501" lon="8.215731126532388"><ele>292.0</ele><time>2026-04-06T12:38:12.999Z</time></trkpt><trkpt lat="45.5825823501265" lon="8.215619817357167"><ele>293.5</ele><time>2026-04-06T12:38:13.999Z</time></trkpt><trkpt lat="45.582637616622556" lon="8.215459911629239"><ele>295.0</ele><time>2026-04-06T12:38:14.999Z</time></trkpt><trkpt lat="45.58267544919325" lon="8.2152994774089"><ele>296.5</ele><time>2026-04-06T12:38:15.999Z</time></trkpt><trkpt lat="45.58272234837687" lon="8.215143395602553"><ele>298.0</ele><time>2026-04-06T12:38:16.999Z</time></trkpt><trkpt lat="45.58275917718836" lon="8.214981528443543"><ele>298.0</ele><time>2026-04-06T12:38:17.999Z</time></trkpt><trkpt lat="45.58280734392899" lon="8.214827795354113"><ele>298.0</ele><time>2026-04-06T12:38:18.999Z</time></trkpt><trkpt lat="45.582842117834936" lon="8.214644842595058"><ele>298.0</ele><time>2026-04-06T12:38:19.999Z</time></trkpt><trkpt lat="45.582863048531806" lon="8.214479959901297"><ele>298.0</ele><time>2026-04-06T12:38:20.999Z</time></trkpt><trkpt lat="45.58287040325064" lon="8.214363584399251"><ele>301.5</ele><time>2026-04-06T12:38:21.999Z</time></trkpt><trkpt lat="45.58296601101854" lon="8.214268874807464"><ele>305.0</ele><time>2026-04-06T12:38:23.999Z</time></trkpt><trkpt lat="45.5830966089403" lon="8.214235467417307"><ele>308.5</ele><time>2026-04-06T12:38:24.999Z</time></trkpt><trkpt lat="45.58323806571707" lon="8.214223160266311"><ele>312.0</ele><time>2026-04-06T12:38:25.999Z</time></trkpt><trkpt lat="45.583323069034506" lon="8.214194675165402"><ele>312.0</ele><time>2026-04-06T12:38:26.999Z</time></trkpt><trkpt lat="45.583362404923705" lon="8.214060705771887"><ele>312.0</ele><time>2026-04-06T12:38:28.999Z</time></trkpt><trkpt lat="45.583445616753245" lon="8.214070519257954"><ele>312.0</ele><time>2026-04-06T12:39:05Z</time></trkpt><trkpt lat="45.58353160608204" lon="8.2140067192144"><ele>312.0</ele><time>2026-04-06T12:39:07Z</time></trkpt><trkpt lat="45.58358278999605" lon="8.2139286256639"><ele>312.0</ele><time>2026-04-06T12:39:08Z</time></trkpt><trkpt lat="45.58365527051325" lon="8.2138711770219"><ele>312.0</ele><time>2026-04-06T12:39:09Z</time></trkpt><trkpt lat="45.583742622088096" lon="8.213858014178813"><ele>312.5</ele><time>2026-04-06T12:39:10Z</time></trkpt><trkpt lat="45.583838607808595" lon="8.213861369587843"><ele>313.0</ele><time>2026-04-06T12:39:11Z</time></trkpt><trkpt lat="45.58388759259142" lon="8.21378831631034"><ele>313.5</ele><time>2026-04-06T12:39:12Z</time></trkpt><trkpt lat="45.58392430908772" lon="8.213700837112123"><ele>314.0</ele><time>2026-04-06T12:39:13Z</time></trkpt><trkpt lat="45.58395707637039" lon="8.213588682954208"><ele>314.5</ele><time>2026-04-06T12:39:14Z</time></trkpt><trkpt lat="45.58402068321187" lon="8.213468012945325"><ele>315.0</ele><time>2026-04-06T12:39:15Z</time></trkpt><trkpt lat="45.58407777668267" lon="8.213346564963254"><ele>315.0</ele><time>2026-04-06T12:39:16Z</time></trkpt><trkpt lat="45.58410184246046" lon="8.213213397934028"><ele>315.0</ele><time>2026-04-06T12:39:17Z</time></trkpt><trkpt lat="45.58409500263105" lon="8.213027580135659"><ele>315.0</ele><time>2026-04-06T12:39:18Z</time></trkpt><trkpt lat="45.584110925586586" lon="8.212833026463096"><ele>315.0</ele><time>2026-04-06T12:39:19Z</time></trkpt><trkpt lat="45.584165060017625" lon="8.212677815681246"><ele>314.75</ele><time>2026-04-06T12:39:20Z</time></trkpt><trkpt lat="45.584268718764044" lon="8.212577402670211"><ele>314.5</ele><time>2026-04-06T12:39:21Z</time></trkpt><trkpt lat="45.58437929241642" lon="8.21252058692896"><ele>314.25</ele><time>2026-04-06T12:39:22Z</time></trkpt><trkpt lat="45.584487722269635" lon="8.212454851634224"><ele>314.0</ele><time>2026-04-06T12:39:23Z</time></trkpt><trkpt lat="45.584583268281904" lon="8.212363662695289"><ele>315.33333333333337</ele><time>2026-04-06T12:39:24Z</time></trkpt><trkpt lat="45.58465594468734" lon="8.212242095782594"><ele>316.6666666666667</ele><time>2026-04-06T12:39:25Z</time></trkpt><trkpt lat="45.584695396802296" lon="8.21214777307066"><ele>318.0</ele><time>2026-04-06T12:39:26Z</time></trkpt><trkpt lat="45.58474969403028" lon="8.212071466305062"><ele>319.3333333333333</ele><time>2026-04-06T12:39:27Z</time></trkpt><trkpt lat="45.58478654698078" lon="8.211978451717902"><ele>320.66666666666663</ele><time>2026-04-06T12:39:28Z</time></trkpt><trkpt lat="45.58484108117879" lon="8.211921017525375"><ele>322.0</ele><time>2026-04-06T12:39:30Z</time></trkpt><trkpt lat="45.58483625751872" lon="8.212094600234039"><ele>322.0</ele><time>2026-04-06T12:39:34Z</time></trkpt><trkpt lat="45.5848387515124" lon="8.212220327111671"><ele>322.0</ele><time>2026-04-06T12:39:35Z</time></trkpt><trkpt lat="45.584871920231684" lon="8.212350517315295"><ele>322.0</ele><time>2026-04-06T12:39:36Z</time></trkpt><trkpt lat="45.584899810877964" lon="8.212499781280126"><ele>322.0</ele><time>2026-04-06T12:39:37Z</time></trkpt><trkpt lat="45.584919728422896" lon="8.212647170773304"><ele>322.0</ele><time>2026-04-06T12:39:38Z</time></trkpt><trkpt lat="45.584942098714734" lon="8.212765050842773"><ele>320.66666666666663</ele><time>2026-04-06T12:39:39Z</time></trkpt><trkpt lat="45.58495686185865" lon="8.212876418869005"><ele>319.3333333333333</ele><time>2026-04-06T12:39:40Z</time></trkpt><trkpt lat="45.5849450255206" lon="8.213053792171612"><ele>318.0</ele><time>2026-04-06T12:39:42Z</time></trkpt><trkpt lat="45.584960666161" lon="8.213173666386966"><ele>316.6666666666667</ele><time>2026-04-06T12:39:44Z</time></trkpt><trkpt lat="45.58503518876701" lon="8.21324207396438"><ele>315.33333333333337</ele><time>2026-04-06T12:39:47Z</time></trkpt><trkpt lat="45.58509091258424" lon="8.21318364244257"><ele>314.0</ele><time>2026-04-06T12:39:50Z</time></trkpt><trkpt lat="45.585127030673334" lon="8.213109203141752"><ele>314.0</ele><time>2026-04-06T12:39:57Z</time></trkpt><trkpt lat="45.585130653628035" lon="8.212995765647554"><ele>314.0</ele><time>2026-04-06T12:40:04.999Z</time></trkpt><trkpt lat="45.58514655659884" lon="8.21289894821654"><ele>314.0</ele><time>2026-04-06T12:40:06.999Z</time></trkpt><trkpt lat="45.585185216905046" lon="8.212720374856374"><ele>314.0</ele><time>2026-04-06T12:40:07.999Z</time></trkpt><trkpt lat="45.5851945622274" lon="8.212629181493798"><ele>314.0</ele><time>2026-04-06T12:40:08.999Z</time></trkpt><trkpt lat="45.5852671036326" lon="8.212615295080694"><ele>314.0</ele><time>2026-04-06T12:40:10.999Z</time></trkpt><trkpt lat="45.585312554677444" lon="8.212690045872623"><ele>314.1666666666667</ele><time>2026-04-06T12:40:13.999Z</time></trkpt><trkpt lat="45.58536109852684" lon="8.212785953220008"><ele>314.33333333333337</ele><time>2026-04-06T12:40:16.999Z</time></trkpt><trkpt lat="45.58542354904345" lon="8.212803087856386"><ele>314.5</ele><time>2026-04-06T12:40:18.999Z</time></trkpt><trkpt lat="45.585450829223674" lon="8.21270898316315"><ele>314.6666666666667</ele><time>2026-04-06T12:40:47.999Z</time></trkpt><trkpt lat="45.585442841580054" lon="8.21259706230638"><ele>314.8333333333333</ele><time>2026-04-06T12:40:50.999Z</time></trkpt><trkpt lat="45.58542864850358" lon="8.212449399371764"><ele>315.0</ele><time>2026-04-06T12:40:52.999Z</time></trkpt><trkpt lat="45.5854608480848" lon="8.212280601938348"><ele>315.0</ele><time>2026-04-06T12:40:54.999Z</time></trkpt><trkpt lat="45.5854632446441" lon="8.212139252753902"><ele>315.0</ele><time>2026-04-06T12:40:56.999Z</time></trkpt><trkpt lat="45.58545916502676" lon="8.212047233836634"><ele>315.0</ele><time>2026-04-06T12:40:58.999Z</time></trkpt><trkpt lat="45.585532241660296" lon="8.212109405072084"><ele>315.0</ele><time>2026-04-06T12:41:00.999Z</time></trkpt><trkpt lat="45.58561242438363" lon="8.212038688715337"><ele>315.0</ele><time>2026-04-06T12:41:03.999Z</time></trkpt><trkpt lat="45.58568210959684" lon="8.212132923671353"><ele>315.0</ele><time>2026-04-06T12:41:06Z</time></trkpt><trkpt lat="45.58574834647118" lon="8.212098766235279"><ele>315.0</ele><time>2026-04-06T12:41:10Z</time></trkpt><trkpt lat="45.58577607308933" lon="8.212011921110358"><ele>315.0</ele><time>2026-04-06T12:41:11Z</time></trkpt><trkpt lat="45.58581274498994" lon="8.211887896051293"><ele>315.0</ele><time>2026-04-06T12:41:12Z</time></trkpt><trkpt lat="45.58584101410298" lon="8.211762557024858"><ele>315.0</ele><time>2026-04-06T12:41:13Z</time></trkpt><trkpt lat="45.585853832930226" lon="8.211647850910834"><ele>315.0</ele><time>2026-04-06T12:41:14Z</time></trkpt><trkpt lat="45.58586234764598" lon="8.211528653663219"><ele>315.0</ele><time>2026-04-06T12:41:15Z</time></trkpt><trkpt lat="45.58588488896055" lon="8.21138771415917"><ele>315.6</ele><time>2026-04-06T12:41:16Z</time></trkpt><trkpt lat="45.58587339577329" lon="8.211232083839839"><ele>316.2</ele><time>2026-04-06T12:41:17Z</time></trkpt><trkpt lat="45.585879320595524" lon="8.211072250364817"><ele>316.8</ele><time>2026-04-06T12:41:18Z</time></trkpt><trkpt lat="45.585897702653234" lon="8.210978956984713"><ele>317.4</ele><time>2026-04-06T12:41:19Z</time></trkpt><trkpt lat="45.58594591523102" lon="8.210867520504587"><ele>318.0</ele><time>2026-04-06T12:41:21Z</time></trkpt><trkpt lat="45.58598439048485" lon="8.21077399678177"><ele>318.0</ele><time>2026-04-06T12:41:23Z</time></trkpt><trkpt lat="45.5860593261831" lon="8.210870811863979"><ele>318.0</ele><time>2026-04-06T12:41:26Z</time></trkpt><trkpt lat="45.586098326114865" lon="8.21100277091382"><ele>318.0</ele><time>2026-04-06T12:41:27Z</time></trkpt><trkpt lat="45.58614530424461" lon="8.21110349935984"><ele>318.0</ele><time>2026-04-06T12:41:28Z</time></trkpt><trkpt lat="45.586201011757055" lon="8.211190135909424"><ele>318.0</ele><time>2026-04-06T12:41:30Z</time></trkpt><trkpt lat="45.58632284673078" lon="8.211184511199582"><ele>318.0</ele><time>2026-04-06T12:41:32Z</time></trkpt><trkpt lat="45.58639040336868" lon="8.211163589470546"><ele>318.0</ele><time>2026-04-06T12:41:33Z</time></trkpt><trkpt lat="45.58645637099112" lon="8.21113378750427"><ele>318.0</ele><time>2026-04-06T12:41:34Z</time></trkpt><trkpt lat="45.5864159109645" lon="8.211023098103288"><ele>318.0</ele><time>2026-04-06T12:41:36Z</time></trkpt><trkpt lat="45.586450526608445" lon="8.210881640579302"><ele>318.0</ele><time>2026-04-06T12:41:38Z</time></trkpt><trkpt lat="45.58655164519041" lon="8.210858542964411"><ele>318.0</ele><time>2026-04-06T12:41:40Z</time></trkpt><trkpt lat="45.586785461287356" lon="8.210777964289182"><ele>318.0</ele><time>2026-04-06T12:41:44Z</time></trkpt><trkpt lat="45.58686029096337" lon="8.210741779688815"><ele>318.0</ele><time>2026-04-06T12:41:45Z</time></trkpt><trkpt lat="45.58692869081905" lon="8.210691092715923"><ele>318.0</ele><time>2026-04-06T12:41:46Z</time></trkpt><trkpt lat="45.587031081846426" lon="8.210595139007115"><ele>318.0</ele><time>2026-04-06T12:41:47Z</time></trkpt><trkpt lat="45.58710100241627" lon="8.210507846078649"><ele>318.0</ele><time>2026-04-06T12:41:48Z</time></trkpt><trkpt lat="45.587067258851356" lon="8.21039460417223"><ele>318.3333333333333</ele><time>2026-04-06T12:41:49Z</time></trkpt><trkpt lat="45.5870357201806" lon="8.21028600000808"><ele>318.6666666666667</ele><time>2026-04-06T12:41:51Z</time></trkpt><trkpt lat="45.58700418512272" lon="8.210160954003618"><ele>319.0</ele><time>2026-04-06T12:42:31.999Z</time></trkpt><trkpt lat="45.58698536758879" lon="8.210056884664622"><ele>319.33333333333337</ele><time>2026-04-06T12:42:33.999Z</time></trkpt><trkpt lat="45.5869230789788" lon="8.20999848875147"><ele>319.6666666666667</ele><time>2026-04-06T12:42:36.999Z</time></trkpt><trkpt lat="45.58699378600109" lon="8.209984422498794"><ele>320.0</ele><time>2026-04-06T12:42:40.999Z</time></trkpt><trkpt lat="45.58708232357862" lon="8.210055989237004"><ele>320.0</ele><time>2026-04-06T12:42:42.999Z</time></trkpt><trkpt lat="45.58715944806421" lon="8.210092576396141"><ele>320.0</ele><time>2026-04-06T12:42:44.999Z</time></trkpt><trkpt lat="45.587219898819214" lon="8.210126806799"><ele>320.0</ele><time>2026-04-06T12:42:45.999Z</time></trkpt><trkpt lat="45.58733962288676" lon="8.210229045554522"><ele>320.0</ele><time>2026-04-06T12:42:47.999Z</time></trkpt><trkpt lat="45.58742513445401" lon="8.21026792067839"><ele>320.0</ele><time>2026-04-06T12:42:48.999Z</time></trkpt><trkpt lat="45.587522566174734" lon="8.210324826487382"><ele>320.0</ele><time>2026-04-06T12:42:49.999Z</time></trkpt><trkpt lat="45.587605304408086" lon="8.210392557825742"><ele>320.0</ele><time>2026-04-06T12:42:50.999Z</time></trkpt><trkpt lat="45.587663110079724" lon="8.210459217223384"><ele>320.0</ele><time>2026-04-06T12:42:51.999Z</time></trkpt><trkpt lat="45.58771008920066" lon="8.210558710802914"><ele>320.0</ele><time>2026-04-06T12:42:52.999Z</time></trkpt><trkpt lat="45.587739057732584" lon="8.210685841219876"><ele>320.0</ele><time>2026-04-06T12:42:53.999Z</time></trkpt><trkpt lat="45.58776505094763" lon="8.210782330129227"><ele>320.0</ele><time>2026-04-06T12:42:54.999Z</time></trkpt><trkpt lat="45.587806742130226" lon="8.210851585813186"><ele>319.4</ele><time>2026-04-06T12:42:55.999Z</time></trkpt><trkpt lat="45.587870698559115" lon="8.210938283120129"><ele>318.8</ele><time>2026-04-06T12:42:56.999Z</time></trkpt><trkpt lat="45.58794273680513" lon="8.211015285656751"><ele>318.2</ele><time>2026-04-06T12:42:57.999Z</time></trkpt><trkpt lat="45.58795727791051" lon="8.211150962930086"><ele>317.6</ele><time>2026-04-06T12:42:59.999Z</time></trkpt><trkpt lat="45.587855548996316" lon="8.211342398978728"><ele>317.0</ele><time>2026-04-06T12:43:01.999Z</time></trkpt><trkpt lat="45.58779508702355" lon="8.211453676615477"><ele>314.6666666666667</ele><time>2026-04-06T12:43:02.999Z</time></trkpt><trkpt lat="45.587746504852376" lon="8.211539327502411"><ele>312.33333333333337</ele><time>2026-04-06T12:43:03.999Z</time></trkpt><trkpt lat="45.5876486559005" lon="8.211560404169024"><ele>310.0</ele><time>2026-04-06T12:43:05.999Z</time></trkpt><trkpt lat="45.58765051854336" lon="8.211673990544742"><ele>307.6666666666667</ele><time>2026-04-06T12:43:08.999Z</time></trkpt><trkpt lat="45.587712978513636" lon="8.211693212852733"><ele>305.3333333333333</ele><time>2026-04-06T12:43:09.999Z</time></trkpt><trkpt lat="45.58778773233771" lon="8.211667417926165"><ele>303.0</ele><time>2026-04-06T12:43:11Z</time></trkpt><trkpt lat="45.58785917970179" lon="8.211595839555006"><ele>301.8</ele><time>2026-04-06T12:43:12Z</time></trkpt><trkpt lat="45.58792934745187" lon="8.211504431094781"><ele>300.6</ele><time>2026-04-06T12:43:13Z</time></trkpt><trkpt lat="45.58803687304946" lon="8.211403036028457"><ele>299.4</ele><time>2026-04-06T12:43:14Z</time></trkpt><trkpt lat="45.588138425576425" lon="8.21134752482013"><ele>298.2</ele><time>2026-04-06T12:43:15Z</time></trkpt><trkpt lat="45.58821192001101" lon="8.211293230070872"><ele>297.0</ele><time>2026-04-06T12:43:16Z</time></trkpt><trkpt lat="45.58826209904315" lon="8.21123621279737"><ele>297.0</ele><time>2026-04-06T12:43:17Z</time></trkpt><trkpt lat="45.588320389389985" lon="8.211095172685853"><ele>297.0</ele><time>2026-04-06T12:43:19Z</time></trkpt><trkpt lat="45.58829330930475" lon="8.210954829277075"><ele>297.0</ele><time>2026-04-06T12:43:20Z</time></trkpt><trkpt lat="45.588248937069025" lon="8.210801212905238"><ele>297.0</ele><time>2026-04-06T12:43:21Z</time></trkpt><trkpt lat="45.58822232747529" lon="8.210706919495845"><ele>297.0</ele><time>2026-04-06T12:43:22Z</time></trkpt><trkpt lat="45.58819299863753" lon="8.210537167791722"><ele>297.1666666666667</ele><time>2026-04-06T12:43:24Z</time></trkpt><trkpt lat="45.588221229283896" lon="8.210433243217105"><ele>297.3333333333333</ele><time>2026-04-06T12:43:25Z</time></trkpt><trkpt lat="45.588242181689004" lon="8.210306966099099"><ele>297.5</ele><time>2026-04-06T12:43:26Z</time></trkpt><trkpt lat="45.58826847945077" lon="8.210169266866764"><ele>297.66666666666663</ele><time>2026-04-06T12:43:27Z</time></trkpt><trkpt lat="45.58825755545619" lon="8.210071351236163"><ele>297.8333333333333</ele><time>2026-04-06T12:43:28Z</time></trkpt><trkpt lat="45.58833591414013" lon="8.210074407634965"><ele>298.0</ele><time>2026-04-06T12:43:32Z</time></trkpt><trkpt lat="45.58844220369493" lon="8.210112111714938"><ele>298.0</ele><time>2026-04-06T12:43:34Z</time></trkpt><trkpt lat="45.588457697916375" lon="8.209972097591107"><ele>298.0</ele><time>2026-04-06T12:43:36Z</time></trkpt><trkpt lat="45.58850322537414" lon="8.209889677054491"><ele>298.0</ele><time>2026-04-06T12:43:38Z</time></trkpt><trkpt lat="45.588489289997526" lon="8.209772427668002"><ele>298.0</ele><time>2026-04-06T12:43:41Z</time></trkpt><trkpt lat="45.58844302306713" lon="8.209649618018497"><ele>298.0</ele><time>2026-04-06T12:43:43Z</time></trkpt><trkpt lat="45.58845849210064" lon="8.209556277813222"><ele>298.0</ele><time>2026-04-06T12:43:45Z</time></trkpt><trkpt lat="45.58848784196256" lon="8.209414480806178"><ele>298.8333333333333</ele><time>2026-04-06T12:43:47Z</time></trkpt><trkpt lat="45.588505848760285" lon="8.209294307035657"><ele>299.66666666666663</ele><time>2026-04-06T12:43:48Z</time></trkpt><trkpt lat="45.58849537002169" lon="8.209183901366194"><ele>300.5</ele><time>2026-04-06T12:43:49Z</time></trkpt><trkpt lat="45.588559286743944" lon="8.209118245376494"><ele>301.3333333333333</ele><time>2026-04-06T12:43:51Z</time></trkpt><trkpt lat="45.58866503142347" lon="8.209135803821926"><ele>302.1666666666667</ele><time>2026-04-06T12:43:53Z</time></trkpt><trkpt lat="45.588739287444874" lon="8.209175938474251"><ele>303.0</ele><time>2026-04-06T12:43:54Z</time></trkpt><trkpt lat="45.588827079501485" lon="8.209205087470318"><ele>303.4</ele><time>2026-04-06T12:43:55Z</time></trkpt><trkpt lat="45.58889049691193" lon="8.209204441754661"><ele>303.8</ele><time>2026-04-06T12:43:56Z</time></trkpt><trkpt lat="45.58895025607973" lon="8.209108115522303"><ele>304.2</ele><time>2026-04-06T12:43:57Z</time></trkpt><trkpt lat="45.589014274844224" lon="8.208988417689607"><ele>304.6</ele><time>2026-04-06T12:43:58Z</time></trkpt><trkpt lat="45.58910188936153" lon="8.20886769009153"><ele>305.0</ele><time>2026-04-06T12:43:59Z</time></trkpt><trkpt lat="45.589218151087245" lon="8.2088124006918"><ele>305.0</ele><time>2026-04-06T12:44:00Z</time></trkpt><trkpt lat="45.589294534007685" lon="8.20871767048302"><ele>305.0</ele><time>2026-04-06T12:44:01Z</time></trkpt><trkpt lat="45.5893592627988" lon="8.208610326516045"><ele>305.0</ele><time>2026-04-06T12:44:02Z</time></trkpt><trkpt lat="45.589395976622576" lon="8.20849792961901"><ele>305.0</ele><time>2026-04-06T12:44:03Z</time></trkpt><trkpt lat="45.58943993490161" lon="8.208314991871227"><ele>305.0</ele><time>2026-04-06T12:44:04Z</time></trkpt><trkpt lat="45.58946529531804" lon="8.208184498936935"><ele>306.6</ele><time>2026-04-06T12:44:05Z</time></trkpt><trkpt lat="45.58950126698407" lon="8.208083138579058"><ele>308.2</ele><time>2026-04-06T12:44:06Z</time></trkpt><trkpt lat="45.58945322669882" lon="8.207959326096159"><ele>309.8</ele><time>2026-04-06T12:44:07.999Z</time></trkpt><trkpt lat="45.58934457134225" lon="8.207915675543356"><ele>311.4</ele><time>2026-04-06T12:44:08.999Z</time></trkpt><trkpt lat="45.58922651338011" lon="8.207882589970279"><ele>313.0</ele><time>2026-04-06T12:44:09.999Z</time></trkpt><trkpt lat="45.58916300144961" lon="8.207866894295417"><ele>313.0</ele><time>2026-04-06T12:44:10.999Z</time></trkpt><trkpt lat="45.58908609126909" lon="8.20792371111484"><ele>313.0</ele><time>2026-04-06T12:44:11.999Z</time></trkpt><trkpt lat="45.588999802920355" lon="8.208025060195009"><ele>313.0</ele><time>2026-04-06T12:44:12.999Z</time></trkpt><trkpt lat="45.58891157122089" lon="8.208131493264213"><ele>313.0</ele><time>2026-04-06T12:44:13.999Z</time></trkpt><trkpt lat="45.58882814893945" lon="8.208219178162686"><ele>313.0</ele><time>2026-04-06T12:44:14.999Z</time></trkpt><trkpt lat="45.588733273938466" lon="8.208280790925173"><ele>313.0</ele><time>2026-04-06T12:44:15.999Z</time></trkpt><trkpt lat="45.58862675769378" lon="8.208361956758193"><ele>313.0</ele><time>2026-04-06T12:44:16.999Z</time></trkpt><trkpt lat="45.588539864649654" lon="8.208414183221956"><ele>313.0</ele><time>2026-04-06T12:44:17.999Z</time></trkpt><trkpt lat="45.58845063657325" lon="8.208446362664324"><ele>313.0</ele><time>2026-04-06T12:44:18.999Z</time></trkpt><trkpt lat="45.588318186292945" lon="8.20847534157187"><ele>313.0</ele><time>2026-04-06T12:44:19.999Z</time></trkpt><trkpt lat="45.588203473333074" lon="8.20851874646192"><ele>313.0</ele><time>2026-04-06T12:44:20.999Z</time></trkpt><trkpt lat="45.5881255672163" lon="8.208515322328164"><ele>313.0</ele><time>2026-04-06T12:44:21.999Z</time></trkpt><trkpt lat="45.58805115930249" lon="8.208490181890395"><ele>313.0</ele><time>2026-04-06T12:44:22.999Z</time></trkpt><trkpt lat="45.58799130171775" lon="8.208571622925962"><ele>313.0</ele><time>2026-04-06T12:44:24.999Z</time></trkpt><trkpt lat="45.58806975649239" lon="8.208756248016577"><ele>313.0</ele><time>2026-04-06T12:44:26.999Z</time></trkpt><trkpt lat="45.58808644425098" lon="8.20884711146459"><ele>313.0</ele><time>2026-04-06T12:44:27.999Z</time></trkpt><trkpt lat="45.588043889121515" lon="8.208920408792384"><ele>313.0</ele><time>2026-04-06T12:44:28.999Z</time></trkpt><trkpt lat="45.58795119606719" lon="8.208984578889195"><ele>313.0</ele><time>2026-04-06T12:44:30.999Z</time></trkpt><trkpt lat="45.587889660501475" lon="8.20895275756327"><ele>313.0</ele><time>2026-04-06T12:44:31.999Z</time></trkpt><trkpt lat="45.58788232194218" lon="8.20884694791294"><ele>313.0</ele><time>2026-04-06T12:44:33.999Z</time></trkpt><trkpt lat="45.58787077857393" lon="8.208718203464004"><ele>313.0</ele><time>2026-04-06T12:44:34.999Z</time></trkpt><trkpt lat="45.58786863885983" lon="8.208536107904713"><ele>313.0</ele><time>2026-04-06T12:44:35.999Z</time></trkpt><trkpt lat="45.58786349608824" lon="8.20834096111791"><ele>313.0</ele><time>2026-04-06T12:44:36.999Z</time></trkpt><trkpt lat="45.587862673750436" lon="8.208188720198415"><ele>313.0</ele><time>2026-04-06T12:44:37.999Z</time></trkpt><trkpt lat="45.5879296721374" lon="8.208148525096977"><ele>313.0</ele><time>2026-04-06T12:44:39.999Z</time></trkpt><trkpt lat="45.58801114038027" lon="8.208282587822877"><ele>313.0</ele><time>2026-04-06T12:44:41.999Z</time></trkpt><trkpt lat="45.58810758663699" lon="8.208411279041524"><ele>313.0</ele><time>2026-04-06T12:44:42.999Z</time></trkpt><trkpt lat="45.58821111706589" lon="8.208508763298632"><ele>313.0</ele><time>2026-04-06T12:44:43.999Z</time></trkpt><trkpt lat="45.58830275391588" lon="8.208517915266025"><ele>313.0</ele><time>2026-04-06T12:44:44.999Z</time></trkpt><trkpt lat="45.58838271551002" lon="8.208488322807337"><ele>313.0</ele><time>2026-04-06T12:44:45.999Z</time></trkpt><trkpt lat="45.58848942393963" lon="8.20844584071439"><ele>313.0</ele><time>2026-04-06T12:44:46.999Z</time></trkpt><trkpt lat="45.588598117624834" lon="8.208415602464207"><ele>313.0</ele><time>2026-04-06T12:44:47.999Z</time></trkpt><trkpt lat="45.588658923909605" lon="8.208353927895116"><ele>313.0</ele><time>2026-04-06T12:44:48.999Z</time></trkpt><trkpt lat="45.588776681443946" lon="8.207962207423426"><ele>313.0</ele><time>2026-04-06T12:44:50.999Z</time></trkpt><trkpt lat="45.58882862370143" lon="8.207897273693881"><ele>313.0</ele><time>2026-04-06T12:44:51.999Z</time></trkpt><trkpt lat="45.5888970754646" lon="8.207767376871734"><ele>313.0</ele><time>2026-04-06T12:44:52.999Z</time></trkpt><trkpt lat="45.588950942356135" lon="8.207570068567328"><ele>313.0</ele><time>2026-04-06T12:44:53.999Z</time></trkpt><trkpt lat="45.58902170371059" lon="8.20740800791829"><ele>313.0</ele><time>2026-04-06T12:44:54.999Z</time></trkpt><trkpt lat="45.58906963010789" lon="8.20729913000857"><ele>313.0</ele><time>2026-04-06T12:44:55.999Z</time></trkpt><trkpt lat="45.58909062283003" lon="8.207191187949105"><ele>314.0</ele><time>2026-04-06T12:44:56.999Z</time></trkpt><trkpt lat="45.589088425542286" lon="8.207078835728463"><ele>315.0</ele><time>2026-04-06T12:44:57.999Z</time></trkpt><trkpt lat="45.588980768287406" lon="8.206911986951669"><ele>316.0</ele><time>2026-04-06T12:44:59.999Z</time></trkpt><trkpt lat="45.588917902189884" lon="8.20680394795492"><ele>317.0</ele><time>2026-04-06T12:45:00.999Z</time></trkpt><trkpt lat="45.58885395146082" lon="8.20672542892019"><ele>318.0</ele><time>2026-04-06T12:45:01.999Z</time></trkpt><trkpt lat="45.588774950703545" lon="8.206745932331492"><ele>318.0</ele><time>2026-04-06T12:45:03.999Z</time></trkpt><trkpt lat="45.58878952910794" lon="8.206919366777614"><ele>318.0</ele><time>2026-04-06T12:45:05.999Z</time></trkpt><trkpt lat="45.588773869399006" lon="8.207030846908115"><ele>318.0</ele><time>2026-04-06T12:45:07.999Z</time></trkpt><trkpt lat="45.58869873827551" lon="8.206980168970203"><ele>318.0</ele><time>2026-04-06T12:45:10.999Z</time></trkpt><trkpt lat="45.588642584358375" lon="8.206867885996676"><ele>318.0</ele><time>2026-04-06T12:45:12.999Z</time></trkpt><trkpt lat="45.58857677346558" lon="8.206749713316391"><ele>319.6666666666667</ele><time>2026-04-06T12:45:14.999Z</time></trkpt><trkpt lat="45.58850241343576" lon="8.20663268458408"><ele>321.3333333333333</ele><time>2026-04-06T12:45:17Z</time></trkpt><trkpt lat="45.58844041741386" lon="8.206561701991633"><ele>323.0</ele><time>2026-04-06T12:45:19Z</time></trkpt><trkpt lat="45.58837949284926" lon="8.206517042628711"><ele>324.66666666666663</ele><time>2026-04-06T12:45:22Z</time></trkpt><trkpt lat="45.58830844478557" lon="8.20644239978633"><ele>326.3333333333333</ele><time>2026-04-06T12:45:24Z</time></trkpt><trkpt lat="45.58822886383119" lon="8.206360438628545"><ele>328.0</ele><time>2026-04-06T12:45:26Z</time></trkpt><trkpt lat="45.58815804958463" lon="8.206282674177437"><ele>328.8333333333333</ele><time>2026-04-06T12:45:28Z</time></trkpt><trkpt lat="45.58809927505774" lon="8.206209490896459"><ele>329.66666666666663</ele><time>2026-04-06T12:45:30Z</time></trkpt><trkpt lat="45.58805167698596" lon="8.206143194211883"><ele>330.5</ele><time>2026-04-06T12:45:33Z</time></trkpt><trkpt lat="45.58806578468436" lon="8.20604022736615"><ele>331.3333333333333</ele><time>2026-04-06T12:45:38Z</time></trkpt><trkpt lat="45.58810127214254" lon="8.205928467051148"><ele>332.1666666666667</ele><time>2026-04-06T12:45:40Z</time></trkpt><trkpt lat="45.588188149885966" lon="8.205804377753976"><ele>333.0</ele><time>2026-04-06T12:45:42Z</time></trkpt><trkpt lat="45.58824811572256" lon="8.205747555187028"><ele>333.0</ele><time>2026-04-06T12:45:43Z</time></trkpt><trkpt lat="45.58831658037709" lon="8.205688035413777"><ele>333.0</ele><time>2026-04-06T12:45:44Z</time></trkpt><trkpt lat="45.58838683607736" lon="8.20561955463458"><ele>333.0</ele><time>2026-04-06T12:45:45Z</time></trkpt><trkpt lat="45.58846037817506" lon="8.205552656959984"><ele>333.0</ele><time>2026-04-06T12:45:46Z</time></trkpt><trkpt lat="45.588535650011636" lon="8.20548183086276"><ele>333.0</ele><time>2026-04-06T12:45:47Z</time></trkpt><trkpt lat="45.58861153897129" lon="8.20540943868727"><ele>333.0</ele><time>2026-04-06T12:45:48Z</time></trkpt><trkpt lat="45.58868926374294" lon="8.20533872578024"><ele>333.79999999999995</ele><time>2026-04-06T12:45:49Z</time></trkpt><trkpt lat="45.58877108939466" lon="8.205268297832806"><ele>334.6</ele><time>2026-04-06T12:45:50Z</time></trkpt><trkpt lat="45.58885615900805" lon="8.205192579209296"><ele>335.4</ele><time>2026-04-06T12:45:51Z</time></trkpt><trkpt lat="45.588944811949084" lon="8.205114754674055"><ele>336.20000000000005</ele><time>2026-04-06T12:45:52Z</time></trkpt><trkpt lat="45.589025842348974" lon="8.20501685410764"><ele>337.0</ele><time>2026-04-06T12:45:53Z</time></trkpt><trkpt lat="45.58911566284894" lon="8.204933511056131"><ele>337.0</ele><time>2026-04-06T12:45:54Z</time></trkpt><trkpt lat="45.58920774573863" lon="8.204847581614958"><ele>337.0</ele><time>2026-04-06T12:45:55Z</time></trkpt><trkpt lat="45.58929920397044" lon="8.204761329671202"><ele>337.0</ele><time>2026-04-06T12:45:56Z</time></trkpt><trkpt lat="45.589387724726606" lon="8.204677847970961"><ele>337.0</ele><time>2026-04-06T12:45:57Z</time></trkpt><trkpt lat="45.58948096739604" lon="8.20458991320384"><ele>337.0</ele><time>2026-04-06T12:45:58Z</time></trkpt><trkpt lat="45.58957557748144" lon="8.204501421075172"><ele>336.75</ele><time>2026-04-06T12:45:59Z</time></trkpt><trkpt lat="45.5896718877251" lon="8.204411581460635"><ele>336.5</ele><time>2026-04-06T12:46:00Z</time></trkpt><trkpt lat="45.58976722582708" lon="8.20432264868098"><ele>336.25</ele><time>2026-04-06T12:46:01Z</time></trkpt><trkpt lat="45.58987128903584" lon="8.204252814407274"><ele>336.0</ele><time>2026-04-06T12:46:02Z</time></trkpt><trkpt lat="45.589966028978225" lon="8.204161814973602"><ele>336.0</ele><time>2026-04-06T12:46:03Z</time></trkpt><trkpt lat="45.59005788142642" lon="8.204072568371917"><ele>336.0</ele><time>2026-04-06T12:46:04Z</time></trkpt><trkpt lat="45.59014977523091" lon="8.203980330752838"><ele>336.0</ele><time>2026-04-06T12:46:04.999Z</time></trkpt><trkpt lat="45.59024188382332" lon="8.203895240034365"><ele>336.0</ele><time>2026-04-06T12:46:05.999Z</time></trkpt><trkpt lat="45.59033810724225" lon="8.203810756915988"><ele>336.0</ele><time>2026-04-06T12:46:06.999Z</time></trkpt><trkpt lat="45.59043122580375" lon="8.203723516026924"><ele>335.8</ele><time>2026-04-06T12:46:07.999Z</time></trkpt><trkpt lat="45.59052803757854" lon="8.20364654014116"><ele>335.6</ele><time>2026-04-06T12:46:08.999Z</time></trkpt><trkpt lat="45.59062980819266" lon="8.203587268277522"><ele>335.4</ele><time>2026-04-06T12:46:09.999Z</time></trkpt><trkpt lat="45.590732833632906" lon="8.203553141810392"><ele>335.2</ele><time>2026-04-06T12:46:10.999Z</time></trkpt><trkpt lat="45.59083968605618" lon="8.203546861191178"><ele>335.0</ele><time>2026-04-06T12:46:11.999Z</time></trkpt><trkpt lat="45.5909461834813" lon="8.20355795047723"><ele>335.0</ele><time>2026-04-06T12:46:12.999Z</time></trkpt><trkpt lat="45.59105035692486" lon="8.203602060409287"><ele>335.0</ele><time>2026-04-06T12:46:13.999Z</time></trkpt><trkpt lat="45.59114622145198" lon="8.203672555623573"><ele>335.0</ele><time>2026-04-06T12:46:14.999Z</time></trkpt><trkpt lat="45.591232440880454" lon="8.203765992851189"><ele>335.0</ele><time>2026-04-06T12:46:15.999Z</time></trkpt><trkpt lat="45.59130554411911" lon="8.203881559862372"><ele>335.0</ele><time>2026-04-06T12:46:16.999Z</time></trkpt><trkpt lat="45.59136359378611" lon="8.204012257062873"><ele>333.0</ele><time>2026-04-06T12:46:17.999Z</time></trkpt><trkpt lat="45.5914115060718" lon="8.204148076028776"><ele>331.0</ele><time>2026-04-06T12:46:18.999Z</time></trkpt><trkpt lat="45.59144202674328" lon="8.204288573449452"><ele>329.0</ele><time>2026-04-06T12:46:19.999Z</time></trkpt><trkpt lat="45.59147346536451" lon="8.204424919556455"><ele>327.0</ele><time>2026-04-06T12:46:20.999Z</time></trkpt><trkpt lat="45.591502329969835" lon="8.204557638044014"><ele>325.0</ele><time>2026-04-06T12:46:21.999Z</time></trkpt><trkpt lat="45.5915330043027" lon="8.204688373483771"><ele>325.0</ele><time>2026-04-06T12:46:22.999Z</time></trkpt><trkpt lat="45.59156445529213" lon="8.204815665145246"><ele>325.0</ele><time>2026-04-06T12:46:23.999Z</time></trkpt><trkpt lat="45.59159334004898" lon="8.204929254741064"><ele>325.0</ele><time>2026-04-06T12:46:24.999Z</time></trkpt><trkpt lat="45.5916173064335" lon="8.205016677131635"><ele>325.0</ele><time>2026-04-06T12:46:25.999Z</time></trkpt><trkpt lat="45.59164441909723" lon="8.205117431259978"><ele>325.0</ele><time>2026-04-06T12:46:27.999Z</time></trkpt><trkpt lat="45.59184030477257" lon="8.205111186283402"><ele>325.2</ele><time>2026-04-06T12:46:29.999Z</time></trkpt><trkpt lat="45.59189288161893" lon="8.205178083694392"><ele>325.4</ele><time>2026-04-06T12:46:30.999Z</time></trkpt><trkpt lat="45.591928066384575" lon="8.205269493706368"><ele>325.6</ele><time>2026-04-06T12:46:32.999Z</time></trkpt><trkpt lat="45.59197729761431" lon="8.205351901454984"><ele>325.8</ele><time>2026-04-06T12:46:33.999Z</time></trkpt><trkpt lat="45.59204088323149" lon="8.205460959895529"><ele>326.0</ele><time>2026-04-06T12:46:34.999Z</time></trkpt><trkpt lat="45.592177731670375" lon="8.205571895435439"><ele>330.1666666666667</ele><time>2026-04-06T12:46:35.999Z</time></trkpt><trkpt lat="45.59222743602672" lon="8.205670857498077"><ele>334.33333333333337</ele><time>2026-04-06T12:46:36.999Z</time></trkpt><trkpt lat="45.59225383714302" lon="8.205781979702733"><ele>338.5</ele><time>2026-04-06T12:46:37.999Z</time></trkpt><trkpt lat="45.59228611054109" lon="8.205874619638951"><ele>342.6666666666667</ele><time>2026-04-06T12:46:38.999Z</time></trkpt><trkpt lat="45.592343726505135" lon="8.205958148770682"><ele>346.8333333333333</ele><time>2026-04-06T12:46:39.999Z</time></trkpt><trkpt lat="45.59240759285153" lon="8.20606893936865"><ele>351.0</ele><time>2026-04-06T12:46:40.999Z</time></trkpt><trkpt lat="45.592481390467846" lon="8.20616700018465"><ele>351.0</ele><time>2026-04-06T12:46:41.999Z</time></trkpt><trkpt lat="45.592555753351085" lon="8.206257775018134"><ele>351.0</ele><time>2026-04-06T12:46:42.999Z</time></trkpt><trkpt lat="45.592647363863165" lon="8.20633801715749"><ele>351.0</ele><time>2026-04-06T12:46:43.999Z</time></trkpt><trkpt lat="45.5927269096853" lon="8.206410089777265"><ele>351.0</ele><time>2026-04-06T12:46:44.999Z</time></trkpt><trkpt lat="45.5928026352415" lon="8.206467056886241"><ele>351.0</ele><time>2026-04-06T12:46:45.999Z</time></trkpt><trkpt lat="45.59288135948799" lon="8.206522262645672"><ele>351.5</ele><time>2026-04-06T12:46:46.999Z</time></trkpt><trkpt lat="45.592950745469025" lon="8.206577870478581"><ele>352.0</ele><time>2026-04-06T12:46:47.999Z</time></trkpt><trkpt lat="45.593006074449086" lon="8.20662863244683"><ele>352.5</ele><time>2026-04-06T12:46:48.999Z</time></trkpt><trkpt lat="45.5931046549689" lon="8.20664347331372"><ele>353.0</ele><time>2026-04-06T12:46:50.999Z</time></trkpt><trkpt lat="45.59320140709144" lon="8.206626006066111"><ele>353.5</ele><time>2026-04-06T12:46:52.999Z</time></trkpt><trkpt lat="45.59327559292566" lon="8.206618850573927"><ele>354.0</ele><time>2026-04-06T12:46:54.999Z</time></trkpt><trkpt lat="45.593341237798455" lon="8.206579565015732"><ele>354.0</ele><time>2026-04-06T12:46:58.999Z</time></trkpt><trkpt lat="45.593391085117446" lon="8.206513523436165"><ele>354.0</ele><time>2026-04-06T12:47:00.999Z</time></trkpt><trkpt lat="45.59343961645342" lon="8.206342190394494"><ele>354.0</ele><time>2026-04-06T12:47:02.999Z</time></trkpt><trkpt lat="45.59346149956157" lon="8.206257073179582"><ele>354.0</ele><time>2026-04-06T12:47:03.999Z</time></trkpt><trkpt lat="45.593473566807404" lon="8.206136825077124"><ele>354.0</ele><time>2026-04-06T12:47:04.999Z</time></trkpt><trkpt lat="45.59348953915171" lon="8.206001563051679"><ele>354.0</ele><time>2026-04-06T12:47:05.999Z</time></trkpt><trkpt lat="45.593496871137546" lon="8.205900145490688"><ele>355.79999999999995</ele><time>2026-04-06T12:47:06.999Z</time></trkpt><trkpt lat="45.59354593956046" lon="8.205739901498916"><ele>357.59999999999997</ele><time>2026-04-06T12:47:08.999Z</time></trkpt><trkpt lat="45.59358256992166" lon="8.205660365586867"><ele>359.4</ele><time>2026-04-06T12:47:09.999Z</time></trkpt><trkpt lat="45.59362062210946" lon="8.20558593634903"><ele>361.2</ele><time>2026-04-06T12:47:10.999Z</time></trkpt><trkpt lat="45.59369912329195" lon="8.205449909542502"><ele>363.0</ele><time>2026-04-06T12:47:12.999Z</time></trkpt><trkpt lat="45.593820117864055" lon="8.20538229364546"><ele>364.6666666666667</ele><time>2026-04-06T12:47:14.999Z</time></trkpt><trkpt lat="45.593901061888744" lon="8.205362469564363"><ele>366.3333333333333</ele><time>2026-04-06T12:47:15.999Z</time></trkpt><trkpt lat="45.59396787733082" lon="8.205321705725423"><ele>368.0</ele><time>2026-04-06T12:47:16.999Z</time></trkpt><trkpt lat="45.594029172595256" lon="8.205266277442027"><ele>369.66666666666663</ele><time>2026-04-06T12:47:17.999Z</time></trkpt><trkpt lat="45.59407791247022" lon="8.205186202638203"><ele>371.3333333333333</ele><time>2026-04-06T12:47:18.999Z</time></trkpt><trkpt lat="45.59412203484529" lon="8.205090927781947"><ele>373.0</ele><time>2026-04-06T12:47:19.999Z</time></trkpt><trkpt lat="45.594166828000844" lon="8.204999329559929"><ele>373.0</ele><time>2026-04-06T12:47:20.999Z</time></trkpt><trkpt lat="45.59421527253088" lon="8.204908799333218"><ele>373.0</ele><time>2026-04-06T12:47:21.999Z</time></trkpt><trkpt lat="45.594263449906634" lon="8.204814436279657"><ele>373.0</ele><time>2026-04-06T12:47:23Z</time></trkpt><trkpt lat="45.59430973730692" lon="8.20472366881212"><ele>373.0</ele><time>2026-04-06T12:47:24Z</time></trkpt><trkpt lat="45.594351544961974" lon="8.204633429759044"><ele>373.0</ele><time>2026-04-06T12:47:25Z</time></trkpt><trkpt lat="45.594384480062246" lon="8.204539524020904"><ele>373.0</ele><time>2026-04-06T12:47:26Z</time></trkpt><trkpt lat="45.59439308113909" lon="8.20443419394133"><ele>373.0</ele><time>2026-04-06T12:47:27Z</time></trkpt><trkpt lat="45.594388937032015" lon="8.204341366114665"><ele>373.0</ele><time>2026-04-06T12:47:28Z</time></trkpt><trkpt lat="45.594446507810936" lon="8.204185304173375"><ele>373.0</ele><time>2026-04-06T12:47:30Z</time></trkpt><trkpt lat="45.594515302142526" lon="8.204144405085163"><ele>373.0</ele><time>2026-04-06T12:47:31Z</time></trkpt><trkpt lat="45.594583586206504" lon="8.204153390477696"><ele>373.0</ele><time>2026-04-06T12:47:32Z</time></trkpt><trkpt lat="45.59462164239297" lon="8.20424963832791"><ele>373.0</ele><time>2026-04-06T12:47:33Z</time></trkpt><trkpt lat="45.5946915304295" lon="8.204334996994943"><ele>375.16666666666663</ele><time>2026-04-06T12:47:34Z</time></trkpt><trkpt lat="45.59476123040549" lon="8.204420650387004"><ele>377.3333333333333</ele><time>2026-04-06T12:47:35Z</time></trkpt><trkpt lat="45.59484058422187" lon="8.20447552821794"><ele>379.5</ele><time>2026-04-06T12:47:36Z</time></trkpt><trkpt lat="45.59491537810943" lon="8.204496932790915"><ele>381.66666666666663</ele><time>2026-04-06T12:47:37Z</time></trkpt><trkpt lat="45.5949712346198" lon="8.204447869800434"><ele>383.8333333333333</ele><time>2026-04-06T12:47:38Z</time></trkpt><trkpt lat="45.594992695557806" lon="8.204350251004435"><ele>386.0</ele><time>2026-04-06T12:47:39Z</time></trkpt><trkpt lat="45.594984363841505" lon="8.204225690258873"><ele>385.99999999999994</ele><time>2026-04-06T12:47:40Z</time></trkpt><trkpt lat="45.594985796902634" lon="8.204106453416758"><ele>386.0</ele><time>2026-04-06T12:47:41Z</time></trkpt><trkpt lat="45.59500393996972" lon="8.203991566438434"><ele>386.0</ele><time>2026-04-06T12:47:42Z</time></trkpt><trkpt lat="45.595030455180314" lon="8.203883609411543"><ele>386.0</ele><time>2026-04-06T12:47:43Z</time></trkpt><trkpt lat="45.59507350653174" lon="8.20378782892696"><ele>385.99999999999994</ele><time>2026-04-06T12:47:44Z</time></trkpt><trkpt lat="45.59512863759666" lon="8.20371072640489"><ele>386.0</ele><time>2026-04-06T12:47:45Z</time></trkpt><trkpt lat="45.595198955060965" lon="8.203652103057756"><ele>386.3333333333333</ele><time>2026-04-06T12:47:46Z</time></trkpt><trkpt lat="45.595277390640256" lon="8.203603250701589"><ele>386.66666666666663</ele><time>2026-04-06T12:47:47Z</time></trkpt><trkpt lat="45.59535597355358" lon="8.203558731406552"><ele>387.0</ele><time>2026-04-06T12:47:48Z</time></trkpt><trkpt lat="45.59543665108837" lon="8.20352212185116"><ele>387.33333333333337</ele><time>2026-04-06T12:47:49Z</time></trkpt><trkpt lat="45.595516269826526" lon="8.203496626385071"><ele>387.6666666666667</ele><time>2026-04-06T12:47:50Z</time></trkpt><trkpt lat="45.595595562708375" lon="8.203502381970193"><ele>388.0</ele><time>2026-04-06T12:47:51Z</time></trkpt><trkpt lat="45.59567105842312" lon="8.20354523715082"><ele>388.50000000000006</ele><time>2026-04-06T12:47:52Z</time></trkpt><trkpt lat="45.5957505986028" lon="8.203569074770696"><ele>389.0</ele><time>2026-04-06T12:47:53Z</time></trkpt><trkpt lat="45.59582044698274" lon="8.203610569984011"><ele>389.5</ele><time>2026-04-06T12:47:54Z</time></trkpt><trkpt lat="45.595885414196395" lon="8.203650862621318"><ele>390.0</ele><time>2026-04-06T12:47:55Z</time></trkpt><trkpt lat="45.5959930466159" lon="8.203685781414942"><ele>390.50000000000006</ele><time>2026-04-06T12:47:57Z</time></trkpt><trkpt lat="45.59603581825507" lon="8.203586601474601"><ele>391.0</ele><time>2026-04-06T12:47:59Z</time></trkpt><trkpt lat="45.59607156551364" lon="8.203492404751929"><ele>390.99999999999994</ele><time>2026-04-06T12:48:01Z</time></trkpt><trkpt lat="45.596135624564226" lon="8.203498576506071"><ele>391.0</ele><time>2026-04-06T12:48:02Z</time></trkpt><trkpt lat="45.59621834824436" lon="8.203497827251486"><ele>391.0</ele><time>2026-04-06T12:48:03Z</time></trkpt><trkpt lat="45.59628674813022" lon="8.203450343738263"><ele>391.0</ele><time>2026-04-06T12:48:03.999Z</time></trkpt><trkpt lat="45.59634704972964" lon="8.20340625338845"><ele>391.0</ele><time>2026-04-06T12:48:04.999Z</time></trkpt><trkpt lat="45.59641125303465" lon="8.203364034404096"><ele>390.99999999999994</ele><time>2026-04-06T12:48:05.999Z</time></trkpt><trkpt lat="45.59648411077886" lon="8.203338083401865"><ele>391.0</ele><time>2026-04-06T12:48:06.999Z</time></trkpt><trkpt lat="45.59655588273499" lon="8.203333729487326"><ele>391.00000000000006</ele><time>2026-04-06T12:48:07.999Z</time></trkpt><trkpt lat="45.596623597435695" lon="8.203304246430429"><ele>391.0</ele><time>2026-04-06T12:48:08.999Z</time></trkpt><trkpt lat="45.59667066628148" lon="8.203243601416917"><ele>391.0</ele><time>2026-04-06T12:48:09.999Z</time></trkpt><trkpt lat="45.59670936351839" lon="8.203157668193242"><ele>391.0</ele><time>2026-04-06T12:48:10.999Z</time></trkpt><trkpt lat="45.59674882741566" lon="8.203065319902647"><ele>391.00000000000006</ele><time>2026-04-06T12:48:11.999Z</time></trkpt><trkpt lat="45.59678488655252" lon="8.202976096029094"><ele>391.0</ele><time>2026-04-06T12:48:12.999Z</time></trkpt><trkpt lat="45.59688400722555" lon="8.202869786379726"><ele>391.00000000000006</ele><time>2026-04-06T12:48:14.999Z</time></trkpt><trkpt lat="45.59696495684513" lon="8.202860453143005"><ele>391.0</ele><time>2026-04-06T12:48:15.999Z</time></trkpt><trkpt lat="45.59705318101153" lon="8.202833342465727"><ele>391.0</ele><time>2026-04-06T12:48:16.999Z</time></trkpt><trkpt lat="45.5971256047106" lon="8.202796687638653"><ele>391.0</ele><time>2026-04-06T12:48:17.999Z</time></trkpt><trkpt lat="45.5971964891019" lon="8.202737758262755"><ele>391.00000000000006</ele><time>2026-04-06T12:48:18.999Z</time></trkpt><trkpt lat="45.597251965456046" lon="8.20267459215884"><ele>391.0</ele><time>2026-04-06T12:48:19.999Z</time></trkpt><trkpt lat="45.59731313627637" lon="8.20263955072313"><ele>393.00000000000006</ele><time>2026-04-06T12:48:20.999Z</time></trkpt><trkpt lat="45.59737765117786" lon="8.202620131120671"><ele>395.0</ele><time>2026-04-06T12:48:21.999Z</time></trkpt><trkpt lat="45.597445650271816" lon="8.202619280193801"><ele>397.0</ele><time>2026-04-06T12:48:22.999Z</time></trkpt><trkpt lat="45.59756266032724" lon="8.202685922416295"><ele>399.0</ele><time>2026-04-06T12:48:24.999Z</time></trkpt><trkpt lat="45.59764515076623" lon="8.202710377252776"><ele>401.00000000000006</ele><time>2026-04-06T12:48:26.999Z</time></trkpt><trkpt lat="45.59766224455426" lon="8.202569347755924"><ele>403.0</ele><time>2026-04-06T12:48:28.999Z</time></trkpt><trkpt lat="45.59767832687284" lon="8.202472781024134"><ele>403.0</ele><time>2026-04-06T12:48:29.999Z</time></trkpt><trkpt lat="45.597669431772" lon="8.202354713528198"><ele>403.0</ele><time>2026-04-06T12:48:30.999Z</time></trkpt><trkpt lat="45.597630693229085" lon="8.20222599981028"><ele>403.0</ele><time>2026-04-06T12:48:31.999Z</time></trkpt><trkpt lat="45.59759509168365" lon="8.202099537009762"><ele>403.0</ele><time>2026-04-06T12:48:32.999Z</time></trkpt><trkpt lat="45.5975505422798" lon="8.201981808841289"><ele>403.0</ele><time>2026-04-06T12:48:33.999Z</time></trkpt><trkpt lat="45.59750482184671" lon="8.201885217675404"><ele>400.59999999999997</ele><time>2026-04-06T12:48:34.999Z</time></trkpt><trkpt lat="45.59748043836939" lon="8.201801557893772"><ele>398.2</ele><time>2026-04-06T12:48:35.999Z</time></trkpt><trkpt lat="45.59748546122204" lon="8.201669888050388"><ele>395.8</ele><time>2026-04-06T12:48:37.999Z</time></trkpt><trkpt lat="45.59751680917349" lon="8.201564032235714"><ele>393.4</ele><time>2026-04-06T12:48:38.999Z</time></trkpt><trkpt lat="45.59758378598237" lon="8.201410492861564"><ele>391.0</ele><time>2026-04-06T12:48:39.999Z</time></trkpt><trkpt lat="45.59760987772865" lon="8.201288647834629"><ele>391.4</ele><time>2026-04-06T12:48:40.999Z</time></trkpt><trkpt lat="45.59767963565345" lon="8.20116347677416"><ele>391.8</ele><time>2026-04-06T12:48:42.999Z</time></trkpt><trkpt lat="45.59772229897786" lon="8.201061856876944"><ele>392.2</ele><time>2026-04-06T12:48:44.999Z</time></trkpt><trkpt lat="45.597810925869275" lon="8.201052953816905"><ele>392.59999999999997</ele><time>2026-04-06T12:48:46.999Z</time></trkpt><trkpt lat="45.59789530064267" lon="8.201025071121892"><ele>393.0</ele><time>2026-04-06T12:48:47.999Z</time></trkpt><trkpt lat="45.597986611442806" lon="8.200971348091157"><ele>393.0</ele><time>2026-04-06T12:48:48.999Z</time></trkpt><trkpt lat="45.59806218621026" lon="8.200970141716626"><ele>393.0</ele><time>2026-04-06T12:48:49.999Z</time></trkpt><trkpt lat="45.598158767783076" lon="8.200997528227388"><ele>393.0</ele><time>2026-04-06T12:48:51.999Z</time></trkpt><trkpt lat="45.598210790873374" lon="8.200941325427081"><ele>393.0</ele><time>2026-04-06T12:48:53.999Z</time></trkpt><trkpt lat="45.59816119217052" lon="8.200791361065917"><ele>393.0</ele><time>2026-04-06T12:48:55.999Z</time></trkpt><trkpt lat="45.59819044135048" lon="8.200685378807787"><ele>393.0</ele><time>2026-04-06T12:48:57.999Z</time></trkpt><trkpt lat="45.59811632469708" lon="8.20067786403867"><ele>393.0</ele><time>2026-04-06T12:49:02.999Z</time></trkpt><trkpt lat="45.59804952275902" lon="8.200700890416742"><ele>393.0</ele><time>2026-04-06T12:49:05.999Z</time></trkpt><trkpt lat="45.59797918971169" lon="8.200663268088155"><ele>393.0</ele><time>2026-04-06T12:49:07.999Z</time></trkpt><trkpt lat="45.59793911987316" lon="8.200541366524728"><ele>393.0</ele><time>2026-04-06T12:49:09.999Z</time></trkpt><trkpt lat="45.597914097154636" lon="8.2004399069985"><ele>393.0</ele><time>2026-04-06T12:49:11.999Z</time></trkpt><trkpt lat="45.59793560831727" lon="8.20055587117155"><ele>393.0</ele><time>2026-04-06T12:49:19.999Z</time></trkpt><trkpt lat="45.59799820639754" lon="8.20053645652951"><ele>391.0</ele><time>2026-04-06T12:49:23.999Z</time></trkpt><trkpt lat="45.59801811025753" lon="8.200446526756096"><ele>389.0</ele><time>2026-04-06T12:49:26.999Z</time></trkpt><trkpt lat="45.59813815784656" lon="8.20027796991128"><ele>387.0</ele><time>2026-04-06T12:49:27.999Z</time></trkpt><trkpt lat="45.598182021728526" lon="8.200163433839535"><ele>385.0</ele><time>2026-04-06T12:49:29Z</time></trkpt><trkpt lat="45.598187423157206" lon="8.200026346895111"><ele>383.0</ele><time>2026-04-06T12:49:31Z</time></trkpt><trkpt lat="45.59813609452662" lon="8.199972962776192"><ele>383.0</ele><time>2026-04-06T12:49:32Z</time></trkpt><trkpt lat="45.59808968421403" lon="8.19990991089375"><ele>383.0</ele><time>2026-04-06T12:49:33Z</time></trkpt><trkpt lat="45.59802668242043" lon="8.199787821937704"><ele>383.0</ele><time>2026-04-06T12:49:34Z</time></trkpt><trkpt lat="45.59795939499066" lon="8.199657781428066"><ele>383.0</ele><time>2026-04-06T12:49:35Z</time></trkpt><trkpt lat="45.597892217671976" lon="8.199533550995454"><ele>383.0</ele><time>2026-04-06T12:49:36Z</time></trkpt><trkpt lat="45.59783158266275" lon="8.199415788912557"><ele>378.1666666666667</ele><time>2026-04-06T12:49:37Z</time></trkpt><trkpt lat="45.59778407941066" lon="8.199297532284413"><ele>373.33333333333337</ele><time>2026-04-06T12:49:38Z</time></trkpt><trkpt lat="45.59773984422143" lon="8.199188678049541"><ele>368.5</ele><time>2026-04-06T12:49:39Z</time></trkpt><trkpt lat="45.59770845051831" lon="8.199094097268889"><ele>363.6666666666667</ele><time>2026-04-06T12:49:40Z</time></trkpt><trkpt lat="45.597682863493645" lon="8.198961963217082"><ele>358.8333333333333</ele><time>2026-04-06T12:49:42Z</time></trkpt><trkpt lat="45.59771077644409" lon="8.198869648729326"><ele>354.0</ele><time>2026-04-06T12:49:43Z</time></trkpt><trkpt lat="45.59776970362167" lon="8.198723185801056"><ele>354.0</ele><time>2026-04-06T12:49:45Z</time></trkpt><trkpt lat="45.5978405089581" lon="8.198630130876404"><ele>354.0</ele><time>2026-04-06T12:49:46Z</time></trkpt><trkpt lat="45.59790820652845" lon="8.198465657339778"><ele>354.0</ele><time>2026-04-06T12:49:48Z</time></trkpt><trkpt lat="45.597980143776226" lon="8.198391883892677"><ele>354.0</ele><time>2026-04-06T12:49:49Z</time></trkpt><trkpt lat="45.597926191392105" lon="8.19830089615403"><ele>354.0</ele><time>2026-04-06T12:49:52Z</time></trkpt><trkpt lat="45.597938603460705" lon="8.198104336254598"><ele>351.5</ele><time>2026-04-06T12:49:54Z</time></trkpt><trkpt lat="45.597939089200764" lon="8.197999745854254"><ele>349.0</ele><time>2026-04-06T12:49:55Z</time></trkpt><trkpt lat="45.59792332832806" lon="8.197863371578437"><ele>346.5</ele><time>2026-04-06T12:49:57Z</time></trkpt><trkpt lat="45.59792426902965" lon="8.19770340895068"><ele>344.0</ele><time>2026-04-06T12:49:59Z</time></trkpt><trkpt lat="45.59796754213201" lon="8.19763633889713"><ele>341.5</ele><time>2026-04-06T12:50:01Z</time></trkpt><trkpt lat="45.59800650894664" lon="8.197545366695683"><ele>339.0</ele><time>2026-04-06T12:50:06Z</time></trkpt><trkpt lat="45.59810257504786" lon="8.197497990430668"><ele>339.0</ele><time>2026-04-06T12:50:07.999Z</time></trkpt><trkpt lat="45.598172857754086" lon="8.197453427566662"><ele>339.0</ele><time>2026-04-06T12:50:09.999Z</time></trkpt><trkpt lat="45.598236049840146" lon="8.197376754439556"><ele>339.0</ele><time>2026-04-06T12:50:12.999Z</time></trkpt><trkpt lat="45.59833483192027" lon="8.197205808594985"><ele>339.0</ele><time>2026-04-06T12:50:14.999Z</time></trkpt><trkpt lat="45.598410611099006" lon="8.197172299647262"><ele>339.0</ele><time>2026-04-06T12:50:17.999Z</time></trkpt><trkpt lat="45.59847698495964" lon="8.197198761312277"><ele>340.0</ele><time>2026-04-06T12:50:20.999Z</time></trkpt><trkpt lat="45.59855010908352" lon="8.19728592393576"><ele>341.0</ele><time>2026-04-06T12:50:23.999Z</time></trkpt><trkpt lat="45.59861486928512" lon="8.19728586309669"><ele>342.0</ele><time>2026-04-06T12:50:24.999Z</time></trkpt><trkpt lat="45.59869406295194" lon="8.197264732170957"><ele>343.0</ele><time>2026-04-06T12:50:25.999Z</time></trkpt><trkpt lat="45.59884707881541" lon="8.197274540814824"><ele>344.0</ele><time>2026-04-06T12:50:27.999Z</time></trkpt><trkpt lat="45.598912970364125" lon="8.197332544701299"><ele>343.4</ele><time>2026-04-06T12:50:28.999Z</time></trkpt><trkpt lat="45.59900291604704" lon="8.197397513886648"><ele>342.79999999999995</ele><time>2026-04-06T12:50:29.999Z</time></trkpt><trkpt lat="45.5990697379631" lon="8.197473637767875"><ele>342.20000000000005</ele><time>2026-04-06T12:50:31.999Z</time></trkpt><trkpt lat="45.59913463368957" lon="8.197482277695833"><ele>341.6</ele><time>2026-04-06T12:50:32.999Z</time></trkpt><trkpt lat="45.59925818330482" lon="8.197509729668232"><ele>341.0</ele><time>2026-04-06T12:50:34.999Z</time></trkpt><trkpt lat="45.59933468618851" lon="8.197514374846827"><ele>341.0</ele><time>2026-04-06T12:50:35.999Z</time></trkpt><trkpt lat="45.599405091688524" lon="8.197499314349335"><ele>341.0</ele><time>2026-04-06T12:50:36.999Z</time></trkpt><trkpt lat="45.59948980385986" lon="8.197480408474366"><ele>341.0</ele><time>2026-04-06T12:50:37.999Z</time></trkpt><trkpt lat="45.59958884396729" lon="8.197450747592665"><ele>341.0</ele><time>2026-04-06T12:50:38.999Z</time></trkpt><trkpt lat="45.59965963885515" lon="8.197449097743405"><ele>341.0</ele><time>2026-04-06T12:50:39.999Z</time></trkpt><trkpt lat="45.59980107565325" lon="8.197407702392692"><ele>341.5</ele><time>2026-04-06T12:50:41.999Z</time></trkpt><trkpt lat="45.599859655170434" lon="8.197461761674914"><ele>342.0</ele><time>2026-04-06T12:50:50.999Z</time></trkpt><trkpt lat="45.599846415779325" lon="8.197370926797202"><ele>342.5</ele><time>2026-04-06T12:50:58.999Z</time></trkpt><trkpt lat="45.59978392576455" lon="8.197428033293171"><ele>343.0</ele><time>2026-04-06T12:52:28.999Z</time></trkpt><trkpt lat="45.59970795839486" lon="8.197452625353439"><ele>343.5</ele><time>2026-04-06T12:52:31.999Z</time></trkpt><trkpt lat="45.599647041714896" lon="8.197514982452061"><ele>344.0</ele><time>2026-04-06T12:52:33.999Z</time></trkpt><trkpt lat="45.59967966138588" lon="8.197656489524592"><ele>344.0</ele><time>2026-04-06T12:52:36.999Z</time></trkpt><trkpt lat="45.599744273621816" lon="8.197737687284256"><ele>344.0</ele><time>2026-04-06T12:52:37.999Z</time></trkpt><trkpt lat="45.59976939718674" lon="8.197859651238456"><ele>344.0</ele><time>2026-04-06T12:52:40.999Z</time></trkpt><trkpt lat="45.59979328383785" lon="8.198020136950875"><ele>344.0</ele><time>2026-04-06T12:52:42.999Z</time></trkpt><trkpt lat="45.599779754808154" lon="8.198145628884127"><ele>344.0</ele><time>2026-04-06T12:52:45.999Z</time></trkpt><trkpt lat="45.599717544908934" lon="8.198206450720141"><ele>345.6</ele><time>2026-04-06T12:52:47.999Z</time></trkpt><trkpt lat="45.599619862969774" lon="8.19823641408958"><ele>347.2</ele><time>2026-04-06T12:52:49.999Z</time></trkpt><trkpt lat="45.599559016909886" lon="8.198289661616618"><ele>348.8</ele><time>2026-04-06T12:52:50.999Z</time></trkpt><trkpt lat="45.59948421979348" lon="8.198382011554315"><ele>350.40000000000003</ele><time>2026-04-06T12:52:52.999Z</time></trkpt><trkpt lat="45.59944682893931" lon="8.198497675643338"><ele>352.0</ele><time>2026-04-06T12:52:57.999Z</time></trkpt><trkpt lat="45.599353130846566" lon="8.198625862716328"><ele>353.0</ele><time>2026-04-06T12:52:59.999Z</time></trkpt><trkpt lat="45.59930378428303" lon="8.198750892903247"><ele>354.0</ele><time>2026-04-06T12:53:01.999Z</time></trkpt><trkpt lat="45.5992905410509" lon="8.198860815469542"><ele>355.0</ele><time>2026-04-06T12:53:03.999Z</time></trkpt><trkpt lat="45.59923240232724" lon="8.198958972345194"><ele>356.0</ele><time>2026-04-06T12:53:06.999Z</time></trkpt><trkpt lat="45.59919573842466" lon="8.199035512813813"><ele>357.0</ele><time>2026-04-06T12:53:07.999Z</time></trkpt><trkpt lat="45.5991674659228" lon="8.199132833892216"><ele>358.0</ele><time>2026-04-06T12:53:08.999Z</time></trkpt><trkpt lat="45.599161528329276" lon="8.199244181566495"><ele>361.66666666666663</ele><time>2026-04-06T12:53:09.999Z</time></trkpt><trkpt lat="45.59915326489254" lon="8.199364745261363"><ele>365.3333333333333</ele><time>2026-04-06T12:53:10.999Z</time></trkpt><trkpt lat="45.59915971077502" lon="8.199460877339677"><ele>369.0</ele><time>2026-04-06T12:53:11.999Z</time></trkpt><trkpt lat="45.59919165710684" lon="8.199581991935382"><ele>372.6666666666667</ele><time>2026-04-06T12:53:13.999Z</time></trkpt><trkpt lat="45.599245905160565" lon="8.19963105125026"><ele>376.33333333333337</ele><time>2026-04-06T12:53:16.999Z</time></trkpt><trkpt lat="45.59936537866894" lon="8.199627797555294"><ele>380.0</ele><time>2026-04-06T12:53:32.999Z</time></trkpt><trkpt lat="45.5993077026418" lon="8.199771733455844"><ele>382.33333333333337</ele><time>2026-04-06T12:53:34.999Z</time></trkpt><trkpt lat="45.599316860546395" lon="8.199887855598421"><ele>384.6666666666667</ele><time>2026-04-06T12:53:37.999Z</time></trkpt><trkpt lat="45.59930924118867" lon="8.200017401412302"><ele>387.0</ele><time>2026-04-06T12:53:39.999Z</time></trkpt><trkpt lat="45.59929555754902" lon="8.200171852585369"><ele>389.33333333333337</ele><time>2026-04-06T12:53:42Z</time></trkpt><trkpt lat="45.599288930145704" lon="8.200281511353829"><ele>391.6666666666667</ele><time>2026-04-06T12:53:43Z</time></trkpt><trkpt lat="45.59928196868546" lon="8.200375466990732"><ele>394.0</ele><time>2026-04-06T12:53:44Z</time></trkpt><trkpt lat="45.599280134023104" lon="8.200511349849757"><ele>394.0</ele><time>2026-04-06T12:53:46Z</time></trkpt><trkpt lat="45.599260891141384" lon="8.200599033028372"><ele>394.0</ele><time>2026-04-06T12:53:48Z</time></trkpt><trkpt lat="45.59926331575048" lon="8.200733000282792"><ele>394.0</ele><time>2026-04-06T12:53:50Z</time></trkpt><trkpt lat="45.599281296265346" lon="8.200914534066099"><ele>394.0</ele><time>2026-04-06T12:53:55Z</time></trkpt><trkpt lat="45.59933905409702" lon="8.201038293714737"><ele>394.0</ele><time>2026-04-06T12:53:56Z</time></trkpt><trkpt lat="45.599313090797374" lon="8.201127559353502"><ele>395.83333333333337</ele><time>2026-04-06T12:53:58Z</time></trkpt><trkpt lat="45.5993295405251" lon="8.201255301203068"><ele>397.6666666666667</ele><time>2026-04-06T12:54:02Z</time></trkpt><trkpt lat="45.59937171319897" lon="8.201336616080024"><ele>399.5</ele><time>2026-04-06T12:54:04Z</time></trkpt><trkpt lat="45.59936084391004" lon="8.20144625702878"><ele>401.33333333333337</ele><time>2026-04-06T12:54:06Z</time></trkpt><trkpt lat="45.599334624821566" lon="8.201546872193763"><ele>403.1666666666667</ele><time>2026-04-06T12:54:08Z</time></trkpt><trkpt lat="45.599261833508656" lon="8.201638567099094"><ele>405.0</ele><time>2026-04-06T12:54:10.999Z</time></trkpt><trkpt lat="45.59920479382053" lon="8.201704937081626"><ele>407.0</ele><time>2026-04-06T12:54:11.999Z</time></trkpt><trkpt lat="45.599160615807094" lon="8.20178951409038"><ele>409.0</ele><time>2026-04-06T12:54:12.999Z</time></trkpt><trkpt lat="45.59911871814913" lon="8.201913082246195"><ele>411.0</ele><time>2026-04-06T12:54:14.999Z</time></trkpt><trkpt lat="45.59903192730582" lon="8.20206644500496"><ele>413.0</ele><time>2026-04-06T12:54:16.999Z</time></trkpt><trkpt lat="45.599044086112045" lon="8.202156273585896"><ele>415.0</ele><time>2026-04-06T12:54:17.999Z</time></trkpt><trkpt lat="45.599144260849435" lon="8.202209469739923"><ele>415.00000000000006</ele><time>2026-04-06T12:54:19.999Z</time></trkpt><trkpt lat="45.59921786504889" lon="8.202221357457132"><ele>415.0</ele><time>2026-04-06T12:54:20.999Z</time></trkpt><trkpt lat="45.59928579184875" lon="8.202238095520327"><ele>415.0</ele><time>2026-04-06T12:54:21.999Z</time></trkpt><trkpt lat="45.599346155733095" lon="8.202325586526838"><ele>415.0</ele><time>2026-04-06T12:54:22.999Z</time></trkpt><trkpt lat="45.599399093330995" lon="8.202409941845753"><ele>415.00000000000006</ele><time>2026-04-06T12:54:23.999Z</time></trkpt><trkpt lat="45.59941955686123" lon="8.202534919836085"><ele>415.0</ele><time>2026-04-06T12:54:25.999Z</time></trkpt><trkpt lat="45.599338206086514" lon="8.202630632397344"><ele>416.83333333333337</ele><time>2026-04-06T12:54:27.999Z</time></trkpt><trkpt lat="45.599263357764286" lon="8.202684481187712"><ele>418.6666666666667</ele><time>2026-04-06T12:54:28.999Z</time></trkpt><trkpt lat="45.59922189307642" lon="8.202760074403976"><ele>420.5</ele><time>2026-04-06T12:54:29.999Z</time></trkpt><trkpt lat="45.59923564505662" lon="8.202869140840418"><ele>422.33333333333337</ele><time>2026-04-06T12:54:30.999Z</time></trkpt><trkpt lat="45.59925056280031" lon="8.203020298234827"><ele>424.1666666666667</ele><time>2026-04-06T12:54:31.999Z</time></trkpt><trkpt lat="45.59925020266597" lon="8.203164208368062"><ele>426.0</ele><time>2026-04-06T12:54:32.999Z</time></trkpt><trkpt lat="45.599249399634814" lon="8.203268885877158"><ele>425.6</ele><time>2026-04-06T12:54:33.999Z</time></trkpt><trkpt lat="45.59933401163786" lon="8.203408005921789"><ele>425.20000000000005</ele><time>2026-04-06T12:54:35.999Z</time></trkpt><trkpt lat="45.59938160538473" lon="8.203515418273287"><ele>424.79999999999995</ele><time>2026-04-06T12:54:36.999Z</time></trkpt><trkpt lat="45.59944130379824" lon="8.203629063492649"><ele>424.4</ele><time>2026-04-06T12:54:37.999Z</time></trkpt><trkpt lat="45.599508616832985" lon="8.203740517333161"><ele>424.0</ele><time>2026-04-06T12:54:38.999Z</time></trkpt><trkpt lat="45.5995828131854" lon="8.20387809441026"><ele>426.00000000000006</ele><time>2026-04-06T12:54:39.999Z</time></trkpt><trkpt lat="45.59964006133748" lon="8.204001892015576"><ele>428.0</ele><time>2026-04-06T12:54:40.999Z</time></trkpt><trkpt lat="45.59969412835717" lon="8.204083170111677"><ele>430.0</ele><time>2026-04-06T12:54:41.999Z</time></trkpt><trkpt lat="45.59975981486461" lon="8.204159942628227"><ele>432.0</ele><time>2026-04-06T12:54:42.999Z</time></trkpt><trkpt lat="45.59981480362341" lon="8.20422905092961"><ele>434.00000000000006</ele><time>2026-04-06T12:54:43.999Z</time></trkpt><trkpt lat="45.59988710287494" lon="8.204322666225604"><ele>436.0</ele><time>2026-04-06T12:54:45.999Z</time></trkpt><trkpt lat="45.59996747402926" lon="8.204441871503985"><ele>436.0</ele><time>2026-04-06T12:54:48.999Z</time></trkpt><trkpt lat="45.599993210030966" lon="8.20453010645842"><ele>436.0</ele><time>2026-04-06T12:54:49.999Z</time></trkpt><trkpt lat="45.600011852664494" lon="8.204624952558081"><ele>436.0</ele><time>2026-04-06T12:54:50.999Z</time></trkpt><trkpt lat="45.60002880577273" lon="8.20471678949995"><ele>436.0</ele><time>2026-04-06T12:54:51.999Z</time></trkpt><trkpt lat="45.600068566384515" lon="8.204861500606258"><ele>436.0</ele><time>2026-04-06T12:54:53.999Z</time></trkpt><trkpt lat="45.600100241101785" lon="8.20494164310675"><ele>436.0</ele><time>2026-04-06T12:54:54.999Z</time></trkpt><trkpt lat="45.60013586574094" lon="8.20503151075607"><ele>436.0</ele><time>2026-04-06T12:54:55.999Z</time></trkpt><trkpt lat="45.60018359692383" lon="8.205113071813036"><ele>437.33333333333337</ele><time>2026-04-06T12:54:56.999Z</time></trkpt><trkpt lat="45.60024198164041" lon="8.205188278039788"><ele>438.6666666666667</ele><time>2026-04-06T12:54:57.999Z</time></trkpt><trkpt lat="45.60030827590283" lon="8.205248531510435"><ele>440.0</ele><time>2026-04-06T12:54:58.999Z</time></trkpt><trkpt lat="45.600376133923604" lon="8.205324819380172"><ele>441.33333333333337</ele><time>2026-04-06T12:55:00.999Z</time></trkpt><trkpt lat="45.60038665702755" lon="8.205468827331323"><ele>442.6666666666667</ele><time>2026-04-06T12:55:05.999Z</time></trkpt><trkpt lat="45.60045233551339" lon="8.205545602446945"><ele>444.0</ele><time>2026-04-06T12:55:06.999Z</time></trkpt><trkpt lat="45.600506911387264" lon="8.20563043873259"><ele>442.5</ele><time>2026-04-06T12:55:07.999Z</time></trkpt><trkpt lat="45.60062701929714" lon="8.205701370892063"><ele>441.0</ele><time>2026-04-06T12:55:08.999Z</time></trkpt><trkpt lat="45.60074827324838" lon="8.20571697210641"><ele>439.5</ele><time>2026-04-06T12:55:09.999Z</time></trkpt><trkpt lat="45.600857182411374" lon="8.20573020576379"><ele>438.0</ele><time>2026-04-06T12:55:10.999Z</time></trkpt><trkpt lat="45.600951849897086" lon="8.205749377042794"><ele>438.0</ele><time>2026-04-06T12:55:11.999Z</time></trkpt><trkpt lat="45.60103117966597" lon="8.205753630922672"><ele>438.0</ele><time>2026-04-06T12:55:12.999Z</time></trkpt><trkpt lat="45.60114097312279" lon="8.20566235106852"><ele>438.0</ele><time>2026-04-06T12:55:14.999Z</time></trkpt><trkpt lat="45.60124365424918" lon="8.205506221635828"><ele>438.0</ele><time>2026-04-06T12:55:16.999Z</time></trkpt><trkpt lat="45.60133097294142" lon="8.205455028779292"><ele>437.0</ele><time>2026-04-06T12:55:17.999Z</time></trkpt><trkpt lat="45.60142608193823" lon="8.205451414243964"><ele>436.0</ele><time>2026-04-06T12:55:19.999Z</time></trkpt><trkpt lat="45.60147056837902" lon="8.205561373539307"><ele>435.0</ele><time>2026-04-06T12:55:21.999Z</time></trkpt><trkpt lat="45.60151474728533" lon="8.205655460883547"><ele>434.0</ele><time>2026-04-06T12:55:22.999Z</time></trkpt><trkpt lat="45.60156533400263" lon="8.205756344654175"><ele>433.0</ele><time>2026-04-06T12:55:23.999Z</time></trkpt><trkpt lat="45.60163112704038" lon="8.205849457105034"><ele>432.0</ele><time>2026-04-06T12:55:24.999Z</time></trkpt><trkpt lat="45.601706851435324" lon="8.20590762843946"><ele>432.0</ele><time>2026-04-06T12:55:25.999Z</time></trkpt><trkpt lat="45.60179325637015" lon="8.20596053057876"><ele>432.0</ele><time>2026-04-06T12:55:26.999Z</time></trkpt><trkpt lat="45.601885162807875" lon="8.206011419174759"><ele>432.0</ele><time>2026-04-06T12:55:27.999Z</time></trkpt><trkpt lat="45.60196282298711" lon="8.206023829827144"><ele>432.0</ele><time>2026-04-06T12:55:28.999Z</time></trkpt><trkpt lat="45.602058247567065" lon="8.205975299651389"><ele>432.0</ele><time>2026-04-06T12:55:30.999Z</time></trkpt><trkpt lat="45.60201430716178" lon="8.205894734699084"><ele>432.0</ele><time>2026-04-06T12:55:32.999Z</time></trkpt><trkpt lat="45.60188521574289" lon="8.20584703317128"><ele>432.0</ele><time>2026-04-06T12:55:34.999Z</time></trkpt><trkpt lat="45.6017614673014" lon="8.205761987811728"><ele>432.00000000000006</ele><time>2026-04-06T12:55:35.999Z</time></trkpt><trkpt lat="45.60167895535634" lon="8.205673357492255"><ele>432.00000000000006</ele><time>2026-04-06T12:55:36.999Z</time></trkpt><trkpt lat="45.601606456464964" lon="8.20556722109463"><ele>432.0</ele><time>2026-04-06T12:55:37.999Z</time></trkpt><trkpt lat="45.601569566014824" lon="8.2054386044032"><ele>432.0</ele><time>2026-04-06T12:55:38.999Z</time></trkpt><trkpt lat="45.60154349088541" lon="8.205339969060683"><ele>429.20000000000005</ele><time>2026-04-06T12:55:39.999Z</time></trkpt><trkpt lat="45.60155443698412" lon="8.205163752347211"><ele>426.40000000000003</ele><time>2026-04-06T12:55:41.999Z</time></trkpt><trkpt lat="45.601561747971296" lon="8.205032002611288"><ele>423.6</ele><time>2026-04-06T12:55:42.999Z</time></trkpt><trkpt lat="45.60156297223558" lon="8.20492458576961"><ele>420.79999999999995</ele><time>2026-04-06T12:55:43.999Z</time></trkpt><trkpt lat="45.601468019910584" lon="8.204903719992991"><ele>418.0</ele><time>2026-04-06T12:55:45.998Z</time></trkpt><trkpt lat="45.60136811213132" lon="8.204909437251903"><ele>418.0</ele><time>2026-04-06T12:55:47Z</time></trkpt><trkpt lat="45.60126352831135" lon="8.204879159512982"><ele>418.0</ele><time>2026-04-06T12:55:48Z</time></trkpt><trkpt lat="45.60116536325858" lon="8.204892571990175"><ele>418.0</ele><time>2026-04-06T12:55:48.999Z</time></trkpt><trkpt lat="45.60106301244881" lon="8.204941916021678"><ele>418.0</ele><time>2026-04-06T12:55:50Z</time></trkpt><trkpt lat="45.60096997181123" lon="8.204958333349397"><ele>418.0</ele><time>2026-04-06T12:55:51Z</time></trkpt><trkpt lat="45.600911283023585" lon="8.204922509279182"><ele>418.25</ele><time>2026-04-06T12:55:53Z</time></trkpt><trkpt lat="45.60091131805237" lon="8.204822993702669"><ele>418.5</ele><time>2026-04-06T12:55:57Z</time></trkpt><trkpt lat="45.600884657183016" lon="8.204415407418427"><ele>418.75</ele><time>2026-04-06T12:55:59Z</time></trkpt><trkpt lat="45.60088008747735" lon="8.204312415207523"><ele>419.0</ele><time>2026-04-06T12:56:00Z</time></trkpt><trkpt lat="45.60079376642456" lon="8.204160939408837"><ele>419.0</ele><time>2026-04-06T12:56:01.999Z</time></trkpt><trkpt lat="45.60084971134692" lon="8.204077002826475"><ele>419.0</ele><time>2026-04-06T12:56:10.999Z</time></trkpt><trkpt lat="45.600944481954414" lon="8.203988165619554"><ele>419.0</ele><time>2026-04-06T12:56:11.999Z</time></trkpt><trkpt lat="45.60101847537725" lon="8.20388896188352"><ele>419.0</ele><time>2026-04-06T12:56:12.999Z</time></trkpt><trkpt lat="45.601044725950466" lon="8.203748338313886"><ele>419.0</ele><time>2026-04-06T12:56:13.999Z</time></trkpt><trkpt lat="45.60106450560263" lon="8.203636712428272"><ele>418.4</ele><time>2026-04-06T12:56:14.999Z</time></trkpt><trkpt lat="45.60114614135545" lon="8.20350441189336"><ele>417.79999999999995</ele><time>2026-04-06T12:56:16.999Z</time></trkpt><trkpt lat="45.601202888428496" lon="8.203437391463927"><ele>417.20000000000005</ele><time>2026-04-06T12:56:17.999Z</time></trkpt><trkpt lat="45.601280324038854" lon="8.203372455874486"><ele>416.6</ele><time>2026-04-06T12:56:18.999Z</time></trkpt><trkpt lat="45.601362115515" lon="8.203305429326823"><ele>416.0</ele><time>2026-04-06T12:56:19.999Z</time></trkpt><trkpt lat="45.601429897967165" lon="8.20322723283919"><ele>415.66666666666663</ele><time>2026-04-06T12:56:20.999Z</time></trkpt><trkpt lat="45.60149877910992" lon="8.203204264838545"><ele>415.3333333333333</ele><time>2026-04-06T12:56:21.999Z</time></trkpt><trkpt lat="45.601564100000715" lon="8.203148171692893"><ele>415.0</ele><time>2026-04-06T12:56:22.999Z</time></trkpt><trkpt lat="45.6016094212231" lon="8.20308565098107"><ele>414.66666666666663</ele><time>2026-04-06T12:56:23.999Z</time></trkpt><trkpt lat="45.60163176447712" lon="8.202888311843653"><ele>414.3333333333333</ele><time>2026-04-06T12:56:25.999Z</time></trkpt><trkpt lat="45.6016304608229" lon="8.2027698136882"><ele>414.0</ele><time>2026-04-06T12:56:26.999Z</time></trkpt><trkpt lat="45.60163426177249" lon="8.202669846312117"><ele>414.0</ele><time>2026-04-06T12:56:27.999Z</time></trkpt><trkpt lat="45.60163612372544" lon="8.20256082308776"><ele>414.0</ele><time>2026-04-06T12:56:28.999Z</time></trkpt><trkpt lat="45.601657200566855" lon="8.202449279793596"><ele>414.0</ele><time>2026-04-06T12:56:29.999Z</time></trkpt><trkpt lat="45.601685265604374" lon="8.202347408691383"><ele>414.0</ele><time>2026-04-06T12:56:30.999Z</time></trkpt><trkpt lat="45.601709744975246" lon="8.202259943669784"><ele>414.0</ele><time>2026-04-06T12:56:31.999Z</time></trkpt><trkpt lat="45.60172809485964" lon="8.202104247174665"><ele>414.0</ele><time>2026-04-06T12:56:33.999Z</time></trkpt><trkpt lat="45.601700170329806" lon="8.202009108746035"><ele>414.0</ele><time>2026-04-06T12:56:34.999Z</time></trkpt><trkpt lat="45.60165607808775" lon="8.201903066462613"><ele>414.0</ele><time>2026-04-06T12:56:35.999Z</time></trkpt><trkpt lat="45.60163128713736" lon="8.201812552301666"><ele>414.0</ele><time>2026-04-06T12:56:38.999Z</time></trkpt><trkpt lat="45.601683585130274" lon="8.201761690542625"><ele>414.0</ele><time>2026-04-06T12:56:40.999Z</time></trkpt><trkpt lat="45.60176498765903" lon="8.20174618132018"><ele>414.0</ele><time>2026-04-06T12:56:42.999Z</time></trkpt><trkpt lat="45.601867571616395" lon="8.201645357258549"><ele>414.0</ele><time>2026-04-06T12:56:44.999Z</time></trkpt><trkpt lat="45.60191737380776" lon="8.201517070540154"><ele>413.3333333333333</ele><time>2026-04-06T12:56:46.999Z</time></trkpt><trkpt lat="45.60195697186087" lon="8.20144145950272"><ele>412.66666666666663</ele><time>2026-04-06T12:56:47.999Z</time></trkpt><trkpt lat="45.60203250327057" lon="8.201332454318397"><ele>412.0</ele><time>2026-04-06T12:56:49.999Z</time></trkpt><trkpt lat="45.60210025242502" lon="8.20123298442493"><ele>411.3333333333333</ele><time>2026-04-06T12:56:51.999Z</time></trkpt><trkpt lat="45.60211319714648" lon="8.201136707763368"><ele>410.66666666666663</ele><time>2026-04-06T12:56:52.999Z</time></trkpt><trkpt lat="45.60210903134381" lon="8.201039528859729"><ele>410.0</ele><time>2026-04-06T12:56:53.999Z</time></trkpt><trkpt lat="45.60197822029062" lon="8.200941733675702"><ele>410.0</ele><time>2026-04-06T12:56:55.999Z</time></trkpt><trkpt lat="45.60190573041199" lon="8.200890393769233"><ele>410.0</ele><time>2026-04-06T12:56:56.999Z</time></trkpt><trkpt lat="45.60183001141824" lon="8.200815589317475"><ele>410.0</ele><time>2026-04-06T12:56:58.999Z</time></trkpt><trkpt lat="45.60182696678287" lon="8.200716509115065"><ele>410.0</ele><time>2026-04-06T12:57:00.999Z</time></trkpt><trkpt lat="45.60188294563414" lon="8.200581282384098"><ele>410.0</ele><time>2026-04-06T12:57:01.999Z</time></trkpt><trkpt lat="45.601781200909606" lon="8.200449224985064"><ele>406.8</ele><time>2026-04-06T12:57:02.999Z</time></trkpt><trkpt lat="45.60170120578366" lon="8.200344823217447"><ele>403.6</ele><time>2026-04-06T12:57:03.999Z</time></trkpt><trkpt lat="45.601667789375334" lon="8.200227695831579"><ele>400.4</ele><time>2026-04-06T12:57:04.999Z</time></trkpt><trkpt lat="45.6016159389608" lon="8.200117866824833"><ele>397.2</ele><time>2026-04-06T12:57:05.999Z</time></trkpt><trkpt lat="45.60153927356926" lon="8.200050014327047"><ele>394.0</ele><time>2026-04-06T12:57:06.999Z</time></trkpt><trkpt lat="45.60147424019459" lon="8.199991832191209"><ele>394.0</ele><time>2026-04-06T12:57:07.999Z</time></trkpt><trkpt lat="45.60139806657039" lon="8.199882615969262"><ele>394.0</ele><time>2026-04-06T12:57:08.999Z</time></trkpt><trkpt lat="45.60128557477793" lon="8.199827194000138"><ele>394.0</ele><time>2026-04-06T12:57:10.999Z</time></trkpt><trkpt lat="45.601211908594394" lon="8.199793829693798"><ele>394.0</ele><time>2026-04-06T12:57:12.999Z</time></trkpt><trkpt lat="45.60115162282232" lon="8.19971919690991"><ele>394.0</ele><time>2026-04-06T12:57:15.999Z</time></trkpt><trkpt lat="45.601120986650585" lon="8.199578814056103"><ele>391.00000000000006</ele><time>2026-04-06T12:57:18.999Z</time></trkpt><trkpt lat="45.601048274844416" lon="8.19952949797307"><ele>388.0</ele><time>2026-04-06T12:57:22.999Z</time></trkpt><trkpt lat="45.60096387817866" lon="8.199541051611881"><ele>385.0</ele><time>2026-04-06T12:57:26.999Z</time></trkpt><trkpt lat="45.60088731841628" lon="8.199566689511554"><ele>382.0</ele><time>2026-04-06T12:57:30.999Z</time></trkpt><trkpt lat="45.60080773984059" lon="8.1995717632508"><ele>379.0</ele><time>2026-04-06T12:57:34.999Z</time></trkpt><trkpt lat="45.60074271802816" lon="8.199558032207808"><ele>376.0</ele><time>2026-04-06T12:57:36.999Z</time></trkpt><trkpt lat="45.600718580645974" lon="8.1994654728225"><ele>376.0</ele><time>2026-04-06T12:57:38.999Z</time></trkpt><trkpt lat="45.60068676687417" lon="8.199352517344243"><ele>376.0</ele><time>2026-04-06T12:57:40.999Z</time></trkpt><trkpt lat="45.60068194315324" lon="8.199242895889235"><ele>376.0</ele><time>2026-04-06T12:57:42.998Z</time></trkpt><trkpt lat="45.60070161394202" lon="8.199092866724786"><ele>376.0</ele><time>2026-04-06T12:57:44.998Z</time></trkpt><trkpt lat="45.60068719965925" lon="8.198997591440225"><ele>376.0</ele><time>2026-04-06T12:57:45.998Z</time></trkpt><trkpt lat="45.60067493767884" lon="8.198904289148643"><ele>376.0</ele><time>2026-04-06T12:57:46.998Z</time></trkpt><trkpt lat="45.600661051201214" lon="8.198806836527284"><ele>372.4</ele><time>2026-04-06T12:57:47.998Z</time></trkpt><trkpt lat="45.60064567294506" lon="8.198655500800893"><ele>368.8</ele><time>2026-04-06T12:57:49.998Z</time></trkpt><trkpt lat="45.60062953358309" lon="8.198562055150228"><ele>365.2</ele><time>2026-04-06T12:57:52.999Z</time></trkpt><trkpt lat="45.60066353430882" lon="8.198468346470447"><ele>361.59999999999997</ele><time>2026-04-06T12:57:55.999Z</time></trkpt><trkpt lat="45.60073519189429" lon="8.198301521635383"><ele>358.0</ele><time>2026-04-06T12:57:57.999Z</time></trkpt><trkpt lat="45.600748717976295" lon="8.198190570518042"><ele>356.28571428571433</ele><time>2026-04-06T12:58:01.999Z</time></trkpt><trkpt lat="45.60072124195778" lon="8.19810721877768"><ele>354.57142857142856</ele><time>2026-04-06T12:58:03.999Z</time></trkpt><trkpt lat="45.600647836077805" lon="8.198083592122812"><ele>352.8571428571429</ele><time>2026-04-06T12:58:08.999Z</time></trkpt><trkpt lat="45.60058349492497" lon="8.198086059273825"><ele>351.14285714285717</ele><time>2026-04-06T12:58:14.999Z</time></trkpt><trkpt lat="45.600581409863906" lon="8.197981951136272"><ele>349.42857142857144</ele><time>2026-04-06T12:58:18.999Z</time></trkpt><trkpt lat="45.60056278941822" lon="8.197892314813597"><ele>347.7142857142857</ele><time>2026-04-06T12:58:21.999Z</time></trkpt><trkpt lat="45.60050950682727" lon="8.197814101704035"><ele>346.0</ele><time>2026-04-06T12:58:24.999Z</time></trkpt><trkpt lat="45.60043946197317" lon="8.197778541246578"><ele>346.0</ele><time>2026-04-06T12:58:27.999Z</time></trkpt><trkpt lat="45.600425968598195" lon="8.197678035502763"><ele>346.0</ele><time>2026-04-06T12:58:29.999Z</time></trkpt><trkpt lat="45.600364388858786" lon="8.197598445874904"><ele>346.0</ele><time>2026-04-06T12:58:32.999Z</time></trkpt><trkpt lat="45.60029715335815" lon="8.197571748060211"><ele>346.0</ele><time>2026-04-06T12:58:34.999Z</time></trkpt><trkpt lat="45.60027177388405" lon="8.197476392193924"><ele>346.0</ele><time>2026-04-06T12:58:38.999Z</time></trkpt><trkpt lat="45.60020059267878" lon="8.197428635014456"><ele>346.0</ele><time>2026-04-06T12:58:41.999Z</time></trkpt><trkpt lat="45.600141628798774" lon="8.197371602330229"><ele>346.0</ele><time>2026-04-06T12:58:45.999Z</time></trkpt><trkpt lat="45.60005302643469" lon="8.197359321579183"><ele>345.6</ele><time>2026-04-06T12:58:48.999Z</time></trkpt><trkpt lat="45.59998041606558" lon="8.197374935122479"><ele>345.20000000000005</ele><time>2026-04-06T12:58:50.999Z</time></trkpt><trkpt lat="45.59989848574708" lon="8.197309930398369"><ele>344.79999999999995</ele><time>2026-04-06T12:58:52.999Z</time></trkpt><trkpt lat="45.59985975555635" lon="8.197222435744816"><ele>344.4</ele><time>2026-04-06T12:58:56.999Z</time></trkpt><trkpt lat="45.59998202966238" lon="8.19710565241003"><ele>344.0</ele><time>2026-04-06T12:59:02Z</time></trkpt><trkpt lat="45.59994887865325" lon="8.196957098637691"><ele>343.83333333333337</ele><time>2026-04-06T12:59:03Z</time></trkpt><trkpt lat="45.60001115177592" lon="8.19690208555159"><ele>343.6666666666667</ele><time>2026-04-06T12:59:04Z</time></trkpt><trkpt lat="45.60007978673038" lon="8.196781026084091"><ele>343.5</ele><time>2026-04-06T12:59:06Z</time></trkpt><trkpt lat="45.600127637272415" lon="8.196702347795343"><ele>343.3333333333333</ele><time>2026-04-06T12:59:08Z</time></trkpt><trkpt lat="45.60018657127628" lon="8.196630765026274"><ele>343.16666666666663</ele><time>2026-04-06T12:59:10Z</time></trkpt><trkpt lat="45.60024623640344" lon="8.196579867138574"><ele>343.0</ele><time>2026-04-06T12:59:12Z</time></trkpt><trkpt lat="45.600270308977464" lon="8.19668399111219"><ele>343.0</ele><time>2026-04-06T12:59:15Z</time></trkpt><trkpt lat="45.600267334730475" lon="8.196814813660506"><ele>343.0</ele><time>2026-04-06T12:59:17Z</time></trkpt><trkpt lat="45.600282642416055" lon="8.196909994744658"><ele>343.0</ele><time>2026-04-06T12:59:18Z</time></trkpt><trkpt lat="45.60035889125185" lon="8.197021432744537"><ele>343.0</ele><time>2026-04-06T12:59:20Z</time></trkpt><trkpt lat="45.60046496244903" lon="8.197167747890163"><ele>343.0</ele><time>2026-04-06T12:59:22Z</time></trkpt><trkpt lat="45.60055932411469" lon="8.19724507924139"><ele>343.5</ele><time>2026-04-06T12:59:23Z</time></trkpt><trkpt lat="45.60062696886815" lon="8.197288147417392"><ele>344.0</ele><time>2026-04-06T12:59:24Z</time></trkpt><trkpt lat="45.60068285535667" lon="8.197406725878198"><ele>344.5</ele><time>2026-04-06T12:59:25Z</time></trkpt><trkpt lat="45.60075448273615" lon="8.197451512434187"><ele>345.0</ele><time>2026-04-06T12:59:26Z</time></trkpt><trkpt lat="45.60082680159375" lon="8.197496309741664"><ele>345.5</ele><time>2026-04-06T12:59:27Z</time></trkpt><trkpt lat="45.600894708856615" lon="8.197603378746036"><ele>346.0</ele><time>2026-04-06T12:59:29Z</time></trkpt><trkpt lat="45.60095613702121" lon="8.197630422333107"><ele>346.0</ele><time>2026-04-06T12:59:31Z</time></trkpt><trkpt lat="45.601024301198706" lon="8.197657528621036"><ele>346.0</ele><time>2026-04-06T12:59:33Z</time></trkpt><trkpt lat="45.60108575235113" lon="8.197687384113825"><ele>346.0</ele><time>2026-04-06T12:59:35Z</time></trkpt><trkpt lat="45.601186524992386" lon="8.197780879715578"><ele>346.0</ele><time>2026-04-06T12:59:39Z</time></trkpt><trkpt lat="45.60129264783191" lon="8.197837713465008"><ele>346.0</ele><time>2026-04-06T12:59:40Z</time></trkpt><trkpt lat="45.60136984839265" lon="8.197906913448216"><ele>347.5</ele><time>2026-04-06T12:59:41Z</time></trkpt><trkpt lat="45.60143633085645" lon="8.197955085292946"><ele>349.0</ele><time>2026-04-06T12:59:42Z</time></trkpt><trkpt lat="45.60150963852765" lon="8.198028335031976"><ele>350.5</ele><time>2026-04-06T12:59:44Z</time></trkpt><trkpt lat="45.601572814781804" lon="8.198128451557542"><ele>352.0</ele><time>2026-04-06T12:59:45Z</time></trkpt><trkpt lat="45.60161721003441" lon="8.198240204098466"><ele>353.5</ele><time>2026-04-06T12:59:46Z</time></trkpt><trkpt lat="45.60165617017698" lon="8.19832869388782"><ele>355.0</ele><time>2026-04-06T12:59:46.999Z</time></trkpt><trkpt lat="45.601717841308194" lon="8.198383955457784"><ele>355.0</ele><time>2026-04-06T12:59:47.999Z</time></trkpt><trkpt lat="45.60186387041419" lon="8.19842092540437"><ele>355.0</ele><time>2026-04-06T12:59:49.999Z</time></trkpt><trkpt lat="45.6019432700118" lon="8.198451410287344"><ele>355.0</ele><time>2026-04-06T12:59:50.999Z</time></trkpt><trkpt lat="45.60201629580546" lon="8.198464785172252"><ele>355.0</ele><time>2026-04-06T12:59:51.999Z</time></trkpt><trkpt lat="45.60209549579661" lon="8.19846619215614"><ele>355.0</ele><time>2026-04-06T12:59:52.999Z</time></trkpt><trkpt lat="45.60217737825432" lon="8.198491649522454"><ele>356.25</ele><time>2026-04-06T12:59:53.999Z</time></trkpt><trkpt lat="45.602255685971784" lon="8.19854109874473"><ele>357.5</ele><time>2026-04-06T12:59:55.999Z</time></trkpt><trkpt lat="45.602392626110024" lon="8.19856985434106"><ele>358.75</ele><time>2026-04-06T12:59:57.999Z</time></trkpt><trkpt lat="45.6024987653367" lon="8.198555955927686"><ele>360.0</ele><time>2026-04-06T13:00:00Z</time></trkpt><trkpt lat="45.60263905722371" lon="8.198524353619815"><ele>360.0</ele><time>2026-04-06T13:00:02Z</time></trkpt><trkpt lat="45.602743298541256" lon="8.198490957219034"><ele>360.0</ele><time>2026-04-06T13:00:03Z</time></trkpt><trkpt lat="45.602840746533104" lon="8.198490768680989"><ele>360.0</ele><time>2026-04-06T13:00:04Z</time></trkpt><trkpt lat="45.602934504289344" lon="8.198505037369886"><ele>360.0</ele><time>2026-04-06T13:00:08Z</time></trkpt><trkpt lat="45.603042482554244" lon="8.198491458283742"><ele>360.0</ele><time>2026-04-06T13:00:10Z</time></trkpt><trkpt lat="45.603125123174" lon="8.198516107163503"><ele>360.8333333333333</ele><time>2026-04-06T13:00:12Z</time></trkpt><trkpt lat="45.603210579456785" lon="8.19842295959739"><ele>361.6666666666667</ele><time>2026-04-06T13:00:14Z</time></trkpt><trkpt lat="45.603277660360014" lon="8.19847674007949"><ele>362.5</ele><time>2026-04-06T13:00:16Z</time></trkpt><trkpt lat="45.603337826083205" lon="8.198517654255603"><ele>363.33333333333337</ele><time>2026-04-06T13:00:18Z</time></trkpt><trkpt lat="45.60339150956118" lon="8.198599526200699"><ele>364.1666666666667</ele><time>2026-04-06T13:00:19Z</time></trkpt><trkpt lat="45.60345630026027" lon="8.198682464870943"><ele>365.0</ele><time>2026-04-06T13:00:23Z</time></trkpt><trkpt lat="45.60354772120901" lon="8.198690780300643"><ele>365.4</ele><time>2026-04-06T13:00:26Z</time></trkpt><trkpt lat="45.60366985911759" lon="8.198695938945656"><ele>365.8</ele><time>2026-04-06T13:00:28Z</time></trkpt><trkpt lat="45.60373668474527" lon="8.1986635276534"><ele>366.20000000000005</ele><time>2026-04-06T13:00:29Z</time></trkpt><trkpt lat="45.60384910327437" lon="8.198629288559502"><ele>366.6</ele><time>2026-04-06T13:00:31Z</time></trkpt><trkpt lat="45.603913798414155" lon="8.19867936329296"><ele>367.0</ele><time>2026-04-06T13:00:32Z</time></trkpt><trkpt lat="45.603982583443326" lon="8.198759088789108"><ele>367.0</ele><time>2026-04-06T13:00:33Z</time></trkpt><trkpt lat="45.60403939916969" lon="8.198853130371871"><ele>367.0</ele><time>2026-04-06T13:00:35Z</time></trkpt><trkpt lat="45.60409697966412" lon="8.198814481185407"><ele>367.0</ele><time>2026-04-06T13:00:37Z</time></trkpt><trkpt lat="45.60416276345967" lon="8.198825905203877"><ele>367.0</ele><time>2026-04-06T13:00:39Z</time></trkpt><trkpt lat="45.60422371409829" lon="8.198856739360426"><ele>367.0</ele><time>2026-04-06T13:00:40Z</time></trkpt><trkpt lat="45.60430448706342" lon="8.198895715033693"><ele>367.0</ele><time>2026-04-06T13:00:42Z</time></trkpt><trkpt lat="45.6043428529748" lon="8.19905214535901"><ele>367.66666666666663</ele><time>2026-04-06T13:00:44Z</time></trkpt><trkpt lat="45.604375012215094" lon="8.199136575811767"><ele>368.3333333333333</ele><time>2026-04-06T13:00:45Z</time></trkpt><trkpt lat="45.604406316555526" lon="8.199240248192945"><ele>369.0</ele><time>2026-04-06T13:00:47Z</time></trkpt><trkpt lat="45.60445180761752" lon="8.199322070461683"><ele>369.6666666666667</ele><time>2026-04-06T13:00:55Z</time></trkpt><trkpt lat="45.60454966742775" lon="8.199335888413268"><ele>370.33333333333337</ele><time>2026-04-06T13:02:43Z</time></trkpt><trkpt lat="45.60448669386829" lon="8.199406317603161"><ele>371.0</ele><time>2026-04-06T13:03:47.999Z</time></trkpt><trkpt lat="45.60439370142237" lon="8.199425115818219"><ele>371.0</ele><time>2026-04-06T13:03:49.999Z</time></trkpt><trkpt lat="45.60429789561075" lon="8.199580917408158"><ele>371.0</ele><time>2026-04-06T13:03:51.999Z</time></trkpt><trkpt lat="45.60421752927681" lon="8.199588382250028"><ele>371.0</ele><time>2026-04-06T13:03:54.999Z</time></trkpt><trkpt lat="45.60416788041531" lon="8.19970905829552"><ele>371.0</ele><time>2026-04-06T13:04:09.999Z</time></trkpt><trkpt lat="45.60414593597123" lon="8.199834815021863"><ele>371.0</ele><time>2026-04-06T13:04:11.999Z</time></trkpt><trkpt lat="45.60412101757374" lon="8.199995108916385"><ele>372.20000000000005</ele><time>2026-04-06T13:04:13.999Z</time></trkpt><trkpt lat="45.60408286130302" lon="8.200085565569736"><ele>373.40000000000003</ele><time>2026-04-06T13:04:14.999Z</time></trkpt><trkpt lat="45.60404641669969" lon="8.200246814222755"><ele>374.6</ele><time>2026-04-06T13:04:16.999Z</time></trkpt><trkpt lat="45.604010452372236" lon="8.200355216164315"><ele>375.8</ele><time>2026-04-06T13:04:17.999Z</time></trkpt><trkpt lat="45.60395382669443" lon="8.200478414794528"><ele>377.0</ele><time>2026-04-06T13:04:18.999Z</time></trkpt><trkpt lat="45.60390545676567" lon="8.20058926890163"><ele>377.0</ele><time>2026-04-06T13:04:20Z</time></trkpt><trkpt lat="45.60384470909315" lon="8.200656271491836"><ele>377.0</ele><time>2026-04-06T13:04:23Z</time></trkpt><trkpt lat="45.603775261862175" lon="8.200763190969607"><ele>377.0</ele><time>2026-04-06T13:04:25Z</time></trkpt><trkpt lat="45.603709739868926" lon="8.20081262591632"><ele>377.0</ele><time>2026-04-06T13:04:26Z</time></trkpt><trkpt lat="45.60366108386395" lon="8.200956554731711"><ele>377.0</ele><time>2026-04-06T13:04:28Z</time></trkpt><trkpt lat="45.60360183405993" lon="8.201044282144686"><ele>378.5</ele><time>2026-04-06T13:04:29Z</time></trkpt><trkpt lat="45.603529293705535" lon="8.20114736016664"><ele>380.0</ele><time>2026-04-06T13:04:31Z</time></trkpt><trkpt lat="45.60347992858239" lon="8.201235824312533"><ele>381.5</ele><time>2026-04-06T13:04:34Z</time></trkpt><trkpt lat="45.60341798542654" lon="8.201303217367062"><ele>383.0</ele><time>2026-04-06T13:04:35Z</time></trkpt><trkpt lat="45.6033502055286" lon="8.201376840665823"><ele>384.49999999999994</ele><time>2026-04-06T13:04:37Z</time></trkpt><trkpt lat="45.60330076042775" lon="8.201436465514124"><ele>386.0</ele><time>2026-04-06T13:04:39Z</time></trkpt><trkpt lat="45.60321408733101" lon="8.201459004793806"><ele>385.99999999999994</ele><time>2026-04-06T13:04:42Z</time></trkpt><trkpt lat="45.603104300429294" lon="8.201477113362882"><ele>386.0</ele><time>2026-04-06T13:04:44Z</time></trkpt><trkpt lat="45.60303961394494" lon="8.201469336139079"><ele>386.0</ele><time>2026-04-06T13:04:46Z</time></trkpt><trkpt lat="45.60298467497066" lon="8.201529439950832"><ele>386.0</ele><time>2026-04-06T13:04:50Z</time></trkpt><trkpt lat="45.60293728966033" lon="8.201595262783108"><ele>385.99999999999994</ele><time>2026-04-06T13:05:23.999Z</time></trkpt><trkpt lat="45.60290293925386" lon="8.201691846919351"><ele>386.0</ele><time>2026-04-06T13:05:27.999Z</time></trkpt><trkpt lat="45.60297236973184" lon="8.201778888991019"><ele>385.20000000000005</ele><time>2026-04-06T13:05:30.999Z</time></trkpt><trkpt lat="45.602930388262" lon="8.201886476257332"><ele>384.40000000000003</ele><time>2026-04-06T13:05:32.999Z</time></trkpt><trkpt lat="45.602855488513995" lon="8.20194780597044"><ele>383.6</ele><time>2026-04-06T13:05:34.999Z</time></trkpt><trkpt lat="45.60281882530217" lon="8.20209914304427"><ele>382.8</ele><time>2026-04-06T13:05:36.999Z</time></trkpt><trkpt lat="45.602790533180276" lon="8.202215063061505"><ele>382.0</ele><time>2026-04-06T13:05:38.999Z</time></trkpt><trkpt lat="45.602793964794095" lon="8.202363566974268"><ele>383.16666666666663</ele><time>2026-04-06T13:05:40.999Z</time></trkpt><trkpt lat="45.602777455736216" lon="8.202495058487573"><ele>384.3333333333333</ele><time>2026-04-06T13:05:42.999Z</time></trkpt><trkpt lat="45.60276842725503" lon="8.202587803974621"><ele>385.5</ele><time>2026-04-06T13:05:47.999Z</time></trkpt><trkpt lat="45.60284048297141" lon="8.202629875491459"><ele>386.66666666666663</ele><time>2026-04-06T13:05:50.999Z</time></trkpt><trkpt lat="45.602949173183276" lon="8.202614631713917"><ele>387.8333333333333</ele><time>2026-04-06T13:05:52.999Z</time></trkpt><trkpt lat="45.6030214918315" lon="8.202594330584208"><ele>389.0</ele><time>2026-04-06T13:05:55.999Z</time></trkpt><trkpt lat="45.603088327342626" lon="8.202648926492785"><ele>388.99999999999994</ele><time>2026-04-06T13:05:57.999Z</time></trkpt><trkpt lat="45.60319647352574" lon="8.202602013654536"><ele>389.0</ele><time>2026-04-06T13:05:59.999Z</time></trkpt><trkpt lat="45.60325858165049" lon="8.202653259022584"><ele>389.0</ele><time>2026-04-06T13:06:01.999Z</time></trkpt><trkpt lat="45.603233298358084" lon="8.202745773909095"><ele>389.0</ele><time>2026-04-06T13:06:04.999Z</time></trkpt><trkpt lat="45.60315613839" lon="8.202813121849365"><ele>388.99999999999994</ele><time>2026-04-06T13:06:06.999Z</time></trkpt><trkpt lat="45.60308257596571" lon="8.202889513320356"><ele>389.0</ele><time>2026-04-06T13:06:08.999Z</time></trkpt><trkpt lat="45.60301636561591" lon="8.202857216131452"><ele>388.99999999999994</ele><time>2026-04-06T13:06:11.999Z</time></trkpt><trkpt lat="45.602946999320686" lon="8.20288386008729"><ele>389.0</ele><time>2026-04-06T13:06:14.999Z</time></trkpt><trkpt lat="45.60287531438494" lon="8.202900193951347"><ele>389.0</ele><time>2026-04-06T13:06:18Z</time></trkpt><trkpt lat="45.60280534239591" lon="8.202921199265594"><ele>389.0</ele><time>2026-04-06T13:06:20Z</time></trkpt><trkpt lat="45.60276404875663" lon="8.20302816874147"><ele>388.99999999999994</ele><time>2026-04-06T13:06:23Z</time></trkpt><trkpt lat="45.60267074298831" lon="8.20311225296595"><ele>389.0</ele><time>2026-04-06T13:06:25Z</time></trkpt><trkpt lat="45.60261859936813" lon="8.203180872441187"><ele>389.99999999999994</ele><time>2026-04-06T13:06:29Z</time></trkpt><trkpt lat="45.60264773675494" lon="8.203290182591463"><ele>391.0</ele><time>2026-04-06T13:06:32Z</time></trkpt><trkpt lat="45.602724837703036" lon="8.20337645983812"><ele>392.0</ele><time>2026-04-06T13:06:34Z</time></trkpt><trkpt lat="45.60280035538955" lon="8.203364779050691"><ele>393.0</ele><time>2026-04-06T13:06:36Z</time></trkpt><trkpt lat="45.60286294350377" lon="8.203395855302672"><ele>393.99999999999994</ele><time>2026-04-06T13:06:38Z</time></trkpt><trkpt lat="45.6029362713506" lon="8.203401338439475"><ele>395.0</ele><time>2026-04-06T13:06:40Z</time></trkpt><trkpt lat="45.602979111807116" lon="8.203467971804859"><ele>395.0</ele><time>2026-04-06T13:06:48Z</time></trkpt><trkpt lat="45.60307554736954" lon="8.20347963558313"><ele>395.0</ele><time>2026-04-06T13:06:52Z</time></trkpt><trkpt lat="45.603161109947756" lon="8.203526967541785"><ele>395.0</ele><time>2026-04-06T13:06:54Z</time></trkpt><trkpt lat="45.60325859495369" lon="8.203458824389033"><ele>395.0</ele><time>2026-04-06T13:06:56Z</time></trkpt><trkpt lat="45.60331044896537" lon="8.20340133089688"><ele>395.0</ele><time>2026-04-06T13:06:57Z</time></trkpt><trkpt lat="45.603361407754356" lon="8.203291466895946"><ele>394.99999999999994</ele><time>2026-04-06T13:06:58Z</time></trkpt><trkpt lat="45.60341176952533" lon="8.20318351472637"><ele>395.0</ele><time>2026-04-06T13:06:59Z</time></trkpt><trkpt lat="45.603461445341324" lon="8.203065967539"><ele>395.0</ele><time>2026-04-06T13:07:00Z</time></trkpt><trkpt lat="45.6035200263543" lon="8.202989471436966"><ele>395.0</ele><time>2026-04-06T13:07:01Z</time></trkpt><trkpt lat="45.60358814850139" lon="8.20293946432529"><ele>394.99999999999994</ele><time>2026-04-06T13:07:02Z</time></trkpt><trkpt lat="45.60361880067011" lon="8.202821154316553"><ele>395.0</ele><time>2026-04-06T13:07:03Z</time></trkpt><trkpt lat="45.60364841201492" lon="8.202678822990519"><ele>393.4</ele><time>2026-04-06T13:07:04Z</time></trkpt><trkpt lat="45.60370279352476" lon="8.202607560483427"><ele>391.8</ele><time>2026-04-06T13:07:05Z</time></trkpt><trkpt lat="45.60372857496479" lon="8.202519788262343"><ele>390.20000000000005</ele><time>2026-04-06T13:07:06Z</time></trkpt><trkpt lat="45.603784397686645" lon="8.202367590918419"><ele>388.6</ele><time>2026-04-06T13:07:09Z</time></trkpt><trkpt lat="45.603874560013494" lon="8.202265935411369"><ele>387.0</ele><time>2026-04-06T13:07:12Z</time></trkpt><trkpt lat="45.60387885535563" lon="8.202158400515083"><ele>385.75</ele><time>2026-04-06T13:07:15Z</time></trkpt><trkpt lat="45.603825321525086" lon="8.201940665076851"><ele>384.5</ele><time>2026-04-06T13:07:17Z</time></trkpt><trkpt lat="45.60374252785137" lon="8.20188620456992"><ele>383.25</ele><time>2026-04-06T13:07:19Z</time></trkpt><trkpt lat="45.60359210273995" lon="8.201922669481899"><ele>382.0</ele><time>2026-04-06T13:07:21Z</time></trkpt><trkpt lat="45.603526832783885" lon="8.201897482688027"><ele>382.0</ele><time>2026-04-06T13:07:23Z</time></trkpt><trkpt lat="45.60347935535249" lon="8.20180243382497"><ele>382.0</ele><time>2026-04-06T13:07:25Z</time></trkpt><trkpt lat="45.603386132107005" lon="8.201811988227215"><ele>382.0</ele><time>2026-04-06T13:07:27Z</time></trkpt><trkpt lat="45.60330910200291" lon="8.201769674795145"><ele>382.0</ele><time>2026-04-06T13:07:29Z</time></trkpt><trkpt lat="45.60330086744728" lon="8.201644998864941"><ele>382.0</ele><time>2026-04-06T13:07:31Z</time></trkpt><trkpt lat="45.6033067940225" lon="8.201516275309574"><ele>382.0</ele><time>2026-04-06T13:07:32Z</time></trkpt><trkpt lat="45.603323228752465" lon="8.201428822707346"><ele>382.8</ele><time>2026-04-06T13:07:33Z</time></trkpt><trkpt lat="45.60342020304634" lon="8.201337939363002"><ele>383.6</ele><time>2026-04-06T13:07:35Z</time></trkpt><trkpt lat="45.603491449742705" lon="8.201286762988145"><ele>384.40000000000003</ele><time>2026-04-06T13:07:36Z</time></trkpt><trkpt lat="45.60354705210383" lon="8.20116710058789"><ele>385.20000000000005</ele><time>2026-04-06T13:07:38Z</time></trkpt><trkpt lat="45.60364000241195" lon="8.201095859589772"><ele>386.0</ele><time>2026-04-06T13:07:40Z</time></trkpt><trkpt lat="45.603688340746956" lon="8.201022151117538"><ele>384.20000000000005</ele><time>2026-04-06T13:07:41Z</time></trkpt><trkpt lat="45.60371432325405" lon="8.200891977320358"><ele>382.40000000000003</ele><time>2026-04-06T13:07:42Z</time></trkpt><trkpt lat="45.60377867596018" lon="8.200783159027583"><ele>380.6</ele><time>2026-04-06T13:07:44Z</time></trkpt><trkpt lat="45.60386869101426" lon="8.200714062015876"><ele>378.8</ele><time>2026-04-06T13:07:46Z</time></trkpt><trkpt lat="45.60391106365161" lon="8.20062792034699"><ele>377.0</ele><time>2026-04-06T13:07:48Z</time></trkpt><trkpt lat="45.603937697266964" lon="8.200517260409052"><ele>377.0</ele><time>2026-04-06T13:07:49Z</time></trkpt><trkpt lat="45.60398202209763" lon="8.200398533173345"><ele>377.0</ele><time>2026-04-06T13:07:50Z</time></trkpt><trkpt lat="45.60402390091075" lon="8.200274229270583"><ele>377.0</ele><time>2026-04-06T13:07:51Z</time></trkpt><trkpt lat="45.60407026938067" lon="8.200181826430095"><ele>377.0</ele><time>2026-04-06T13:07:52Z</time></trkpt><trkpt lat="45.604082705840106" lon="8.200054771621794"><ele>377.0</ele><time>2026-04-06T13:07:53.999Z</time></trkpt><trkpt lat="45.60412719311744" lon="8.199987713153892"><ele>377.0</ele><time>2026-04-06T13:07:54.999Z</time></trkpt><trkpt lat="45.60415997387792" lon="8.199869992892072"><ele>376.0</ele><time>2026-04-06T13:07:55.999Z</time></trkpt><trkpt lat="45.60418201672864" lon="8.199775456259115"><ele>375.0</ele><time>2026-04-06T13:07:56.999Z</time></trkpt><trkpt lat="45.6042086620707" lon="8.199693349070664"><ele>374.0</ele><time>2026-04-06T13:07:58.999Z</time></trkpt><trkpt lat="45.6042862017158" lon="8.199668603088252"><ele>373.0</ele><time>2026-04-06T13:08:04.999Z</time></trkpt><trkpt lat="45.604320271017905" lon="8.199581070498912"><ele>372.0</ele><time>2026-04-06T13:08:05.999Z</time></trkpt><trkpt lat="45.60436625470688" lon="8.199493884840978"><ele>371.0</ele><time>2026-04-06T13:08:06.999Z</time></trkpt><trkpt lat="45.60446646774394" lon="8.199483998919307"><ele>370.33333333333337</ele><time>2026-04-06T13:08:09.999Z</time></trkpt><trkpt lat="45.604530384474074" lon="8.199401506347224"><ele>369.6666666666667</ele><time>2026-04-06T13:08:11.999Z</time></trkpt><trkpt lat="45.60453137168286" lon="8.199268874255214"><ele>369.0</ele><time>2026-04-06T13:08:13.999Z</time></trkpt><trkpt lat="45.60452087907324" lon="8.199177313700956"><ele>368.3333333333333</ele><time>2026-04-06T13:08:14.999Z</time></trkpt><trkpt lat="45.604502611905815" lon="8.199078258638515"><ele>367.66666666666663</ele><time>2026-04-06T13:08:15.999Z</time></trkpt><trkpt lat="45.60446263193046" lon="8.198931246248556"><ele>367.0</ele><time>2026-04-06T13:08:16.999Z</time></trkpt><trkpt lat="45.60443523338023" lon="8.198811722427878"><ele>367.0</ele><time>2026-04-06T13:08:17.999Z</time></trkpt><trkpt lat="45.604395502634326" lon="8.198737690360495"><ele>367.0</ele><time>2026-04-06T13:08:18.999Z</time></trkpt><trkpt lat="45.604295936378804" lon="8.198733274924288"><ele>367.0</ele><time>2026-04-06T13:08:20.999Z</time></trkpt><trkpt lat="45.60419540389655" lon="8.198721360126168"><ele>367.0</ele><time>2026-04-06T13:08:22Z</time></trkpt><trkpt lat="45.60412117913798" lon="8.198738937703979"><ele>367.0</ele><time>2026-04-06T13:08:24Z</time></trkpt><trkpt lat="45.60407379567094" lon="8.198675841088239"><ele>367.0</ele><time>2026-04-06T13:08:27Z</time></trkpt><trkpt lat="45.60401827763694" lon="8.198575008504651"><ele>367.0</ele><time>2026-04-06T13:08:28Z</time></trkpt><trkpt lat="45.60395557789621" lon="8.198542164933077"><ele>367.0</ele><time>2026-04-06T13:08:29Z</time></trkpt><trkpt lat="45.60386214913597" lon="8.19849951764789"><ele>367.0</ele><time>2026-04-06T13:08:30Z</time></trkpt><trkpt lat="45.60377539750232" lon="8.198511970808067"><ele>367.0</ele><time>2026-04-06T13:08:32Z</time></trkpt><trkpt lat="45.60371615349283" lon="8.198552320984568"><ele>367.0</ele><time>2026-04-06T13:08:34Z</time></trkpt><trkpt lat="45.60363173773592" lon="8.198565489320087"><ele>367.0</ele><time>2026-04-06T13:08:35Z</time></trkpt><trkpt lat="45.603579921629084" lon="8.19863792015483"><ele>366.66666666666663</ele><time>2026-04-06T13:08:36Z</time></trkpt><trkpt lat="45.60351216665758" lon="8.198567051141966"><ele>366.3333333333333</ele><time>2026-04-06T13:08:41Z</time></trkpt><trkpt lat="45.60345820401912" lon="8.198508106416536"><ele>366.0</ele><time>2026-04-06T13:08:43Z</time></trkpt><trkpt lat="45.60339732221959" lon="8.198453477331471"><ele>365.6666666666667</ele><time>2026-04-06T13:08:44Z</time></trkpt><trkpt lat="45.60335808834532" lon="8.198382827218854"><ele>365.33333333333337</ele><time>2026-04-06T13:08:45Z</time></trkpt><trkpt lat="45.60329697487443" lon="8.198309919789308"><ele>365.0</ele><time>2026-04-06T13:08:47Z</time></trkpt><trkpt lat="45.603235839025494" lon="8.198390602679934"><ele>365.0</ele><time>2026-04-06T13:08:49Z</time></trkpt><trkpt lat="45.60313058039545" lon="8.198359364645412"><ele>365.0</ele><time>2026-04-06T13:08:52Z</time></trkpt><trkpt lat="45.603049599882105" lon="8.198365448043797"><ele>365.0</ele><time>2026-04-06T13:08:54Z</time></trkpt><trkpt lat="45.602982717804906" lon="8.1982689163052"><ele>365.0</ele><time>2026-04-06T13:08:57Z</time></trkpt><trkpt lat="45.60289490875989" lon="8.198253082985143"><ele>365.0</ele><time>2026-04-06T13:09:00Z</time></trkpt><trkpt lat="45.60282465003011" lon="8.198279415379321"><ele>365.0</ele><time>2026-04-06T13:09:03Z</time></trkpt><trkpt lat="45.60257974073667" lon="8.198323141968727"><ele>364.1666666666667</ele><time>2026-04-06T13:09:04Z</time></trkpt><trkpt lat="45.60246617727502" lon="8.198379268759536"><ele>363.33333333333337</ele><time>2026-04-06T13:09:06Z</time></trkpt><trkpt lat="45.602405377263786" lon="8.198457140025909"><ele>362.5</ele><time>2026-04-06T13:09:08Z</time></trkpt><trkpt lat="45.60231000187026" lon="8.1984480935924"><ele>361.6666666666667</ele><time>2026-04-06T13:09:10Z</time></trkpt><trkpt lat="45.60224348343796" lon="8.198456087355853"><ele>360.8333333333333</ele><time>2026-04-06T13:09:12Z</time></trkpt><trkpt lat="45.60217799761433" lon="8.198423734880175"><ele>360.0</ele><time>2026-04-06T13:09:14Z</time></trkpt><trkpt lat="45.602067810979555" lon="8.198407392082908"><ele>360.0</ele><time>2026-04-06T13:09:16Z</time></trkpt><trkpt lat="45.601949883956195" lon="8.19834498619917"><ele>360.0</ele><time>2026-04-06T13:09:18Z</time></trkpt><trkpt lat="45.60183856648264" lon="8.198310885410626"><ele>360.0</ele><time>2026-04-06T13:09:20Z</time></trkpt><trkpt lat="45.601772076241566" lon="8.198241212330831"><ele>360.0</ele><time>2026-04-06T13:09:22Z</time></trkpt><trkpt lat="45.60173304481782" lon="8.198159842827701"><ele>360.0</ele><time>2026-04-06T13:09:23Z</time></trkpt><trkpt lat="45.6016283111131" lon="8.198019220459239"><ele>360.0</ele><time>2026-04-06T13:09:25Z</time></trkpt><trkpt lat="45.60158344366454" lon="8.197949366526396"><ele>360.0</ele><time>2026-04-06T13:09:26Z</time></trkpt><trkpt lat="45.601513340212236" lon="8.197853873991638"><ele>360.0</ele><time>2026-04-06T13:09:28Z</time></trkpt><trkpt lat="45.60139692357793" lon="8.19778692671544"><ele>360.0</ele><time>2026-04-06T13:09:30Z</time></trkpt><trkpt lat="45.60133926533253" lon="8.197742782083022"><ele>360.0</ele><time>2026-04-06T13:09:31Z</time></trkpt><trkpt lat="45.60125334688883" lon="8.197661675096896"><ele>357.2</ele><time>2026-04-06T13:09:33Z</time></trkpt><trkpt lat="45.601160967813406" lon="8.197627138415857"><ele>354.4</ele><time>2026-04-06T13:09:36Z</time></trkpt><trkpt lat="45.60109976831701" lon="8.19752891670539"><ele>351.6</ele><time>2026-04-06T13:09:40Z</time></trkpt><trkpt lat="45.6010242776699" lon="8.197523758154684"><ele>348.8</ele><time>2026-04-06T13:09:42Z</time></trkpt><trkpt lat="45.60095132727018" lon="8.197468977294648"><ele>346.0</ele><time>2026-04-06T13:09:44Z</time></trkpt><trkpt lat="45.60083096669148" lon="8.197435511941011"><ele>346.0</ele><time>2026-04-06T13:09:45Z</time></trkpt><trkpt lat="45.60075827857081" lon="8.197382310734342"><ele>346.0</ele><time>2026-04-06T13:09:46Z</time></trkpt><trkpt lat="45.600683115735436" lon="8.197309821779621"><ele>346.0</ele><time>2026-04-06T13:09:47Z</time></trkpt><trkpt lat="45.600619391222374" lon="8.197217406548324"><ele>346.0</ele><time>2026-04-06T13:09:48Z</time></trkpt><trkpt lat="45.600576955396775" lon="8.197125320653994"><ele>346.0</ele><time>2026-04-06T13:09:49Z</time></trkpt><trkpt lat="45.60048918213365" lon="8.197048152870973"><ele>346.0</ele><time>2026-04-06T13:09:51Z</time></trkpt><trkpt lat="45.60039143257753" lon="8.196974953018554"><ele>345.5</ele><time>2026-04-06T13:09:53Z</time></trkpt><trkpt lat="45.60030302551414" lon="8.196905200706103"><ele>345.0</ele><time>2026-04-06T13:09:55Z</time></trkpt><trkpt lat="45.60028186877629" lon="8.19676125844403"><ele>344.5</ele><time>2026-04-06T13:09:57Z</time></trkpt><trkpt lat="45.60023180680179" lon="8.196660653837117"><ele>344.0</ele><time>2026-04-06T13:09:59Z</time></trkpt><trkpt lat="45.60015636736524" lon="8.196675071988139"><ele>343.5</ele><time>2026-04-06T13:10:05Z</time></trkpt><trkpt lat="45.60009260601028" lon="8.196680304997338"><ele>343.0</ele><time>2026-04-06T13:10:07Z</time></trkpt><trkpt lat="45.600051913410496" lon="8.196764905817021"><ele>343.0</ele><time>2026-04-06T13:10:10Z</time></trkpt><trkpt lat="45.59999253550378" lon="8.196841469526612"><ele>343.0</ele><time>2026-04-06T13:10:14Z</time></trkpt><trkpt lat="45.599937131248545" lon="8.196916874114498"><ele>343.0</ele><time>2026-04-06T13:10:17Z</time></trkpt><trkpt lat="45.599879582832074" lon="8.197000184695192"><ele>343.0</ele><time>2026-04-06T13:10:18Z</time></trkpt><trkpt lat="45.5997495079928" lon="8.197127200111678"><ele>343.0</ele><time>2026-04-06T13:10:20Z</time></trkpt><trkpt lat="45.599658556580785" lon="8.197160276427999"><ele>343.0</ele><time>2026-04-06T13:10:25Z</time></trkpt><trkpt lat="45.59953460140768" lon="8.197219407106092"><ele>343.0</ele><time>2026-04-06T13:10:27Z</time></trkpt><trkpt lat="45.5994693467214" lon="8.197259335911765"><ele>343.0</ele><time>2026-04-06T13:10:28Z</time></trkpt><trkpt lat="45.599395274478084" lon="8.19727529594565"><ele>343.0</ele><time>2026-04-06T13:10:29Z</time></trkpt><trkpt lat="45.59927945699322" lon="8.197274883332943"><ele>343.0</ele><time>2026-04-06T13:10:31Z</time></trkpt><trkpt lat="45.59919156316539" lon="8.197289755769706"><ele>343.5</ele><time>2026-04-06T13:10:32Z</time></trkpt><trkpt lat="45.59910367570583" lon="8.197226007555383"><ele>344.0</ele><time>2026-04-06T13:10:35Z</time></trkpt><trkpt lat="45.59903092901411" lon="8.197166360346316"><ele>344.5</ele><time>2026-04-06T13:10:37Z</time></trkpt><trkpt lat="45.59896478897806" lon="8.19713565067316"><ele>345.0</ele><time>2026-04-06T13:10:38Z</time></trkpt><trkpt lat="45.59889127086204" lon="8.1970643525367"><ele>345.5</ele><time>2026-04-06T13:10:39Z</time></trkpt><trkpt lat="45.5988315544001" lon="8.197008904052186"><ele>346.0</ele><time>2026-04-06T13:10:40Z</time></trkpt><trkpt lat="45.59871016829491" lon="8.197012215798676"><ele>345.66666666666663</ele><time>2026-04-06T13:10:42Z</time></trkpt><trkpt lat="45.59864791426629" lon="8.197032661445434"><ele>345.3333333333333</ele><time>2026-04-06T13:10:43Z</time></trkpt><trkpt lat="45.59858778624253" lon="8.196960488685917"><ele>345.0</ele><time>2026-04-06T13:10:46Z</time></trkpt><trkpt lat="45.59851124475102" lon="8.196930786199497"><ele>344.6666666666667</ele><time>2026-04-06T13:10:49Z</time></trkpt><trkpt lat="45.59840209416405" lon="8.19694752078577"><ele>344.33333333333337</ele><time>2026-04-06T13:10:52Z</time></trkpt><trkpt lat="45.59834147803594" lon="8.196976644130691"><ele>344.0</ele><time>2026-04-06T13:10:54Z</time></trkpt><trkpt lat="45.59825256259274" lon="8.197100324049597"><ele>344.0</ele><time>2026-04-06T13:10:56Z</time></trkpt><trkpt lat="45.59814990036255" lon="8.197178745765871"><ele>344.0</ele><time>2026-04-06T13:10:59Z</time></trkpt><trkpt lat="45.598063536010834" lon="8.197263002303083"><ele>344.0</ele><time>2026-04-06T13:11:02Z</time></trkpt><trkpt lat="45.59798612311975" lon="8.197308288680333"><ele>344.0</ele><time>2026-04-06T13:11:04Z</time></trkpt><trkpt lat="45.59792721541035" lon="8.197370768183534"><ele>344.0</ele><time>2026-04-06T13:11:06Z</time></trkpt><trkpt lat="45.59785850132962" lon="8.197471715530323"><ele>343.83333333333337</ele><time>2026-04-06T13:11:09Z</time></trkpt><trkpt lat="45.597826927931" lon="8.197550003350948"><ele>343.6666666666667</ele><time>2026-04-06T13:11:11Z</time></trkpt><trkpt lat="45.59783110332966" lon="8.197711193827331"><ele>343.5</ele><time>2026-04-06T13:11:14Z</time></trkpt><trkpt lat="45.597817636946154" lon="8.19781656257149"><ele>343.3333333333333</ele><time>2026-04-06T13:11:16Z</time></trkpt><trkpt lat="45.597802927621316" lon="8.197924558604846"><ele>343.16666666666663</ele><time>2026-04-06T13:11:18Z</time></trkpt><trkpt lat="45.59782264332314" lon="8.198015137039478"><ele>343.0</ele><time>2026-04-06T13:11:20Z</time></trkpt><trkpt lat="45.59783460887483" lon="8.198121718127299"><ele>343.0</ele><time>2026-04-06T13:11:22Z</time></trkpt><trkpt lat="45.59783645945534" lon="8.198225623666747"><ele>343.0</ele><time>2026-04-06T13:11:24Z</time></trkpt><trkpt lat="45.5978892489995" lon="8.198315645923183"><ele>343.0</ele><time>2026-04-06T13:11:26Z</time></trkpt><trkpt lat="45.59785225230574" lon="8.198417112730208"><ele>343.0</ele><time>2026-04-06T13:11:30Z</time></trkpt><trkpt lat="45.59779087711045" lon="8.198488908358557"><ele>343.0</ele><time>2026-04-06T13:11:32Z</time></trkpt><trkpt lat="45.59779334403079" lon="8.198583212280118"><ele>343.0</ele><time>2026-04-06T13:11:33Z</time></trkpt><trkpt lat="45.59775535723275" lon="8.198744705949466"><ele>343.0</ele><time>2026-04-06T13:11:35Z</time></trkpt><trkpt lat="45.597697142369825" lon="8.19886445330995"><ele>343.0</ele><time>2026-04-06T13:11:37Z</time></trkpt><trkpt lat="45.59763825308593" lon="8.199001082136935"><ele>343.0</ele><time>2026-04-06T13:11:39Z</time></trkpt><trkpt lat="45.59762253551706" lon="8.199157327536293"><ele>343.0</ele><time>2026-04-06T13:11:41Z</time></trkpt><trkpt lat="45.597636207651696" lon="8.199246968965133"><ele>343.0</ele><time>2026-04-06T13:11:42Z</time></trkpt><trkpt lat="45.597679499881956" lon="8.199424585028995"><ele>345.2</ele><time>2026-04-06T13:11:44Z</time></trkpt><trkpt lat="45.59771593700309" lon="8.199509744863652"><ele>347.4</ele><time>2026-04-06T13:11:45Z</time></trkpt><trkpt lat="45.597780892929656" lon="8.199693651603306"><ele>349.59999999999997</ele><time>2026-04-06T13:11:47Z</time></trkpt><trkpt lat="45.59783954753613" lon="8.199782928987407"><ele>351.79999999999995</ele><time>2026-04-06T13:11:48Z</time></trkpt><trkpt lat="45.5978922100771" lon="8.199863648291934"><ele>354.0</ele><time>2026-04-06T13:11:49Z</time></trkpt><trkpt lat="45.59794773251199" lon="8.199956054613493"><ele>359.79999999999995</ele><time>2026-04-06T13:11:50Z</time></trkpt><trkpt lat="45.59799702538494" lon="8.200042968217234"><ele>365.59999999999997</ele><time>2026-04-06T13:11:51Z</time></trkpt><trkpt lat="45.59804701378433" lon="8.200106838600053"><ele>371.4</ele><time>2026-04-06T13:11:52Z</time></trkpt><trkpt lat="45.598086338924524" lon="8.200232224111328"><ele>377.2</ele><time>2026-04-06T13:11:54Z</time></trkpt><trkpt lat="45.59801410958836" lon="8.200327337700127"><ele>383.0</ele><time>2026-04-06T13:11:58Z</time></trkpt><trkpt lat="45.59798544759291" lon="8.20048667390297"><ele>383.0</ele><time>2026-04-06T13:12:00Z</time></trkpt><trkpt lat="45.59799329974292" lon="8.200611547743524"><ele>383.0</ele><time>2026-04-06T13:12:02Z</time></trkpt><trkpt lat="45.597939716904776" lon="8.20048229177532"><ele>383.0</ele><time>2026-04-06T13:12:06Z</time></trkpt><trkpt lat="45.59790411177798" lon="8.200398824480086"><ele>383.0</ele><time>2026-04-06T13:12:07Z</time></trkpt><trkpt lat="45.59787168216412" lon="8.200307839663479"><ele>383.0</ele><time>2026-04-06T13:12:08Z</time></trkpt><trkpt lat="45.597858404247155" lon="8.20045292952142"><ele>383.0</ele><time>2026-04-06T13:12:12Z</time></trkpt><trkpt lat="45.59789746547217" lon="8.200524215308155"><ele>383.0</ele><time>2026-04-06T13:12:13Z</time></trkpt><trkpt lat="45.59787615598482" lon="8.200650683270302"><ele>383.0</ele><time>2026-04-06T13:12:15Z</time></trkpt><trkpt lat="45.5979317991292" lon="8.200702640788956"><ele>383.0</ele><time>2026-04-06T13:12:16Z</time></trkpt><trkpt lat="45.598013966996575" lon="8.200744127787006"><ele>383.0</ele><time>2026-04-06T13:12:17Z</time></trkpt><trkpt lat="45.59810914327255" lon="8.200742747318728"><ele>383.0</ele><time>2026-04-06T13:12:19Z</time></trkpt><trkpt lat="45.598136611007945" lon="8.200652912617521"><ele>383.0</ele><time>2026-04-06T13:12:20Z</time></trkpt><trkpt lat="45.59818312020057" lon="8.20057484071147"><ele>383.0</ele><time>2026-04-06T13:12:23Z</time></trkpt><trkpt lat="45.598158372385655" lon="8.200658337448107"><ele>383.0</ele><time>2026-04-06T13:12:27Z</time></trkpt><trkpt lat="45.598173296216245" lon="8.200754849197986"><ele>383.0</ele><time>2026-04-06T13:12:30Z</time></trkpt><trkpt lat="45.598145387262704" lon="8.200860164098483"><ele>383.0</ele><time>2026-04-06T13:12:33Z</time></trkpt><trkpt lat="45.598025601458495" lon="8.200836612499272"><ele>383.0</ele><time>2026-04-06T13:12:35.001Z</time></trkpt><trkpt lat="45.59792829397614" lon="8.200822325955487"><ele>383.0</ele><time>2026-04-06T13:12:36.001Z</time></trkpt><trkpt lat="45.597866725283254" lon="8.200853929768703"><ele>382.0</ele><time>2026-04-06T13:12:37.001Z</time></trkpt><trkpt lat="45.59778996654523" lon="8.200888219449336"><ele>381.0</ele><time>2026-04-06T13:12:38.001Z</time></trkpt><trkpt lat="45.59768548291775" lon="8.200956024914992"><ele>380.0</ele><time>2026-04-06T13:12:40Z</time></trkpt><trkpt lat="45.59761943017563" lon="8.201087268904734"><ele>379.0</ele><time>2026-04-06T13:12:42Z</time></trkpt><trkpt lat="45.59756706508989" lon="8.201198337578566"><ele>378.0</ele><time>2026-04-06T13:12:44Z</time></trkpt><trkpt lat="45.59748479414086" lon="8.201338452312308"><ele>378.0</ele><time>2026-04-06T13:12:46Z</time></trkpt><trkpt lat="45.597457646261276" lon="8.201432834057817"><ele>378.0</ele><time>2026-04-06T13:12:47Z</time></trkpt><trkpt lat="45.59744532551012" lon="8.201522988540852"><ele>378.0</ele><time>2026-04-06T13:12:48Z</time></trkpt><trkpt lat="45.59743280301446" lon="8.201676408958763"><ele>378.0</ele><time>2026-04-06T13:12:50Z</time></trkpt><trkpt lat="45.59750764040451" lon="8.201789350126985"><ele>378.0</ele><time>2026-04-06T13:12:52Z</time></trkpt><trkpt lat="45.59753417102847" lon="8.201879853476747"><ele>378.0</ele><time>2026-04-06T13:12:53Z</time></trkpt><trkpt lat="45.59756137284376" lon="8.201962122248625"><ele>380.1666666666667</ele><time>2026-04-06T13:12:54Z</time></trkpt><trkpt lat="45.59760212893012" lon="8.202061767256254"><ele>382.33333333333337</ele><time>2026-04-06T13:12:55Z</time></trkpt><trkpt lat="45.597628580472" lon="8.202169277499411"><ele>384.5</ele><time>2026-04-06T13:12:56Z</time></trkpt><trkpt lat="45.597648664815885" lon="8.202278455035714"><ele>386.6666666666667</ele><time>2026-04-06T13:12:57Z</time></trkpt><trkpt lat="45.59766664841853" lon="8.202378490200763"><ele>388.83333333333337</ele><time>2026-04-06T13:12:58Z</time></trkpt><trkpt lat="45.59765838826209" lon="8.202471256531425"><ele>391.0</ele><time>2026-04-06T13:12:59Z</time></trkpt><trkpt lat="45.59761666358981" lon="8.202606192426337"><ele>393.4</ele><time>2026-04-06T13:13:01Z</time></trkpt><trkpt lat="45.5975343972178" lon="8.202552909140492"><ele>395.8</ele><time>2026-04-06T13:13:04Z</time></trkpt><trkpt lat="45.59744379300925" lon="8.20252089321638"><ele>398.2</ele><time>2026-04-06T13:13:05Z</time></trkpt><trkpt lat="45.59735968773142" lon="8.202501983778399"><ele>400.59999999999997</ele><time>2026-04-06T13:13:06Z</time></trkpt><trkpt lat="45.59723543779689" lon="8.202563686935077"><ele>403.0</ele><time>2026-04-06T13:13:08Z</time></trkpt><trkpt lat="45.59717301408279" lon="8.20263589647158"><ele>403.0</ele><time>2026-04-06T13:13:09Z</time></trkpt><trkpt lat="45.59711658986152" lon="8.202706558905906"><ele>403.0</ele><time>2026-04-06T13:13:10Z</time></trkpt><trkpt lat="45.59705515913485" lon="8.202760687047947"><ele>403.0</ele><time>2026-04-06T13:13:11Z</time></trkpt><trkpt lat="45.596978986898996" lon="8.20278008867199"><ele>403.0</ele><time>2026-04-06T13:13:12Z</time></trkpt><trkpt lat="45.5969024707243" lon="8.202809428994891"><ele>403.0</ele><time>2026-04-06T13:13:13Z</time></trkpt><trkpt lat="45.596832325186966" lon="8.20285235042102"><ele>403.0</ele><time>2026-04-06T13:13:14Z</time></trkpt><trkpt lat="45.596771429997474" lon="8.202899948242083"><ele>403.0</ele><time>2026-04-06T13:13:15Z</time></trkpt><trkpt lat="45.596721689893755" lon="8.202969900326849"><ele>402.4</ele><time>2026-04-06T13:13:16Z</time></trkpt><trkpt lat="45.5966990268661" lon="8.203066983880252"><ele>401.79999999999995</ele><time>2026-04-06T13:13:17Z</time></trkpt><trkpt lat="45.5966409633493" lon="8.203198911949068"><ele>401.2</ele><time>2026-04-06T13:13:19Z</time></trkpt><trkpt lat="45.59655174240086" lon="8.203277359127942"><ele>400.6</ele><time>2026-04-06T13:13:21Z</time></trkpt><trkpt lat="45.596433146111295" lon="8.203301435875185"><ele>400.0</ele><time>2026-04-06T13:13:23Z</time></trkpt><trkpt lat="45.59631931795414" lon="8.20334345621295"><ele>400.00000000000006</ele><time>2026-04-06T13:13:25Z</time></trkpt><trkpt lat="45.59625940701514" lon="8.203386952434139"><ele>400.0</ele><time>2026-04-06T13:13:26Z</time></trkpt><trkpt lat="45.596167934753495" lon="8.203448266618992"><ele>400.0</ele><time>2026-04-06T13:13:28Z</time></trkpt><trkpt lat="45.59607593720015" lon="8.203467101508256"><ele>400.0</ele><time>2026-04-06T13:13:30Z</time></trkpt><trkpt lat="45.59599095817196" lon="8.203484728072663"><ele>400.00000000000006</ele><time>2026-04-06T13:13:32Z</time></trkpt><trkpt lat="45.595977508081184" lon="8.203598220734818"><ele>400.0</ele><time>2026-04-06T13:13:35Z</time></trkpt><trkpt lat="45.595911033273005" lon="8.203593604380158"><ele>398.2</ele><time>2026-04-06T13:13:37Z</time></trkpt><trkpt lat="45.59585324558244" lon="8.203550814932663"><ele>396.4</ele><time>2026-04-06T13:13:38Z</time></trkpt><trkpt lat="45.59579014177406" lon="8.203529184642568"><ele>394.6</ele><time>2026-04-06T13:13:39Z</time></trkpt><trkpt lat="45.59568453522772" lon="8.203485642598341"><ele>392.8</ele><time>2026-04-06T13:13:41Z</time></trkpt><trkpt lat="45.59558223337785" lon="8.203423050917936"><ele>391.0</ele><time>2026-04-06T13:13:43Z</time></trkpt><trkpt lat="45.595467109774646" lon="8.203421709561356"><ele>391.0</ele><time>2026-04-06T13:13:45Z</time></trkpt><trkpt lat="45.59537009270416" lon="8.203469075876114"><ele>391.0</ele><time>2026-04-06T13:13:47Z</time></trkpt><trkpt lat="45.59527902671844" lon="8.203526238283766"><ele>391.0</ele><time>2026-04-06T13:13:49Z</time></trkpt><trkpt lat="45.59521551463633" lon="8.20356705473847"><ele>391.0</ele><time>2026-04-06T13:13:50Z</time></trkpt><trkpt lat="45.59515686345638" lon="8.203613954408183"><ele>391.0</ele><time>2026-04-06T13:13:51Z</time></trkpt><trkpt lat="45.5950572657722" lon="8.203691817433782"><ele>390.25</ele><time>2026-04-06T13:13:53Z</time></trkpt><trkpt lat="45.594989564779404" lon="8.203823660474438"><ele>389.5</ele><time>2026-04-06T13:13:55Z</time></trkpt><trkpt lat="45.59495993543346" lon="8.203992565334387"><ele>388.75</ele><time>2026-04-06T13:13:57Z</time></trkpt><trkpt lat="45.59494622859995" lon="8.204170268110687"><ele>388.0</ele><time>2026-04-06T13:13:59Z</time></trkpt><trkpt lat="45.59492477358172" lon="8.20432243977017"><ele>387.6666666666667</ele><time>2026-04-06T13:14:01Z</time></trkpt><trkpt lat="45.59484634446459" lon="8.204397210791294"><ele>387.33333333333337</ele><time>2026-04-06T13:14:03Z</time></trkpt><trkpt lat="45.59474578461223" lon="8.204325110477429"><ele>387.0</ele><time>2026-04-06T13:14:05Z</time></trkpt><trkpt lat="45.59468909989069" lon="8.204269786405066"><ele>386.66666666666663</ele><time>2026-04-06T13:14:06Z</time></trkpt><trkpt lat="45.594632387017164" lon="8.204218576663271"><ele>386.3333333333333</ele><time>2026-04-06T13:14:07Z</time></trkpt><trkpt lat="45.594586925994165" lon="8.204153387071385"><ele>386.0</ele><time>2026-04-06T13:14:08Z</time></trkpt><trkpt lat="45.594480791526294" lon="8.20408329935662"><ele>383.8333333333333</ele><time>2026-04-06T13:14:10Z</time></trkpt><trkpt lat="45.5944159848887" lon="8.204124166245636"><ele>381.66666666666663</ele><time>2026-04-06T13:14:11Z</time></trkpt><trkpt lat="45.59436941882032" lon="8.204206155997186"><ele>379.5</ele><time>2026-04-06T13:14:12Z</time></trkpt><trkpt lat="45.59434482616364" lon="8.20431199005427"><ele>377.3333333333333</ele><time>2026-04-06T13:14:13Z</time></trkpt><trkpt lat="45.59433614560389" lon="8.204425149403594"><ele>375.16666666666663</ele><time>2026-04-06T13:14:14Z</time></trkpt><trkpt lat="45.594334722028854" lon="8.204537912066176"><ele>373.0</ele><time>2026-04-06T13:14:15Z</time></trkpt><trkpt lat="45.59431546381673" lon="8.204638532277302"><ele>373.0</ele><time>2026-04-06T13:14:16Z</time></trkpt><trkpt lat="45.59425924549754" lon="8.204712672816193"><ele>373.0</ele><time>2026-04-06T13:14:17Z</time></trkpt><trkpt lat="45.59422276010162" lon="8.204810776404441"><ele>373.0</ele><time>2026-04-06T13:14:18Z</time></trkpt><trkpt lat="45.59418184250758" lon="8.20489840730416"><ele>373.0</ele><time>2026-04-06T13:14:19Z</time></trkpt><trkpt lat="45.5941447393281" lon="8.204990432725527"><ele>373.0</ele><time>2026-04-06T13:14:20Z</time></trkpt><trkpt lat="45.594098351083" lon="8.205075411988139"><ele>373.0</ele><time>2026-04-06T13:14:21Z</time></trkpt><trkpt lat="45.5940506240368" lon="8.205160997050834"><ele>373.0</ele><time>2026-04-06T13:14:22Z</time></trkpt><trkpt lat="45.59399714022403" lon="8.205241946191622"><ele>373.0</ele><time>2026-04-06T13:14:23Z</time></trkpt><trkpt lat="45.59393703359217" lon="8.205304909552696"><ele>373.0</ele><time>2026-04-06T13:14:24Z</time></trkpt><trkpt lat="45.59386775569202" lon="8.205349788023359"><ele>373.0</ele><time>2026-04-06T13:14:25Z</time></trkpt><trkpt lat="45.59379232498432" lon="8.205377617263462"><ele>373.0</ele><time>2026-04-06T13:14:26Z</time></trkpt><trkpt lat="45.59373619187737" lon="8.205421526308518"><ele>373.0</ele><time>2026-04-06T13:14:27Z</time></trkpt><trkpt lat="45.59367356964283" lon="8.205448183780266"><ele>373.0</ele><time>2026-04-06T13:14:28Z</time></trkpt><trkpt lat="45.59359180261007" lon="8.205549513604977"><ele>371.3333333333333</ele><time>2026-04-06T13:14:30Z</time></trkpt><trkpt lat="45.59351748931979" lon="8.20568567798344"><ele>369.66666666666663</ele><time>2026-04-06T13:14:32Z</time></trkpt><trkpt lat="45.59348520215294" lon="8.205772319343247"><ele>368.0</ele><time>2026-04-06T13:14:33Z</time></trkpt><trkpt lat="45.59345319311636" lon="8.20586602840913"><ele>366.3333333333333</ele><time>2026-04-06T13:14:34Z</time></trkpt><trkpt lat="45.593443205178936" lon="8.205971202589431"><ele>364.6666666666667</ele><time>2026-04-06T13:14:35Z</time></trkpt><trkpt lat="45.59344856602006" lon="8.206089648254501"><ele>363.0</ele><time>2026-04-06T13:14:36Z</time></trkpt><trkpt lat="45.59342419409591" lon="8.206202107763035"><ele>363.0</ele><time>2026-04-06T13:14:37Z</time></trkpt><trkpt lat="45.5934126084806" lon="8.206312955963895"><ele>363.0</ele><time>2026-04-06T13:14:38Z</time></trkpt><trkpt lat="45.59337917236157" lon="8.20640380963962"><ele>363.0</ele><time>2026-04-06T13:14:39Z</time></trkpt><trkpt lat="45.5933398100336" lon="8.206529356217317"><ele>363.0</ele><time>2026-04-06T13:14:41Z</time></trkpt><trkpt lat="45.59329795945639" lon="8.206605286198347"><ele>363.0</ele><time>2026-04-06T13:14:45Z</time></trkpt><trkpt lat="45.593079402941775" lon="8.206574269170298"><ele>363.0</ele><time>2026-04-06T13:14:49Z</time></trkpt><trkpt lat="45.59296912420772" lon="8.20652004906537"><ele>363.0</ele><time>2026-04-06T13:14:51Z</time></trkpt><trkpt lat="45.592874908195014" lon="8.206423468748186"><ele>363.0</ele><time>2026-04-06T13:14:53Z</time></trkpt><trkpt lat="45.592789925097165" lon="8.206325891534602"><ele>363.0</ele><time>2026-04-06T13:14:55Z</time></trkpt><trkpt lat="45.59270512899629" lon="8.20625191617209"><ele>363.0</ele><time>2026-04-06T13:14:57Z</time></trkpt><trkpt lat="45.59262122515779" lon="8.206158532990772"><ele>361.0</ele><time>2026-04-06T13:14:59Z</time></trkpt><trkpt lat="45.59257353294013" lon="8.20609245265078"><ele>359.0</ele><time>2026-04-06T13:15:00Z</time></trkpt><trkpt lat="45.592475986316146" lon="8.20599673179369"><ele>357.0</ele><time>2026-04-06T13:15:02Z</time></trkpt><trkpt lat="45.592410860681206" lon="8.205906883910927"><ele>355.0</ele><time>2026-04-06T13:15:04Z</time></trkpt><trkpt lat="45.59234472092763" lon="8.205836519780446"><ele>353.0</ele><time>2026-04-06T13:15:06Z</time></trkpt><trkpt lat="45.592292245865" lon="8.205743717776398"><ele>351.0</ele><time>2026-04-06T13:15:08Z</time></trkpt><trkpt lat="45.59223302393684" lon="8.20566947543848"><ele>349.5</ele><time>2026-04-06T13:15:09Z</time></trkpt><trkpt lat="45.59218240198469" lon="8.205580747605264"><ele>348.0</ele><time>2026-04-06T13:15:10Z</time></trkpt><trkpt lat="45.59213576540449" lon="8.20546798314164"><ele>346.5</ele><time>2026-04-06T13:15:11Z</time></trkpt><trkpt lat="45.592093760032895" lon="8.205358990430419"><ele>345.0</ele><time>2026-04-06T13:15:12Z</time></trkpt><trkpt lat="45.59203665141016" lon="8.205229862996926"><ele>343.5</ele><time>2026-04-06T13:15:14Z</time></trkpt><trkpt lat="45.59198955907755" lon="8.20515652230456"><ele>342.0</ele><time>2026-04-06T13:15:16Z</time></trkpt><trkpt lat="45.591923247148934" lon="8.205088275408592"><ele>338.8</ele><time>2026-04-06T13:15:18Z</time></trkpt><trkpt lat="45.591803282110554" lon="8.205001038969774"><ele>335.6</ele><time>2026-04-06T13:15:20Z</time></trkpt><trkpt lat="45.59171178206321" lon="8.204995717309737"><ele>332.40000000000003</ele><time>2026-04-06T13:15:22Z</time></trkpt><trkpt lat="45.59166289329633" lon="8.204935355400412"><ele>329.20000000000005</ele><time>2026-04-06T13:15:26Z</time></trkpt><trkpt lat="45.59161662348067" lon="8.204841028727675"><ele>326.0</ele><time>2026-04-06T13:15:27Z</time></trkpt><trkpt lat="45.5915804383355" lon="8.204697610296211"><ele>325.8</ele><time>2026-04-06T13:15:28Z</time></trkpt><trkpt lat="45.59154684494585" lon="8.204556977966046"><ele>325.6</ele><time>2026-04-06T13:15:29Z</time></trkpt><trkpt lat="45.59151241591776" lon="8.204412802677751"><ele>325.4</ele><time>2026-04-06T13:15:30Z</time></trkpt><trkpt lat="45.591476323725004" lon="8.204261637587804"><ele>325.2</ele><time>2026-04-06T13:15:31Z</time></trkpt><trkpt lat="45.59143863815153" lon="8.204107450416375"><ele>325.0</ele><time>2026-04-06T13:15:32Z</time></trkpt><trkpt lat="45.591395610031775" lon="8.203956605788314"><ele>327.5</ele><time>2026-04-06T13:15:33Z</time></trkpt><trkpt lat="45.59133873831747" lon="8.203818709806388"><ele>330.0</ele><time>2026-04-06T13:15:34Z</time></trkpt><trkpt lat="45.59126162815094" lon="8.20370324321158"><ele>332.5</ele><time>2026-04-06T13:15:35Z</time></trkpt><trkpt lat="45.59117031733692" lon="8.203608989948743"><ele>335.0</ele><time>2026-04-06T13:15:36Z</time></trkpt><trkpt lat="45.59107703955531" lon="8.203509974896622"><ele>335.0</ele><time>2026-04-06T13:15:37Z</time></trkpt><trkpt lat="45.59096723927352" lon="8.203462429333511"><ele>335.0</ele><time>2026-04-06T13:15:38Z</time></trkpt><trkpt lat="45.59085153496242" lon="8.203437006723666"><ele>335.0</ele><time>2026-04-06T13:15:39Z</time></trkpt><trkpt lat="45.59073722733592" lon="8.203440812064937"><ele>335.0</ele><time>2026-04-06T13:15:40Z</time></trkpt><trkpt lat="45.59062258006483" lon="8.203485846756111"><ele>335.0</ele><time>2026-04-06T13:15:41Z</time></trkpt><trkpt lat="45.59051721963673" lon="8.203545106443608"><ele>335.0</ele><time>2026-04-06T13:15:42Z</time></trkpt><trkpt lat="45.59041973213161" lon="8.203628619145997"><ele>335.0</ele><time>2026-04-06T13:15:43Z</time></trkpt><trkpt lat="45.590326526884056" lon="8.2037170599348"><ele>335.0</ele><time>2026-04-06T13:15:44Z</time></trkpt><trkpt lat="45.590235387191974" lon="8.20380067323326"><ele>335.0</ele><time>2026-04-06T13:15:45Z</time></trkpt><trkpt lat="45.59015151825896" lon="8.203886431998557"><ele>335.2</ele><time>2026-04-06T13:15:46Z</time></trkpt><trkpt lat="45.59006645885993" lon="8.203966281094011"><ele>335.4</ele><time>2026-04-06T13:15:47Z</time></trkpt><trkpt lat="45.58997493035901" lon="8.2040375544136"><ele>335.6</ele><time>2026-04-06T13:15:48Z</time></trkpt><trkpt lat="45.589878941722155" lon="8.204119048542081"><ele>335.8</ele><time>2026-04-06T13:15:49Z</time></trkpt><trkpt lat="45.589783873597725" lon="8.204214574595877"><ele>336.0</ele><time>2026-04-06T13:15:50Z</time></trkpt><trkpt lat="45.58968699495782" lon="8.204303949290722"><ele>336.0</ele><time>2026-04-06T13:15:51Z</time></trkpt><trkpt lat="45.58958321007804" lon="8.204399602931677"><ele>336.0</ele><time>2026-04-06T13:15:52Z</time></trkpt><trkpt lat="45.5894781123641" lon="8.204501268419863"><ele>336.0</ele><time>2026-04-06T13:15:53Z</time></trkpt><trkpt lat="45.589371978094896" lon="8.204600308726777"><ele>336.0</ele><time>2026-04-06T13:15:54Z</time></trkpt><trkpt lat="45.58926262146505" lon="8.204704561559115"><ele>336.25</ele><time>2026-04-06T13:15:55Z</time></trkpt><trkpt lat="45.58915305884567" lon="8.204806483627767"><ele>336.5</ele><time>2026-04-06T13:15:56Z</time></trkpt><trkpt lat="45.5890428069416" lon="8.204910557633955"><ele>336.75</ele><time>2026-04-06T13:15:57Z</time></trkpt><trkpt lat="45.588931860173396" lon="8.205014448274104"><ele>337.0</ele><time>2026-04-06T13:15:58Z</time></trkpt><trkpt lat="45.58882091869588" lon="8.205118415922142"><ele>337.0</ele><time>2026-04-06T13:15:59Z</time></trkpt><trkpt lat="45.588709729031116" lon="8.20522452286458"><ele>337.0</ele><time>2026-04-06T13:16:00Z</time></trkpt><trkpt lat="45.588597545144665" lon="8.205322118740348"><ele>337.0</ele><time>2026-04-06T13:16:01Z</time></trkpt><trkpt lat="45.58849228066111" lon="8.205414440956307"><ele>337.0</ele><time>2026-04-06T13:16:02Z</time></trkpt><trkpt lat="45.58840203843523" lon="8.205500875176217"><ele>336.20000000000005</ele><time>2026-04-06T13:16:03Z</time></trkpt><trkpt lat="45.58832311258112" lon="8.205586010525806"><ele>335.4</ele><time>2026-04-06T13:16:04Z</time></trkpt><trkpt lat="45.588244423637946" lon="8.205693286616933"><ele>334.6</ele><time>2026-04-06T13:16:05Z</time></trkpt><trkpt lat="45.58815138657868" lon="8.2057575749431"><ele>333.79999999999995</ele><time>2026-04-06T13:16:06Z</time></trkpt><trkpt lat="45.58809045177497" lon="8.205814697637521"><ele>333.0</ele><time>2026-04-06T13:16:07Z</time></trkpt><trkpt lat="45.588046830905576" lon="8.205998663084818"><ele>333.0</ele><time>2026-04-06T13:16:09Z</time></trkpt><trkpt lat="45.58804610355377" lon="8.206110421151195"><ele>333.0</ele><time>2026-04-06T13:16:11Z</time></trkpt><trkpt lat="45.58798692110406" lon="8.20594637583527"><ele>333.0</ele><time>2026-04-06T13:16:13Z</time></trkpt><trkpt lat="45.588072373876045" lon="8.206413476483233"><ele>332.0</ele><time>2026-04-06T13:16:16Z</time></trkpt><trkpt lat="45.588106090026955" lon="8.20652724408622"><ele>331.0</ele><time>2026-04-06T13:16:18Z</time></trkpt><trkpt lat="45.58814670083902" lon="8.206622004832461"><ele>330.0</ele><time>2026-04-06T13:16:20Z</time></trkpt><trkpt lat="45.58820791706605" lon="8.206723709009001"><ele>329.0</ele><time>2026-04-06T13:16:23Z</time></trkpt><trkpt lat="45.588083482187926" lon="8.206685968512579"><ele>328.0</ele><time>2026-04-06T13:16:24Z</time></trkpt><trkpt lat="45.58844949354319" lon="8.206667364883659"><ele>328.0</ele><time>2026-04-06T13:16:25Z</time></trkpt><trkpt lat="45.588493484330364" lon="8.206734216072626"><ele>328.0</ele><time>2026-04-06T13:16:27Z</time></trkpt><trkpt lat="45.588564676967344" lon="8.206843327189624"><ele>328.0</ele><time>2026-04-06T13:16:29Z</time></trkpt><trkpt lat="45.58864857994286" lon="8.206955256597071"><ele>328.0</ele><time>2026-04-06T13:16:31Z</time></trkpt><trkpt lat="45.58871420459946" lon="8.207030114769585"><ele>328.0</ele><time>2026-04-06T13:16:33Z</time></trkpt><trkpt lat="45.58878137901747" lon="8.207028145429295"><ele>328.0</ele><time>2026-04-06T13:16:35Z</time></trkpt><trkpt lat="45.58881424016681" lon="8.206940803498044"><ele>326.3333333333333</ele><time>2026-04-06T13:16:37Z</time></trkpt><trkpt lat="45.588791798196134" lon="8.20683555441163"><ele>324.66666666666663</ele><time>2026-04-06T13:16:39Z</time></trkpt><trkpt lat="45.588820720962346" lon="8.206753963454"><ele>323.0</ele><time>2026-04-06T13:16:42Z</time></trkpt><trkpt lat="45.588884545640965" lon="8.206827962550838"><ele>321.3333333333333</ele><time>2026-04-06T13:16:53Z</time></trkpt><trkpt lat="45.5889444501435" lon="8.206936701288692"><ele>319.6666666666667</ele><time>2026-04-06T13:16:55Z</time></trkpt><trkpt lat="45.58903054088933" lon="8.207050300432675"><ele>318.0</ele><time>2026-04-06T13:16:57Z</time></trkpt><trkpt lat="45.58905968087409" lon="8.207172403056127"><ele>318.0</ele><time>2026-04-06T13:16:59Z</time></trkpt><trkpt lat="45.589005146692145" lon="8.20731169322208"><ele>318.0</ele><time>2026-04-06T13:17:01Z</time></trkpt><trkpt lat="45.58896566555374" lon="8.207388922767667"><ele>318.0</ele><time>2026-04-06T13:17:02Z</time></trkpt><trkpt lat="45.58893218493096" lon="8.207472993536845"><ele>318.0</ele><time>2026-04-06T13:17:03Z</time></trkpt><trkpt lat="45.58888887974831" lon="8.207575092697741"><ele>318.0</ele><time>2026-04-06T13:17:04Z</time></trkpt><trkpt lat="45.58885921825029" lon="8.20767333869981"><ele>318.0</ele><time>2026-04-06T13:17:05Z</time></trkpt><trkpt lat="45.58881844314398" lon="8.207755535666902"><ele>316.75</ele><time>2026-04-06T13:17:06Z</time></trkpt><trkpt lat="45.58874993913123" lon="8.207903108517037"><ele>315.5</ele><time>2026-04-06T13:17:08Z</time></trkpt><trkpt lat="45.58869740397702" lon="8.208051874518382"><ele>314.25</ele><time>2026-04-06T13:17:10Z</time></trkpt><trkpt lat="45.58863290573856" lon="8.208167182908271"><ele>313.0</ele><time>2026-04-06T13:17:12Z</time></trkpt><trkpt lat="45.58851170935615" lon="8.208223269994384"><ele>313.0</ele><time>2026-04-06T13:17:14Z</time></trkpt><trkpt lat="45.58842810870835" lon="8.20825027406156"><ele>313.0</ele><time>2026-04-06T13:17:15Z</time></trkpt><trkpt lat="45.58835557364238" lon="8.20829396472737"><ele>313.0</ele><time>2026-04-06T13:17:16Z</time></trkpt><trkpt lat="45.58829382800207" lon="8.208323465163895"><ele>313.0</ele><time>2026-04-06T13:17:17Z</time></trkpt><trkpt lat="45.58817266533349" lon="8.208335442571318"><ele>313.0</ele><time>2026-04-06T13:17:19Z</time></trkpt><trkpt lat="45.58811168275053" lon="8.208302938730087"><ele>313.0</ele><time>2026-04-06T13:17:20Z</time></trkpt><trkpt lat="45.588061714461475" lon="8.208246258083285"><ele>313.0</ele><time>2026-04-06T13:17:21Z</time></trkpt><trkpt lat="45.58802164343241" lon="8.208167622009888"><ele>313.0</ele><time>2026-04-06T13:17:22Z</time></trkpt><trkpt lat="45.587929006373486" lon="8.208123900396771"><ele>313.0</ele><time>2026-04-06T13:17:24Z</time></trkpt><trkpt lat="45.587878554442675" lon="8.208197931349565"><ele>313.0</ele><time>2026-04-06T13:17:25Z</time></trkpt><trkpt lat="45.58786689071281" lon="8.2082963341918"><ele>313.0</ele><time>2026-04-06T13:17:26Z</time></trkpt><trkpt lat="45.58786787919611" lon="8.208402362319278"><ele>313.0</ele><time>2026-04-06T13:17:27Z</time></trkpt><trkpt lat="45.58787637223921" lon="8.208605438337681"><ele>313.0</ele><time>2026-04-06T13:17:29Z</time></trkpt><trkpt lat="45.58788070911915" lon="8.208716147438691"><ele>313.0</ele><time>2026-04-06T13:17:30Z</time></trkpt><trkpt lat="45.5878738617849" lon="8.208867851707081"><ele>313.0</ele><time>2026-04-06T13:17:32Z</time></trkpt><trkpt lat="45.58791935523718" lon="8.208971001988706"><ele>313.0</ele><time>2026-04-06T13:17:34Z</time></trkpt><trkpt lat="45.58799480345945" lon="8.208986754910956"><ele>313.0</ele><time>2026-04-06T13:17:35Z</time></trkpt><trkpt lat="45.588085329776455" lon="8.208926414126724"><ele>313.0</ele><time>2026-04-06T13:17:37Z</time></trkpt><trkpt lat="45.58809734646616" lon="8.208784442127639"><ele>313.0</ele><time>2026-04-06T13:17:39Z</time></trkpt><trkpt lat="45.588045819528865" lon="8.208666256570499"><ele>313.0</ele><time>2026-04-06T13:17:41Z</time></trkpt><trkpt lat="45.58801019058461" lon="8.208585936074368"><ele>313.0</ele><time>2026-04-06T13:17:43Z</time></trkpt><trkpt lat="45.58806982462004" lon="8.208530586064127"><ele>313.0</ele><time>2026-04-06T13:17:46Z</time></trkpt><trkpt lat="45.58816833984037" lon="8.20858014745365"><ele>313.0</ele><time>2026-04-06T13:17:49Z</time></trkpt><trkpt lat="45.58826177266446" lon="8.208618376410191"><ele>313.0</ele><time>2026-04-06T13:17:51Z</time></trkpt><trkpt lat="45.58832251919579" lon="8.20859321441504"><ele>313.0</ele><time>2026-04-06T13:17:52Z</time></trkpt><trkpt lat="45.5884341901424" lon="8.208552344640792"><ele>313.0</ele><time>2026-04-06T13:17:54Z</time></trkpt><trkpt lat="45.58851409025253" lon="8.208493425895204"><ele>313.0</ele><time>2026-04-06T13:19:29Z</time></trkpt><trkpt lat="45.588620176965414" lon="8.208459003424736"><ele>313.0</ele><time>2026-04-06T13:19:31Z</time></trkpt><trkpt lat="45.588692024162036" lon="8.20842848770842"><ele>313.0</ele><time>2026-04-06T13:19:32Z</time></trkpt><trkpt lat="45.58875093098498" lon="8.208379168034503"><ele>313.0</ele><time>2026-04-06T13:19:33Z</time></trkpt><trkpt lat="45.58880553309482" lon="8.208318447499515"><ele>313.0</ele><time>2026-04-06T13:19:34Z</time></trkpt><trkpt lat="45.58887028855174" lon="8.208251341670662"><ele>313.0</ele><time>2026-04-06T13:19:35Z</time></trkpt><trkpt lat="45.58894132215136" lon="8.20815407155716"><ele>313.0</ele><time>2026-04-06T13:19:36Z</time></trkpt><trkpt lat="45.58901618525198" lon="8.208037304770334"><ele>313.0</ele><time>2026-04-06T13:19:37Z</time></trkpt><trkpt lat="45.58907885725156" lon="8.207944087853411"><ele>313.0</ele><time>2026-04-06T13:19:38Z</time></trkpt><trkpt lat="45.589127349369505" lon="8.207873566621984"><ele>313.0</ele><time>2026-04-06T13:19:39Z</time></trkpt><trkpt lat="45.58923636483363" lon="8.207849270734917"><ele>313.0</ele><time>2026-04-06T13:19:41Z</time></trkpt><trkpt lat="45.58931113221698" lon="8.2078782237114"><ele>313.0</ele><time>2026-04-06T13:19:42Z</time></trkpt><trkpt lat="45.589438115269076" lon="8.207953156602064"><ele>313.0</ele><time>2026-04-06T13:19:44Z</time></trkpt><trkpt lat="45.58947801898234" lon="8.208044446755038"><ele>313.0</ele><time>2026-04-06T13:19:46Z</time></trkpt><trkpt lat="45.58941904266565" lon="8.208169199864336"><ele>311.66666666666663</ele><time>2026-04-06T13:19:48Z</time></trkpt><trkpt lat="45.5893859513116" lon="8.208255245106777"><ele>310.3333333333333</ele><time>2026-04-06T13:19:49Z</time></trkpt><trkpt lat="45.58935301654957" lon="8.20838306861234"><ele>309.0</ele><time>2026-04-06T13:19:50Z</time></trkpt><trkpt lat="45.58931472583846" lon="8.208517955307594"><ele>307.6666666666667</ele><time>2026-04-06T13:19:51Z</time></trkpt><trkpt lat="45.58926549111608" lon="8.208620897347704"><ele>306.33333333333337</ele><time>2026-04-06T13:19:52Z</time></trkpt><trkpt lat="45.58920607499605" lon="8.208693531384366"><ele>305.0</ele><time>2026-04-06T13:19:53Z</time></trkpt><trkpt lat="45.58913939622048" lon="8.208764926084728"><ele>305.0</ele><time>2026-04-06T13:19:54Z</time></trkpt><trkpt lat="45.58906297641181" lon="8.208829676836622"><ele>305.0</ele><time>2026-04-06T13:19:55Z</time></trkpt><trkpt lat="45.5889911811068" lon="8.208885357585558"><ele>305.0</ele><time>2026-04-06T13:19:56Z</time></trkpt><trkpt lat="45.5889232670648" lon="8.208965158546157"><ele>305.0</ele><time>2026-04-06T13:19:57Z</time></trkpt><trkpt lat="45.58886896189846" lon="8.209041893958423"><ele>305.0</ele><time>2026-04-06T13:19:58Z</time></trkpt><trkpt lat="45.58880527751663" lon="8.209087789150527"><ele>305.0</ele><time>2026-04-06T13:19:59Z</time></trkpt><trkpt lat="45.58868542528046" lon="8.209069968367015"><ele>304.6666666666667</ele><time>2026-04-06T13:20:01Z</time></trkpt><trkpt lat="45.58856944637292" lon="8.209005726596075"><ele>304.33333333333337</ele><time>2026-04-06T13:20:03Z</time></trkpt><trkpt lat="45.58850249351099" lon="8.209023395084232"><ele>304.0</ele><time>2026-04-06T13:20:04Z</time></trkpt><trkpt lat="45.58843783500165" lon="8.209069258517724"><ele>303.6666666666667</ele><time>2026-04-06T13:20:04.999Z</time></trkpt><trkpt lat="45.58838937424178" lon="8.209127427841375"><ele>303.3333333333333</ele><time>2026-04-06T13:20:05.999Z</time></trkpt><trkpt lat="45.58836307273555" lon="8.209231690229021"><ele>303.0</ele><time>2026-04-06T13:20:06.999Z</time></trkpt><trkpt lat="45.5883846697278" lon="8.209365417312092"><ele>303.0</ele><time>2026-04-06T13:20:07.999Z</time></trkpt><trkpt lat="45.588409901909785" lon="8.209471475940662"><ele>303.0</ele><time>2026-04-06T13:20:08.999Z</time></trkpt><trkpt lat="45.588433361950386" lon="8.209564894551042"><ele>303.0</ele><time>2026-04-06T13:20:16.999Z</time></trkpt><trkpt lat="45.58846850783188" lon="8.20966655356877"><ele>303.0</ele><time>2026-04-06T13:20:22.999Z</time></trkpt><trkpt lat="45.58849001610256" lon="8.209766599468256"><ele>303.0</ele><time>2026-04-06T13:20:25.999Z</time></trkpt><trkpt lat="45.58848421229088" lon="8.209862203926729"><ele>303.0</ele><time>2026-04-06T13:20:28.999Z</time></trkpt><trkpt lat="45.58846549848884" lon="8.209961370161203"><ele>303.0</ele><time>2026-04-06T13:20:32.999Z</time></trkpt><trkpt lat="45.5883808613115" lon="8.209973969995248"><ele>302.1666666666667</ele><time>2026-04-06T13:20:35.999Z</time></trkpt><trkpt lat="45.58828700288665" lon="8.209935003518854"><ele>301.3333333333333</ele><time>2026-04-06T13:20:37.999Z</time></trkpt><trkpt lat="45.588230797773" lon="8.210007322414842"><ele>300.5</ele><time>2026-04-06T13:20:39.999Z</time></trkpt><trkpt lat="45.58825652595786" lon="8.210141378149567"><ele>299.66666666666663</ele><time>2026-04-06T13:20:42.999Z</time></trkpt><trkpt lat="45.5882454843146" lon="8.210239518004709"><ele>298.8333333333333</ele><time>2026-04-06T13:20:43.999Z</time></trkpt><trkpt lat="45.58823193744089" lon="8.210353286725836"><ele>298.0</ele><time>2026-04-06T13:20:44.999Z</time></trkpt><trkpt lat="45.58821058709001" lon="8.210440418370977"><ele>298.0</ele><time>2026-04-06T13:20:45.999Z</time></trkpt><trkpt lat="45.58818947892612" lon="8.21055624438161"><ele>298.0</ele><time>2026-04-06T13:20:47.999Z</time></trkpt><trkpt lat="45.58823751853651" lon="8.210722779985083"><ele>298.0</ele><time>2026-04-06T13:20:49.999Z</time></trkpt><trkpt lat="45.58826973759944" lon="8.210850597677402"><ele>298.0</ele><time>2026-04-06T13:20:51.999Z</time></trkpt><trkpt lat="45.588277177136064" lon="8.210947866815848"><ele>298.0</ele><time>2026-04-06T13:20:53.999Z</time></trkpt><trkpt lat="45.58828587054873" lon="8.211073543393466"><ele>297.8</ele><time>2026-04-06T13:20:56.999Z</time></trkpt><trkpt lat="45.58820804015409" lon="8.211174969921435"><ele>297.6</ele><time>2026-04-06T13:21:00Z</time></trkpt><trkpt lat="45.58811050578955" lon="8.211238206882896"><ele>297.4</ele><time>2026-04-06T13:21:02Z</time></trkpt><trkpt lat="45.58805598098799" lon="8.21128508772112"><ele>297.2</ele><time>2026-04-06T13:21:03Z</time></trkpt><trkpt lat="45.587999135427694" lon="8.21133875026114"><ele>297.0</ele><time>2026-04-06T13:21:04Z</time></trkpt><trkpt lat="45.587900064520475" lon="8.21143040370466"><ele>297.0</ele><time>2026-04-06T13:21:06Z</time></trkpt><trkpt lat="45.587845195006096" lon="8.211489147037108"><ele>297.0</ele><time>2026-04-06T13:21:07Z</time></trkpt><trkpt lat="45.58779453948093" lon="8.211543236344689"><ele>297.0</ele><time>2026-04-06T13:21:08Z</time></trkpt><trkpt lat="45.58771679241773" lon="8.211624645177722"><ele>297.0</ele><time>2026-04-06T13:21:10Z</time></trkpt><trkpt lat="45.58765070170115" lon="8.211619196526621"><ele>297.0</ele><time>2026-04-06T13:21:18Z</time></trkpt><trkpt lat="45.58770556551109" lon="8.211570169766784"><ele>297.0</ele><time>2026-04-06T13:21:23Z</time></trkpt><trkpt lat="45.58779953272849" lon="8.211484191132447"><ele>297.0</ele><time>2026-04-06T13:21:25Z</time></trkpt><trkpt lat="45.58786227717919" lon="8.211367639611515"><ele>297.0</ele><time>2026-04-06T13:21:27Z</time></trkpt><trkpt lat="45.587934723006775" lon="8.211236265496556"><ele>297.0</ele><time>2026-04-06T13:21:29Z</time></trkpt><trkpt lat="45.58796520699917" lon="8.211142607313533"><ele>297.0</ele><time>2026-04-06T13:21:30Z</time></trkpt><trkpt lat="45.58795679919418" lon="8.211004406261901"><ele>297.0</ele><time>2026-04-06T13:21:32Z</time></trkpt><trkpt lat="45.587912196731374" lon="8.2109365598319"><ele>297.0</ele><time>2026-04-06T13:21:33Z</time></trkpt><trkpt lat="45.58787086686789" lon="8.210860616279529"><ele>297.0</ele><time>2026-04-06T13:21:34Z</time></trkpt><trkpt lat="45.587816310082886" lon="8.210771492756873"><ele>297.0</ele><time>2026-04-06T13:21:35Z</time></trkpt><trkpt lat="45.587776168217225" lon="8.210691561224117"><ele>297.0</ele><time>2026-04-06T13:21:36Z</time></trkpt><trkpt lat="45.58774554089727" lon="8.210603034944604"><ele>297.0</ele><time>2026-04-06T13:21:37Z</time></trkpt><trkpt lat="45.58769975587971" lon="8.2104300881591"><ele>297.0</ele><time>2026-04-06T13:21:39Z</time></trkpt><trkpt lat="45.58765738344416" lon="8.210351753282616"><ele>300.2857142857143</ele><time>2026-04-06T13:21:40Z</time></trkpt><trkpt lat="45.58761189713698" lon="8.210285998702293"><ele>303.5714285714286</ele><time>2026-04-06T13:21:41Z</time></trkpt><trkpt lat="45.58755938622131" lon="8.210232869528856"><ele>306.8571428571429</ele><time>2026-04-06T13:21:42Z</time></trkpt><trkpt lat="45.587504654923855" lon="8.210184314137534"><ele>310.14285714285717</ele><time>2026-04-06T13:21:43Z</time></trkpt><trkpt lat="45.5874344469391" lon="8.210147139381228"><ele>313.42857142857144</ele><time>2026-04-06T13:21:44Z</time></trkpt><trkpt lat="45.58736644897304" lon="8.210106903756575"><ele>316.7142857142857</ele><time>2026-04-06T13:21:45Z</time></trkpt><trkpt lat="45.58729601870067" lon="8.210068340489098"><ele>320.0</ele><time>2026-04-06T13:21:46Z</time></trkpt><trkpt lat="45.58722613419984" lon="8.210029260617272"><ele>320.0</ele><time>2026-04-06T13:21:47Z</time></trkpt><trkpt lat="45.587109448482266" lon="8.209976610757044"><ele>320.0</ele><time>2026-04-06T13:21:49Z</time></trkpt><trkpt lat="45.58701980309941" lon="8.20992312504918"><ele>320.0</ele><time>2026-04-06T13:21:51Z</time></trkpt><trkpt lat="45.586948645346055" lon="8.20994602451577"><ele>320.0</ele><time>2026-04-06T13:21:54Z</time></trkpt><trkpt lat="45.58698607045024" lon="8.210021016146293"><ele>320.0</ele><time>2026-04-06T13:21:56Z</time></trkpt><trkpt lat="45.58703224047855" lon="8.210139135272742"><ele>320.0</ele><time>2026-04-06T13:21:58Z</time></trkpt><trkpt lat="45.5870358286222" lon="8.210273214711576"><ele>320.0</ele><time>2026-04-06T13:22:00Z</time></trkpt><trkpt lat="45.587031140539686" lon="8.210397171756192"><ele>320.0</ele><time>2026-04-06T13:22:02Z</time></trkpt><trkpt lat="45.586980434424284" lon="8.210484508875526"><ele>320.0</ele><time>2026-04-06T13:22:04Z</time></trkpt><trkpt lat="45.58688558999075" lon="8.210521513948517"><ele>320.0</ele><time>2026-04-06T13:22:06Z</time></trkpt><trkpt lat="45.5867948433543" lon="8.21057270050103"><ele>319.6666666666667</ele><time>2026-04-06T13:22:08Z</time></trkpt><trkpt lat="45.58670754827042" lon="8.210611160546794"><ele>319.33333333333337</ele><time>2026-04-06T13:22:16Z</time></trkpt><trkpt lat="45.5866310564289" lon="8.210649499080791"><ele>319.0</ele><time>2026-04-06T13:22:17.999Z</time></trkpt><trkpt lat="45.58654559325489" lon="8.210696057394747"><ele>318.6666666666667</ele><time>2026-04-06T13:22:19.999Z</time></trkpt><trkpt lat="45.58647138674158" lon="8.210725694362951"><ele>318.3333333333333</ele><time>2026-04-06T13:22:21.999Z</time></trkpt><trkpt lat="45.586433921820536" lon="8.210856507342601"><ele>318.0</ele><time>2026-04-06T13:22:24.999Z</time></trkpt><trkpt lat="45.58644840543415" lon="8.210985796285858"><ele>318.0</ele><time>2026-04-06T13:22:26.999Z</time></trkpt><trkpt lat="45.586351145272175" lon="8.2110322622801"><ele>318.0</ele><time>2026-04-06T13:22:29.999Z</time></trkpt><trkpt lat="45.58625974618275" lon="8.211065761792561"><ele>318.0</ele><time>2026-04-06T13:22:31.999Z</time></trkpt><trkpt lat="45.58618853114313" lon="8.211041618000873"><ele>318.0</ele><time>2026-04-06T13:22:34.999Z</time></trkpt><trkpt lat="45.586173068099484" lon="8.210914079589054"><ele>318.0</ele><time>2026-04-06T13:22:36.999Z</time></trkpt><trkpt lat="45.58611579981674" lon="8.210807021898585"><ele>318.0</ele><time>2026-04-06T13:22:38.999Z</time></trkpt><trkpt lat="45.58608810849353" lon="8.210688858878443"><ele>318.0</ele><time>2026-04-06T13:22:40.999Z</time></trkpt><trkpt lat="45.586001303947484" lon="8.210740348967569"><ele>318.0</ele><time>2026-04-06T13:22:43.999Z</time></trkpt><trkpt lat="45.58594045502335" lon="8.210852224816382"><ele>318.0</ele><time>2026-04-06T13:22:48.999Z</time></trkpt><trkpt lat="45.585913711062155" lon="8.210937867292069"><ele>318.0</ele><time>2026-04-06T13:22:49.999Z</time></trkpt><trkpt lat="45.58590253216407" lon="8.211132208228024"><ele>318.0</ele><time>2026-04-06T13:22:51.999Z</time></trkpt><trkpt lat="45.58590221197829" lon="8.211240857870186"><ele>318.0</ele><time>2026-04-06T13:22:52.999Z</time></trkpt><trkpt lat="45.58590472475792" lon="8.211351985619535"><ele>318.0</ele><time>2026-04-06T13:22:53.999Z</time></trkpt><trkpt lat="45.58590115037005" lon="8.211456518203326"><ele>318.0</ele><time>2026-04-06T13:22:54.999Z</time></trkpt><trkpt lat="45.58588310161985" lon="8.211547370755016"><ele>318.0</ele><time>2026-04-06T13:22:55.999Z</time></trkpt><trkpt lat="45.58587129792135" lon="8.211694169373866"><ele>318.0</ele><time>2026-04-06T13:22:57.999Z</time></trkpt><trkpt lat="45.585841000474346" lon="8.211814606354697"><ele>317.5</ele><time>2026-04-06T13:22:59.999Z</time></trkpt><trkpt lat="45.58579279751772" lon="8.21193516932862"><ele>317.0</ele><time>2026-04-06T13:23:01.999Z</time></trkpt><trkpt lat="45.58576490453668" lon="8.212017918118804"><ele>316.5</ele><time>2026-04-06T13:23:04Z</time></trkpt><trkpt lat="45.58567857791993" lon="8.211984617452776"><ele>316.0</ele><time>2026-04-06T13:23:08Z</time></trkpt><trkpt lat="45.585599563855524" lon="8.21191716976482"><ele>315.5</ele><time>2026-04-06T13:23:10Z</time></trkpt><trkpt lat="45.585530841217405" lon="8.211993805846463"><ele>315.0</ele><time>2026-04-06T13:23:12Z</time></trkpt><trkpt lat="45.58542839123603" lon="8.21198090086879"><ele>315.0</ele><time>2026-04-06T13:23:15Z</time></trkpt><trkpt lat="45.585394959765345" lon="8.212059526249716"><ele>315.0</ele><time>2026-04-06T13:23:17Z</time></trkpt><trkpt lat="45.585419757527816" lon="8.212150691352015"><ele>315.0</ele><time>2026-04-06T13:23:18Z</time></trkpt><trkpt lat="45.585432405195235" lon="8.212257115208454"><ele>315.0</ele><time>2026-04-06T13:23:19Z</time></trkpt><trkpt lat="45.58543187543488" lon="8.212366665102367"><ele>315.0</ele><time>2026-04-06T13:23:20Z</time></trkpt><trkpt lat="45.585424667253186" lon="8.212480307852038"><ele>315.0</ele><time>2026-04-06T13:23:21Z</time></trkpt><trkpt lat="45.58542936283956" lon="8.212580261067227"><ele>315.0</ele><time>2026-04-06T13:23:22Z</time></trkpt><trkpt lat="45.58545123346806" lon="8.212694861732142"><ele>314.8333333333333</ele><time>2026-04-06T13:23:24Z</time></trkpt><trkpt lat="45.585367093260004" lon="8.212691377288168"><ele>314.6666666666667</ele><time>2026-04-06T13:23:27Z</time></trkpt><trkpt lat="45.58531200606483" lon="8.212636851131663"><ele>314.5</ele><time>2026-04-06T13:23:28Z</time></trkpt><trkpt lat="45.58525320275422" lon="8.212574654187145"><ele>314.33333333333337</ele><time>2026-04-06T13:23:29Z</time></trkpt><trkpt lat="45.58515206832501" lon="8.212637933865485"><ele>314.1666666666667</ele><time>2026-04-06T13:23:31Z</time></trkpt><trkpt lat="45.58513361874778" lon="8.212749560475032"><ele>314.0</ele><time>2026-04-06T13:23:32Z</time></trkpt><trkpt lat="45.58514346268572" lon="8.212848536207694"><ele>314.0</ele><time>2026-04-06T13:23:33Z</time></trkpt><trkpt lat="45.58515256129246" lon="8.212986546174639"><ele>314.0</ele><time>2026-04-06T13:23:35Z</time></trkpt><trkpt lat="45.58510523727111" lon="8.213089374712412"><ele>314.0</ele><time>2026-04-06T13:24:03Z</time></trkpt><trkpt lat="45.58507797697754" lon="8.213199423626673"><ele>314.0</ele><time>2026-04-06T13:24:05Z</time></trkpt><trkpt lat="45.585003173747964" lon="8.213196622597158"><ele>314.0</ele><time>2026-04-06T13:24:11Z</time></trkpt><trkpt lat="45.58497253226845" lon="8.213055999439218"><ele>314.0</ele><time>2026-04-06T13:24:14Z</time></trkpt><trkpt lat="45.58499190200342" lon="8.212962647277346"><ele>314.0</ele><time>2026-04-06T13:24:15Z</time></trkpt><trkpt lat="45.58498212658131" lon="8.2127734071214"><ele>314.0</ele><time>2026-04-06T13:24:17Z</time></trkpt><trkpt lat="45.584971716684265" lon="8.21264746620582"><ele>314.0</ele><time>2026-04-06T13:24:18Z</time></trkpt><trkpt lat="45.58495126287833" lon="8.212533084887541"><ele>314.0</ele><time>2026-04-06T13:24:19Z</time></trkpt><trkpt lat="45.58492748950362" lon="8.2124342183081"><ele>314.0</ele><time>2026-04-06T13:24:20Z</time></trkpt><trkpt lat="45.584905030182014" lon="8.212339129508537"><ele>314.0</ele><time>2026-04-06T13:24:21Z</time></trkpt><trkpt lat="45.584896868901836" lon="8.21223464137196"><ele>315.33333333333337</ele><time>2026-04-06T13:24:22Z</time></trkpt><trkpt lat="45.58487234874387" lon="8.212126064560048"><ele>316.6666666666667</ele><time>2026-04-06T13:24:23Z</time></trkpt><trkpt lat="45.58485625716849" lon="8.212028599324887"><ele>318.0</ele><time>2026-04-06T13:24:24Z</time></trkpt><trkpt lat="45.58487892368374" lon="8.211912586868197"><ele>319.3333333333333</ele><time>2026-04-06T13:24:26Z</time></trkpt><trkpt lat="45.58478638910098" lon="8.21196911711013"><ele>320.66666666666663</ele><time>2026-04-06T13:24:29Z</time></trkpt><trkpt lat="45.58475086256001" lon="8.212048553597542"><ele>322.0</ele><time>2026-04-06T13:24:30Z</time></trkpt><trkpt lat="45.58467343643637" lon="8.212174911292918"><ele>322.0</ele><time>2026-04-06T13:24:32Z</time></trkpt><trkpt lat="45.5846024271263" lon="8.212292089181437"><ele>322.0</ele><time>2026-04-06T13:24:34Z</time></trkpt><trkpt lat="45.584540660809665" lon="8.212353071437912"><ele>322.0</ele><time>2026-04-06T13:24:35Z</time></trkpt><trkpt lat="45.58447834490385" lon="8.212418779713648"><ele>322.0</ele><time>2026-04-06T13:24:36Z</time></trkpt><trkpt lat="45.58440792055447" lon="8.212471174202118"><ele>322.0</ele><time>2026-04-06T13:24:37Z</time></trkpt><trkpt lat="45.58432907484627" lon="8.212514584542596"><ele>322.0</ele><time>2026-04-06T13:24:38Z</time></trkpt><trkpt lat="45.584254567920475" lon="8.212558447189085"><ele>321.8333333333333</ele><time>2026-04-06T13:24:39Z</time></trkpt><trkpt lat="45.58418946873519" lon="8.212604182103425"><ele>321.66666666666663</ele><time>2026-04-06T13:24:40Z</time></trkpt><trkpt lat="45.58413672652699" lon="8.212671678897253"><ele>321.5</ele><time>2026-04-06T13:24:41Z</time></trkpt><trkpt lat="45.584096253235" lon="8.21276623820038"><ele>321.3333333333333</ele><time>2026-04-06T13:24:42Z</time></trkpt><trkpt lat="45.58406454066715" lon="8.212874548368827"><ele>321.1666666666667</ele><time>2026-04-06T13:24:43Z</time></trkpt><trkpt lat="45.584046651322645" lon="8.21298458184261"><ele>321.0</ele><time>2026-04-06T13:24:44Z</time></trkpt><trkpt lat="45.584044245892464" lon="8.213105345055387"><ele>320.1428571428571</ele><time>2026-04-06T13:24:45Z</time></trkpt><trkpt lat="45.584041573523216" lon="8.213218700282365"><ele>319.2857142857143</ele><time>2026-04-06T13:24:46Z</time></trkpt><trkpt lat="45.58403264184288" lon="8.213316400247972"><ele>318.42857142857144</ele><time>2026-04-06T13:24:47Z</time></trkpt><trkpt lat="45.58401181651007" lon="8.213403016554865"><ele>317.57142857142856</ele><time>2026-04-06T13:24:48Z</time></trkpt><trkpt lat="45.58397851509381" lon="8.213491368313143"><ele>316.7142857142857</ele><time>2026-04-06T13:24:49Z</time></trkpt><trkpt lat="45.58392975282497" lon="8.213580353330238"><ele>315.85714285714283</ele><time>2026-04-06T13:24:49.999Z</time></trkpt><trkpt lat="45.583891420374385" lon="8.213654963602522"><ele>315.0</ele><time>2026-04-06T13:24:50.999Z</time></trkpt><trkpt lat="45.58384973018579" lon="8.213724575196672"><ele>315.0</ele><time>2026-04-06T13:24:51.999Z</time></trkpt><trkpt lat="45.583766280367996" lon="8.213724746730827"><ele>315.0</ele><time>2026-04-06T13:25:01.999Z</time></trkpt><trkpt lat="45.58368731867557" lon="8.213745586232024"><ele>315.0</ele><time>2026-04-06T13:25:03.999Z</time></trkpt><trkpt lat="45.583577440159495" lon="8.213764806409086"><ele>315.0</ele><time>2026-04-06T13:25:05.999Z</time></trkpt><trkpt lat="45.583515323217355" lon="8.213826465920219"><ele>315.0</ele><time>2026-04-06T13:25:06.999Z</time></trkpt><trkpt lat="45.583447580360726" lon="8.213944679067664"><ele>314.4</ele><time>2026-04-06T13:25:08.999Z</time></trkpt><trkpt lat="45.583351335578904" lon="8.214009917468024"><ele>313.8</ele><time>2026-04-06T13:25:11Z</time></trkpt><trkpt lat="45.58328676568573" lon="8.214111608265052"><ele>313.2</ele><time>2026-04-06T13:25:13Z</time></trkpt><trkpt lat="45.58317418684436" lon="8.21419686626459"><ele>312.6</ele><time>2026-04-06T13:25:15Z</time></trkpt><trkpt lat="45.58308144228906" lon="8.21421326168527"><ele>312.0</ele><time>2026-04-06T13:25:16Z</time></trkpt><trkpt lat="45.58299048150325" lon="8.21422632115722"><ele>312.0</ele><time>2026-04-06T13:25:17Z</time></trkpt><trkpt lat="45.5829045327578" lon="8.214253473927041"><ele>312.0</ele><time>2026-04-06T13:25:18Z</time></trkpt><trkpt lat="45.582832391665406" lon="8.214299615427361"><ele>312.0</ele><time>2026-04-06T13:25:19Z</time></trkpt><trkpt lat="45.58278045774473" lon="8.214373691955357"><ele>312.0</ele><time>2026-04-06T13:25:20Z</time></trkpt><trkpt lat="45.58276812262769" lon="8.214549758557654"><ele>312.0</ele><time>2026-04-06T13:25:22Z</time></trkpt><trkpt lat="45.58277025517536" lon="8.214656113233616"><ele>312.0</ele><time>2026-04-06T13:25:23Z</time></trkpt><trkpt lat="45.582744225795935" lon="8.214769731240589"><ele>309.6666666666667</ele><time>2026-04-06T13:25:24Z</time></trkpt><trkpt lat="45.58271805433328" lon="8.214879979205389"><ele>307.3333333333333</ele><time>2026-04-06T13:25:25Z</time></trkpt><trkpt lat="45.582706127538195" lon="8.214991628610386"><ele>305.0</ele><time>2026-04-06T13:25:26Z</time></trkpt><trkpt lat="45.58269081528583" lon="8.215093001900092"><ele>302.66666666666663</ele><time>2026-04-06T13:25:27Z</time></trkpt><trkpt lat="45.58267012743947" lon="8.215201814679524"><ele>300.3333333333333</ele><time>2026-04-06T13:25:28Z</time></trkpt><trkpt lat="45.582632909112185" lon="8.215301056190535"><ele>298.0</ele><time>2026-04-06T13:25:29Z</time></trkpt><trkpt lat="45.5826035721624" lon="8.215412669530057"><ele>298.0</ele><time>2026-04-06T13:25:30Z</time></trkpt><trkpt lat="45.5825700731465" lon="8.215520301276108"><ele>298.0</ele><time>2026-04-06T13:25:31Z</time></trkpt><trkpt lat="45.582534827019785" lon="8.215631346452158"><ele>298.0</ele><time>2026-04-06T13:25:32Z</time></trkpt><trkpt lat="45.58249207381305" lon="8.215708103622376"><ele>298.0</ele><time>2026-04-06T13:25:33Z</time></trkpt><trkpt lat="45.58242201302436" lon="8.215884552423452"><ele>298.0</ele><time>2026-04-06T13:25:35Z</time></trkpt><trkpt lat="45.58239659895217" lon="8.215982579800906"><ele>297.0</ele><time>2026-04-06T13:25:36Z</time></trkpt><trkpt lat="45.58236385957204" lon="8.216072280580503"><ele>296.0</ele><time>2026-04-06T13:25:37Z</time></trkpt><trkpt lat="45.58231595076841" lon="8.216131130116748"><ele>295.0</ele><time>2026-04-06T13:25:38Z</time></trkpt><trkpt lat="45.58224545115973" lon="8.21622051295415"><ele>294.0</ele><time>2026-04-06T13:25:40Z</time></trkpt><trkpt lat="45.58217141197579" lon="8.216265965526881"><ele>293.0</ele><time>2026-04-06T13:25:41Z</time></trkpt><trkpt lat="45.58208489915942" lon="8.216325571493254"><ele>292.0</ele><time>2026-04-06T13:25:42Z</time></trkpt><trkpt lat="45.582008586455395" lon="8.216380067812644"><ele>291.3333333333333</ele><time>2026-04-06T13:25:43Z</time></trkpt><trkpt lat="45.58193200553995" lon="8.216435064288202"><ele>290.66666666666663</ele><time>2026-04-06T13:25:44Z</time></trkpt><trkpt lat="45.581855408329055" lon="8.216484515757909"><ele>290.0</ele><time>2026-04-06T13:25:45Z</time></trkpt><trkpt lat="45.58178394702402" lon="8.216521188553635"><ele>289.3333333333333</ele><time>2026-04-06T13:25:46Z</time></trkpt><trkpt lat="45.581713859997336" lon="8.216555902770235"><ele>288.6666666666667</ele><time>2026-04-06T13:25:47Z</time></trkpt><trkpt lat="45.58165092257141" lon="8.216598603850935"><ele>288.0</ele><time>2026-04-06T13:25:48Z</time></trkpt><trkpt lat="45.581517222453904" lon="8.21666009710528"><ele>285.8</ele><time>2026-04-06T13:25:50Z</time></trkpt><trkpt lat="45.5813945674197" lon="8.216650088509418"><ele>283.6</ele><time>2026-04-06T13:25:52Z</time></trkpt><trkpt lat="45.58131707763088" lon="8.216643478815806"><ele>281.4</ele><time>2026-04-06T13:25:53Z</time></trkpt><trkpt lat="45.58122772054673" lon="8.216636148839742"><ele>279.2</ele><time>2026-04-06T13:25:55Z</time></trkpt><trkpt lat="45.58111349749079" lon="8.216555774588702"><ele>277.0</ele><time>2026-04-06T13:25:57Z</time></trkpt><trkpt lat="45.58104874694604" lon="8.216523470725807"><ele>275.16666666666663</ele><time>2026-04-06T13:25:58Z</time></trkpt><trkpt lat="45.58094734290013" lon="8.216619439938693"><ele>273.3333333333333</ele><time>2026-04-06T13:26:00Z</time></trkpt><trkpt lat="45.58092077763726" lon="8.216720887490265"><ele>271.5</ele><time>2026-04-06T13:26:01Z</time></trkpt><trkpt lat="45.58089389237336" lon="8.216818919820739"><ele>269.6666666666667</ele><time>2026-04-06T13:26:02Z</time></trkpt><trkpt lat="45.580848240779694" lon="8.21692068158425"><ele>267.83333333333337</ele><time>2026-04-06T13:26:04Z</time></trkpt><trkpt lat="45.58076405404457" lon="8.216863268770775"><ele>266.0</ele><time>2026-04-06T13:26:07Z</time></trkpt><trkpt lat="45.580697629739944" lon="8.216858824990435"><ele>266.0</ele><time>2026-04-06T13:26:09Z</time></trkpt><trkpt lat="45.58065320038036" lon="8.21702794696982"><ele>266.0</ele><time>2026-04-06T13:26:12Z</time></trkpt><trkpt lat="45.58062141205743" lon="8.217199463836087"><ele>266.0</ele><time>2026-04-06T13:26:13Z</time></trkpt><trkpt lat="45.58059993620844" lon="8.217357299907743"><ele>266.0</ele><time>2026-04-06T13:26:14Z</time></trkpt><trkpt lat="45.58058326070196" lon="8.217584112056173"><ele>265.8</ele><time>2026-04-06T13:26:15Z</time></trkpt><trkpt lat="45.58057770502218" lon="8.217724458010322"><ele>265.6</ele><time>2026-04-06T13:26:16Z</time></trkpt><trkpt lat="45.580586771713435" lon="8.217859786727189"><ele>265.4</ele><time>2026-04-06T13:26:17Z</time></trkpt><trkpt lat="45.58049593623711" lon="8.21790829110299"><ele>265.2</ele><time>2026-04-06T13:26:20Z</time></trkpt><trkpt lat="45.58038819068693" lon="8.217997773598649"><ele>265.0</ele><time>2026-04-06T13:26:22Z</time></trkpt><trkpt lat="45.5803287384081" lon="8.218035752880718"><ele>265.0</ele><time>2026-04-06T13:26:23Z</time></trkpt><trkpt lat="45.58029224750731" lon="8.218150781369193"><ele>265.0</ele><time>2026-04-06T13:26:25Z</time></trkpt><trkpt lat="45.580232392611364" lon="8.218261065531312"><ele>265.0</ele><time>2026-04-06T13:26:28Z</time></trkpt><trkpt lat="45.58023702217187" lon="8.21835985632455"><ele>265.0</ele><time>2026-04-06T13:26:31Z</time></trkpt><trkpt lat="45.58029227237079" lon="8.218472318193452"><ele>265.0</ele><time>2026-04-06T13:26:33Z</time></trkpt><trkpt lat="45.58027911193351" lon="8.218601357836505"><ele>265.0</ele><time>2026-04-06T13:26:35Z</time></trkpt><trkpt lat="45.58034378445179" lon="8.218739212844554"><ele>263.16666666666663</ele><time>2026-04-06T13:26:37Z</time></trkpt><trkpt lat="45.58036594100862" lon="8.21888468443327"><ele>261.3333333333333</ele><time>2026-04-06T13:26:39Z</time></trkpt><trkpt lat="45.58038459497157" lon="8.218970684034495"><ele>259.5</ele><time>2026-04-06T13:27:07.999Z</time></trkpt><trkpt lat="45.580443509895964" lon="8.219048931726492"><ele>257.6666666666667</ele><time>2026-04-06T13:30:37.999Z</time></trkpt><trkpt lat="45.580515247567135" lon="8.219017780779112"><ele>255.83333333333334</ele><time>2026-04-06T13:30:40.999Z</time></trkpt><trkpt lat="45.58057843430541" lon="8.218997801814334"><ele>254.0</ele><time>2026-04-06T13:30:43.999Z</time></trkpt><trkpt lat="45.58050965869427" lon="8.21908463777439"><ele>253.39999999999998</ele><time>2026-04-06T13:30:46.999Z</time></trkpt><trkpt lat="45.580439937404954" lon="8.219160971259646"><ele>252.79999999999998</ele><time>2026-04-06T13:30:47.999Z</time></trkpt><trkpt lat="45.58033987687919" lon="8.219241459767678"><ele>252.20000000000002</ele><time>2026-04-06T13:30:48.999Z</time></trkpt><trkpt lat="45.58026551651487" lon="8.219325204816775"><ele>251.60000000000002</ele><time>2026-04-06T13:30:49.999Z</time></trkpt><trkpt lat="45.58022452376362" lon="8.219451937188763"><ele>251.0</ele><time>2026-04-06T13:30:51.999Z</time></trkpt><trkpt lat="45.58017546788445" lon="8.219612599885961"><ele>250.83333333333334</ele><time>2026-04-06T13:30:53.999Z</time></trkpt><trkpt lat="45.580158237647076" lon="8.219717726787383"><ele>250.66666666666669</ele><time>2026-04-06T13:30:54.999Z</time></trkpt><trkpt lat="45.580125413431254" lon="8.219820740186204"><ele>250.5</ele><time>2026-04-06T13:30:55.999Z</time></trkpt><trkpt lat="45.58009363392669" lon="8.219924675345375"><ele>250.33333333333331</ele><time>2026-04-06T13:30:56.999Z</time></trkpt><trkpt lat="45.580071243799225" lon="8.220017121039563"><ele>250.16666666666666</ele><time>2026-04-06T13:30:57.999Z</time></trkpt><trkpt lat="45.580064227224504" lon="8.220107410057553"><ele>250.0</ele><time>2026-04-06T13:30:58.999Z</time></trkpt><trkpt lat="45.580081812342385" lon="8.220294721895378"><ele>249.4</ele><time>2026-04-06T13:31:00.999Z</time></trkpt><trkpt lat="45.58010468062996" lon="8.220427115592983"><ele>248.8</ele><time>2026-04-06T13:31:01.999Z</time></trkpt><trkpt lat="45.58015497615951" lon="8.220517503917385"><ele>248.2</ele><time>2026-04-06T13:31:02.999Z</time></trkpt><trkpt lat="45.58022974429247" lon="8.22060253984813"><ele>247.6</ele><time>2026-04-06T13:31:03.999Z</time></trkpt><trkpt lat="45.5802885497257" lon="8.220698870296916"><ele>247.0</ele><time>2026-04-06T13:31:04.999Z</time></trkpt><trkpt lat="45.58029829875246" lon="8.220835284208231"><ele>247.0</ele><time>2026-04-06T13:31:06.999Z</time></trkpt><trkpt lat="45.58018948149545" lon="8.22093324545383"><ele>247.0</ele><time>2026-04-06T13:31:08.999Z</time></trkpt><trkpt lat="45.58010701564151" lon="8.221011168544216"><ele>247.0</ele><time>2026-04-06T13:31:10.999Z</time></trkpt><trkpt lat="45.580086722152366" lon="8.221151332691608"><ele>247.0</ele><time>2026-04-06T13:31:12.999Z</time></trkpt><trkpt lat="45.580149206595415" lon="8.221299726366903"><ele>247.0</ele><time>2026-04-06T13:31:14.999Z</time></trkpt><trkpt lat="45.58019443979151" lon="8.221382859993025"><ele>246.99999999999997</ele><time>2026-04-06T13:31:15.999Z</time></trkpt><trkpt lat="45.580231926918245" lon="8.221473993538613"><ele>247.0</ele><time>2026-04-06T13:31:16.999Z</time></trkpt><trkpt lat="45.58026292923421" lon="8.22157485762614"><ele>247.0</ele><time>2026-04-06T13:31:17.999Z</time></trkpt><trkpt lat="45.58029210735326" lon="8.221654901656436"><ele>247.0</ele><time>2026-04-06T13:31:18.999Z</time></trkpt><trkpt lat="45.58032227644505" lon="8.221746477533028"><ele>246.99999999999997</ele><time>2026-04-06T13:31:20.999Z</time></trkpt><trkpt lat="45.580320167602565" lon="8.221895066482956"><ele>247.0</ele><time>2026-04-06T13:31:22.999Z</time></trkpt><trkpt lat="45.580321883194614" lon="8.222011743710665"><ele>247.49999999999997</ele><time>2026-04-06T13:31:23.999Z</time></trkpt><trkpt lat="45.58032497240715" lon="8.222147488989906"><ele>248.0</ele><time>2026-04-06T13:31:24.999Z</time></trkpt><trkpt lat="45.580330644613" lon="8.222256933442608"><ele>248.5</ele><time>2026-04-06T13:31:25.999Z</time></trkpt><trkpt lat="45.58027301496693" lon="8.222336919219762"><ele>249.0</ele><time>2026-04-06T13:31:26.999Z</time></trkpt><trkpt lat="45.58021226651297" lon="8.222389134743263"><ele>249.49999999999997</ele><time>2026-04-06T13:31:27.999Z</time></trkpt><trkpt lat="45.580106448296" lon="8.22245013157313"><ele>250.0</ele><time>2026-04-06T13:31:29.999Z</time></trkpt><trkpt lat="45.58003741360784" lon="8.222477859647183"><ele>250.66666666666666</ele><time>2026-04-06T13:31:30.999Z</time></trkpt><trkpt lat="45.579961947377754" lon="8.222495452017517"><ele>251.33333333333331</ele><time>2026-04-06T13:31:31.999Z</time></trkpt><trkpt lat="45.5798866123987" lon="8.22250873628439"><ele>252.0</ele><time>2026-04-06T13:31:32.999Z</time></trkpt><trkpt lat="45.57980526700126" lon="8.222513296475467"><ele>252.66666666666669</ele><time>2026-04-06T13:31:33.999Z</time></trkpt><trkpt lat="45.57973320914258" lon="8.22254925189949"><ele>253.33333333333334</ele><time>2026-04-06T13:31:34.999Z</time></trkpt><trkpt lat="45.57965160035772" lon="8.222587527310845"><ele>254.0</ele><time>2026-04-06T13:31:35.999Z</time></trkpt><trkpt lat="45.57957759447204" lon="8.222632435982407"><ele>253.83333333333334</ele><time>2026-04-06T13:31:36.999Z</time></trkpt><trkpt lat="45.57949595437488" lon="8.222651543111105"><ele>253.66666666666669</ele><time>2026-04-06T13:31:37.999Z</time></trkpt><trkpt lat="45.57941699829962" lon="8.222696586207242"><ele>253.5</ele><time>2026-04-06T13:31:38.999Z</time></trkpt><trkpt lat="45.57935307875531" lon="8.222707714609282"><ele>253.33333333333331</ele><time>2026-04-06T13:31:39.999Z</time></trkpt><trkpt lat="45.57923686078093" lon="8.222697117364325"><ele>253.16666666666666</ele><time>2026-04-06T13:31:41.999Z</time></trkpt><trkpt lat="45.57915670650246" lon="8.222684451062989"><ele>253.0</ele><time>2026-04-06T13:31:42.999Z</time></trkpt><trkpt lat="45.57908852912916" lon="8.222651994651429"><ele>252.99999999999997</ele><time>2026-04-06T13:31:43.999Z</time></trkpt><trkpt lat="45.57900915697614" lon="8.222607280716005"><ele>253.0</ele><time>2026-04-06T13:31:44.999Z</time></trkpt><trkpt lat="45.57892132332829" lon="8.2225555834842"><ele>253.0</ele><time>2026-04-06T13:31:45.999Z</time></trkpt><trkpt lat="45.57884393655817" lon="8.22253696073421"><ele>253.0</ele><time>2026-04-06T13:31:46.999Z</time></trkpt><trkpt lat="45.578767817588194" lon="8.222532821540296"><ele>252.99999999999997</ele><time>2026-04-06T13:31:47.999Z</time></trkpt><trkpt lat="45.578674749538344" lon="8.222560843935733"><ele>253.0</ele><time>2026-04-06T13:31:48.999Z</time></trkpt><trkpt lat="45.578579495888356" lon="8.222623399346386"><ele>253.16666666666666</ele><time>2026-04-06T13:31:49.999Z</time></trkpt><trkpt lat="45.57850884231239" lon="8.222686659566214"><ele>253.33333333333331</ele><time>2026-04-06T13:31:50.999Z</time></trkpt><trkpt lat="45.57846123486554" lon="8.222764549256341"><ele>253.5</ele><time>2026-04-06T13:31:51.999Z</time></trkpt><trkpt lat="45.578444713059625" lon="8.222878797573077"><ele>253.66666666666669</ele><time>2026-04-06T13:31:52.999Z</time></trkpt><trkpt lat="45.57841669718462" lon="8.223011447162285"><ele>253.83333333333334</ele><time>2026-04-06T13:31:53.999Z</time></trkpt><trkpt lat="45.57839205321634" lon="8.223132990124459"><ele>254.0</ele><time>2026-04-06T13:31:54.999Z</time></trkpt><trkpt lat="45.57835506020617" lon="8.22327216328512"><ele>254.0</ele><time>2026-04-06T13:31:55.999Z</time></trkpt><trkpt lat="45.57831282257522" lon="8.223391596007485"><ele>253.99999999999997</ele><time>2026-04-06T13:31:56.999Z</time></trkpt><trkpt lat="45.57825428276022" lon="8.223500315854627"><ele>253.99999999999997</ele><time>2026-04-06T13:31:57.999Z</time></trkpt><trkpt lat="45.57818912862387" lon="8.22358650083886"><ele>254.0</ele><time>2026-04-06T13:31:58.999Z</time></trkpt><trkpt lat="45.5781057495847" lon="8.223652709795065"><ele>254.0</ele><time>2026-04-06T13:31:59.999Z</time></trkpt><trkpt lat="45.57801535010286" lon="8.223719149430789"><ele>254.00000000000003</ele><time>2026-04-06T13:32:00.999Z</time></trkpt><trkpt lat="45.57793998602157" lon="8.223748081542238"><ele>254.0</ele><time>2026-04-06T13:32:01.999Z</time></trkpt><trkpt lat="45.57785138766768" lon="8.223780850319027"><ele>254.0</ele><time>2026-04-06T13:32:02.999Z</time></trkpt><trkpt lat="45.57777880911126" lon="8.223821540607517"><ele>254.0</ele><time>2026-04-06T13:32:03.999Z</time></trkpt><trkpt lat="45.57769961086017" lon="8.22386920989601"><ele>254.00000000000003</ele><time>2026-04-06T13:32:04.999Z</time></trkpt><trkpt lat="45.57760373820524" lon="8.223931445742522"><ele>254.0</ele><time>2026-04-06T13:32:05.999Z</time></trkpt><trkpt lat="45.57751776680327" lon="8.223987038222687"><ele>253.16666666666669</ele><time>2026-04-06T13:32:06.999Z</time></trkpt><trkpt lat="45.577448817983694" lon="8.22405682093659"><ele>252.33333333333334</ele><time>2026-04-06T13:32:07.999Z</time></trkpt><trkpt lat="45.57738230523683" lon="8.224140167602144"><ele>251.5</ele><time>2026-04-06T13:32:08.999Z</time></trkpt><trkpt lat="45.57732220435832" lon="8.224225719783004"><ele>250.66666666666669</ele><time>2026-04-06T13:32:09.999Z</time></trkpt><trkpt lat="45.57726504992532" lon="8.224327905730174"><ele>249.83333333333334</ele><time>2026-04-06T13:32:10.999Z</time></trkpt><trkpt lat="45.57721264480519" lon="8.224397908246234"><ele>249.0</ele><time>2026-04-06T13:32:11.999Z</time></trkpt><trkpt lat="45.57715780798878" lon="8.224449737462667"><ele>249.0</ele><time>2026-04-06T13:32:12.999Z</time></trkpt><trkpt lat="45.57705680889709" lon="8.224474950732548"><ele>249.0</ele><time>2026-04-06T13:32:14.999Z</time></trkpt><trkpt lat="45.57700044195124" lon="8.224411475684915"><ele>249.0</ele><time>2026-04-06T13:32:18.999Z</time></trkpt><trkpt lat="45.5769367370219" lon="8.224374572733074"><ele>249.0</ele><time>2026-04-06T13:32:21.999Z</time></trkpt><trkpt lat="45.57666952201341" lon="8.224389592268505"><ele>248.0</ele><time>2026-04-06T13:32:22.999Z</time></trkpt><trkpt lat="45.576560608197084" lon="8.224434627126797"><ele>246.99999999999997</ele><time>2026-04-06T13:32:23.999Z</time></trkpt><trkpt lat="45.57646550189222" lon="8.224464936799764"><ele>245.99999999999997</ele><time>2026-04-06T13:32:24.999Z</time></trkpt><trkpt lat="45.57638803737775" lon="8.224520598869272"><ele>245.0</ele><time>2026-04-06T13:32:25.999Z</time></trkpt><trkpt lat="45.57630793221674" lon="8.22459206418642"><ele>244.0</ele><time>2026-04-06T13:32:26.999Z</time></trkpt><trkpt lat="45.57623831083213" lon="8.224632319386005"><ele>243.6</ele><time>2026-04-06T13:32:27.999Z</time></trkpt><trkpt lat="45.57613473800085" lon="8.224662395957724"><ele>243.2</ele><time>2026-04-06T13:32:29.999Z</time></trkpt><trkpt lat="45.57611987659109" lon="8.224791896072471"><ele>242.79999999999998</ele><time>2026-04-06T13:32:31.999Z</time></trkpt><trkpt lat="45.576115121606726" lon="8.224940538241402"><ele>242.39999999999998</ele><time>2026-04-06T13:32:33.999Z</time></trkpt><trkpt lat="45.57606684312316" lon="8.225014688660506"><ele>242.0</ele><time>2026-04-06T13:32:38.999Z</time></trkpt><trkpt lat="45.57607338426544" lon="8.225137415203235"><ele>242.0</ele><time>2026-04-06T13:32:40.999Z</time></trkpt><trkpt lat="45.575947896824964" lon="8.225063281313606"><ele>242.0</ele><time>2026-04-06T13:32:45.999Z</time></trkpt><trkpt lat="45.575858742070814" lon="8.225070628793969"><ele>242.0</ele><time>2026-04-06T13:32:47.999Z</time></trkpt><trkpt lat="45.57578707633846" lon="8.225141159291102"><ele>242.0</ele><time>2026-04-06T13:32:48.999Z</time></trkpt><trkpt lat="45.57570819734317" lon="8.225234867755956"><ele>242.0</ele><time>2026-04-06T13:32:49.999Z</time></trkpt><trkpt lat="45.57562514907235" lon="8.22530151217592"><ele>242.00000000000003</ele><time>2026-04-06T13:32:50.999Z</time></trkpt><trkpt lat="45.57557333972496" lon="8.225374048007238"><ele>242.0</ele><time>2026-04-06T13:32:51.999Z</time></trkpt><trkpt lat="45.57550977598197" lon="8.225419796328255"><ele>242.0</ele><time>2026-04-06T13:32:52.999Z</time></trkpt><trkpt lat="45.575477464968344" lon="8.225500374884218"><ele>242.0</ele><time>2026-04-06T13:32:53.999Z</time></trkpt><trkpt lat="45.57542561651072" lon="8.225613761595458"><ele>242.00000000000003</ele><time>2026-04-06T13:32:54.999Z</time></trkpt><trkpt lat="45.575370439975075" lon="8.225696693004082"><ele>242.0</ele><time>2026-04-06T13:32:55.999Z</time></trkpt><trkpt lat="45.575338741943135" lon="8.22580731820456"><ele>241.66666666666669</ele><time>2026-04-06T13:32:56.999Z</time></trkpt><trkpt lat="45.575324621281844" lon="8.22592159040254"><ele>241.33333333333334</ele><time>2026-04-06T13:32:57.999Z</time></trkpt><trkpt lat="45.57525222405605" lon="8.22597695588588"><ele>241.0</ele><time>2026-04-06T13:32:59.999Z</time></trkpt><trkpt lat="45.57518645992221" lon="8.225956194810074"><ele>240.66666666666669</ele><time>2026-04-06T13:33:00.999Z</time></trkpt><trkpt lat="45.57509144414825" lon="8.226046972741639"><ele>240.33333333333334</ele><time>2026-04-06T13:33:02.999Z</time></trkpt><trkpt lat="45.57502265538576" lon="8.226123968112523"><ele>240.0</ele><time>2026-04-06T13:33:04.999Z</time></trkpt><trkpt lat="45.57494707772209" lon="8.226097508889842"><ele>240.0</ele><time>2026-04-06T13:33:05.999Z</time></trkpt><trkpt lat="45.57484615401467" lon="8.226075009518985"><ele>240.0</ele><time>2026-04-06T13:33:07.999Z</time></trkpt><trkpt lat="45.57479830400482" lon="8.226136110818102"><ele>240.0</ele><time>2026-04-06T13:33:12.999Z</time></trkpt><trkpt lat="45.574749039058005" lon="8.226196411573643"><ele>240.0</ele><time>2026-04-06T13:33:14.999Z</time></trkpt><trkpt lat="45.57467317540187" lon="8.22629812050211"><ele>240.0</ele><time>2026-04-06T13:33:16.999Z</time></trkpt><trkpt lat="45.57457580230786" lon="8.226431944893129"><ele>240.16666666666666</ele><time>2026-04-06T13:33:18.999Z</time></trkpt><trkpt lat="45.57452708275078" lon="8.226512448424547"><ele>240.33333333333331</ele><time>2026-04-06T13:33:19.999Z</time></trkpt><trkpt lat="45.57446491325353" lon="8.226588936834691"><ele>240.5</ele><time>2026-04-06T13:33:20.999Z</time></trkpt><trkpt lat="45.57442123255807" lon="8.226672157083634"><ele>240.66666666666666</ele><time>2026-04-06T13:33:21.999Z</time></trkpt><trkpt lat="45.57440609777061" lon="8.226781330836289"><ele>240.83333333333331</ele><time>2026-04-06T13:33:22.999Z</time></trkpt><trkpt lat="45.574400808489294" lon="8.226897265270273"><ele>241.0</ele><time>2026-04-06T13:33:23.999Z</time></trkpt><trkpt lat="45.57433157295817" lon="8.22704159595323"><ele>240.99999999999997</ele><time>2026-04-06T13:33:25.999Z</time></trkpt><trkpt lat="45.57427420288335" lon="8.227110320679264"><ele>241.0</ele><time>2026-04-06T13:33:26.999Z</time></trkpt><trkpt lat="45.574178314376205" lon="8.227232866732587"><ele>241.0</ele><time>2026-04-06T13:33:28.999Z</time></trkpt><trkpt lat="45.5741206089517" lon="8.227296195049554"><ele>241.0</ele><time>2026-04-06T13:33:29.999Z</time></trkpt><trkpt lat="45.57405754928108" lon="8.227319198516314"><ele>240.99999999999997</ele><time>2026-04-06T13:33:30.999Z</time></trkpt><trkpt lat="45.573975808768374" lon="8.227314047770495"><ele>241.0</ele><time>2026-04-06T13:33:31.999Z</time></trkpt><trkpt lat="45.57389748443962" lon="8.227329575289083"><ele>241.20000000000002</ele><time>2026-04-06T13:33:32.999Z</time></trkpt><trkpt lat="45.573830490995675" lon="8.227382791965383"><ele>241.40000000000003</ele><time>2026-04-06T13:33:34Z</time></trkpt><trkpt lat="45.573756697724825" lon="8.227473536030063"><ele>241.6</ele><time>2026-04-06T13:33:35Z</time></trkpt><trkpt lat="45.573674471739125" lon="8.227583632763999"><ele>241.8</ele><time>2026-04-06T13:33:36Z</time></trkpt><trkpt lat="45.57358863887175" lon="8.227719899302732"><ele>242.0</ele><time>2026-04-06T13:33:37Z</time></trkpt><trkpt lat="45.57347095368046" lon="8.227810931973874"><ele>242.0</ele><time>2026-04-06T13:33:38Z</time></trkpt><trkpt lat="45.57336403447992" lon="8.22790872179175"><ele>242.0</ele><time>2026-04-06T13:33:39Z</time></trkpt><trkpt lat="45.57328004838008" lon="8.227999139738204"><ele>242.0</ele><time>2026-04-06T13:33:40Z</time></trkpt><trkpt lat="45.57319856846948" lon="8.228100932641299"><ele>242.0</ele><time>2026-04-06T13:33:41Z</time></trkpt><trkpt lat="45.57312516042591" lon="8.228187754558878"><ele>242.0</ele><time>2026-04-06T13:33:42Z</time></trkpt><trkpt lat="45.57306611442516" lon="8.228264412432502"><ele>241.8</ele><time>2026-04-06T13:33:43Z</time></trkpt><trkpt lat="45.573004925755725" lon="8.228319078012515"><ele>241.6</ele><time>2026-04-06T13:33:44Z</time></trkpt><trkpt lat="45.57294581314261" lon="8.228352405400882"><ele>241.40000000000003</ele><time>2026-04-06T13:33:45Z</time></trkpt><trkpt lat="45.57288051650894" lon="8.228391560441192"><ele>241.20000000000002</ele><time>2026-04-06T13:33:47Z</time></trkpt><trkpt lat="45.57273135706621" lon="8.228487635063097"><ele>241.0</ele><time>2026-04-06T13:33:49Z</time></trkpt><trkpt lat="45.57263549765493" lon="8.228559485252202"><ele>240.99999999999997</ele><time>2026-04-06T13:33:50Z</time></trkpt><trkpt lat="45.57255221378942" lon="8.228614445734426"><ele>241.0</ele><time>2026-04-06T13:33:51Z</time></trkpt><trkpt lat="45.57247658282798" lon="8.22865163383585"><ele>241.0</ele><time>2026-04-06T13:33:52Z</time></trkpt><trkpt lat="45.572405743988135" lon="8.22866022621758"><ele>241.0</ele><time>2026-04-06T13:33:53Z</time></trkpt><trkpt lat="45.572332202308" lon="8.228703929197486"><ele>240.99999999999997</ele><time>2026-04-06T13:33:54Z</time></trkpt><trkpt lat="45.57226260021042" lon="8.228778857932422"><ele>241.0</ele><time>2026-04-06T13:33:55Z</time></trkpt><trkpt lat="45.572185179490056" lon="8.228874361033405"><ele>241.0</ele><time>2026-04-06T13:33:56Z</time></trkpt><trkpt lat="45.572125926972056" lon="8.22898445412401"><ele>241.00000000000003</ele><time>2026-04-06T13:33:57Z</time></trkpt><trkpt lat="45.572061521840396" lon="8.229106504275798"><ele>241.00000000000003</ele><time>2026-04-06T13:33:58Z</time></trkpt><trkpt lat="45.572006534728224" lon="8.229237804824766"><ele>241.0</ele><time>2026-04-06T13:33:59Z</time></trkpt><trkpt lat="45.571948138613884" lon="8.22937179673906"><ele>241.0</ele><time>2026-04-06T13:34:00Z</time></trkpt><trkpt lat="45.5718828498194" lon="8.229464467530041"><ele>241.0</ele><time>2026-04-06T13:34:01Z</time></trkpt><trkpt lat="45.57180622819103" lon="8.229502652285438"><ele>241.00000000000003</ele><time>2026-04-06T13:34:02Z</time></trkpt><trkpt lat="45.57170406416096" lon="8.229514054842962"><ele>241.00000000000003</ele><time>2026-04-06T13:34:03Z</time></trkpt><trkpt lat="45.57162814796066" lon="8.229550505676839"><ele>241.0</ele><time>2026-04-06T13:34:04Z</time></trkpt><trkpt lat="45.57155686773428" lon="8.229618824030123"><ele>241.0</ele><time>2026-04-06T13:34:05Z</time></trkpt><trkpt lat="45.57144576317464" lon="8.229620179754551"><ele>241.0</ele><time>2026-04-06T13:34:07Z</time></trkpt><trkpt lat="45.571356362141245" lon="8.229568608391542"><ele>241.00000000000003</ele><time>2026-04-06T13:34:09Z</time></trkpt><trkpt lat="45.57123806961408" lon="8.229552042070681"><ele>241.00000000000003</ele><time>2026-04-06T13:34:11Z</time></trkpt><trkpt lat="45.57113230456861" lon="8.229536777459924"><ele>241.0</ele><time>2026-04-06T13:34:12Z</time></trkpt><trkpt lat="45.571014651294014" lon="8.229541818872827"><ele>241.0</ele><time>2026-04-06T13:34:13Z</time></trkpt><trkpt lat="45.57091749872207" lon="8.229558000140177"><ele>241.0</ele><time>2026-04-06T13:34:14Z</time></trkpt><trkpt lat="45.57083519001438" lon="8.229542735232853"><ele>241.00000000000003</ele><time>2026-04-06T13:34:15Z</time></trkpt><trkpt lat="45.570769929405365" lon="8.229506653149082"><ele>241.00000000000003</ele><time>2026-04-06T13:34:16Z</time></trkpt><trkpt lat="45.57071311270285" lon="8.229430476924506"><ele>241.0</ele><time>2026-04-06T13:34:18Z</time></trkpt><trkpt lat="45.57058946293167" lon="8.22944876138989"><ele>241.0</ele><time>2026-04-06T13:34:22Z</time></trkpt><trkpt lat="45.570447093870165" lon="8.229438147964391"><ele>240.4</ele><time>2026-04-06T13:34:23Z</time></trkpt><trkpt lat="45.57035365259567" lon="8.229462945708217"><ele>239.8</ele><time>2026-04-06T13:34:24Z</time></trkpt><trkpt lat="45.57025530356204" lon="8.229470309838574"><ele>239.20000000000002</ele><time>2026-04-06T13:34:25Z</time></trkpt><trkpt lat="45.570164064020986" lon="8.229468619543498"><ele>238.60000000000002</ele><time>2026-04-06T13:34:26Z</time></trkpt><trkpt lat="45.57006715294347" lon="8.22947647557888"><ele>238.0</ele><time>2026-04-06T13:34:27Z</time></trkpt><trkpt lat="45.56998747587711" lon="8.229499802854848"><ele>237.99999999999997</ele><time>2026-04-06T13:34:28Z</time></trkpt><trkpt lat="45.569923623136376" lon="8.229559877127135"><ele>238.0</ele><time>2026-04-06T13:34:29Z</time></trkpt><trkpt lat="45.5698711546254" lon="8.229631941333281"><ele>238.0</ele><time>2026-04-06T13:34:30Z</time></trkpt><trkpt lat="45.56982470778864" lon="8.229740275709913"><ele>238.0</ele><time>2026-04-06T13:34:31Z</time></trkpt><trkpt lat="45.56978134131134" lon="8.229858918834882"><ele>237.99999999999997</ele><time>2026-04-06T13:34:32Z</time></trkpt><trkpt lat="45.56974271457445" lon="8.230000926256313"><ele>238.0</ele><time>2026-04-06T13:34:33Z</time></trkpt><trkpt lat="45.5697066040705" lon="8.23015167049865"><ele>237.8</ele><time>2026-04-06T13:34:34Z</time></trkpt><trkpt lat="45.56967489243867" lon="8.230305705443065"><ele>237.60000000000002</ele><time>2026-04-06T13:34:34.999Z</time></trkpt><trkpt lat="45.569634770018546" lon="8.2304570251258"><ele>237.39999999999998</ele><time>2026-04-06T13:34:35.999Z</time></trkpt><trkpt lat="45.56958144068333" lon="8.23059092259432"><ele>237.2</ele><time>2026-04-06T13:34:36.999Z</time></trkpt><trkpt lat="45.56952424455077" lon="8.230731977842398"><ele>237.0</ele><time>2026-04-06T13:34:37.999Z</time></trkpt><trkpt lat="45.56947392770136" lon="8.23086248924528"><ele>237.0</ele><time>2026-04-06T13:34:38.999Z</time></trkpt><trkpt lat="45.569428244634764" lon="8.230964576774396"><ele>237.0</ele><time>2026-04-06T13:34:39.999Z</time></trkpt><trkpt lat="45.569340950653526" lon="8.231066325805063"><ele>237.0</ele><time>2026-04-06T13:34:41.999Z</time></trkpt><trkpt lat="45.56924988116834" lon="8.23108372712017"><ele>237.0</ele><time>2026-04-06T13:34:42.999Z</time></trkpt><trkpt lat="45.56919515233723" lon="8.231153260334686"><ele>237.0</ele><time>2026-04-06T13:34:43.999Z</time></trkpt><trkpt lat="45.569148891662294" lon="8.231232390934293"><ele>237.0</ele><time>2026-04-06T13:34:44.999Z</time></trkpt><trkpt lat="45.5690961690844" lon="8.231294648139405"><ele>237.0</ele><time>2026-04-06T13:34:45.999Z</time></trkpt><trkpt lat="45.56899017231889" lon="8.231391771944113"><ele>237.0</ele><time>2026-04-06T13:34:47.999Z</time></trkpt><trkpt lat="45.568920828601144" lon="8.231475286340828"><ele>237.0</ele><time>2026-04-06T13:34:48.999Z</time></trkpt><trkpt lat="45.56884744296158" lon="8.231565111859823"><ele>237.0</ele><time>2026-04-06T13:34:49.999Z</time></trkpt><trkpt lat="45.568782367941594" lon="8.231640796470716"><ele>237.0</ele><time>2026-04-06T13:34:50.999Z</time></trkpt><trkpt lat="45.56870012422532" lon="8.231691554021745"><ele>237.2</ele><time>2026-04-06T13:34:51.999Z</time></trkpt><trkpt lat="45.568614605461136" lon="8.231722909928504"><ele>237.39999999999998</ele><time>2026-04-06T13:34:52.999Z</time></trkpt><trkpt lat="45.56852300847126" lon="8.231739600228472"><ele>237.60000000000002</ele><time>2026-04-06T13:34:53.999Z</time></trkpt><trkpt lat="45.568426069367604" lon="8.231758307692566"><ele>237.8</ele><time>2026-04-06T13:34:54.999Z</time></trkpt><trkpt lat="45.568327861587605" lon="8.231776244586646"><ele>238.0</ele><time>2026-04-06T13:34:55.999Z</time></trkpt><trkpt lat="45.56824286510852" lon="8.231801669047647"><ele>237.99999999999997</ele><time>2026-04-06T13:34:56.999Z</time></trkpt><trkpt lat="45.56815417390487" lon="8.231817801648294"><ele>238.0</ele><time>2026-04-06T13:34:57.999Z</time></trkpt><trkpt lat="45.56807747066433" lon="8.231833890840926"><ele>238.0</ele><time>2026-04-06T13:34:58.999Z</time></trkpt><trkpt lat="45.56801343889886" lon="8.231859023847758"><ele>238.0</ele><time>2026-04-06T13:34:59.999Z</time></trkpt><trkpt lat="45.5679420416984" lon="8.231921626203823"><ele>237.99999999999997</ele><time>2026-04-06T13:35:00.999Z</time></trkpt><trkpt lat="45.56788562102803" lon="8.232017287273058"><ele>238.0</ele><time>2026-04-06T13:35:01.999Z</time></trkpt><trkpt lat="45.56783945230638" lon="8.232096720646851"><ele>236.60000000000002</ele><time>2026-04-06T13:35:02.999Z</time></trkpt><trkpt lat="45.56774650648772" lon="8.232164533327092"><ele>235.20000000000002</ele><time>2026-04-06T13:35:04.999Z</time></trkpt><trkpt lat="45.567599819413715" lon="8.232155592663473"><ele>233.8</ele><time>2026-04-06T13:35:06.999Z</time></trkpt><trkpt lat="45.56752578923756" lon="8.232161692751577"><ele>232.4</ele><time>2026-04-06T13:35:07.999Z</time></trkpt><trkpt lat="45.56743085737437" lon="8.232145034121414"><ele>231.0</ele><time>2026-04-06T13:35:09.999Z</time></trkpt><trkpt lat="45.56736753186093" lon="8.232100835134473"><ele>231.0</ele><time>2026-04-06T13:35:14.999Z</time></trkpt><trkpt lat="45.567296684061496" lon="8.232167876955938"><ele>231.00000000000003</ele><time>2026-04-06T13:35:36.999Z</time></trkpt><trkpt lat="45.56733502600759" lon="8.232310660741183"><ele>231.00000000000003</ele><time>2026-04-06T13:35:40Z</time></trkpt><trkpt lat="45.567392560713046" lon="8.232494378379712"><ele>231.0</ele><time>2026-04-06T13:35:42Z</time></trkpt><trkpt lat="45.567430625080604" lon="8.232606824905526"><ele>231.0</ele><time>2026-04-06T13:35:43Z</time></trkpt><trkpt lat="45.56746677982887" lon="8.232721410518225"><ele>231.16666666666666</ele><time>2026-04-06T13:35:44Z</time></trkpt><trkpt lat="45.56750713109823" lon="8.232835083795473"><ele>231.33333333333331</ele><time>2026-04-06T13:35:45Z</time></trkpt><trkpt lat="45.56754571365098" lon="8.232939029498741"><ele>231.5</ele><time>2026-04-06T13:35:46Z</time></trkpt><trkpt lat="45.567580316356235" lon="8.233034340195125"><ele>231.66666666666666</ele><time>2026-04-06T13:35:47Z</time></trkpt><trkpt lat="45.56762029096924" lon="8.233124184551714"><ele>231.83333333333331</ele><time>2026-04-06T13:35:48Z</time></trkpt><trkpt lat="45.56766070660941" lon="8.233206658088747"><ele>232.0</ele><time>2026-04-06T13:35:49Z</time></trkpt><trkpt lat="45.56770395683419" lon="8.233284858307519"><ele>232.16666666666666</ele><time>2026-04-06T13:35:50Z</time></trkpt><trkpt lat="45.567784166777585" lon="8.23339959361662"><ele>232.33333333333331</ele><time>2026-04-06T13:35:52Z</time></trkpt><trkpt lat="45.56786524711243" lon="8.233469302403892"><ele>232.5</ele><time>2026-04-06T13:35:55Z</time></trkpt><trkpt lat="45.56794481811278" lon="8.233489389629177"><ele>232.66666666666669</ele><time>2026-04-06T13:35:57Z</time></trkpt><trkpt lat="45.567853606108294" lon="8.233473072718738"><ele>232.83333333333334</ele><time>2026-04-06T13:36:05Z</time></trkpt><trkpt lat="45.56779637147273" lon="8.233428278865953"><ele>233.0</ele><time>2026-04-06T13:36:07Z</time></trkpt><trkpt lat="45.567698502466286" lon="8.233504034990517"><ele>233.00000000000003</ele><time>2026-04-06T13:36:12Z</time></trkpt><trkpt lat="45.56762916406517" lon="8.233500395115499"><ele>233.0</ele><time>2026-04-06T13:36:18Z</time></trkpt><trkpt lat="45.56756824054352" lon="8.233466461064932"><ele>233.0</ele><time>2026-04-06T13:36:23Z</time></trkpt><trkpt lat="45.56749069025541" lon="8.233549218053543"><ele>233.0</ele><time>2026-04-06T13:36:26Z</time></trkpt><trkpt lat="45.56738708794626" lon="8.233563840292211"><ele>233.00000000000003</ele><time>2026-04-06T13:36:29Z</time></trkpt><trkpt lat="45.56731550647265" lon="8.23361403747279"><ele>233.0</ele><time>2026-04-06T13:36:31Z</time></trkpt><trkpt lat="45.567232652867" lon="8.233672111094634"><ele>233.0</ele><time>2026-04-06T13:36:32Z</time></trkpt><trkpt lat="45.56713718124145" lon="8.233746497524399"><ele>233.0</ele><time>2026-04-06T13:36:33Z</time></trkpt><trkpt lat="45.567045911903946" lon="8.233804379113447"><ele>233.0</ele><time>2026-04-06T13:36:34Z</time></trkpt><trkpt lat="45.56696308333296" lon="8.233865458413852"><ele>233.0</ele><time>2026-04-06T13:36:35Z</time></trkpt><trkpt lat="45.56688919781064" lon="8.23391751312293"><ele>233.0</ele><time>2026-04-06T13:36:36Z</time></trkpt><trkpt lat="45.56681526236217" lon="8.234010210583234"><ele>232.66666666666669</ele><time>2026-04-06T13:36:37Z</time></trkpt><trkpt lat="45.56675569650623" lon="8.23409236268261"><ele>232.33333333333334</ele><time>2026-04-06T13:36:38Z</time></trkpt><trkpt lat="45.56671337580464" lon="8.234169455353419"><ele>232.0</ele><time>2026-04-06T13:36:39Z</time></trkpt><trkpt lat="45.566635469099786" lon="8.234257513994946"><ele>231.66666666666669</ele><time>2026-04-06T13:36:40Z</time></trkpt><trkpt lat="45.56657878511947" lon="8.234331996281805"><ele>231.33333333333334</ele><time>2026-04-06T13:36:41Z</time></trkpt><trkpt lat="45.5665143834304" lon="8.234412762583291"><ele>231.0</ele><time>2026-04-06T13:36:42Z</time></trkpt><trkpt lat="45.5664335992013" lon="8.234480235185888"><ele>231.0</ele><time>2026-04-06T13:36:43Z</time></trkpt><trkpt lat="45.56634384783171" lon="8.234556790688012"><ele>231.00000000000003</ele><time>2026-04-06T13:36:44Z</time></trkpt><trkpt lat="45.5662564776148" lon="8.2346290868421"><ele>231.00000000000003</ele><time>2026-04-06T13:36:45Z</time></trkpt><trkpt lat="45.566180557676034" lon="8.234711181535692"><ele>231.0</ele><time>2026-04-06T13:36:46Z</time></trkpt><trkpt lat="45.566104759509855" lon="8.234798252736596"><ele>231.0</ele><time>2026-04-06T13:36:47Z</time></trkpt><trkpt lat="45.5660263389992" lon="8.234894862965366"><ele>231.60000000000002</ele><time>2026-04-06T13:36:48Z</time></trkpt><trkpt lat="45.56595343765631" lon="8.234989653516218"><ele>232.20000000000002</ele><time>2026-04-06T13:36:49Z</time></trkpt><trkpt lat="45.56586994166258" lon="8.235076923008425"><ele>232.79999999999998</ele><time>2026-04-06T13:36:50Z</time></trkpt><trkpt lat="45.56579501098325" lon="8.235153255560014"><ele>233.39999999999998</ele><time>2026-04-06T13:36:51Z</time></trkpt><trkpt lat="45.56571618756545" lon="8.235232746916136"><ele>234.0</ele><time>2026-04-06T13:36:52Z</time></trkpt><trkpt lat="45.56563997070145" lon="8.235322744489888"><ele>234.0</ele><time>2026-04-06T13:36:53Z</time></trkpt><trkpt lat="45.56556182525265" lon="8.235415628492166"><ele>233.99999999999997</ele><time>2026-04-06T13:36:54Z</time></trkpt><trkpt lat="45.56547896662035" lon="8.235498721593869"><ele>233.99999999999997</ele><time>2026-04-06T13:36:55Z</time></trkpt><trkpt lat="45.565411592400366" lon="8.235576538786951"><ele>234.0</ele><time>2026-04-06T13:36:56Z</time></trkpt><trkpt lat="45.56534871934192" lon="8.235644445899526"><ele>234.0</ele><time>2026-04-06T13:36:57Z</time></trkpt><trkpt lat="45.565284039817534" lon="8.235718767623661"><ele>233.71428571428572</ele><time>2026-04-06T13:36:58Z</time></trkpt><trkpt lat="45.56522693366306" lon="8.235780956386941"><ele>233.42857142857144</ele><time>2026-04-06T13:36:59Z</time></trkpt><trkpt lat="45.56516831464282" lon="8.235842917703598"><ele>233.14285714285717</ele><time>2026-04-06T13:37:00Z</time></trkpt><trkpt lat="45.565112531727614" lon="8.235907331579467"><ele>232.8571428571429</ele><time>2026-04-06T13:37:01Z</time></trkpt><trkpt lat="45.565056593129434" lon="8.235968223767207"><ele>232.57142857142858</ele><time>2026-04-06T13:37:02Z</time></trkpt><trkpt lat="45.56499571853159" lon="8.236034947411474"><ele>232.28571428571433</ele><time>2026-04-06T13:37:02.999Z</time></trkpt><trkpt lat="45.56493071874779" lon="8.236085911039597"><ele>232.00000000000003</ele><time>2026-04-06T13:37:03.999Z</time></trkpt><trkpt lat="45.564873514707166" lon="8.236151752138102"><ele>232.0</ele><time>2026-04-06T13:37:04.999Z</time></trkpt><trkpt lat="45.564824155015806" lon="8.236223434876383"><ele>232.0</ele><time>2026-04-06T13:37:05.999Z</time></trkpt><trkpt lat="45.56477629765055" lon="8.236284106559605"><ele>232.0</ele><time>2026-04-06T13:37:06.999Z</time></trkpt><trkpt lat="45.56467804943917" lon="8.236376579860245"><ele>232.0</ele><time>2026-04-06T13:37:08.999Z</time></trkpt><trkpt lat="45.56459017039899" lon="8.236472024664074"><ele>232.0</ele><time>2026-04-06T13:37:10.999Z</time></trkpt><trkpt lat="45.5645133687567" lon="8.236402774549916"><ele>232.0</ele><time>2026-04-06T13:37:15.999Z</time></trkpt><trkpt lat="45.56453801790128" lon="8.23631657299033"><ele>232.0</ele><time>2026-04-06T13:37:16.999Z</time></trkpt><trkpt lat="45.564553867130215" lon="8.236169251993898"><ele>232.0</ele><time>2026-04-06T13:37:17.999Z</time></trkpt><trkpt lat="45.56459844206714" lon="8.236002413683696"><ele>232.0</ele><time>2026-04-06T13:37:18.999Z</time></trkpt><trkpt lat="45.56462946383781" lon="8.235892778377865"><ele>232.0</ele><time>2026-04-06T13:37:19.999Z</time></trkpt><trkpt lat="45.56463879663965" lon="8.235787103566329"><ele>231.33333333333331</ele><time>2026-04-06T13:37:21.999Z</time></trkpt><trkpt lat="45.56441151301537" lon="8.235622384549647"><ele>230.66666666666669</ele><time>2026-04-06T13:37:23.999Z</time></trkpt><trkpt lat="45.56430543359185" lon="8.235665276186257"><ele>230.0</ele><time>2026-04-06T13:37:25.999Z</time></trkpt><trkpt lat="45.564209816528056" lon="8.235676069664605"><ele>230.00000000000003</ele><time>2026-04-06T13:37:26.999Z</time></trkpt><trkpt lat="45.56407861464613" lon="8.235704671275306"><ele>230.0</ele><time>2026-04-06T13:37:27.999Z</time></trkpt><trkpt lat="45.563998004737215" lon="8.235754862022"><ele>230.0</ele><time>2026-04-06T13:37:28.999Z</time></trkpt><trkpt lat="45.56393051822668" lon="8.235787346076833"><ele>230.0</ele><time>2026-04-06T13:37:29.999Z</time></trkpt><trkpt lat="45.56385964334756" lon="8.235797929160144"><ele>230.00000000000003</ele><time>2026-04-06T13:37:30.999Z</time></trkpt><trkpt lat="45.56377527858134" lon="8.235823230482167"><ele>230.0</ele><time>2026-04-06T13:37:32.999Z</time></trkpt><trkpt lat="45.56370550714022" lon="8.235896256929076"><ele>229.33333333333334</ele><time>2026-04-06T13:37:36.999Z</time></trkpt><trkpt lat="45.56363211452196" lon="8.235930317085936"><ele>228.66666666666669</ele><time>2026-04-06T13:37:38.999Z</time></trkpt><trkpt lat="45.56356410934962" lon="8.235981509756497"><ele>228.0</ele><time>2026-04-06T13:37:40.999Z</time></trkpt><trkpt lat="45.56350200001645" lon="8.236031327915315"><ele>227.33333333333331</ele><time>2026-04-06T13:37:42.999Z</time></trkpt><trkpt lat="45.563427903632366" lon="8.236076651912224"><ele>226.66666666666666</ele><time>2026-04-06T13:37:43.999Z</time></trkpt><trkpt lat="45.56335233052121" lon="8.236122148298348"><ele>226.0</ele><time>2026-04-06T13:37:44.999Z</time></trkpt><trkpt lat="45.56327623374731" lon="8.23617285185683"><ele>225.99999999999997</ele><time>2026-04-06T13:37:46Z</time></trkpt><trkpt lat="45.56321249984884" lon="8.236205565062999"><ele>226.0</ele><time>2026-04-06T13:37:47Z</time></trkpt><trkpt lat="45.5631415707048" lon="8.23623273119764"><ele>226.0</ele><time>2026-04-06T13:37:54Z</time></trkpt><trkpt lat="45.56305775115621" lon="8.2361880610337"><ele>226.0</ele><time>2026-04-06T13:37:57Z</time></trkpt><trkpt lat="45.56299049530146" lon="8.236172796532117"><ele>225.99999999999997</ele><time>2026-04-06T13:37:59Z</time></trkpt><trkpt lat="45.56289441121072" lon="8.236182402987811"><ele>226.0</ele><time>2026-04-06T13:38:03Z</time></trkpt><trkpt lat="45.56281280779764" lon="8.236200847472189"><ele>227.0</ele><time>2026-04-06T13:38:04Z</time></trkpt><trkpt lat="45.56273014179595" lon="8.236221097786839"><ele>228.00000000000003</ele><time>2026-04-06T13:38:05Z</time></trkpt><trkpt lat="45.56265258420814" lon="8.236265418867655"><ele>229.00000000000003</ele><time>2026-04-06T13:38:06Z</time></trkpt><trkpt lat="45.56254196747713" lon="8.236275250631207"><ele>230.0</ele><time>2026-04-06T13:38:08Z</time></trkpt><trkpt lat="45.56249247569586" lon="8.236184055831526"><ele>231.0</ele><time>2026-04-06T13:38:09Z</time></trkpt><trkpt lat="45.56245894960522" lon="8.236060122016397"><ele>231.0</ele><time>2026-04-06T13:38:10Z</time></trkpt><trkpt lat="45.56242731269876" lon="8.235891187428225"><ele>231.00000000000003</ele><time>2026-04-06T13:38:11Z</time></trkpt><trkpt lat="45.562442657229354" lon="8.23579282209505"><ele>231.00000000000003</ele><time>2026-04-06T13:38:12Z</time></trkpt><trkpt lat="45.562427617939534" lon="8.23564511559633"><ele>231.0</ele><time>2026-04-06T13:38:14Z</time></trkpt><trkpt lat="45.56238973826752" lon="8.235540357876538"><ele>231.0</ele><time>2026-04-06T13:38:15Z</time></trkpt><trkpt lat="45.56233403503805" lon="8.235405968966823"><ele>230.20000000000002</ele><time>2026-04-06T13:38:16Z</time></trkpt><trkpt lat="45.56226697333858" lon="8.23529833438592"><ele>229.40000000000003</ele><time>2026-04-06T13:38:17Z</time></trkpt><trkpt lat="45.56221303101786" lon="8.235217827973953"><ele>228.6</ele><time>2026-04-06T13:38:18Z</time></trkpt><trkpt lat="45.562185915330645" lon="8.235099982744302"><ele>227.8</ele><time>2026-04-06T13:38:20Z</time></trkpt><trkpt lat="45.562189670195075" lon="8.23493999950027"><ele>227.0</ele><time>2026-04-06T13:38:22Z</time></trkpt><trkpt lat="45.56218819731262" lon="8.23483396994148"><ele>226.83333333333334</ele><time>2026-04-06T13:38:23Z</time></trkpt><trkpt lat="45.562176276733034" lon="8.23471649859224"><ele>226.66666666666669</ele><time>2026-04-06T13:38:24Z</time></trkpt><trkpt lat="45.56216432243192" lon="8.234627280524117"><ele>226.5</ele><time>2026-04-06T13:38:25Z</time></trkpt><trkpt lat="45.562161982191064" lon="8.23453035795206"><ele>226.33333333333331</ele><time>2026-04-06T13:38:26Z</time></trkpt><trkpt lat="45.562167808222696" lon="8.234390914100725"><ele>226.16666666666666</ele><time>2026-04-06T13:38:27Z</time></trkpt><trkpt lat="45.562125230495106" lon="8.234312818650363"><ele>226.0</ele><time>2026-04-06T13:38:28Z</time></trkpt><trkpt lat="45.562072752312844" lon="8.23422552868926"><ele>225.60000000000002</ele><time>2026-04-06T13:38:29Z</time></trkpt><trkpt lat="45.56201349064853" lon="8.234171507694176"><ele>225.20000000000002</ele><time>2026-04-06T13:38:30Z</time></trkpt><trkpt lat="45.561894859575716" lon="8.234146508632243"><ele>224.79999999999998</ele><time>2026-04-06T13:38:32Z</time></trkpt><trkpt lat="45.561799023291" lon="8.234140459549565"><ele>224.39999999999998</ele><time>2026-04-06T13:38:33Z</time></trkpt><trkpt lat="45.56169746002374" lon="8.23415628842107"><ele>224.0</ele><time>2026-04-06T13:38:34Z</time></trkpt><trkpt lat="45.56157091796271" lon="8.234196347059381"><ele>224.0</ele><time>2026-04-06T13:38:35Z</time></trkpt><trkpt lat="45.56144680958122" lon="8.23426528258236"><ele>223.99999999999997</ele><time>2026-04-06T13:38:36Z</time></trkpt><trkpt lat="45.561353659981734" lon="8.234347407510796"><ele>223.99999999999997</ele><time>2026-04-06T13:38:37Z</time></trkpt><trkpt lat="45.56127921475043" lon="8.234397608398565"><ele>224.0</ele><time>2026-04-06T13:38:38Z</time></trkpt><trkpt lat="45.56120130443239" lon="8.234433340425458"><ele>224.0</ele><time>2026-04-06T13:38:39Z</time></trkpt><trkpt lat="45.561101767377735" lon="8.234464797504685"><ele>224.2</ele><time>2026-04-06T13:38:40Z</time></trkpt><trkpt lat="45.560999810812014" lon="8.234491778291797"><ele>224.39999999999998</ele><time>2026-04-06T13:38:41Z</time></trkpt><trkpt lat="45.56090437362396" lon="8.23452276109825"><ele>224.6</ele><time>2026-04-06T13:38:42Z</time></trkpt><trkpt lat="45.5608149536465" lon="8.234565729734179"><ele>224.8</ele><time>2026-04-06T13:38:43Z</time></trkpt><trkpt lat="45.56073158672976" lon="8.234609694516958"><ele>225.0</ele><time>2026-04-06T13:38:44Z</time></trkpt><trkpt lat="45.56066554302357" lon="8.234649746292005"><ele>225.0</ele><time>2026-04-06T13:38:45Z</time></trkpt><trkpt lat="45.56059541583539" lon="8.234670494234825"><ele>225.0</ele><time>2026-04-06T13:38:46Z</time></trkpt><trkpt lat="45.560515185794124" lon="8.234680217725494"><ele>225.0</ele><time>2026-04-06T13:38:47Z</time></trkpt><trkpt lat="45.56041147721327" lon="8.234713034538386"><ele>225.0</ele><time>2026-04-06T13:38:48Z</time></trkpt><trkpt lat="45.56032124870863" lon="8.234750213508011"><ele>225.0</ele><time>2026-04-06T13:38:49Z</time></trkpt><trkpt lat="45.560259353922895" lon="8.23476802558856"><ele>225.0</ele><time>2026-04-06T13:38:50Z</time></trkpt><trkpt lat="45.5601970414384" lon="8.234748171338278"><ele>225.00000000000003</ele><time>2026-04-06T13:38:54Z</time></trkpt><trkpt lat="45.560126083193865" lon="8.234776796755705"><ele>225.0</ele><time>2026-04-06T13:38:56Z</time></trkpt><trkpt lat="45.56004694261981" lon="8.234774973636075"><ele>225.00000000000003</ele><time>2026-04-06T13:39:08Z</time></trkpt><trkpt lat="45.559985030900314" lon="8.234797086526948"><ele>225.00000000000003</ele><time>2026-04-06T13:39:09Z</time></trkpt><trkpt lat="45.55990763634083" lon="8.234815687984531"><ele>225.0</ele><time>2026-04-06T13:39:10Z</time></trkpt><trkpt lat="45.559844387343226" lon="8.234830188911818"><ele>225.00000000000003</ele><time>2026-04-06T13:39:11Z</time></trkpt><trkpt lat="45.559775680088116" lon="8.234842355318747"><ele>225.00000000000003</ele><time>2026-04-06T13:39:12Z</time></trkpt><trkpt lat="45.55969486668976" lon="8.234940862028909"><ele>225.0</ele><time>2026-04-06T13:39:13.999Z</time></trkpt><trkpt lat="45.55969713574645" lon="8.235068290444572"><ele>225.0</ele><time>2026-04-06T13:39:15.999Z</time></trkpt><trkpt lat="45.55972780107485" lon="8.235182977590181"><ele>225.0</ele><time>2026-04-06T13:39:16.999Z</time></trkpt><trkpt lat="45.55976216413127" lon="8.235319314045402"><ele>225.0</ele><time>2026-04-06T13:39:17.999Z</time></trkpt><trkpt lat="45.559779982432545" lon="8.235435114112972"><ele>225.0</ele><time>2026-04-06T13:39:18.999Z</time></trkpt><trkpt lat="45.55977915611999" lon="8.235550372321146"><ele>225.0</ele><time>2026-04-06T13:39:19.999Z</time></trkpt><trkpt lat="45.559759076685204" lon="8.235663638239133"><ele>224.83333333333334</ele><time>2026-04-06T13:39:20.999Z</time></trkpt><trkpt lat="45.55975053646169" lon="8.23575384266121"><ele>224.66666666666669</ele><time>2026-04-06T13:39:21.999Z</time></trkpt><trkpt lat="45.55976736614172" lon="8.235848269127414"><ele>224.5</ele><time>2026-04-06T13:39:23.999Z</time></trkpt><trkpt lat="45.559761064171006" lon="8.235956184819734"><ele>224.33333333333334</ele><time>2026-04-06T13:39:25.999Z</time></trkpt><trkpt lat="45.559736417489276" lon="8.236071417049859"><ele>224.16666666666669</ele><time>2026-04-06T13:39:27.999Z</time></trkpt><trkpt lat="45.559735086380144" lon="8.236256267258222"><ele>224.0</ele><time>2026-04-06T13:39:29.999Z</time></trkpt><trkpt lat="45.55973332358961" lon="8.236373573844217"><ele>224.66666666666669</ele><time>2026-04-06T13:39:30.999Z</time></trkpt><trkpt lat="45.55973388800572" lon="8.236493505784395"><ele>225.33333333333334</ele><time>2026-04-06T13:39:31.999Z</time></trkpt><trkpt lat="45.55973547204884" lon="8.236602729713441"><ele>226.0</ele><time>2026-04-06T13:39:32.999Z</time></trkpt><trkpt lat="45.55973712224293" lon="8.236694925439092"><ele>226.66666666666669</ele><time>2026-04-06T13:39:33.999Z</time></trkpt><trkpt lat="45.559744771973634" lon="8.236857544871347"><ele>227.33333333333334</ele><time>2026-04-06T13:39:35.999Z</time></trkpt><trkpt lat="45.5597360384902" lon="8.236948294768075"><ele>228.0</ele><time>2026-04-06T13:39:36.999Z</time></trkpt><trkpt lat="45.559735721139525" lon="8.23703968698863"><ele>228.0</ele><time>2026-04-06T13:39:37.999Z</time></trkpt><trkpt lat="45.559752451515564" lon="8.237143606913394"><ele>228.0</ele><time>2026-04-06T13:39:38.999Z</time></trkpt><trkpt lat="45.559757331383544" lon="8.23725359566941"><ele>228.0</ele><time>2026-04-06T13:39:39.999Z</time></trkpt><trkpt lat="45.559743336775" lon="8.237371294807557"><ele>228.0</ele><time>2026-04-06T13:39:40.999Z</time></trkpt><trkpt lat="45.559748849144306" lon="8.237470983611557"><ele>228.0</ele><time>2026-04-06T13:39:41.999Z</time></trkpt><trkpt lat="45.55971286432992" lon="8.237619300925733"><ele>228.0</ele><time>2026-04-06T13:39:43.999Z</time></trkpt><trkpt lat="45.55968948310638" lon="8.237728190363342"><ele>228.5</ele><time>2026-04-06T13:39:44.999Z</time></trkpt><trkpt lat="45.55957477326446" lon="8.23771514191711"><ele>229.0</ele><time>2026-04-06T13:39:47.999Z</time></trkpt><trkpt lat="45.55950594835253" lon="8.2376889475946"><ele>229.5</ele><time>2026-04-06T13:39:48.999Z</time></trkpt><trkpt lat="45.559445798289566" lon="8.237726034263448"><ele>230.0</ele><time>2026-04-06T13:39:50.999Z</time></trkpt><trkpt lat="45.55937664011752" lon="8.237762859095536"><ele>230.5</ele><time>2026-04-06T13:39:53Z</time></trkpt><trkpt lat="45.559306113279156" lon="8.237730256109009"><ele>231.0</ele><time>2026-04-06T13:39:57Z</time></trkpt><trkpt lat="45.559206327553724" lon="8.23771048022798"><ele>231.0</ele><time>2026-04-06T13:40:09Z</time></trkpt><trkpt lat="45.5591038946229" lon="8.237687422626765"><ele>231.00000000000003</ele><time>2026-04-06T13:40:11Z</time></trkpt><trkpt lat="45.559041314520286" lon="8.237570580403393"><ele>231.00000000000003</ele><time>2026-04-06T13:40:13Z</time></trkpt><trkpt lat="45.55900807744301" lon="8.237451991603924"><ele>231.0</ele><time>2026-04-06T13:40:15Z</time></trkpt><trkpt lat="45.55896413252349" lon="8.23733944235263"><ele>231.0</ele><time>2026-04-06T13:40:16Z</time></trkpt><trkpt lat="45.55896559104181" lon="8.237150629397528"><ele>230.8</ele><time>2026-04-06T13:40:18Z</time></trkpt><trkpt lat="45.55892862965864" lon="8.23706505401907"><ele>230.60000000000002</ele><time>2026-04-06T13:40:19Z</time></trkpt><trkpt lat="45.55903788425951" lon="8.236987618816771"><ele>230.4</ele><time>2026-04-06T13:40:23Z</time></trkpt><trkpt lat="45.559068603158345" lon="8.236830034728113"><ele>230.2</ele><time>2026-04-06T13:40:27Z</time></trkpt><trkpt lat="45.559065809009034" lon="8.236686727938956"><ele>230.0</ele><time>2026-04-06T13:40:28Z</time></trkpt><trkpt lat="45.559050610686214" lon="8.236521024695747"><ele>229.6</ele><time>2026-04-06T13:40:29Z</time></trkpt><trkpt lat="45.55903240650632" lon="8.236358387799356"><ele>229.2</ele><time>2026-04-06T13:40:30Z</time></trkpt><trkpt lat="45.55899969551302" lon="8.236253180724974"><ele>228.8</ele><time>2026-04-06T13:40:31Z</time></trkpt><trkpt lat="45.55895936555693" lon="8.236158014061296"><ele>228.4</ele><time>2026-04-06T13:40:32Z</time></trkpt><trkpt lat="45.55888099573248" lon="8.236048267082822"><ele>228.0</ele><time>2026-04-06T13:40:33Z</time></trkpt><trkpt lat="45.55879602039824" lon="8.235944436834476"><ele>228.0</ele><time>2026-04-06T13:40:34Z</time></trkpt><trkpt lat="45.558726636675715" lon="8.23588889087519"><ele>228.0</ele><time>2026-04-06T13:40:35Z</time></trkpt><trkpt lat="45.55863820965195" lon="8.235884896318858"><ele>228.0</ele><time>2026-04-06T13:40:36Z</time></trkpt><trkpt lat="45.55857328018698" lon="8.235898727018883"><ele>228.0</ele><time>2026-04-06T13:40:37Z</time></trkpt><trkpt lat="45.55850661998107" lon="8.235893548704071"><ele>228.0</ele><time>2026-04-06T13:40:38Z</time></trkpt><trkpt lat="45.55837162018402" lon="8.235901933750798"><ele>228.0</ele><time>2026-04-06T13:40:39Z</time></trkpt><trkpt lat="45.55826182067901" lon="8.235925902373475"><ele>228.5</ele><time>2026-04-06T13:40:40Z</time></trkpt><trkpt lat="45.55817016920861" lon="8.235949903730539"><ele>229.0</ele><time>2026-04-06T13:40:41Z</time></trkpt><trkpt lat="45.558091032520004" lon="8.236023106981797"><ele>229.5</ele><time>2026-04-06T13:40:42Z</time></trkpt><trkpt lat="45.55801145765123" lon="8.23606480141178"><ele>230.0</ele><time>2026-04-06T13:40:43Z</time></trkpt><trkpt lat="45.557931473617366" lon="8.236083007273315"><ele>230.5</ele><time>2026-04-06T13:40:44Z</time></trkpt><trkpt lat="45.557856195911064" lon="8.236091564649971"><ele>231.0</ele><time>2026-04-06T13:40:45Z</time></trkpt><trkpt lat="45.557766377145974" lon="8.236105329101552"><ele>231.0</ele><time>2026-04-06T13:40:47Z</time></trkpt><trkpt lat="45.557714201610345" lon="8.23620016000776"><ele>231.0</ele><time>2026-04-06T13:40:50Z</time></trkpt><trkpt lat="45.55766807872483" lon="8.236363506137613"><ele>231.0</ele><time>2026-04-06T13:40:52Z</time></trkpt><trkpt lat="45.55763449376934" lon="8.236466502481795"><ele>231.0</ele><time>2026-04-06T13:40:53Z</time></trkpt><trkpt lat="45.55758080556423" lon="8.236550963872135"><ele>231.0</ele><time>2026-04-06T13:40:54Z</time></trkpt><trkpt lat="45.55754778548015" lon="8.236640864666393"><ele>231.0</ele><time>2026-04-06T13:40:56Z</time></trkpt><trkpt lat="45.5575936592294" lon="8.236716795156706"><ele>231.0</ele><time>2026-04-06T13:40:58Z</time></trkpt><trkpt lat="45.55749514541361" lon="8.2367962188851"><ele>231.00000000000003</ele><time>2026-04-06T13:41:00Z</time></trkpt><trkpt lat="45.55739883054954" lon="8.236850602233513"><ele>231.00000000000003</ele><time>2026-04-06T13:41:01.999Z</time></trkpt><trkpt lat="45.55729198653091" lon="8.23687825559963"><ele>231.0</ele><time>2026-04-06T13:41:03.999Z</time></trkpt><trkpt lat="45.557224132549926" lon="8.236842813345387"><ele>231.0</ele><time>2026-04-06T13:41:04.999Z</time></trkpt><trkpt lat="45.557204799482165" lon="8.23674239061105"><ele>231.0</ele><time>2026-04-06T13:41:05.999Z</time></trkpt><trkpt lat="45.55714338472388" lon="8.236693717452939"><ele>231.0</ele><time>2026-04-06T13:41:07.999Z</time></trkpt><trkpt lat="45.55709680899192" lon="8.236771681435178"><ele>231.0</ele><time>2026-04-06T13:41:09.999Z</time></trkpt><trkpt lat="45.557039226509126" lon="8.236730756615708"><ele>231.0</ele><time>2026-04-06T13:41:11.999Z</time></trkpt><trkpt lat="45.55668776765328" lon="8.236965661762826"><ele>230.0</ele><time>2026-04-06T13:41:13.999Z</time></trkpt><trkpt lat="45.55660183057303" lon="8.23698495513335"><ele>229.00000000000003</ele><time>2026-04-06T13:41:14.999Z</time></trkpt><trkpt lat="45.556523014286455" lon="8.236980272251971"><ele>228.00000000000003</ele><time>2026-04-06T13:41:15.999Z</time></trkpt><trkpt lat="45.55642846394023" lon="8.236907822319248"><ele>227.0</ele><time>2026-04-06T13:41:17.999Z</time></trkpt><trkpt lat="45.55630955031394" lon="8.236870037494764"><ele>226.0</ele><time>2026-04-06T13:41:19.999Z</time></trkpt><trkpt lat="45.55624324930171" lon="8.236896862389722"><ele>226.16666666666666</ele><time>2026-04-06T13:41:20.999Z</time></trkpt><trkpt lat="45.55618319042929" lon="8.236937847463937"><ele>226.33333333333331</ele><time>2026-04-06T13:41:21.999Z</time></trkpt><trkpt lat="45.55612344628224" lon="8.236985554713819"><ele>226.5</ele><time>2026-04-06T13:41:22.999Z</time></trkpt><trkpt lat="45.55604067322521" lon="8.23703665137395"><ele>226.66666666666669</ele><time>2026-04-06T13:41:23.999Z</time></trkpt><trkpt lat="45.55593528404573" lon="8.237093486575692"><ele>226.83333333333334</ele><time>2026-04-06T13:41:24.999Z</time></trkpt><trkpt lat="45.55583390593994" lon="8.237157266245601"><ele>227.0</ele><time>2026-04-06T13:41:25.999Z</time></trkpt><trkpt lat="45.55573783978093" lon="8.237226172772113"><ele>227.0</ele><time>2026-04-06T13:41:26.999Z</time></trkpt><trkpt lat="45.55564307298416" lon="8.237286073849825"><ele>227.0</ele><time>2026-04-06T13:41:27.999Z</time></trkpt><trkpt lat="45.555577276248485" lon="8.237302958300885"><ele>227.0</ele><time>2026-04-06T13:41:28.999Z</time></trkpt><trkpt lat="45.55545705304575" lon="8.237270829201313"><ele>227.0</ele><time>2026-04-06T13:41:30.999Z</time></trkpt><trkpt lat="45.55530650779474" lon="8.237189921344157"><ele>227.25</ele><time>2026-04-06T13:41:31.999Z</time></trkpt><trkpt lat="45.55517666650739" lon="8.23717262958634"><ele>227.5</ele><time>2026-04-06T13:41:32.999Z</time></trkpt><trkpt lat="45.55503925850731" lon="8.237163178791135"><ele>227.75</ele><time>2026-04-06T13:41:33.999Z</time></trkpt><trkpt lat="45.554896779439616" lon="8.237128439660877"><ele>228.0</ele><time>2026-04-06T13:41:34.999Z</time></trkpt><trkpt lat="45.55473519034289" lon="8.237116774983502"><ele>228.0</ele><time>2026-04-06T13:41:35.999Z</time></trkpt><trkpt lat="45.554617706090774" lon="8.237083262318812"><ele>228.0</ele><time>2026-04-06T13:41:36.999Z</time></trkpt><trkpt lat="45.55452441044285" lon="8.237049493123685"><ele>228.0</ele><time>2026-04-06T13:41:37.999Z</time></trkpt><trkpt lat="45.55443219287366" lon="8.236993614593858"><ele>228.0</ele><time>2026-04-06T13:41:38.999Z</time></trkpt><trkpt lat="45.55434520363783" lon="8.236921768428372"><ele>228.0</ele><time>2026-04-06T13:41:39.999Z</time></trkpt><trkpt lat="45.554241098578984" lon="8.236849695232754"><ele>227.8</ele><time>2026-04-06T13:41:40.999Z</time></trkpt><trkpt lat="45.55414704303897" lon="8.236771498677557"><ele>227.60000000000002</ele><time>2026-04-06T13:41:41.999Z</time></trkpt><trkpt lat="45.554053135873275" lon="8.236683947296255"><ele>227.39999999999998</ele><time>2026-04-06T13:41:42.999Z</time></trkpt><trkpt lat="45.55396463848165" lon="8.236593264765505"><ele>227.2</ele><time>2026-04-06T13:41:43.999Z</time></trkpt><trkpt lat="45.55389503164326" lon="8.236555850805116"><ele>227.0</ele><time>2026-04-06T13:42:34Z</time></trkpt><trkpt lat="45.55381011421125" lon="8.236593417117458"><ele>227.0</ele><time>2026-04-06T13:42:36Z</time></trkpt><trkpt lat="45.55374648409003" lon="8.236581950260893"><ele>227.0</ele><time>2026-04-06T13:42:37Z</time></trkpt><trkpt lat="45.55365283852551" lon="8.23656699053344"><ele>227.0</ele><time>2026-04-06T13:42:38Z</time></trkpt><trkpt lat="45.55355138852537" lon="8.236532322654135"><ele>227.0</ele><time>2026-04-06T13:42:39Z</time></trkpt><trkpt lat="45.553445063053736" lon="8.23649175741883"><ele>227.0</ele><time>2026-04-06T13:42:40Z</time></trkpt><trkpt lat="45.553346687246545" lon="8.236465709906799"><ele>226.5</ele><time>2026-04-06T13:42:41Z</time></trkpt><trkpt lat="45.553241730276504" lon="8.236451309840847"><ele>226.0</ele><time>2026-04-06T13:42:42Z</time></trkpt><trkpt lat="45.55309988379778" lon="8.236511421142508"><ele>225.5</ele><time>2026-04-06T13:42:43Z</time></trkpt><trkpt lat="45.55296565753147" lon="8.236539211765884"><ele>225.0</ele><time>2026-04-06T13:42:44Z</time></trkpt><trkpt lat="45.552859090559565" lon="8.23653186311431"><ele>225.0</ele><time>2026-04-06T13:42:45Z</time></trkpt><trkpt lat="45.55274576818779" lon="8.236486349076083"><ele>225.0</ele><time>2026-04-06T13:42:46Z</time></trkpt><trkpt lat="45.55262403728628" lon="8.236458765738371"><ele>225.0</ele><time>2026-04-06T13:42:47Z</time></trkpt><trkpt lat="45.55250113288078" lon="8.236439609877944"><ele>225.0</ele><time>2026-04-06T13:42:48Z</time></trkpt><trkpt lat="45.552385325222986" lon="8.236431827797915"><ele>225.0</ele><time>2026-04-06T13:42:49Z</time></trkpt><trkpt lat="45.552305945679144" lon="8.236438579600872"><ele>225.0</ele><time>2026-04-06T13:42:50Z</time></trkpt><trkpt lat="45.55220050360799" lon="8.236474660234256"><ele>225.0</ele><time>2026-04-06T13:42:51.999Z</time></trkpt><trkpt lat="45.55210075680923" lon="8.236369625175293"><ele>225.0</ele><time>2026-04-06T13:42:53.999Z</time></trkpt><trkpt lat="45.55203102733357" lon="8.236225902805675"><ele>225.0</ele><time>2026-04-06T13:42:55.999Z</time></trkpt><trkpt lat="45.551978626455345" lon="8.236167129308928"><ele>224.0</ele><time>2026-04-06T13:42:56.999Z</time></trkpt><trkpt lat="45.55188071587353" lon="8.236087949898826"><ele>223.0</ele><time>2026-04-06T13:42:58.999Z</time></trkpt><trkpt lat="45.551811665187124" lon="8.236132920135596"><ele>222.0</ele><time>2026-04-06T13:43:01.999Z</time></trkpt><trkpt lat="45.55175856003963" lon="8.236232912485463"><ele>221.0</ele><time>2026-04-06T13:43:03.999Z</time></trkpt><trkpt lat="45.55168942857839" lon="8.236292437607641"><ele>220.0</ele><time>2026-04-06T13:43:05.999Z</time></trkpt><trkpt lat="45.5516215901027" lon="8.236336994726798"><ele>219.0</ele><time>2026-04-06T13:43:06.999Z</time></trkpt><trkpt lat="45.55156112559489" lon="8.236402608624468"><ele>219.33333333333334</ele><time>2026-04-06T13:43:07.999Z</time></trkpt><trkpt lat="45.55152890455884" lon="8.236545612311085"><ele>219.66666666666669</ele><time>2026-04-06T13:43:09.999Z</time></trkpt><trkpt lat="45.55153465628205" lon="8.23668612395128"><ele>220.0</ele><time>2026-04-06T13:43:11.999Z</time></trkpt><trkpt lat="45.5515392284138" lon="8.23682577758609"><ele>220.33333333333334</ele><time>2026-04-06T13:43:13.999Z</time></trkpt><trkpt lat="45.55153987928775" lon="8.23691887418798"><ele>220.66666666666669</ele><time>2026-04-06T13:43:14.999Z</time></trkpt><trkpt lat="45.551535991512175" lon="8.237012579131715"><ele>221.0</ele><time>2026-04-06T13:43:15.999Z</time></trkpt><trkpt lat="45.55165742245637" lon="8.237119797820512"><ele>221.0</ele><time>2026-04-06T13:43:16.999Z</time></trkpt><trkpt lat="45.55165178786205" lon="8.237278847660514"><ele>221.0</ele><time>2026-04-06T13:43:18.999Z</time></trkpt><trkpt lat="45.551290977343825" lon="8.237362607109427"><ele>221.0</ele><time>2026-04-06T13:43:21.999Z</time></trkpt><trkpt lat="45.55119904893623" lon="8.237422310200976"><ele>221.00000000000003</ele><time>2026-04-06T13:43:22.999Z</time></trkpt><trkpt lat="45.551118725299325" lon="8.237513891179825"><ele>221.00000000000003</ele><time>2026-04-06T13:43:23.999Z</time></trkpt><trkpt lat="45.551040817780354" lon="8.237609421464098"><ele>221.0</ele><time>2026-04-06T13:43:24.999Z</time></trkpt><trkpt lat="45.55096854451644" lon="8.237680620863015"><ele>221.0</ele><time>2026-04-06T13:43:25.999Z</time></trkpt><trkpt lat="45.550895515253046" lon="8.23772498653507"><ele>221.0</ele><time>2026-04-06T13:43:26.999Z</time></trkpt><trkpt lat="45.55080749637538" lon="8.237755947944471"><ele>221.00000000000003</ele><time>2026-04-06T13:43:27.999Z</time></trkpt><trkpt lat="45.55071311190896" lon="8.237795867351764"><ele>221.00000000000003</ele><time>2026-04-06T13:43:28.999Z</time></trkpt><trkpt lat="45.55065193223829" lon="8.237829664577939"><ele>221.0</ele><time>2026-04-06T13:43:29.999Z</time></trkpt><trkpt lat="45.55055188441839" lon="8.237780761065489"><ele>221.0</ele><time>2026-04-06T13:43:31.999Z</time></trkpt><trkpt lat="45.55046574863704" lon="8.237738993210895"><ele>221.0</ele><time>2026-04-06T13:43:33.999Z</time></trkpt><trkpt lat="45.55039306294119" lon="8.237720330056895"><ele>221.0</ele><time>2026-04-06T13:43:35.999Z</time></trkpt><trkpt lat="45.550246205307204" lon="8.237595717388533"><ele>221.0</ele><time>2026-04-06T13:43:37.999Z</time></trkpt><trkpt lat="45.5501185376733" lon="8.2375319602348"><ele>221.0</ele><time>2026-04-06T13:43:38.999Z</time></trkpt><trkpt lat="45.550007080786635" lon="8.237465989434455"><ele>221.4</ele><time>2026-04-06T13:43:39.999Z</time></trkpt><trkpt lat="45.549927629308606" lon="8.237384246946174"><ele>221.8</ele><time>2026-04-06T13:43:40.999Z</time></trkpt><trkpt lat="45.5498535627934" lon="8.237281050967718"><ele>222.20000000000002</ele><time>2026-04-06T13:43:41.999Z</time></trkpt><trkpt lat="45.549790268835345" lon="8.237179580813518"><ele>222.60000000000002</ele><time>2026-04-06T13:43:42.999Z</time></trkpt><trkpt lat="45.54971159279789" lon="8.23713788193026"><ele>223.0</ele><time>2026-04-06T13:43:43.999Z</time></trkpt><trkpt lat="45.54961318963355" lon="8.237158038207793"><ele>222.60000000000002</ele><time>2026-04-06T13:43:44.999Z</time></trkpt><trkpt lat="45.549518742917975" lon="8.237174310192279"><ele>222.20000000000002</ele><time>2026-04-06T13:43:45.999Z</time></trkpt><trkpt lat="45.549414015278415" lon="8.237147178318706"><ele>221.8</ele><time>2026-04-06T13:43:46.999Z</time></trkpt><trkpt lat="45.54930967185673" lon="8.23708006892861"><ele>221.4</ele><time>2026-04-06T13:43:47.999Z</time></trkpt><trkpt lat="45.54922075361134" lon="8.237029174858582"><ele>221.0</ele><time>2026-04-06T13:43:48.999Z</time></trkpt><trkpt lat="45.54911943369415" lon="8.236995315688223"><ele>221.0</ele><time>2026-04-06T13:43:49.999Z</time></trkpt><trkpt lat="45.54902413810653" lon="8.236954803542295"><ele>221.00000000000003</ele><time>2026-04-06T13:43:50.999Z</time></trkpt><trkpt lat="45.548929753805325" lon="8.236912454154863"><ele>221.00000000000003</ele><time>2026-04-06T13:43:51.999Z</time></trkpt><trkpt lat="45.548854097906286" lon="8.236856670643846"><ele>221.0</ele><time>2026-04-06T13:43:52.999Z</time></trkpt><trkpt lat="45.54879939523608" lon="8.236797148626813"><ele>221.0</ele><time>2026-04-06T13:43:54.999Z</time></trkpt><trkpt lat="45.54873150668934" lon="8.236687092637629"><ele>220.60000000000002</ele><time>2026-04-06T13:44:00.999Z</time></trkpt><trkpt lat="45.54868407382334" lon="8.236605557842429"><ele>220.20000000000002</ele><time>2026-04-06T13:44:01.999Z</time></trkpt><trkpt lat="45.548624189593816" lon="8.236509690277604"><ele>219.79999999999998</ele><time>2026-04-06T13:44:02.999Z</time></trkpt><trkpt lat="45.548544707880964" lon="8.236413643093226"><ele>219.39999999999998</ele><time>2026-04-06T13:44:03.999Z</time></trkpt><trkpt lat="45.54844078635309" lon="8.23632156343633"><ele>219.0</ele><time>2026-04-06T13:44:04.999Z</time></trkpt><trkpt lat="45.54834445305038" lon="8.236248399997628"><ele>219.0</ele><time>2026-04-06T13:44:05.999Z</time></trkpt><trkpt lat="45.548271721217375" lon="8.236188163871955"><ele>219.0</ele><time>2026-04-06T13:44:06.999Z</time></trkpt><trkpt lat="45.54826116929678" lon="8.235985435722473"><ele>219.0</ele><time>2026-04-06T13:44:08.999Z</time></trkpt><trkpt lat="45.548314595345424" lon="8.235847815726117"><ele>219.0</ele><time>2026-04-06T13:44:09.999Z</time></trkpt><trkpt lat="45.54834499703107" lon="8.23568203426732"><ele>219.2</ele><time>2026-04-06T13:44:10.999Z</time></trkpt><trkpt lat="45.548346440422144" lon="8.235550833899671"><ele>219.39999999999998</ele><time>2026-04-06T13:44:11.999Z</time></trkpt><trkpt lat="45.548272389312054" lon="8.235463969472365"><ele>219.6</ele><time>2026-04-06T13:44:14Z</time></trkpt><trkpt lat="45.54813186916742" lon="8.235473500985758"><ele>219.8</ele><time>2026-04-06T13:44:16Z</time></trkpt><trkpt lat="45.54803226380277" lon="8.23544823733937"><ele>220.0</ele><time>2026-04-06T13:44:17Z</time></trkpt><trkpt lat="45.547931124600765" lon="8.235415157533117"><ele>220.49999999999997</ele><time>2026-04-06T13:44:18Z</time></trkpt><trkpt lat="45.54786102271121" lon="8.23538825531093"><ele>221.0</ele><time>2026-04-06T13:44:19Z</time></trkpt><trkpt lat="45.54779257242986" lon="8.23544481422406"><ele>221.5</ele><time>2026-04-06T13:44:20Z</time></trkpt><trkpt lat="45.5477272068936" lon="8.235509012682755"><ele>222.0</ele><time>2026-04-06T13:44:21Z</time></trkpt><trkpt lat="45.547629790107706" lon="8.235546756219984"><ele>222.49999999999997</ele><time>2026-04-06T13:44:22Z</time></trkpt><trkpt lat="45.547544645456846" lon="8.235538270653743"><ele>223.0</ele><time>2026-04-06T13:44:23Z</time></trkpt><trkpt lat="45.54744955198336" lon="8.235509887063984"><ele>223.0</ele><time>2026-04-06T13:44:24Z</time></trkpt><trkpt lat="45.547426442183706" lon="8.235661549383305"><ele>223.0</ele><time>2026-04-06T13:44:25Z</time></trkpt><trkpt lat="45.54730965283475" lon="8.235669463958606"><ele>223.0</ele><time>2026-04-06T13:44:25.999Z</time></trkpt><trkpt lat="45.54724475894732" lon="8.235642045235878"><ele>223.0</ele><time>2026-04-06T13:44:26.999Z</time></trkpt><trkpt lat="45.547165958790835" lon="8.235604357938193"><ele>223.0</ele><time>2026-04-06T13:44:27.999Z</time></trkpt><trkpt lat="45.54708814736897" lon="8.235561370676429"><ele>222.99999999999997</ele><time>2026-04-06T13:44:28.999Z</time></trkpt><trkpt lat="45.547011963087556" lon="8.2355526215101"><ele>223.0</ele><time>2026-04-06T13:44:29.999Z</time></trkpt><trkpt lat="45.54692413847315" lon="8.23554782814808"><ele>223.0</ele><time>2026-04-06T13:44:31.999Z</time></trkpt><trkpt lat="45.546825997554635" lon="8.235595300150816"><ele>223.0</ele><time>2026-04-06T13:44:33.999Z</time></trkpt><trkpt lat="45.54676119403099" lon="8.235571347045479"><ele>222.99999999999997</ele><time>2026-04-06T13:44:34.999Z</time></trkpt><trkpt lat="45.54670295940893" lon="8.235492601978853"><ele>223.0</ele><time>2026-04-06T13:44:35.999Z</time></trkpt><trkpt lat="45.54664297239715" lon="8.235457213030845"><ele>222.99999999999997</ele><time>2026-04-06T13:44:36.999Z</time></trkpt><trkpt lat="45.54661601760291" lon="8.235366993826919"><ele>223.0</ele><time>2026-04-06T13:45:07.999Z</time></trkpt><trkpt lat="45.54660804066566" lon="8.23526077166524"><ele>223.0</ele><time>2026-04-06T13:45:08.999Z</time></trkpt><trkpt lat="45.546593885218705" lon="8.23514910927634"><ele>223.0</ele><time>2026-04-06T13:45:09.999Z</time></trkpt><trkpt lat="45.54658254702035" lon="8.23503579271928"><ele>222.99999999999997</ele><time>2026-04-06T13:45:10.999Z</time></trkpt><trkpt lat="45.546571952911876" lon="8.234932703686997"><ele>223.0</ele><time>2026-04-06T13:45:11.999Z</time></trkpt><trkpt lat="45.54654608419163" lon="8.234804234676407"><ele>222.66666666666666</ele><time>2026-04-06T13:45:13.999Z</time></trkpt><trkpt lat="45.54649320350548" lon="8.234749758024343"><ele>222.33333333333331</ele><time>2026-04-06T13:45:15.999Z</time></trkpt><trkpt lat="45.54643587961374" lon="8.234700169045006"><ele>222.0</ele><time>2026-04-06T13:45:16.999Z</time></trkpt><trkpt lat="45.546374319950765" lon="8.234622277015847"><ele>221.66666666666669</ele><time>2026-04-06T13:45:17.999Z</time></trkpt><trkpt lat="45.54633138949571" lon="8.234555776480223"><ele>221.33333333333334</ele><time>2026-04-06T13:45:18.999Z</time></trkpt><trkpt lat="45.54622613457596" lon="8.23455661768792"><ele>221.0</ele><time>2026-04-06T13:45:20.999Z</time></trkpt><trkpt lat="45.546209251370676" lon="8.234440195153889"><ele>220.83333333333334</ele><time>2026-04-06T13:45:27.999Z</time></trkpt><trkpt lat="45.54617320094235" lon="8.234325875734738"><ele>220.66666666666669</ele><time>2026-04-06T13:45:30.999Z</time></trkpt><trkpt lat="45.54610102952848" lon="8.234331083305806"><ele>220.5</ele><time>2026-04-06T13:45:31.999Z</time></trkpt><trkpt lat="45.54603196425953" lon="8.234290420938517"><ele>220.33333333333331</ele><time>2026-04-06T13:45:32.999Z</time></trkpt><trkpt lat="45.54597083997217" lon="8.234238938353526"><ele>220.16666666666666</ele><time>2026-04-06T13:45:33.999Z</time></trkpt><trkpt lat="45.545910304430194" lon="8.234197224909677"><ele>220.0</ele><time>2026-04-06T13:45:34.999Z</time></trkpt><trkpt lat="45.54576849055719" lon="8.234197870983825"><ele>220.0</ele><time>2026-04-06T13:45:36.999Z</time></trkpt><trkpt lat="45.545688699521975" lon="8.234210983476034"><ele>220.0</ele><time>2026-04-06T13:45:37.999Z</time></trkpt><trkpt lat="45.54559266759117" lon="8.234184165349257"><ele>220.0</ele><time>2026-04-06T13:45:39.999Z</time></trkpt><trkpt lat="45.54548597576164" lon="8.234141870157295"><ele>220.0</ele><time>2026-04-06T13:45:41.999Z</time></trkpt><trkpt lat="45.54535603196982" lon="8.234135257626354"><ele>220.0</ele><time>2026-04-06T13:45:43.999Z</time></trkpt><trkpt lat="45.545291226676326" lon="8.234134757977582"><ele>219.99999999999997</ele><time>2026-04-06T13:45:44.999Z</time></trkpt><trkpt lat="45.54522581973391" lon="8.23413453195003"><ele>220.0</ele><time>2026-04-06T13:45:45.999Z</time></trkpt><trkpt lat="45.54512220171343" lon="8.234156183077676"><ele>220.0</ele><time>2026-04-06T13:45:47.999Z</time></trkpt><trkpt lat="45.54503679795114" lon="8.234151788512076"><ele>220.0</ele><time>2026-04-06T13:45:50.999Z</time></trkpt><trkpt lat="45.54495955067298" lon="8.234134430359466"><ele>219.99999999999997</ele><time>2026-04-06T13:45:53.999Z</time></trkpt><trkpt lat="45.54488064407624" lon="8.23421489770319"><ele>220.0</ele><time>2026-04-06T13:45:57.999Z</time></trkpt><trkpt lat="45.544820353273984" lon="8.23428200748268"><ele>220.0</ele><time>2026-04-06T13:45:59.999Z</time></trkpt><trkpt lat="45.54475466558074" lon="8.234331270752003"><ele>220.0</ele><time>2026-04-06T13:46:01.999Z</time></trkpt><trkpt lat="45.544661294983165" lon="8.234355302478596"><ele>220.0</ele><time>2026-04-06T13:46:03.999Z</time></trkpt><trkpt lat="45.54454447165884" lon="8.234318027578732"><ele>220.0</ele><time>2026-04-06T13:46:05.999Z</time></trkpt><trkpt lat="45.5444700275605" lon="8.234317180649636"><ele>220.0</ele><time>2026-04-06T13:46:06.999Z</time></trkpt><trkpt lat="45.54438099941573" lon="8.234309959933649"><ele>220.0</ele><time>2026-04-06T13:46:09.999Z</time></trkpt><trkpt lat="45.544401402379414" lon="8.234395093521426"><ele>220.0</ele><time>2026-04-06T13:46:23Z</time></trkpt><trkpt lat="45.544471625558856" lon="8.234417924783326"><ele>220.0</ele><time>2026-04-06T13:46:25.999Z</time></trkpt><trkpt lat="45.54465271922258" lon="8.234478849600604"><ele>220.0</ele><time>2026-04-06T13:46:28.999Z</time></trkpt><trkpt lat="45.544741444583934" lon="8.234477018055145"><ele>220.0</ele><time>2026-04-06T13:46:30.999Z</time></trkpt><trkpt lat="45.54482634468827" lon="8.234416057733473"><ele>220.0</ele><time>2026-04-06T13:46:32.999Z</time></trkpt><trkpt lat="45.54487329209053" lon="8.234351504994564"><ele>220.0</ele><time>2026-04-06T13:46:33.999Z</time></trkpt><trkpt lat="45.54494353846475" lon="8.234225668395917"><ele>220.0</ele><time>2026-04-06T13:46:35.999Z</time></trkpt><trkpt lat="45.54501671019169" lon="8.234208184974522"><ele>220.0</ele><time>2026-04-06T13:46:37.999Z</time></trkpt><trkpt lat="45.54513938593393" lon="8.23420977550257"><ele>220.0</ele><time>2026-04-06T13:46:39.999Z</time></trkpt><trkpt lat="45.5452328652977" lon="8.234186030485512"><ele>220.0</ele><time>2026-04-06T13:46:41.999Z</time></trkpt><trkpt lat="45.54534046166418" lon="8.234187456750357"><ele>220.0</ele><time>2026-04-06T13:46:43.999Z</time></trkpt><trkpt lat="45.54545517876773" lon="8.234182178208396"><ele>220.0</ele><time>2026-04-06T13:46:45.999Z</time></trkpt><trkpt lat="45.545569845973986" lon="8.234179196723748"><ele>220.0</ele><time>2026-04-06T13:46:47.999Z</time></trkpt><trkpt lat="45.54563405456897" lon="8.234214811731034"><ele>220.0</ele><time>2026-04-06T13:46:48.999Z</time></trkpt><trkpt lat="45.54571407792608" lon="8.234230344853804"><ele>220.0</ele><time>2026-04-06T13:46:50.999Z</time></trkpt><trkpt lat="45.545654560184275" lon="8.234092235944322"><ele>220.0</ele><time>2026-04-06T13:46:54.999Z</time></trkpt><trkpt lat="45.54561936508596" lon="8.233969169813367"><ele>220.0</ele><time>2026-04-06T13:46:56.999Z</time></trkpt><trkpt lat="45.54560886367316" lon="8.233871502921428"><ele>220.0</ele><time>2026-04-06T13:46:57.999Z</time></trkpt><trkpt lat="45.54561467007646" lon="8.233757600132188"><ele>220.0</ele><time>2026-04-06T13:46:58.999Z</time></trkpt><trkpt lat="45.545701524681014" lon="8.233696983518275"><ele>219.66666666666666</ele><time>2026-04-06T13:47:00.999Z</time></trkpt><trkpt lat="45.54578365241536" lon="8.233669057564665"><ele>219.33333333333331</ele><time>2026-04-06T13:47:01.999Z</time></trkpt><trkpt lat="45.54584058936109" lon="8.233613711130275"><ele>219.0</ele><time>2026-04-06T13:47:02.999Z</time></trkpt><trkpt lat="45.54584648014709" lon="8.23350937433902"><ele>218.66666666666669</ele><time>2026-04-06T13:47:03.999Z</time></trkpt><trkpt lat="45.545854772519164" lon="8.233373022845013"><ele>218.33333333333334</ele><time>2026-04-06T13:47:04.999Z</time></trkpt><trkpt lat="45.5458708245576" lon="8.233265391735571"><ele>218.0</ele><time>2026-04-06T13:47:06.999Z</time></trkpt><trkpt lat="45.545938605834124" lon="8.233178517066737"><ele>217.8</ele><time>2026-04-06T13:47:08.999Z</time></trkpt><trkpt lat="45.54597305545955" lon="8.233077867135126"><ele>217.60000000000002</ele><time>2026-04-06T13:47:10.999Z</time></trkpt><trkpt lat="45.54596005115478" lon="8.232971728021306"><ele>217.39999999999998</ele><time>2026-04-06T13:47:12.999Z</time></trkpt><trkpt lat="45.54591500141213" lon="8.232799174312913"><ele>217.2</ele><time>2026-04-06T13:47:14.999Z</time></trkpt><trkpt lat="45.54588905665831" lon="8.232695487475995"><ele>217.0</ele><time>2026-04-06T13:47:15.999Z</time></trkpt><trkpt lat="45.54587045837724" lon="8.232525424404994"><ele>216.99999999999997</ele><time>2026-04-06T13:47:17.999Z</time></trkpt><trkpt lat="45.545890337649716" lon="8.232439991592784"><ele>217.0</ele><time>2026-04-06T13:47:18.999Z</time></trkpt><trkpt lat="45.5459793916847" lon="8.232340274503487"><ele>217.0</ele><time>2026-04-06T13:47:20.999Z</time></trkpt><trkpt lat="45.546026907500654" lon="8.23227211008124"><ele>217.0</ele><time>2026-04-06T13:47:21.999Z</time></trkpt><trkpt lat="45.54597709326337" lon="8.232106634532308"><ele>216.99999999999997</ele><time>2026-04-06T13:47:23.999Z</time></trkpt><trkpt lat="45.545948791171014" lon="8.232003086521638"><ele>217.0</ele><time>2026-04-06T13:47:24.999Z</time></trkpt><trkpt lat="45.545902092773254" lon="8.231906414313526"><ele>217.33333333333331</ele><time>2026-04-06T13:47:25.999Z</time></trkpt><trkpt lat="45.54583610415397" lon="8.23185299663802"><ele>217.66666666666666</ele><time>2026-04-06T13:47:26.999Z</time></trkpt><trkpt lat="45.545747532664436" lon="8.231807603791726"><ele>218.0</ele><time>2026-04-06T13:47:27.999Z</time></trkpt><trkpt lat="45.54567601635485" lon="8.231765123429637"><ele>218.33333333333331</ele><time>2026-04-06T13:47:28.999Z</time></trkpt><trkpt lat="45.54560224861576" lon="8.231718961079098"><ele>218.66666666666666</ele><time>2026-04-06T13:47:29.999Z</time></trkpt><trkpt lat="45.545526080849406" lon="8.23160110998708"><ele>219.0</ele><time>2026-04-06T13:47:31.999Z</time></trkpt><trkpt lat="45.54551832051169" lon="8.231499489931004"><ele>219.33333333333334</ele><time>2026-04-06T13:47:32.999Z</time></trkpt><trkpt lat="45.5455435155723" lon="8.231410080059664"><ele>219.66666666666669</ele><time>2026-04-06T13:47:33.999Z</time></trkpt><trkpt lat="45.54558414324444" lon="8.231308423487402"><ele>220.0</ele><time>2026-04-06T13:47:34.999Z</time></trkpt><trkpt lat="45.54549680234685" lon="8.231145006945784"><ele>220.33333333333334</ele><time>2026-04-06T13:47:36.999Z</time></trkpt><trkpt lat="45.54544913144772" lon="8.231070898384237"><ele>220.66666666666669</ele><time>2026-04-06T13:47:37.999Z</time></trkpt><trkpt lat="45.54540619793837" lon="8.231000079492185"><ele>221.0</ele><time>2026-04-06T13:47:38.999Z</time></trkpt><trkpt lat="45.54528206828081" lon="8.2309966593083"><ele>220.00000000000003</ele><time>2026-04-06T13:47:40.999Z</time></trkpt><trkpt lat="45.54520755820158" lon="8.23104645502083"><ele>219.0</ele><time>2026-04-06T13:47:41.999Z</time></trkpt><trkpt lat="45.54515663199375" lon="8.23110906109261"><ele>218.0</ele><time>2026-04-06T13:47:42.999Z</time></trkpt><trkpt lat="45.54512259736331" lon="8.23119029841775"><ele>217.0</ele><time>2026-04-06T13:47:43.999Z</time></trkpt><trkpt lat="45.54510421003705" lon="8.231276371663352"><ele>216.00000000000003</ele><time>2026-04-06T13:47:44.999Z</time></trkpt><trkpt lat="45.54507775387331" lon="8.231435015938459"><ele>215.0</ele><time>2026-04-06T13:47:46.999Z</time></trkpt><trkpt lat="45.54498975911847" lon="8.23143491625961"><ele>215.0</ele><time>2026-04-06T13:47:48.999Z</time></trkpt><trkpt lat="45.54498034057687" lon="8.231562045669827"><ele>215.0</ele><time>2026-04-06T13:47:51.999Z</time></trkpt><trkpt lat="45.54494026471559" lon="8.231652888104732"><ele>215.0</ele><time>2026-04-06T13:47:53.999Z</time></trkpt><trkpt lat="45.54485836864502" lon="8.23168500669303"><ele>215.0</ele><time>2026-04-06T13:47:55.999Z</time></trkpt><trkpt lat="45.544634895027194" lon="8.231789821056404"><ele>215.00000000000003</ele><time>2026-04-06T13:47:58.999Z</time></trkpt><trkpt lat="45.544575586884385" lon="8.231854116537757"><ele>215.0</ele><time>2026-04-06T13:48:03.999Z</time></trkpt><trkpt lat="45.54452085229406" lon="8.2319299982558"><ele>215.0</ele><time>2026-04-06T13:48:05.999Z</time></trkpt><trkpt lat="45.54446514147325" lon="8.23205301353493"><ele>215.0</ele><time>2026-04-06T13:48:07.999Z</time></trkpt><trkpt lat="45.54438311504753" lon="8.232084434283179"><ele>215.00000000000003</ele><time>2026-04-06T13:48:09.999Z</time></trkpt><trkpt lat="45.54429479393742" lon="8.232160302990078"><ele>215.0</ele><time>2026-04-06T13:48:11.999Z</time></trkpt><trkpt lat="45.54423693196736" lon="8.23225453256689"><ele>215.0</ele><time>2026-04-06T13:48:12.999Z</time></trkpt><trkpt lat="45.5441868802328" lon="8.232318152840952"><ele>215.0</ele><time>2026-04-06T13:48:15Z</time></trkpt><trkpt lat="45.54412435537697" lon="8.232281660476389"><ele>215.0</ele><time>2026-04-06T13:48:21Z</time></trkpt><trkpt lat="45.54407538500616" lon="8.23221307150143"><ele>215.0</ele><time>2026-04-06T13:48:24Z</time></trkpt><trkpt lat="45.54397898519538" lon="8.232169147295018"><ele>215.0</ele><time>2026-04-06T13:48:30Z</time></trkpt><trkpt lat="45.54397971476411" lon="8.232261192221277"><ele>215.0</ele><time>2026-04-06T13:48:32Z</time></trkpt><trkpt lat="45.5439280286059" lon="8.232344194720403"><ele>215.0</ele><time>2026-04-06T13:48:35Z</time></trkpt><trkpt lat="45.54385584528825" lon="8.232409852685453"><ele>215.00000000000003</ele><time>2026-04-06T13:48:37Z</time></trkpt><trkpt lat="45.543775763215855" lon="8.2324172819321"><ele>215.0</ele><time>2026-04-06T13:48:39Z</time></trkpt><trkpt lat="45.54369948996712" lon="8.23245709427807"><ele>215.0</ele><time>2026-04-06T13:48:41Z</time></trkpt><trkpt lat="45.543615143337284" lon="8.232480929116676"><ele>215.0</ele><time>2026-04-06T13:48:48Z</time></trkpt><trkpt lat="45.54354503575381" lon="8.232439136482164"><ele>215.00000000000003</ele><time>2026-04-06T13:48:51Z</time></trkpt><trkpt lat="45.54347439954067" lon="8.232471996336436"><ele>215.0</ele><time>2026-04-06T13:48:54.999Z</time></trkpt><trkpt lat="45.54343383276468" lon="8.23240185047916"><ele>214.7142857142857</ele><time>2026-04-06T13:49:04.999Z</time></trkpt><trkpt lat="45.54335478342756" lon="8.23237320048019"><ele>214.42857142857144</ele><time>2026-04-06T13:49:08.999Z</time></trkpt><trkpt lat="45.54329919055174" lon="8.232420443610735"><ele>214.14285714285714</ele><time>2026-04-06T13:49:11.999Z</time></trkpt><trkpt lat="45.54323386607914" lon="8.232451616857894"><ele>213.85714285714283</ele><time>2026-04-06T13:49:20.999Z</time></trkpt><trkpt lat="45.54316537288089" lon="8.232497693901893"><ele>213.57142857142856</ele><time>2026-04-06T13:49:23.999Z</time></trkpt><trkpt lat="45.54310507838553" lon="8.232528739635981"><ele>213.28571428571428</ele><time>2026-04-06T13:49:29.999Z</time></trkpt><trkpt lat="45.54306021332579" lon="8.23246046635257"><ele>213.0</ele><time>2026-04-06T13:49:35.999Z</time></trkpt><trkpt lat="45.542995298541555" lon="8.232504934496284"><ele>213.0</ele><time>2026-04-06T13:49:42.999Z</time></trkpt><trkpt lat="45.543068094364926" lon="8.232544253784825"><ele>213.0</ele><time>2026-04-06T13:49:55.999Z</time></trkpt><trkpt lat="45.54306720249649" lon="8.232660270350879"><ele>213.0</ele><time>2026-04-06T13:49:59.999Z</time></trkpt><trkpt lat="45.543085177990136" lon="8.232784189737211"><ele>213.0</ele><time>2026-04-06T13:50:06.999Z</time></trkpt><trkpt lat="45.54311081632721" lon="8.232880838618119"><ele>213.0</ele><time>2026-04-06T13:50:10.999Z</time></trkpt><trkpt lat="45.5431510375173" lon="8.232958578146613"><ele>213.0</ele><time>2026-04-06T13:50:13.999Z</time></trkpt><trkpt lat="45.543180224736325" lon="8.233046635137375"><ele>213.0</ele><time>2026-04-06T13:50:16.999Z</time></trkpt><trkpt lat="45.54311895149894" lon="8.233154966697233"><ele>213.0</ele><time>2026-04-06T13:50:19.999Z</time></trkpt><trkpt lat="45.54307912786672" lon="8.233233909210975"><ele>213.0</ele><time>2026-04-06T13:50:23Z</time></trkpt><trkpt lat="45.54304724476614" lon="8.233356078879334"><ele>213.0</ele><time>2026-04-06T13:50:28Z</time></trkpt><trkpt lat="45.542975691827195" lon="8.233453331318369"><ele>213.0</ele><time>2026-04-06T13:50:31Z</time></trkpt><trkpt lat="45.54291282252227" lon="8.233484367653228"><ele>213.0</ele><time>2026-04-06T13:50:33Z</time></trkpt><trkpt lat="45.54283277622948" lon="8.233471767835027"><ele>212.16666666666666</ele><time>2026-04-06T13:50:36Z</time></trkpt><trkpt lat="45.54274544159678" lon="8.233443745300336"><ele>211.33333333333331</ele><time>2026-04-06T13:50:38Z</time></trkpt><trkpt lat="45.54267012163668" lon="8.233427552140435"><ele>210.5</ele><time>2026-04-06T13:50:42Z</time></trkpt><trkpt lat="45.54261066509729" lon="8.233538027403995"><ele>209.66666666666666</ele><time>2026-04-06T13:50:44Z</time></trkpt><trkpt lat="45.542550851389024" lon="8.233572214563793"><ele>208.83333333333331</ele><time>2026-04-06T13:50:50Z</time></trkpt><trkpt lat="45.54249667269473" lon="8.23352307435183"><ele>208.0</ele><time>2026-04-06T13:50:54Z</time></trkpt><trkpt lat="45.542522527343834" lon="8.233627940537856"><ele>207.99999999999997</ele><time>2026-04-06T13:51:08.999Z</time></trkpt><trkpt lat="45.54258126436045" lon="8.233663915570027"><ele>208.0</ele><time>2026-04-06T13:51:12.999Z</time></trkpt><trkpt lat="45.5426348436134" lon="8.23376538583881"><ele>208.0</ele><time>2026-04-06T13:51:16.999Z</time></trkpt><trkpt lat="45.54271142700984" lon="8.233834100142312"><ele>208.0</ele><time>2026-04-06T13:51:19.999Z</time></trkpt><trkpt lat="45.54279437369088" lon="8.233929410397836"><ele>207.99999999999997</ele><time>2026-04-06T13:51:22.999Z</time></trkpt><trkpt lat="45.542854232079684" lon="8.233988944665985"><ele>208.0</ele><time>2026-04-06T13:51:24.999Z</time></trkpt><trkpt lat="45.54289111032409" lon="8.23407231587634"><ele>209.33333333333331</ele><time>2026-04-06T13:51:27.999Z</time></trkpt><trkpt lat="45.54292815364125" lon="8.234163767451593"><ele>210.66666666666666</ele><time>2026-04-06T13:51:30.999Z</time></trkpt><trkpt lat="45.54296643697642" lon="8.23425013381034"><ele>212.0</ele><time>2026-04-06T13:51:33.999Z</time></trkpt><trkpt lat="45.542903303144065" lon="8.234289793837682"><ele>213.33333333333331</ele><time>2026-04-06T13:51:47.999Z</time></trkpt><trkpt lat="45.542914447266405" lon="8.234379144507006"><ele>214.66666666666666</ele><time>2026-04-06T13:52:04.999Z</time></trkpt><trkpt lat="45.542975961823764" lon="8.234329191754089"><ele>216.0</ele><time>2026-04-06T13:52:06.999Z</time></trkpt><trkpt lat="45.54299026623561" lon="8.23417976205311"><ele>216.0</ele><time>2026-04-06T13:52:08.999Z</time></trkpt><trkpt lat="45.542926717439194" lon="8.234134395285649"><ele>216.0</ele><time>2026-04-06T13:52:09.999Z</time></trkpt><trkpt lat="45.542875421861034" lon="8.234189820159575"><ele>216.0</ele><time>2026-04-06T13:52:11.999Z</time></trkpt><trkpt lat="45.54285971996395" lon="8.234281043501996"><ele>216.0</ele><time>2026-04-06T13:53:03.999Z</time></trkpt><trkpt lat="45.54291005437018" lon="8.23434931698322"><ele>216.0</ele><time>2026-04-06T13:54:48.001Z</time></trkpt><trkpt lat="45.54294213197636" lon="8.23442761607239"><ele>216.0</ele><time>2026-04-06T13:54:53.001Z</time></trkpt><trkpt lat="45.542886754721906" lon="8.234497490755972"><ele>216.0</ele><time>2026-04-06T14:06:10.999Z</time></trkpt><trkpt lat="45.5428369253363" lon="8.23461472827621"><ele>215.5</ele><time>2026-04-06T14:06:12.999Z</time></trkpt><trkpt lat="45.542784132068775" lon="8.234747192714686"><ele>215.0</ele><time>2026-04-06T14:06:14.999Z</time></trkpt><trkpt lat="45.54274049165302" lon="8.234838696739383"><ele>214.5</ele><time>2026-04-06T14:06:16.999Z</time></trkpt><trkpt lat="45.54269157711627" lon="8.234928842963509"><ele>214.0</ele><time>2026-04-06T14:06:18.999Z</time></trkpt><trkpt lat="45.54267047312049" lon="8.23503537382691"><ele>213.5</ele><time>2026-04-06T14:06:22.999Z</time></trkpt><trkpt lat="45.54258683650248" lon="8.235082006327524"><ele>213.0</ele><time>2026-04-06T14:06:25.999Z</time></trkpt><trkpt lat="45.54256131813643" lon="8.235211444265314"><ele>213.0</ele><time>2026-04-06T14:06:28.999Z</time></trkpt><trkpt lat="45.54253317883206" lon="8.235305119488602"><ele>213.0</ele><time>2026-04-06T14:06:31.999Z</time></trkpt><trkpt lat="45.54248585006879" lon="8.235416298466564"><ele>213.0</ele><time>2026-04-06T14:06:34.999Z</time></trkpt><trkpt lat="45.54252111579523" lon="8.235562420198546"><ele>213.0</ele><time>2026-04-06T14:06:35.999Z</time></trkpt><trkpt lat="45.54248248264226" lon="8.235670489885477"><ele>213.0</ele><time>2026-04-06T14:06:38.999Z</time></trkpt><trkpt lat="45.54241560828926" lon="8.235741900952544"><ele>213.0</ele><time>2026-04-06T14:06:41.999Z</time></trkpt><trkpt lat="45.54236822226016" lon="8.235828524474202"><ele>212.8</ele><time>2026-04-06T14:06:46.999Z</time></trkpt><trkpt lat="45.5423058446902" lon="8.235882463620054"><ele>212.60000000000002</ele><time>2026-04-06T14:06:49.999Z</time></trkpt><trkpt lat="45.542179144264544" lon="8.235839424503766"><ele>212.39999999999998</ele><time>2026-04-06T14:06:54.999Z</time></trkpt><trkpt lat="45.542095078916205" lon="8.23580480117873"><ele>212.2</ele><time>2026-04-06T14:06:57.999Z</time></trkpt><trkpt lat="45.54202633440985" lon="8.235833559601955"><ele>212.0</ele><time>2026-04-06T14:08:06Z</time></trkpt><trkpt lat="45.54190566486228" lon="8.235764751376133"><ele>212.00000000000003</ele><time>2026-04-06T14:08:19Z</time></trkpt><trkpt lat="45.54183768627281" lon="8.23573038350879"><ele>212.0</ele><time>2026-04-06T14:08:25Z</time></trkpt><trkpt lat="45.54177082466769" lon="8.23575173616955"><ele>212.0</ele><time>2026-04-06T14:08:29Z</time></trkpt><trkpt lat="45.54168872669039" lon="8.235732010247453"><ele>212.0</ele><time>2026-04-06T14:08:41Z</time></trkpt><trkpt lat="45.541717351749746" lon="8.235829553763793"><ele>212.00000000000003</ele><time>2026-04-06T14:09:01.001Z</time></trkpt><trkpt lat="45.54181839036306" lon="8.235802093246638"><ele>212.0</ele><time>2026-04-06T14:09:12.001Z</time></trkpt><trkpt lat="45.54187174734917" lon="8.235749146040881"><ele>212.0</ele><time>2026-04-06T14:09:17.001Z</time></trkpt><trkpt lat="45.54187866168858" lon="8.235656650469295"><ele>212.0</ele><time>2026-04-06T14:09:21.001Z</time></trkpt><trkpt lat="45.5419159510739" lon="8.235558028357943"><ele>212.0</ele><time>2026-04-06T14:09:26.001Z</time></trkpt><trkpt lat="45.54189642631439" lon="8.235472100920452"><ele>212.0</ele><time>2026-04-06T14:09:31.001Z</time></trkpt><trkpt lat="45.54186157584434" lon="8.235391585863551"><ele>212.0</ele><time>2026-04-06T14:09:35.001Z</time></trkpt><trkpt lat="45.54182765136766" lon="8.235305006064891"><ele>212.0</ele><time>2026-04-06T14:09:38.001Z</time></trkpt><trkpt lat="45.54178460257734" lon="8.23522930193939"><ele>212.0</ele><time>2026-04-06T14:09:42.001Z</time></trkpt><trkpt lat="45.54172699630663" lon="8.235169230547728"><ele>211.83333333333334</ele><time>2026-04-06T14:09:46.001Z</time></trkpt><trkpt lat="45.54165563246997" lon="8.23509413863908"><ele>211.66666666666669</ele><time>2026-04-06T14:09:49.001Z</time></trkpt><trkpt lat="45.54160136425523" lon="8.235030765369922"><ele>211.5</ele><time>2026-04-06T14:09:52.001Z</time></trkpt><trkpt lat="45.541572828041254" lon="8.234917637586598"><ele>211.33333333333331</ele><time>2026-04-06T14:09:56.001Z</time></trkpt><trkpt lat="45.5415827834289" lon="8.234805362341547"><ele>211.16666666666666</ele><time>2026-04-06T14:10:00.001Z</time></trkpt><trkpt lat="45.54161217547401" lon="8.234725262801259"><ele>211.0</ele><time>2026-04-06T14:10:03.001Z</time></trkpt><trkpt lat="45.5416251188325" lon="8.234633975165407"><ele>210.99999999999997</ele><time>2026-04-06T14:10:08.001Z</time></trkpt><trkpt lat="45.54167244661136" lon="8.234557891127823"><ele>211.0</ele><time>2026-04-06T14:10:13.001Z</time></trkpt><trkpt lat="45.5416624386329" lon="8.234458060236738"><ele>211.0</ele><time>2026-04-06T14:10:17.001Z</time></trkpt><trkpt lat="45.54167569932558" lon="8.234346278927083"><ele>211.0</ele><time>2026-04-06T14:10:20.001Z</time></trkpt><trkpt lat="45.5417167812147" lon="8.234270406756757"><ele>210.99999999999997</ele><time>2026-04-06T14:10:24.001Z</time></trkpt><trkpt lat="45.541722091019345" lon="8.234152481627317"><ele>211.0</ele><time>2026-04-06T14:10:27.001Z</time></trkpt><trkpt lat="45.54169187882119" lon="8.233901372396291"><ele>210.66666666666666</ele><time>2026-04-06T14:10:29.001Z</time></trkpt><trkpt lat="45.54163996253183" lon="8.233806191790855"><ele>210.33333333333331</ele><time>2026-04-06T14:10:33.001Z</time></trkpt><trkpt lat="45.541609281745195" lon="8.2337131703344"><ele>210.0</ele><time>2026-04-06T14:10:36.001Z</time></trkpt><trkpt lat="45.54159259407235" lon="8.233616330199634"><ele>209.66666666666669</ele><time>2026-04-06T14:10:40.001Z</time></trkpt><trkpt lat="45.54160747027156" lon="8.233509723646359"><ele>209.33333333333334</ele><time>2026-04-06T14:10:46.001Z</time></trkpt><trkpt lat="45.54160268950219" lon="8.233400896425907"><ele>209.0</ele><time>2026-04-06T14:10:49.001Z</time></trkpt><trkpt lat="45.54167822575847" lon="8.23340344431738"><ele>209.00000000000003</ele><time>2026-04-06T14:10:52.001Z</time></trkpt><trkpt lat="45.54180705494206" lon="8.233446840081587"><ele>209.0</ele><time>2026-04-06T14:10:54.001Z</time></trkpt><trkpt lat="45.5418843638411" lon="8.233464189075129"><ele>209.0</ele><time>2026-04-06T14:10:55.001Z</time></trkpt><trkpt lat="45.541958312626754" lon="8.233492264290724"><ele>209.0</ele><time>2026-04-06T14:10:56.001Z</time></trkpt><trkpt lat="45.54203558668983" lon="8.23352281123921"><ele>209.00000000000003</ele><time>2026-04-06T14:10:57.001Z</time></trkpt><trkpt lat="45.54210193836322" lon="8.233573987143158"><ele>209.0</ele><time>2026-04-06T14:10:58.001Z</time></trkpt><trkpt lat="45.54217128744763" lon="8.233594205628084"><ele>208.79999999999998</ele><time>2026-04-06T14:10:59.001Z</time></trkpt><trkpt lat="45.542233586017694" lon="8.233577447565931"><ele>208.6</ele><time>2026-04-06T14:11:00.001Z</time></trkpt><trkpt lat="45.542286625389714" lon="8.233523444141877"><ele>208.4</ele><time>2026-04-06T14:11:01.001Z</time></trkpt><trkpt lat="45.542388553836716" lon="8.233344194076327"><ele>208.2</ele><time>2026-04-06T14:11:03.001Z</time></trkpt><trkpt lat="45.54245579876587" lon="8.233222888444196"><ele>208.0</ele><time>2026-04-06T14:11:04.001Z</time></trkpt><trkpt lat="45.542519603511835" lon="8.233094297416768"><ele>209.0</ele><time>2026-04-06T14:11:05.001Z</time></trkpt><trkpt lat="45.54259394546804" lon="8.23296918937058"><ele>210.0</ele><time>2026-04-06T14:11:06.001Z</time></trkpt><trkpt lat="45.54265173972288" lon="8.232811307889289"><ele>211.0</ele><time>2026-04-06T14:11:07.001Z</time></trkpt><trkpt lat="45.54270135073156" lon="8.232650325213077"><ele>212.0</ele><time>2026-04-06T14:11:08.001Z</time></trkpt><trkpt lat="45.542746833873" lon="8.232529748960225"><ele>212.00000000000003</ele><time>2026-04-06T14:11:09.001Z</time></trkpt><trkpt lat="45.54277809796936" lon="8.232408100458569"><ele>212.0</ele><time>2026-04-06T14:11:10.001Z</time></trkpt><trkpt lat="45.54280282861811" lon="8.232299860771285"><ele>212.0</ele><time>2026-04-06T14:11:11.001Z</time></trkpt><trkpt lat="45.54284353851646" lon="8.232228651091383"><ele>212.0</ele><time>2026-04-06T14:11:12.001Z</time></trkpt><trkpt lat="45.54290064056973" lon="8.232177524368941"><ele>212.00000000000003</ele><time>2026-04-06T14:11:13.001Z</time></trkpt><trkpt lat="45.54296005425055" lon="8.232117091841861"><ele>212.0</ele><time>2026-04-06T14:11:15.001Z</time></trkpt><trkpt lat="45.543059444624745" lon="8.231959864132401"><ele>213.16666666666669</ele><time>2026-04-06T14:11:19.001Z</time></trkpt><trkpt lat="45.543103157957596" lon="8.231858436240195"><ele>214.33333333333334</ele><time>2026-04-06T14:11:20.001Z</time></trkpt><trkpt lat="45.54314634174408" lon="8.231737053477271"><ele>215.5</ele><time>2026-04-06T14:11:21.001Z</time></trkpt><trkpt lat="45.54319989020399" lon="8.23164332631047"><ele>216.66666666666669</ele><time>2026-04-06T14:11:22.001Z</time></trkpt><trkpt lat="45.543246300414395" lon="8.231541780312496"><ele>217.83333333333334</ele><time>2026-04-06T14:11:23.001Z</time></trkpt><trkpt lat="45.543283282199134" lon="8.231426328670409"><ele>219.0</ele><time>2026-04-06T14:11:24.001Z</time></trkpt><trkpt lat="45.543316122243226" lon="8.23132803021064"><ele>219.33333333333334</ele><time>2026-04-06T14:11:25.001Z</time></trkpt><trkpt lat="45.54333575896248" lon="8.231237967429145"><ele>219.66666666666669</ele><time>2026-04-06T14:11:26.001Z</time></trkpt><trkpt lat="45.543389685698266" lon="8.23116068441479"><ele>220.0</ele><time>2026-04-06T14:11:27.001Z</time></trkpt><trkpt lat="45.54343248335042" lon="8.231073022841866"><ele>220.33333333333334</ele><time>2026-04-06T14:11:28.001Z</time></trkpt><trkpt lat="45.54346964533419" lon="8.230954857450577"><ele>220.66666666666669</ele><time>2026-04-06T14:11:33.001Z</time></trkpt><trkpt lat="45.54357239111811" lon="8.23087546618374"><ele>221.0</ele><time>2026-04-06T14:11:34.001Z</time></trkpt><trkpt lat="45.54366480156418" lon="8.230854639379123"><ele>220.66666666666669</ele><time>2026-04-06T14:11:35.001Z</time></trkpt><trkpt lat="45.54376207554177" lon="8.230843065938796"><ele>220.33333333333334</ele><time>2026-04-06T14:11:36.001Z</time></trkpt><trkpt lat="45.54385621975939" lon="8.230835976209287"><ele>220.0</ele><time>2026-04-06T14:11:37.001Z</time></trkpt><trkpt lat="45.54393470262113" lon="8.230825096848209"><ele>219.66666666666669</ele><time>2026-04-06T14:11:38.001Z</time></trkpt><trkpt lat="45.544004487806646" lon="8.230751221311598"><ele>219.33333333333334</ele><time>2026-04-06T14:11:39.001Z</time></trkpt><trkpt lat="45.54405618731224" lon="8.230661109700558"><ele>219.0</ele><time>2026-04-06T14:11:40.001Z</time></trkpt><trkpt lat="45.54414655329242" lon="8.230631450462907"><ele>219.0</ele><time>2026-04-06T14:11:41.001Z</time></trkpt><trkpt lat="45.54422217652752" lon="8.230621956046612"><ele>219.0</ele><time>2026-04-06T14:11:42.001Z</time></trkpt><trkpt lat="45.544292072761834" lon="8.230598598882086"><ele>219.0</ele><time>2026-04-06T14:11:43.001Z</time></trkpt><trkpt lat="45.54436085764215" lon="8.230556932728621"><ele>219.0</ele><time>2026-04-06T14:11:44.001Z</time></trkpt><trkpt lat="45.5444154540815" lon="8.230479616588537"><ele>219.0</ele><time>2026-04-06T14:11:45.001Z</time></trkpt><trkpt lat="45.54447236009026" lon="8.230414587815861"><ele>219.0</ele><time>2026-04-06T14:11:47.001Z</time></trkpt><trkpt lat="45.544564559135274" lon="8.230344279655311"><ele>218.2857142857143</ele><time>2026-04-06T14:11:52.001Z</time></trkpt><trkpt lat="45.54462434149935" lon="8.230277905922021"><ele>217.57142857142856</ele><time>2026-04-06T14:11:53.001Z</time></trkpt><trkpt lat="45.54468926580368" lon="8.230248432695818"><ele>216.85714285714286</ele><time>2026-04-06T14:11:54.001Z</time></trkpt><trkpt lat="45.54475546763064" lon="8.230228793871166"><ele>216.14285714285717</ele><time>2026-04-06T14:11:55.001Z</time></trkpt><trkpt lat="45.5448201931535" lon="8.230185159383211"><ele>215.42857142857144</ele><time>2026-04-06T14:11:56.001Z</time></trkpt><trkpt lat="45.544883128172" lon="8.230136909274865"><ele>214.71428571428572</ele><time>2026-04-06T14:11:59.001Z</time></trkpt><trkpt lat="45.54495382931279" lon="8.230128543843945"><ele>214.0</ele><time>2026-04-06T14:12:00.001Z</time></trkpt><trkpt lat="45.54503961119994" lon="8.230034260335433"><ele>214.0</ele><time>2026-04-06T14:12:02.001Z</time></trkpt><trkpt lat="45.54515348639888" lon="8.229953187759074"><ele>213.99999999999997</ele><time>2026-04-06T14:12:04.001Z</time></trkpt><trkpt lat="45.545227363003555" lon="8.229898060441792"><ele>213.99999999999997</ele><time>2026-04-06T14:12:05.001Z</time></trkpt><trkpt lat="45.54532164855539" lon="8.22980275461685"><ele>214.0</ele><time>2026-04-06T14:12:07.001Z</time></trkpt><trkpt lat="45.54541141248737" lon="8.229734758846371"><ele>214.0</ele><time>2026-04-06T14:12:09.001Z</time></trkpt><trkpt lat="45.545474102428074" lon="8.22978219622032"><ele>214.2</ele><time>2026-04-06T14:12:12.001Z</time></trkpt><trkpt lat="45.54554326881503" lon="8.229791927205511"><ele>214.39999999999998</ele><time>2026-04-06T14:12:14.001Z</time></trkpt><trkpt lat="45.54562835837782" lon="8.229786212528834"><ele>214.6</ele><time>2026-04-06T14:12:27.001Z</time></trkpt><trkpt lat="45.545711410368355" lon="8.22983057975539"><ele>214.8</ele><time>2026-04-06T14:12:29.001Z</time></trkpt><trkpt lat="45.545816409396174" lon="8.229906253053382"><ele>215.0</ele><time>2026-04-06T14:12:31.001Z</time></trkpt><trkpt lat="45.54589749423455" lon="8.229845235063493"><ele>215.0</ele><time>2026-04-06T14:12:32.001Z</time></trkpt><trkpt lat="45.546055445907484" lon="8.229769660413485"><ele>215.0</ele><time>2026-04-06T14:12:41.001Z</time></trkpt><trkpt lat="45.54615044405717" lon="8.229731002767318"><ele>215.0</ele><time>2026-04-06T14:12:44.001Z</time></trkpt><trkpt lat="45.54629370753152" lon="8.22973555555335"><ele>215.0</ele><time>2026-04-06T14:12:50.001Z</time></trkpt><trkpt lat="45.54635757402278" lon="8.229783705288032"><ele>215.2</ele><time>2026-04-06T14:12:52.001Z</time></trkpt><trkpt lat="45.546447954217925" lon="8.22981962834573"><ele>215.4</ele><time>2026-04-06T14:12:54.001Z</time></trkpt><trkpt lat="45.546553853119335" lon="8.229851359272676"><ele>215.60000000000002</ele><time>2026-04-06T14:12:56.001Z</time></trkpt><trkpt lat="45.546684747266276" lon="8.229856199737648"><ele>215.8</ele><time>2026-04-06T14:13:00.001Z</time></trkpt><trkpt lat="45.54678112383252" lon="8.229891100426249"><ele>216.0</ele><time>2026-04-06T14:13:02.001Z</time></trkpt><trkpt lat="45.546851895962995" lon="8.23002370471309"><ele>216.0</ele><time>2026-04-06T14:13:04.001Z</time></trkpt><trkpt lat="45.546921320430165" lon="8.230067915452539"><ele>216.0</ele><time>2026-04-06T14:13:05.001Z</time></trkpt><trkpt lat="45.54699596192787" lon="8.23019201827155"><ele>216.0</ele><time>2026-04-06T14:13:07.001Z</time></trkpt><trkpt lat="45.54709110574897" lon="8.23026726453734"><ele>216.0</ele><time>2026-04-06T14:13:09.001Z</time></trkpt><trkpt lat="45.547137979700466" lon="8.230332305949116"><ele>216.0</ele><time>2026-04-06T14:13:11.001Z</time></trkpt><trkpt lat="45.54713856001194" lon="8.230426146140685"><ele>216.0</ele><time>2026-04-06T14:13:13.001Z</time></trkpt><trkpt lat="45.54715331858955" lon="8.230516427038603"><ele>216.75</ele><time>2026-04-06T14:13:16.001Z</time></trkpt><trkpt lat="45.54734132652452" lon="8.23062336370288"><ele>217.5</ele><time>2026-04-06T14:13:20.001Z</time></trkpt><trkpt lat="45.54743846196057" lon="8.230657815187612"><ele>218.25</ele><time>2026-04-06T14:13:22.001Z</time></trkpt><trkpt lat="45.54750204187378" lon="8.230706331033057"><ele>219.0</ele><time>2026-04-06T14:13:23.001Z</time></trkpt><trkpt lat="45.54756091309869" lon="8.230782997327125"><ele>219.2</ele><time>2026-04-06T14:13:24.002Z</time></trkpt><trkpt lat="45.54760525510307" lon="8.230887866498204"><ele>219.39999999999998</ele><time>2026-04-06T14:13:25.002Z</time></trkpt><trkpt lat="45.54765328984413" lon="8.231031374691225"><ele>219.6</ele><time>2026-04-06T14:13:26.002Z</time></trkpt><trkpt lat="45.54771126912116" lon="8.231210067314827"><ele>219.8</ele><time>2026-04-06T14:13:27.002Z</time></trkpt><trkpt lat="45.54777655976734" lon="8.231329794288044"><ele>220.0</ele><time>2026-04-06T14:13:28.002Z</time></trkpt><trkpt lat="45.54783703549777" lon="8.231427520886612"><ele>220.16666666666666</ele><time>2026-04-06T14:13:29.002Z</time></trkpt><trkpt lat="45.54790417827288" lon="8.231474314624714"><ele>220.33333333333331</ele><time>2026-04-06T14:13:30.002Z</time></trkpt><trkpt lat="45.54796742043412" lon="8.231533478976786"><ele>220.5</ele><time>2026-04-06T14:13:31.002Z</time></trkpt><trkpt lat="45.54805101772378" lon="8.231532742753481"><ele>220.66666666666669</ele><time>2026-04-06T14:13:32.002Z</time></trkpt><trkpt lat="45.548122682110176" lon="8.231544084124321"><ele>220.83333333333334</ele><time>2026-04-06T14:13:33.002Z</time></trkpt><trkpt lat="45.548163064442086" lon="8.231652568678255"><ele>221.0</ele><time>2026-04-06T14:13:35.001Z</time></trkpt><trkpt lat="45.548212697316465" lon="8.23172156821058"><ele>221.0</ele><time>2026-04-06T14:13:36.001Z</time></trkpt><trkpt lat="45.54830647170367" lon="8.23177787948516"><ele>221.00000000000003</ele><time>2026-04-06T14:13:37.001Z</time></trkpt><trkpt lat="45.548355640125706" lon="8.231835677848307"><ele>221.00000000000003</ele><time>2026-04-06T14:13:38.001Z</time></trkpt><trkpt lat="45.54845234284488" lon="8.231955648645519"><ele>221.0</ele><time>2026-04-06T14:13:40.001Z</time></trkpt><trkpt lat="45.54856839728543" lon="8.232073357843356"><ele>221.0</ele><time>2026-04-06T14:13:41.001Z</time></trkpt><trkpt lat="45.5486856347869" lon="8.232227864915977"><ele>221.4</ele><time>2026-04-06T14:13:43.001Z</time></trkpt><trkpt lat="45.54875858960795" lon="8.232327324285388"><ele>221.8</ele><time>2026-04-06T14:13:44.001Z</time></trkpt><trkpt lat="45.54882219074552" lon="8.232392046922167"><ele>222.20000000000002</ele><time>2026-04-06T14:13:45.001Z</time></trkpt><trkpt lat="45.54889041698425" lon="8.232474371167797"><ele>222.60000000000002</ele><time>2026-04-06T14:13:46.001Z</time></trkpt><trkpt lat="45.54897498183412" lon="8.232574301537168"><ele>223.0</ele><time>2026-04-06T14:13:47.001Z</time></trkpt><trkpt lat="45.5490337625495" lon="8.232675241186714"><ele>223.0</ele><time>2026-04-06T14:13:48.001Z</time></trkpt><trkpt lat="45.5491001658236" lon="8.23279473562394"><ele>223.0</ele><time>2026-04-06T14:13:50.001Z</time></trkpt><trkpt lat="45.549153651323465" lon="8.23289691164026"><ele>223.0</ele><time>2026-04-06T14:13:51.001Z</time></trkpt><trkpt lat="45.54924197640623" lon="8.233007520955654"><ele>223.0</ele><time>2026-04-06T14:13:52.001Z</time></trkpt><trkpt lat="45.54931403632957" lon="8.233053164536324"><ele>223.0</ele><time>2026-04-06T14:13:53.001Z</time></trkpt><trkpt lat="45.54936684101232" lon="8.233109335140465"><ele>223.0</ele><time>2026-04-06T14:13:54.001Z</time></trkpt><trkpt lat="45.54943430175082" lon="8.233174644881329"><ele>223.0</ele><time>2026-04-06T14:13:57.001Z</time></trkpt><trkpt lat="45.54937295535517" lon="8.23309515970109"><ele>223.0</ele><time>2026-04-06T14:13:58.001Z</time></trkpt><trkpt lat="45.54953491781413" lon="8.233242255100713"><ele>223.0</ele><time>2026-04-06T14:14:01.001Z</time></trkpt><trkpt lat="45.549561365378814" lon="8.233416938961454"><ele>223.60000000000002</ele><time>2026-04-06T14:14:03.001Z</time></trkpt><trkpt lat="45.54962870768633" lon="8.233635009418036"><ele>224.20000000000002</ele><time>2026-04-06T14:14:05.001Z</time></trkpt><trkpt lat="45.549681133261714" lon="8.233761370430992"><ele>224.8</ele><time>2026-04-06T14:14:06.001Z</time></trkpt><trkpt lat="45.549748585759374" lon="8.233826322131772"><ele>225.4</ele><time>2026-04-06T14:14:07.001Z</time></trkpt><trkpt lat="45.54981394308733" lon="8.233869815026836"><ele>226.0</ele><time>2026-04-06T14:14:08.001Z</time></trkpt><trkpt lat="45.54988104487522" lon="8.233860953945548"><ele>226.0</ele><time>2026-04-06T14:14:09.001Z</time></trkpt><trkpt lat="45.549955011217314" lon="8.233862166730558"><ele>226.00000000000003</ele><time>2026-04-06T14:14:10.001Z</time></trkpt><trkpt lat="45.550047170861355" lon="8.233844015474322"><ele>226.00000000000003</ele><time>2026-04-06T14:14:11.001Z</time></trkpt><trkpt lat="45.55013696835593" lon="8.233856725830341"><ele>226.0</ele><time>2026-04-06T14:14:12.001Z</time></trkpt><trkpt lat="45.55024283021344" lon="8.23384790409003"><ele>226.0</ele><time>2026-04-06T14:14:13.001Z</time></trkpt><trkpt lat="45.55035234927316" lon="8.233835286410537"><ele>225.33333333333331</ele><time>2026-04-06T14:14:14.001Z</time></trkpt><trkpt lat="45.550498768179345" lon="8.23378599589029"><ele>224.66666666666669</ele><time>2026-04-06T14:14:15.001Z</time></trkpt><trkpt lat="45.55068009425841" lon="8.233706030808003"><ele>224.0</ele><time>2026-04-06T14:14:16.001Z</time></trkpt><trkpt lat="45.55086080157941" lon="8.233595938557066"><ele>224.0</ele><time>2026-04-06T14:14:17.001Z</time></trkpt><trkpt lat="45.551135070330396" lon="8.23342166046818"><ele>224.0</ele><time>2026-04-06T14:14:18.001Z</time></trkpt><trkpt lat="45.55120443673175" lon="8.233272909689658"><ele>224.0</ele><time>2026-04-06T14:14:19.001Z</time></trkpt><trkpt lat="45.55126914562845" lon="8.233104401961963"><ele>222.66666666666669</ele><time>2026-04-06T14:14:20.001Z</time></trkpt><trkpt lat="45.55132480124076" lon="8.23291134401851"><ele>221.33333333333331</ele><time>2026-04-06T14:14:21.001Z</time></trkpt><trkpt lat="45.55138183750503" lon="8.23273204694581"><ele>220.0</ele><time>2026-04-06T14:14:22.001Z</time></trkpt><trkpt lat="45.551448363583226" lon="8.232497007059193"><ele>220.8</ele><time>2026-04-06T14:14:23.001Z</time></trkpt><trkpt lat="45.55148409153741" lon="8.232291716743822"><ele>221.6</ele><time>2026-04-06T14:14:24.001Z</time></trkpt><trkpt lat="45.55151786086094" lon="8.232158874995644"><ele>222.39999999999998</ele><time>2026-04-06T14:14:25.001Z</time></trkpt><trkpt lat="45.55158307134474" lon="8.232132709919252"><ele>223.2</ele><time>2026-04-06T14:14:27.001Z</time></trkpt><trkpt lat="45.55166035933165" lon="8.232200044613851"><ele>224.0</ele><time>2026-04-06T14:14:29.001Z</time></trkpt><trkpt lat="45.551766362135645" lon="8.232273616823544"><ele>223.79999999999998</ele><time>2026-04-06T14:14:30.001Z</time></trkpt><trkpt lat="45.55186845954784" lon="8.232348485996498"><ele>223.59999999999997</ele><time>2026-04-06T14:14:31.001Z</time></trkpt><trkpt lat="45.55195736050912" lon="8.232449106933464"><ele>223.4</ele><time>2026-04-06T14:14:33.001Z</time></trkpt><trkpt lat="45.55199757990264" lon="8.232520665340996"><ele>223.2</ele><time>2026-04-06T14:14:35.001Z</time></trkpt><trkpt lat="45.55206812713142" lon="8.232401531040432"><ele>223.0</ele><time>2026-04-06T14:14:37.001Z</time></trkpt><trkpt lat="45.55215578982005" lon="8.2323338445595"><ele>223.66666666666666</ele><time>2026-04-06T14:14:38.001Z</time></trkpt><trkpt lat="45.5522393724463" lon="8.232272990405539"><ele>224.33333333333331</ele><time>2026-04-06T14:14:39.001Z</time></trkpt><trkpt lat="45.5523170654121" lon="8.232246869839651"><ele>225.0</ele><time>2026-04-06T14:14:40.001Z</time></trkpt><trkpt lat="45.55238649793249" lon="8.232244400301298"><ele>225.66666666666669</ele><time>2026-04-06T14:14:41.001Z</time></trkpt><trkpt lat="45.55247466163353" lon="8.232229367763294"><ele>226.33333333333334</ele><time>2026-04-06T14:14:42.001Z</time></trkpt><trkpt lat="45.55256508182491" lon="8.232234527113247"><ele>227.0</ele><time>2026-04-06T14:14:43.001Z</time></trkpt><trkpt lat="45.55265341303737" lon="8.232241332127051"><ele>226.8</ele><time>2026-04-06T14:14:44.001Z</time></trkpt><trkpt lat="45.552757438307985" lon="8.232312174880663"><ele>226.6</ele><time>2026-04-06T14:14:45.001Z</time></trkpt><trkpt lat="45.552874150740045" lon="8.232344590926147"><ele>226.40000000000003</ele><time>2026-04-06T14:14:46.001Z</time></trkpt><trkpt lat="45.55298366645515" lon="8.232321086946191"><ele>226.20000000000002</ele><time>2026-04-06T14:14:47.001Z</time></trkpt><trkpt lat="45.55306385900625" lon="8.232244817657957"><ele>226.0</ele><time>2026-04-06T14:14:48.001Z</time></trkpt><trkpt lat="45.55311780760298" lon="8.232149043437337"><ele>227.4</ele><time>2026-04-06T14:14:49.001Z</time></trkpt><trkpt lat="45.553195702329496" lon="8.232085235710947"><ele>228.8</ele><time>2026-04-06T14:14:50.001Z</time></trkpt><trkpt lat="45.55330387037535" lon="8.2320014112094"><ele>230.20000000000002</ele><time>2026-04-06T14:14:51.001Z</time></trkpt><trkpt lat="45.553409880750706" lon="8.231936398285951"><ele>231.60000000000002</ele><time>2026-04-06T14:14:52.001Z</time></trkpt><trkpt lat="45.5535185651824" lon="8.231941590961732"><ele>233.0</ele><time>2026-04-06T14:14:53.001Z</time></trkpt><trkpt lat="45.553631967279145" lon="8.231940685009697"><ele>234.25</ele><time>2026-04-06T14:14:54.001Z</time></trkpt><trkpt lat="45.55377027135321" lon="8.231849585496795"><ele>235.5</ele><time>2026-04-06T14:14:55.001Z</time></trkpt><trkpt lat="45.55387892485292" lon="8.23175382678654"><ele>236.75</ele><time>2026-04-06T14:14:56.001Z</time></trkpt><trkpt lat="45.55398257986885" lon="8.231673876514527"><ele>238.0</ele><time>2026-04-06T14:14:57.001Z</time></trkpt><trkpt lat="45.55407089423715" lon="8.23158717014348"><ele>238.0</ele><time>2026-04-06T14:14:58.001Z</time></trkpt><trkpt lat="45.554165101715014" lon="8.231498016196992"><ele>238.0</ele><time>2026-04-06T14:14:59.001Z</time></trkpt><trkpt lat="45.55424605169863" lon="8.23139582567629"><ele>238.0</ele><time>2026-04-06T14:15:00.001Z</time></trkpt><trkpt lat="45.55430549038823" lon="8.231348674152846"><ele>238.0</ele><time>2026-04-06T14:15:02.001Z</time></trkpt><trkpt lat="45.55433841345843" lon="8.231114860984446"><ele>238.5</ele><time>2026-04-06T14:15:03.001Z</time></trkpt><trkpt lat="45.55440250620462" lon="8.230965107719648"><ele>239.0</ele><time>2026-04-06T14:15:04.001Z</time></trkpt><trkpt lat="45.5544388301672" lon="8.23083346858919"><ele>239.5</ele><time>2026-04-06T14:15:05.001Z</time></trkpt><trkpt lat="45.55448362009353" lon="8.230678202898686"><ele>240.0</ele><time>2026-04-06T14:15:06.001Z</time></trkpt><trkpt lat="45.554528045088944" lon="8.230474999674144"><ele>240.0</ele><time>2026-04-06T14:15:07.001Z</time></trkpt><trkpt lat="45.55454910790677" lon="8.230312290720335"><ele>240.0</ele><time>2026-04-06T14:15:08.001Z</time></trkpt><trkpt lat="45.55457752567728" lon="8.23016811340706"><ele>240.0</ele><time>2026-04-06T14:15:09.001Z</time></trkpt><trkpt lat="45.554607554575774" lon="8.230076869864675"><ele>240.0</ele><time>2026-04-06T14:15:10.001Z</time></trkpt><trkpt lat="45.55468056134822" lon="8.229912323199503"><ele>240.0</ele><time>2026-04-06T14:15:12.001Z</time></trkpt><trkpt lat="45.554683648815484" lon="8.229796951357564"><ele>240.0</ele><time>2026-04-06T14:15:13.001Z</time></trkpt><trkpt lat="45.55466018370892" lon="8.229706527463698"><ele>240.0</ele><time>2026-04-06T14:15:14.001Z</time></trkpt><trkpt lat="45.554596841667006" lon="8.229591517079594"><ele>240.0</ele><time>2026-04-06T14:15:15.001Z</time></trkpt><trkpt lat="45.55449141159431" lon="8.22947879588191"><ele>240.0</ele><time>2026-04-06T14:15:16.001Z</time></trkpt><trkpt lat="45.554436163851356" lon="8.229359306125128"><ele>240.0</ele><time>2026-04-06T14:15:17.001Z</time></trkpt><trkpt lat="45.55442805982353" lon="8.229222116430144"><ele>239.5</ele><time>2026-04-06T14:15:18.001Z</time></trkpt><trkpt lat="45.55447110909136" lon="8.229101793774467"><ele>239.0</ele><time>2026-04-06T14:15:19.001Z</time></trkpt><trkpt lat="45.554465651730695" lon="8.228908677803153"><ele>238.5</ele><time>2026-04-06T14:15:20.001Z</time></trkpt><trkpt lat="45.55449547179183" lon="8.228743039898099"><ele>238.0</ele><time>2026-04-06T14:15:21.001Z</time></trkpt><trkpt lat="45.55449975003164" lon="8.228555196682484"><ele>239.0</ele><time>2026-04-06T14:15:22.001Z</time></trkpt><trkpt lat="45.55453520302322" lon="8.22836018743942"><ele>240.0</ele><time>2026-04-06T14:15:23.001Z</time></trkpt><trkpt lat="45.55456836049764" lon="8.228174359520333"><ele>241.0</ele><time>2026-04-06T14:15:24.001Z</time></trkpt><trkpt lat="45.554600257040136" lon="8.228010993594127"><ele>242.0</ele><time>2026-04-06T14:15:25.001Z</time></trkpt><trkpt lat="45.55462623413698" lon="8.22787153532317"><ele>243.75</ele><time>2026-04-06T14:15:26.001Z</time></trkpt><trkpt lat="45.5546441974799" lon="8.227754783156513"><ele>245.5</ele><time>2026-04-06T14:15:29.001Z</time></trkpt><trkpt lat="45.55475190441149" lon="8.227697118040215"><ele>247.25</ele><time>2026-04-06T14:15:30.002Z</time></trkpt><trkpt lat="45.55453292198581" lon="8.227606264597963"><ele>249.0</ele><time>2026-04-06T14:15:31.002Z</time></trkpt><trkpt lat="45.55444850700448" lon="8.227522948861827"><ele>249.0</ele><time>2026-04-06T14:15:32.002Z</time></trkpt><trkpt lat="45.55436481591932" lon="8.227421531603099"><ele>249.0</ele><time>2026-04-06T14:15:33.002Z</time></trkpt><trkpt lat="45.55427710726346" lon="8.227311769579295"><ele>249.0</ele><time>2026-04-06T14:15:34.002Z</time></trkpt><trkpt lat="45.554183686391" lon="8.227198355921312"><ele>249.0</ele><time>2026-04-06T14:15:35.001Z</time></trkpt><trkpt lat="45.55408963160387" lon="8.227078980073289"><ele>249.75</ele><time>2026-04-06T14:15:36.001Z</time></trkpt><trkpt lat="45.55399467295109" lon="8.226965214341234"><ele>250.5</ele><time>2026-04-06T14:15:37.001Z</time></trkpt><trkpt lat="45.55390122407897" lon="8.226846490515738"><ele>251.25</ele><time>2026-04-06T14:15:38.001Z</time></trkpt><trkpt lat="45.55380943241445" lon="8.226720134380816"><ele>252.0</ele><time>2026-04-06T14:15:39.001Z</time></trkpt><trkpt lat="45.553711680887886" lon="8.226599347423855"><ele>252.0</ele><time>2026-04-06T14:15:40.001Z</time></trkpt><trkpt lat="45.55360738723357" lon="8.226491863879845"><ele>252.0</ele><time>2026-04-06T14:15:41.001Z</time></trkpt><trkpt lat="45.553504576526876" lon="8.226393031179137"><ele>252.0</ele><time>2026-04-06T14:15:42.001Z</time></trkpt><trkpt lat="45.55339805672497" lon="8.22629700886192"><ele>252.0</ele><time>2026-04-06T14:15:43.001Z</time></trkpt><trkpt lat="45.55329109931153" lon="8.226208522817299"><ele>252.0</ele><time>2026-04-06T14:15:44.001Z</time></trkpt><trkpt lat="45.55318449376045" lon="8.226128454485538"><ele>252.0</ele><time>2026-04-06T14:15:45.001Z</time></trkpt><trkpt lat="45.55307477040076" lon="8.226037053461887"><ele>252.0</ele><time>2026-04-06T14:15:46.001Z</time></trkpt><trkpt lat="45.55296983675689" lon="8.225949886694982"><ele>252.0</ele><time>2026-04-06T14:15:47.001Z</time></trkpt><trkpt lat="45.552864920759816" lon="8.225858690742248"><ele>251.25</ele><time>2026-04-06T14:15:48.001Z</time></trkpt><trkpt lat="45.55275822309621" lon="8.225772979423438"><ele>250.5</ele><time>2026-04-06T14:15:49.001Z</time></trkpt><trkpt lat="45.55265301869154" lon="8.225684183412483"><ele>249.75</ele><time>2026-04-06T14:15:50.001Z</time></trkpt><trkpt lat="45.55254914520686" lon="8.225599882477932"><ele>249.0</ele><time>2026-04-06T14:15:51.001Z</time></trkpt><trkpt lat="45.55243757549531" lon="8.2255395043311"><ele>249.0</ele><time>2026-04-06T14:15:52.001Z</time></trkpt><trkpt lat="45.55232370818473" lon="8.225491634603141"><ele>249.0</ele><time>2026-04-06T14:15:53.001Z</time></trkpt><trkpt lat="45.55220774157435" lon="8.225455986654037"><ele>249.0</ele><time>2026-04-06T14:15:54.001Z</time></trkpt><trkpt lat="45.55209626892239" lon="8.225419026166595"><ele>249.0</ele><time>2026-04-06T14:15:55.001Z</time></trkpt><trkpt lat="45.55198691777259" lon="8.225373098645647"><ele>249.0</ele><time>2026-04-06T14:15:56.001Z</time></trkpt><trkpt lat="45.551875869185594" lon="8.22533165486371"><ele>249.0</ele><time>2026-04-06T14:15:57.001Z</time></trkpt><trkpt lat="45.5517661753812" lon="8.22528248334827"><ele>249.0</ele><time>2026-04-06T14:15:58.001Z</time></trkpt><trkpt lat="45.55165124287583" lon="8.225243297996956"><ele>249.0</ele><time>2026-04-06T14:15:59.001Z</time></trkpt><trkpt lat="45.55153233461936" lon="8.225218503340624"><ele>249.0</ele><time>2026-04-06T14:16:00.001Z</time></trkpt><trkpt lat="45.55140559873076" lon="8.225212983255373"><ele>249.0</ele><time>2026-04-06T14:16:01.001Z</time></trkpt><trkpt lat="45.55127774811449" lon="8.225230892045717"><ele>249.0</ele><time>2026-04-06T14:16:02.001Z</time></trkpt><trkpt lat="45.55115434714806" lon="8.225259238257605"><ele>249.0</ele><time>2026-04-06T14:16:03.001Z</time></trkpt><trkpt lat="45.551039012625225" lon="8.225292271567353"><ele>248.6</ele><time>2026-04-06T14:16:04.001Z</time></trkpt><trkpt lat="45.550922858784205" lon="8.22531691224467"><ele>248.2</ele><time>2026-04-06T14:16:05.001Z</time></trkpt><trkpt lat="45.550810459021186" lon="8.225326473545786"><ele>247.79999999999998</ele><time>2026-04-06T14:16:06.001Z</time></trkpt><trkpt lat="45.55070052574987" lon="8.225338842458992"><ele>247.39999999999998</ele><time>2026-04-06T14:16:07.001Z</time></trkpt><trkpt lat="45.55059608888614" lon="8.225352622092903"><ele>247.0</ele><time>2026-04-06T14:16:08.001Z</time></trkpt><trkpt lat="45.550502234176236" lon="8.225359654539776"><ele>247.0</ele><time>2026-04-06T14:16:09.001Z</time></trkpt><trkpt lat="45.55043397877808" lon="8.225365550376004"><ele>247.0</ele><time>2026-04-06T14:16:10.001Z</time></trkpt><trkpt lat="45.55039719588678" lon="8.225180195452014"><ele>247.0</ele><time>2026-04-06T14:16:14.001Z</time></trkpt><trkpt lat="45.55042351747149" lon="8.225085735113595"><ele>247.0</ele><time>2026-04-06T14:16:15.001Z</time></trkpt><trkpt lat="45.55043749690531" lon="8.224962929283093"><ele>247.0</ele><time>2026-04-06T14:16:17.001Z</time></trkpt><trkpt lat="45.55041656816045" lon="8.224827141111207"><ele>248.66666666666666</ele><time>2026-04-06T14:16:18.001Z</time></trkpt><trkpt lat="45.55041151668756" lon="8.22466785520934"><ele>250.33333333333331</ele><time>2026-04-06T14:16:19.001Z</time></trkpt><trkpt lat="45.55040988686755" lon="8.22452022441309"><ele>252.0</ele><time>2026-04-06T14:16:20.001Z</time></trkpt><trkpt lat="45.550403090095536" lon="8.224396904967493"><ele>253.66666666666669</ele><time>2026-04-06T14:16:21.001Z</time></trkpt><trkpt lat="45.55043554270761" lon="8.224304093588032"><ele>255.33333333333334</ele><time>2026-04-06T14:16:22.001Z</time></trkpt><trkpt lat="45.55048259684887" lon="8.224243832911311"><ele>257.0</ele><time>2026-04-06T14:16:23.001Z</time></trkpt><trkpt lat="45.55046675687762" lon="8.224129349250525"><ele>257.2</ele><time>2026-04-06T14:16:25.001Z</time></trkpt><trkpt lat="45.55036904255381" lon="8.224196097780236"><ele>257.4</ele><time>2026-04-06T14:16:27.001Z</time></trkpt><trkpt lat="45.55037384912849" lon="8.224043753265939"><ele>257.6</ele><time>2026-04-06T14:16:30.001Z</time></trkpt><trkpt lat="45.55040606770026" lon="8.223944486502784"><ele>257.8</ele><time>2026-04-06T14:16:31.001Z</time></trkpt><trkpt lat="45.550434453687544" lon="8.223846816808463"><ele>258.0</ele><time>2026-04-06T14:16:32.001Z</time></trkpt><trkpt lat="45.55040431776996" lon="8.22368182869794"><ele>257.3333333333333</ele><time>2026-04-06T14:16:34.001Z</time></trkpt><trkpt lat="45.550372209701564" lon="8.223582157725291"><ele>256.6666666666667</ele><time>2026-04-06T14:16:35.001Z</time></trkpt><trkpt lat="45.55032924826401" lon="8.223454205592164"><ele>256.0</ele><time>2026-04-06T14:16:36.001Z</time></trkpt><trkpt lat="45.55029920950003" lon="8.223316086472863"><ele>255.33333333333334</ele><time>2026-04-06T14:16:38.001Z</time></trkpt><trkpt lat="45.550372060698265" lon="8.223231524009206"><ele>254.66666666666669</ele><time>2026-04-06T14:16:40.001Z</time></trkpt><trkpt lat="45.550440631027705" lon="8.223254902695869"><ele>254.0</ele><time>2026-04-06T14:16:43.001Z</time></trkpt><trkpt lat="45.550446003799735" lon="8.223155647938604"><ele>254.00000000000003</ele><time>2026-04-06T14:16:47.001Z</time></trkpt><trkpt lat="45.550341820170296" lon="8.223161090279257"><ele>254.0</ele><time>2026-04-06T14:16:49.001Z</time></trkpt><trkpt lat="45.55027657990999" lon="8.223174657314052"><ele>254.0</ele><time>2026-04-06T14:16:50.001Z</time></trkpt><trkpt lat="45.550196620116566" lon="8.223193319799343"><ele>254.0</ele><time>2026-04-06T14:16:52.001Z</time></trkpt><trkpt lat="45.550134019144544" lon="8.223134514940053"><ele>254.00000000000003</ele><time>2026-04-06T14:16:56.001Z</time></trkpt><trkpt lat="45.55005624123655" lon="8.22311196993132"><ele>254.0</ele><time>2026-04-06T14:16:58.001Z</time></trkpt><trkpt lat="45.54995905291807" lon="8.223125325960035"><ele>253.66666666666669</ele><time>2026-04-06T14:17:00.001Z</time></trkpt><trkpt lat="45.549879519445206" lon="8.22313642985486"><ele>253.33333333333334</ele><time>2026-04-06T14:17:01.001Z</time></trkpt><trkpt lat="45.549838688588174" lon="8.22304012351192"><ele>253.0</ele><time>2026-04-06T14:17:18.001Z</time></trkpt><trkpt lat="45.5497737242235" lon="8.222956963401908"><ele>252.66666666666669</ele><time>2026-04-06T14:17:20.001Z</time></trkpt><trkpt lat="45.54974044869465" lon="8.222871294182776"><ele>252.33333333333334</ele><time>2026-04-06T14:17:22.001Z</time></trkpt><trkpt lat="45.54973702179197" lon="8.222740020151305"><ele>252.0</ele><time>2026-04-06T14:17:25.001Z</time></trkpt><trkpt lat="45.549718330893775" lon="8.222585796639386"><ele>252.0</ele><time>2026-04-06T14:17:27.001Z</time></trkpt><trkpt lat="45.549690191397126" lon="8.222476858310765"><ele>252.0</ele><time>2026-04-06T14:17:28.001Z</time></trkpt><trkpt lat="45.54963108012737" lon="8.222369679264355"><ele>252.0</ele><time>2026-04-06T14:17:29.001Z</time></trkpt><trkpt lat="45.54957098424153" lon="8.22233645179355"><ele>252.0</ele><time>2026-04-06T14:17:30.001Z</time></trkpt><trkpt lat="45.54949427385127" lon="8.222295468828236"><ele>252.0</ele><time>2026-04-06T14:17:31.001Z</time></trkpt><trkpt lat="45.54940012183331" lon="8.22223078120613"><ele>252.0</ele><time>2026-04-06T14:17:32.001Z</time></trkpt><trkpt lat="45.54933323487637" lon="8.222153176320102"><ele>252.33333333333334</ele><time>2026-04-06T14:17:33.001Z</time></trkpt><trkpt lat="45.54928922582007" lon="8.222064377046092"><ele>252.66666666666669</ele><time>2026-04-06T14:17:34.001Z</time></trkpt><trkpt lat="45.54925013174381" lon="8.221986610030148"><ele>253.0</ele><time>2026-04-06T14:17:35.001Z</time></trkpt><trkpt lat="45.549206043269265" lon="8.221893662009505"><ele>253.33333333333334</ele><time>2026-04-06T14:17:37.001Z</time></trkpt><trkpt lat="45.54914140269924" lon="8.221783350094325"><ele>253.66666666666669</ele><time>2026-04-06T14:17:39.001Z</time></trkpt><trkpt lat="45.54907490681284" lon="8.221726390983887"><ele>254.0</ele><time>2026-04-06T14:17:41.001Z</time></trkpt><trkpt lat="45.54904680652587" lon="8.221636972882488"><ele>254.0</ele><time>2026-04-06T14:17:44.001Z</time></trkpt><trkpt lat="45.54897310772498" lon="8.221571949664286"><ele>253.99999999999997</ele><time>2026-04-06T14:17:47.001Z</time></trkpt><trkpt lat="45.549000484719556" lon="8.221484444101058"><ele>253.99999999999997</ele><time>2026-04-06T14:17:50.001Z</time></trkpt><trkpt lat="45.54904658105592" lon="8.22134221453918"><ele>254.0</ele><time>2026-04-06T14:17:52.001Z</time></trkpt><trkpt lat="45.54904557559511" lon="8.221184853505378"><ele>254.0</ele><time>2026-04-06T14:17:54.001Z</time></trkpt><trkpt lat="45.5490182230194" lon="8.221012656938658"><ele>254.39999999999998</ele><time>2026-04-06T14:17:56.001Z</time></trkpt><trkpt lat="45.54892464922027" lon="8.220939908237206"><ele>254.79999999999998</ele><time>2026-04-06T14:17:58.001Z</time></trkpt><trkpt lat="45.548865811349714" lon="8.220892374218362"><ele>255.20000000000002</ele><time>2026-04-06T14:17:59.001Z</time></trkpt><trkpt lat="45.548778147413906" lon="8.220829837838258"><ele>255.60000000000002</ele><time>2026-04-06T14:18:01.001Z</time></trkpt><trkpt lat="45.54872341125985" lon="8.220709807938968"><ele>256.0</ele><time>2026-04-06T14:18:03.001Z</time></trkpt><trkpt lat="45.5487475603883" lon="8.220590998876336"><ele>257.0</ele><time>2026-04-06T14:18:06.001Z</time></trkpt><trkpt lat="45.54879149065675" lon="8.220469692063471"><ele>258.0</ele><time>2026-04-06T14:18:08.001Z</time></trkpt><trkpt lat="45.54883065994931" lon="8.220372436589841"><ele>259.0</ele><time>2026-04-06T14:18:11.001Z</time></trkpt><trkpt lat="45.54884590291995" lon="8.220211211832655"><ele>260.0</ele><time>2026-04-06T14:18:13.001Z</time></trkpt><trkpt lat="45.54886423987148" lon="8.220053741571078"><ele>261.0</ele><time>2026-04-06T14:18:15.001Z</time></trkpt><trkpt lat="45.54888770148155" lon="8.21995032282024"><ele>261.0</ele><time>2026-04-06T14:18:17.001Z</time></trkpt><trkpt lat="45.549076399797585" lon="8.219830135667133"><ele>261.0</ele><time>2026-04-06T14:18:21.001Z</time></trkpt><trkpt lat="45.54906440612132" lon="8.21969871668191"><ele>261.0</ele><time>2026-04-06T14:18:24.001Z</time></trkpt><trkpt lat="45.54907163992262" lon="8.21959411251587"><ele>261.0</ele><time>2026-04-06T14:18:25.001Z</time></trkpt><trkpt lat="45.54907587067229" lon="8.219494367052947"><ele>261.0</ele><time>2026-04-06T14:18:26.001Z</time></trkpt><trkpt lat="45.54906395275525" lon="8.219401505402915"><ele>261.2</ele><time>2026-04-06T14:18:27.001Z</time></trkpt><trkpt lat="45.54906969170158" lon="8.219275315623268"><ele>261.40000000000003</ele><time>2026-04-06T14:18:28.001Z</time></trkpt><trkpt lat="45.5491062672957" lon="8.219116165267254"><ele>261.6</ele><time>2026-04-06T14:18:30.001Z</time></trkpt><trkpt lat="45.54912369118354" lon="8.219006499908394"><ele>261.8</ele><time>2026-04-06T14:18:31.001Z</time></trkpt><trkpt lat="45.549134442674585" lon="8.218900387518815"><ele>262.0</ele><time>2026-04-06T14:18:32.001Z</time></trkpt><trkpt lat="45.54913531659694" lon="8.218771977283966"><ele>262.0</ele><time>2026-04-06T14:18:33.001Z</time></trkpt><trkpt lat="45.54912605856714" lon="8.218657659087281"><ele>262.0</ele><time>2026-04-06T14:18:34.001Z</time></trkpt><trkpt lat="45.5490420101508" lon="8.218501681328156"><ele>262.0</ele><time>2026-04-06T14:18:36.001Z</time></trkpt><trkpt lat="45.54896250473808" lon="8.218424542191498"><ele>262.0</ele><time>2026-04-06T14:18:37.001Z</time></trkpt><trkpt lat="45.54889031451272" lon="8.21833229868636"><ele>262.0</ele><time>2026-04-06T14:18:38Z</time></trkpt><trkpt lat="45.54883294074809" lon="8.218243206977453"><ele>261.0</ele><time>2026-04-06T14:18:39Z</time></trkpt><trkpt lat="45.54883258437427" lon="8.218088943446212"><ele>260.0</ele><time>2026-04-06T14:18:41Z</time></trkpt><trkpt lat="45.548851224525805" lon="8.217984324944286"><ele>259.0</ele><time>2026-04-06T14:18:42Z</time></trkpt><trkpt lat="45.54885784729454" lon="8.217872904408027"><ele>258.0</ele><time>2026-04-06T14:18:43Z</time></trkpt><trkpt lat="45.54884694156916" lon="8.21777160884445"><ele>257.0</ele><time>2026-04-06T14:18:44Z</time></trkpt><trkpt lat="45.548806214870446" lon="8.217675654976889"><ele>256.0</ele><time>2026-04-06T14:18:45Z</time></trkpt><trkpt lat="45.54875105373563" lon="8.217589305119382"><ele>254.16666666666666</ele><time>2026-04-06T14:18:46Z</time></trkpt><trkpt lat="45.54867114234343" lon="8.217499240663166"><ele>252.33333333333331</ele><time>2026-04-06T14:18:47Z</time></trkpt><trkpt lat="45.54858428907405" lon="8.217412377799313"><ele>250.5</ele><time>2026-04-06T14:18:48Z</time></trkpt><trkpt lat="45.54850883833922" lon="8.217334271535886"><ele>248.66666666666669</ele><time>2026-04-06T14:18:49Z</time></trkpt><trkpt lat="45.54846148199628" lon="8.217272124797725"><ele>246.83333333333334</ele><time>2026-04-06T14:18:50Z</time></trkpt><trkpt lat="45.54842867300379" lon="8.217188320770134"><ele>245.0</ele><time>2026-04-06T14:18:52Z</time></trkpt><trkpt lat="45.548443240497164" lon="8.217097574986829"><ele>245.00000000000003</ele><time>2026-04-06T14:18:55Z</time></trkpt><trkpt lat="45.54845123080602" lon="8.217007118142641"><ele>245.0</ele><time>2026-04-06T14:18:57Z</time></trkpt><trkpt lat="45.548459979328854" lon="8.216910019452458"><ele>245.0</ele><time>2026-04-06T14:18:59Z</time></trkpt><trkpt lat="45.54854727159951" lon="8.216865377093015"><ele>245.0</ele><time>2026-04-06T14:19:01Z</time></trkpt><trkpt lat="45.54866709676811" lon="8.216797963944279"><ele>245.00000000000003</ele><time>2026-04-06T14:19:03Z</time></trkpt><trkpt lat="45.548735862768254" lon="8.216730043274234"><ele>245.0</ele><time>2026-04-06T14:19:04Z</time></trkpt><trkpt lat="45.54877463439596" lon="8.216625379191024"><ele>246.0</ele><time>2026-04-06T14:19:05Z</time></trkpt><trkpt lat="45.54878304649481" lon="8.216486648728495"><ele>247.0</ele><time>2026-04-06T14:19:06Z</time></trkpt><trkpt lat="45.54880363673059" lon="8.216365109152099"><ele>248.0</ele><time>2026-04-06T14:19:07Z</time></trkpt><trkpt lat="45.54883973184758" lon="8.216222737441877"><ele>249.0</ele><time>2026-04-06T14:19:08Z</time></trkpt><trkpt lat="45.548885981856046" lon="8.216054743707577"><ele>250.0</ele><time>2026-04-06T14:19:09Z</time></trkpt><trkpt lat="45.54892125814807" lon="8.215923970096465"><ele>249.99999999999997</ele><time>2026-04-06T14:19:10Z</time></trkpt><trkpt lat="45.54892448578936" lon="8.215783865565161"><ele>250.0</ele><time>2026-04-06T14:19:11Z</time></trkpt><trkpt lat="45.54892908976687" lon="8.21567953977833"><ele>250.0</ele><time>2026-04-06T14:19:12Z</time></trkpt><trkpt lat="45.54893684038267" lon="8.215588184838424"><ele>250.0</ele><time>2026-04-06T14:19:13Z</time></trkpt><trkpt lat="45.54892197000552" lon="8.215427727436998"><ele>249.99999999999997</ele><time>2026-04-06T14:19:15Z</time></trkpt><trkpt lat="45.54889749512157" lon="8.215331211312048"><ele>250.0</ele><time>2026-04-06T14:19:16Z</time></trkpt><trkpt lat="45.54885016707597" lon="8.215154613635734"><ele>249.66666666666666</ele><time>2026-04-06T14:19:18Z</time></trkpt><trkpt lat="45.548814977582175" lon="8.215066625734737"><ele>249.33333333333331</ele><time>2026-04-06T14:19:19Z</time></trkpt><trkpt lat="45.548785280183445" lon="8.214971819384948"><ele>249.0</ele><time>2026-04-06T14:19:20Z</time></trkpt><trkpt lat="45.54876258971622" lon="8.21488306911946"><ele>248.66666666666669</ele><time>2026-04-06T14:19:21Z</time></trkpt><trkpt lat="45.54884108262454" lon="8.21475618159522"><ele>248.33333333333334</ele><time>2026-04-06T14:19:23Z</time></trkpt><trkpt lat="45.54890083470067" lon="8.214659046403128"><ele>248.0</ele><time>2026-04-06T14:19:24Z</time></trkpt><trkpt lat="45.54896737932942" lon="8.214555863629705"><ele>247.60000000000002</ele><time>2026-04-06T14:19:25Z</time></trkpt><trkpt lat="45.54901757583976" lon="8.214455229311291"><ele>247.20000000000002</ele><time>2026-04-06T14:19:26Z</time></trkpt><trkpt lat="45.549137447614335" lon="8.214378491217843"><ele>246.8</ele><time>2026-04-06T14:19:33Z</time></trkpt><trkpt lat="45.54915153390043" lon="8.214261068893592"><ele>246.4</ele><time>2026-04-06T14:19:35Z</time></trkpt><trkpt lat="45.54920042006535" lon="8.21417809338591"><ele>246.0</ele><time>2026-04-06T14:19:37Z</time></trkpt><trkpt lat="45.5494569608825" lon="8.214165261742696"><ele>246.0</ele><time>2026-04-06T14:19:42.001Z</time></trkpt><trkpt lat="45.54950171963089" lon="8.214083948447918"><ele>246.0</ele><time>2026-04-06T14:19:44.001Z</time></trkpt><trkpt lat="45.54952507153304" lon="8.213982172160529"><ele>246.0</ele><time>2026-04-06T14:19:46.001Z</time></trkpt><trkpt lat="45.54954467733597" lon="8.213885616774151"><ele>246.0</ele><time>2026-04-06T14:19:48.001Z</time></trkpt><trkpt lat="45.549564067868886" lon="8.21378401550014"><ele>246.0</ele><time>2026-04-06T14:19:50.001Z</time></trkpt><trkpt lat="45.549615251392" lon="8.213664650069118"><ele>246.0</ele><time>2026-04-06T14:19:52.001Z</time></trkpt><trkpt lat="45.5496778193091" lon="8.213515562335747"><ele>246.33333333333334</ele><time>2026-04-06T14:19:54.001Z</time></trkpt><trkpt lat="45.549705139895785" lon="8.213413940261624"><ele>246.66666666666669</ele><time>2026-04-06T14:19:55.001Z</time></trkpt><trkpt lat="45.54972924018446" lon="8.213306856073986"><ele>247.0</ele><time>2026-04-06T14:19:56.001Z</time></trkpt><trkpt lat="45.54975241921617" lon="8.213198908517613"><ele>247.33333333333334</ele><time>2026-04-06T14:19:57.001Z</time></trkpt><trkpt lat="45.54976484587188" lon="8.213077715184376"><ele>247.66666666666669</ele><time>2026-04-06T14:19:58.001Z</time></trkpt><trkpt lat="45.54978878737326" lon="8.212924754565917"><ele>248.0</ele><time>2026-04-06T14:19:59.001Z</time></trkpt><trkpt lat="45.54979820658473" lon="8.212791257755192"><ele>248.00000000000003</ele><time>2026-04-06T14:20:00.001Z</time></trkpt><trkpt lat="45.54979721145622" lon="8.212668094635433"><ele>248.0</ele><time>2026-04-06T14:20:01.001Z</time></trkpt><trkpt lat="45.54978045949308" lon="8.212565500628306"><ele>248.0</ele><time>2026-04-06T14:20:02.001Z</time></trkpt><trkpt lat="45.54978533793376" lon="8.212447470272194"><ele>248.0</ele><time>2026-04-06T14:20:04.001Z</time></trkpt><trkpt lat="45.549812603549675" lon="8.21236125143788"><ele>248.00000000000003</ele><time>2026-04-06T14:20:06.001Z</time></trkpt><trkpt lat="45.54983247935727" lon="8.212262984986326"><ele>248.0</ele><time>2026-04-06T14:20:08.001Z</time></trkpt><trkpt lat="45.54982573955141" lon="8.212154841639713"><ele>248.0</ele><time>2026-04-06T14:20:10.001Z</time></trkpt><trkpt lat="45.54980920972018" lon="8.212042897089356"><ele>248.0</ele><time>2026-04-06T14:20:12Z</time></trkpt><trkpt lat="45.549887490688604" lon="8.21196344985184"><ele>248.0</ele><time>2026-04-06T14:20:18Z</time></trkpt><trkpt lat="45.54998284510083" lon="8.211947191970724"><ele>248.0</ele><time>2026-04-06T14:20:22Z</time></trkpt><trkpt lat="45.55006074051286" lon="8.211812844215709"><ele>248.0</ele><time>2026-04-06T14:20:24Z</time></trkpt><trkpt lat="45.55012630058168" lon="8.211755026675375"><ele>248.00000000000003</ele><time>2026-04-06T14:20:25Z</time></trkpt><trkpt lat="45.550255904976915" lon="8.211749057017922"><ele>248.0</ele><time>2026-04-06T14:20:27Z</time></trkpt><trkpt lat="45.55033414558039" lon="8.211716189851131"><ele>248.0</ele><time>2026-04-06T14:20:29Z</time></trkpt><trkpt lat="45.55038677570777" lon="8.211666656145463"><ele>248.0</ele><time>2026-04-06T14:20:30Z</time></trkpt><trkpt lat="45.550443203314664" lon="8.211613589325008"><ele>248.00000000000003</ele><time>2026-04-06T14:20:31Z</time></trkpt><trkpt lat="45.550520365258585" lon="8.211570732692609"><ele>248.0</ele><time>2026-04-06T14:20:32Z</time></trkpt><trkpt lat="45.55059527016705" lon="8.211512566969935"><ele>248.5</ele><time>2026-04-06T14:20:33Z</time></trkpt><trkpt lat="45.550641677085785" lon="8.211441901495075"><ele>249.0</ele><time>2026-04-06T14:20:34Z</time></trkpt><trkpt lat="45.55070226218036" lon="8.211379576153382"><ele>249.5</ele><time>2026-04-06T14:20:35Z</time></trkpt><trkpt lat="45.55093743420449" lon="8.211227054906562"><ele>250.0</ele><time>2026-04-06T14:20:37Z</time></trkpt><trkpt lat="45.55098599189636" lon="8.211113121394764"><ele>250.0</ele><time>2026-04-06T14:20:38Z</time></trkpt><trkpt lat="45.551038955252935" lon="8.210942475370699"><ele>250.0</ele><time>2026-04-06T14:20:40Z</time></trkpt><trkpt lat="45.551067504209705" lon="8.210802902073599"><ele>250.0</ele><time>2026-04-06T14:20:42Z</time></trkpt><trkpt lat="45.55111018985744" lon="8.21066945898354"><ele>250.0</ele><time>2026-04-06T14:20:43Z</time></trkpt><trkpt lat="45.551179956489904" lon="8.21054011642295"><ele>249.99999999999997</ele><time>2026-04-06T14:20:44Z</time></trkpt><trkpt lat="45.551202372686966" lon="8.210415516848293"><ele>250.0</ele><time>2026-04-06T14:20:45Z</time></trkpt><trkpt lat="45.55124168231338" lon="8.210331184028322"><ele>250.0</ele><time>2026-04-06T14:20:48Z</time></trkpt><trkpt lat="45.551263462655065" lon="8.210417498773637"><ele>250.0</ele><time>2026-04-06T14:21:00Z</time></trkpt><trkpt lat="45.5513205744672" lon="8.210528626406207"><ele>249.99999999999997</ele><time>2026-04-06T14:21:05Z</time></trkpt><trkpt lat="45.55137919534709" lon="8.210604527690917"><ele>250.0</ele><time>2026-04-06T14:21:10Z</time></trkpt><trkpt lat="45.55164498743264" lon="8.210768134658299"><ele>250.16666666666666</ele><time>2026-04-06T14:21:13Z</time></trkpt><trkpt lat="45.5516959200555" lon="8.210880209514947"><ele>250.33333333333331</ele><time>2026-04-06T14:21:15Z</time></trkpt><trkpt lat="45.55174580731211" lon="8.211006246582846"><ele>250.5</ele><time>2026-04-06T14:21:17Z</time></trkpt><trkpt lat="45.551784841396874" lon="8.211082845721807"><ele>250.66666666666669</ele><time>2026-04-06T14:21:18Z</time></trkpt><trkpt lat="45.551825546516405" lon="8.211154279369996"><ele>250.83333333333334</ele><time>2026-04-06T14:21:19Z</time></trkpt><trkpt lat="45.55189387545708" lon="8.211139794235656"><ele>251.0</ele><time>2026-04-06T14:21:21Z</time></trkpt><trkpt lat="45.55196172205104" lon="8.211114810167974"><ele>251.0</ele><time>2026-04-06T14:21:23Z</time></trkpt><trkpt lat="45.55200423491647" lon="8.211015526693398"><ele>251.0</ele><time>2026-04-06T14:21:25Z</time></trkpt><trkpt lat="45.55207037724916" lon="8.210890960850897"><ele>251.0</ele><time>2026-04-06T14:21:27Z</time></trkpt><trkpt lat="45.55217103919796" lon="8.210887375158979"><ele>251.0</ele><time>2026-04-06T14:21:30Z</time></trkpt><trkpt lat="45.55222235348413" lon="8.21110062419336"><ele>251.0</ele><time>2026-04-06T14:21:36Z</time></trkpt><trkpt lat="45.552367497735055" lon="8.211309444814644"><ele>251.0</ele><time>2026-04-06T14:21:37Z</time></trkpt><trkpt lat="45.552460764718234" lon="8.211342042163887"><ele>251.0</ele><time>2026-04-06T14:21:38Z</time></trkpt><trkpt lat="45.55247523686722" lon="8.211123243995884"><ele>251.0</ele><time>2026-04-06T14:21:39Z</time></trkpt><trkpt lat="45.5524800800885" lon="8.211015448416582"><ele>251.0</ele><time>2026-04-06T14:21:40Z</time></trkpt><trkpt lat="45.55251371626482" lon="8.210876528677504"><ele>251.0</ele><time>2026-04-06T14:21:41Z</time></trkpt><trkpt lat="45.55260588611755" lon="8.210691667172627"><ele>251.0</ele><time>2026-04-06T14:21:42Z</time></trkpt><trkpt lat="45.55268207690268" lon="8.210550035250005"><ele>250.60000000000002</ele><time>2026-04-06T14:21:43Z</time></trkpt><trkpt lat="45.5527405678055" lon="8.210417275912947"><ele>250.20000000000002</ele><time>2026-04-06T14:21:44Z</time></trkpt><trkpt lat="45.5528289152771" lon="8.210324443761783"><ele>249.79999999999998</ele><time>2026-04-06T14:21:45Z</time></trkpt><trkpt lat="45.55289496238213" lon="8.2102179041599"><ele>249.39999999999998</ele><time>2026-04-06T14:21:46Z</time></trkpt><trkpt lat="45.552956534820346" lon="8.210097841461424"><ele>249.0</ele><time>2026-04-06T14:21:47.001Z</time></trkpt><trkpt lat="45.55301939832275" lon="8.20994748807838"><ele>249.0</ele><time>2026-04-06T14:21:48.001Z</time></trkpt><trkpt lat="45.5530382699785" lon="8.209683052849732"><ele>249.0</ele><time>2026-04-06T14:21:49.001Z</time></trkpt><trkpt lat="45.55295671715658" lon="8.209461759565242"><ele>249.0</ele><time>2026-04-06T14:21:50.001Z</time></trkpt><trkpt lat="45.55301636859811" lon="8.209366812695928"><ele>249.0</ele><time>2026-04-06T14:21:52.001Z</time></trkpt><trkpt lat="45.55323776799476" lon="8.209642579610351"><ele>249.0</ele><time>2026-04-06T14:21:55.001Z</time></trkpt><trkpt lat="45.55328345372344" lon="8.209727625036727"><ele>249.0</ele><time>2026-04-06T14:21:56.001Z</time></trkpt><trkpt lat="45.55333177396482" lon="8.209829001131686"><ele>249.0</ele><time>2026-04-06T14:21:57.001Z</time></trkpt><trkpt lat="45.55342060979826" lon="8.209839298268447"><ele>249.0</ele><time>2026-04-06T14:22:00.001Z</time></trkpt><trkpt lat="45.55355400925607" lon="8.209832754489371"><ele>249.0</ele><time>2026-04-06T14:22:02.001Z</time></trkpt><trkpt lat="45.553625701701435" lon="8.209801591554033"><ele>249.0</ele><time>2026-04-06T14:22:03.001Z</time></trkpt><trkpt lat="45.55368565466494" lon="8.209768370484493"><ele>249.0</ele><time>2026-04-06T14:22:04.001Z</time></trkpt><trkpt lat="45.5537453440545" lon="8.209717921822001"><ele>249.0</ele><time>2026-04-06T14:22:06Z</time></trkpt><trkpt lat="45.55380644893257" lon="8.209633637188848"><ele>250.79999999999998</ele><time>2026-04-06T14:22:13Z</time></trkpt><trkpt lat="45.553892554424905" lon="8.209508111842005"><ele>252.59999999999997</ele><time>2026-04-06T14:22:15Z</time></trkpt><trkpt lat="45.55397121809858" lon="8.209455765740115"><ele>254.4</ele><time>2026-04-06T14:22:16Z</time></trkpt><trkpt lat="45.554087880499004" lon="8.20940380887224"><ele>256.2</ele><time>2026-04-06T14:22:17Z</time></trkpt><trkpt lat="45.554174033981425" lon="8.20935433360243"><ele>258.0</ele><time>2026-04-06T14:22:18Z</time></trkpt><trkpt lat="45.554264800831284" lon="8.209309832521152"><ele>258.0</ele><time>2026-04-06T14:22:19Z</time></trkpt><trkpt lat="45.55435795877041" lon="8.209277385686171"><ele>258.0</ele><time>2026-04-06T14:22:20Z</time></trkpt><trkpt lat="45.55442253242281" lon="8.209289390277307"><ele>258.0</ele><time>2026-04-06T14:22:21Z</time></trkpt><trkpt lat="45.55450295157299" lon="8.209270897112354"><ele>258.0</ele><time>2026-04-06T14:22:22Z</time></trkpt><trkpt lat="45.55458570334994" lon="8.20926940530076"><ele>258.0</ele><time>2026-04-06T14:22:23Z</time></trkpt><trkpt lat="45.554677911983674" lon="8.209261783924651"><ele>258.0</ele><time>2026-04-06T14:22:24Z</time></trkpt><trkpt lat="45.55477242253922" lon="8.209247603909528"><ele>258.6</ele><time>2026-04-06T14:22:25Z</time></trkpt><trkpt lat="45.55486301829342" lon="8.209227176991687"><ele>259.20000000000005</ele><time>2026-04-06T14:22:26Z</time></trkpt><trkpt lat="45.55493984221932" lon="8.209234772339572"><ele>259.8</ele><time>2026-04-06T14:22:27Z</time></trkpt><trkpt lat="45.55502102582262" lon="8.209231037560277"><ele>260.40000000000003</ele><time>2026-04-06T14:22:28Z</time></trkpt><trkpt lat="45.55515733350841" lon="8.209240759126223"><ele>261.0</ele><time>2026-04-06T14:22:30Z</time></trkpt><trkpt lat="45.55523514112553" lon="8.209225423965373"><ele>261.0</ele><time>2026-04-06T14:22:31Z</time></trkpt><trkpt lat="45.55531011249434" lon="8.209232339112186"><ele>261.0</ele><time>2026-04-06T14:22:32Z</time></trkpt><trkpt lat="45.555386680444585" lon="8.2092404119749"><ele>261.0</ele><time>2026-04-06T14:22:33Z</time></trkpt><trkpt lat="45.55545317075872" lon="8.20922584884965"><ele>261.0</ele><time>2026-04-06T14:22:34Z</time></trkpt><trkpt lat="45.55552766855355" lon="8.20911920002797"><ele>261.0</ele><time>2026-04-06T14:22:36Z</time></trkpt><trkpt lat="45.55559533245875" lon="8.209035607855018"><ele>261.0</ele><time>2026-04-06T14:22:38Z</time></trkpt><trkpt lat="45.555716747457296" lon="8.209046023028739"><ele>261.2</ele><time>2026-04-06T14:22:40Z</time></trkpt><trkpt lat="45.555792500216135" lon="8.209059497992468"><ele>261.40000000000003</ele><time>2026-04-06T14:22:41Z</time></trkpt><trkpt lat="45.55588898707815" lon="8.20902222364538"><ele>261.6</ele><time>2026-04-06T14:22:43Z</time></trkpt><trkpt lat="45.55597994646839" lon="8.20906332340583"><ele>261.8</ele><time>2026-04-06T14:22:46Z</time></trkpt><trkpt lat="45.556107405866086" lon="8.209094478831526"><ele>262.0</ele><time>2026-04-06T14:22:48Z</time></trkpt><trkpt lat="45.556219580297565" lon="8.209157067779698"><ele>262.0</ele><time>2026-04-06T14:22:50Z</time></trkpt><trkpt lat="45.556258364421744" lon="8.209300861125014"><ele>262.0</ele><time>2026-04-06T14:22:53Z</time></trkpt><trkpt lat="45.55633224879954" lon="8.20929898719225"><ele>262.0</ele><time>2026-04-06T14:22:56Z</time></trkpt><trkpt lat="45.55640608427765" lon="8.209271186281098"><ele>262.0</ele><time>2026-04-06T14:22:58Z</time></trkpt><trkpt lat="45.5565837274646" lon="8.209370810467364"><ele>262.0</ele><time>2026-04-06T14:23:00Z</time></trkpt><trkpt lat="45.55668793399207" lon="8.209408303734357"><ele>262.0</ele><time>2026-04-06T14:23:01Z</time></trkpt><trkpt lat="45.55676586472095" lon="8.209428822494212"><ele>262.0</ele><time>2026-04-06T14:23:02Z</time></trkpt><trkpt lat="45.55685765807465" lon="8.209376733741994"><ele>262.0</ele><time>2026-04-06T14:23:04Z</time></trkpt><trkpt lat="45.55693814271064" lon="8.209268442004033"><ele>262.0</ele><time>2026-04-06T14:23:06Z</time></trkpt><trkpt lat="45.55700866600551" lon="8.209210738800005"><ele>262.0</ele><time>2026-04-06T14:23:08Z</time></trkpt><trkpt lat="45.557076456451526" lon="8.209223248802145"><ele>262.0</ele><time>2026-04-06T14:23:11Z</time></trkpt><trkpt lat="45.55711950278061" lon="8.20915024681952"><ele>262.6</ele><time>2026-04-06T14:23:13Z</time></trkpt><trkpt lat="45.557096450167755" lon="8.208952336494782"><ele>263.2</ele><time>2026-04-06T14:23:15Z</time></trkpt><trkpt lat="45.55706220481655" lon="8.208797603028668"><ele>263.8</ele><time>2026-04-06T14:23:16Z</time></trkpt><trkpt lat="45.557053518196255" lon="8.208670296563227"><ele>264.4</ele><time>2026-04-06T14:23:17Z</time></trkpt><trkpt lat="45.55704975106184" lon="8.208560232398352"><ele>265.0</ele><time>2026-04-06T14:23:18Z</time></trkpt><trkpt lat="45.55716375051336" lon="8.208498432504163"><ele>265.0</ele><time>2026-04-06T14:23:20Z</time></trkpt><trkpt lat="45.55724994161835" lon="8.208435090586907"><ele>265.0</ele><time>2026-04-06T14:23:21Z</time></trkpt><trkpt lat="45.55732004182706" lon="8.208349952463196"><ele>265.0</ele><time>2026-04-06T14:23:22Z</time></trkpt><trkpt lat="45.55737464819493" lon="8.20826410389661"><ele>265.0</ele><time>2026-04-06T14:23:23Z</time></trkpt><trkpt lat="45.55747949641879" lon="8.208147973539695"><ele>265.0</ele><time>2026-04-06T14:23:25Z</time></trkpt><trkpt lat="45.55755460817488" lon="8.20814693299837"><ele>265.0</ele><time>2026-04-06T14:23:27Z</time></trkpt><trkpt lat="45.55762710772576" lon="8.208136009204647"><ele>265.0</ele><time>2026-04-06T14:23:29Z</time></trkpt><trkpt lat="45.55773073669935" lon="8.20820322959506"><ele>265.0</ele><time>2026-04-06T14:23:31Z</time></trkpt><trkpt lat="45.55782023084405" lon="8.208252451581576"><ele>265.0</ele><time>2026-04-06T14:23:32Z</time></trkpt><trkpt lat="45.557916330523966" lon="8.208268003229657"><ele>265.0</ele><time>2026-04-06T14:23:33Z</time></trkpt><trkpt lat="45.557988185294064" lon="8.20827623626912"><ele>265.8333333333333</ele><time>2026-04-06T14:23:34Z</time></trkpt><trkpt lat="45.55806212416463" lon="8.208243376870584"><ele>266.66666666666663</ele><time>2026-04-06T14:23:35Z</time></trkpt><trkpt lat="45.55812462404779" lon="8.208301673593953"><ele>267.5</ele><time>2026-04-06T14:23:36Z</time></trkpt><trkpt lat="45.55820846755589" lon="8.20836444013096"><ele>268.3333333333333</ele><time>2026-04-06T14:23:38Z</time></trkpt><trkpt lat="45.55828765887525" lon="8.208372647529986"><ele>269.1666666666667</ele><time>2026-04-06T14:23:39Z</time></trkpt><trkpt lat="45.558367882042845" lon="8.208360192954448"><ele>270.0</ele><time>2026-04-06T14:23:40Z</time></trkpt><trkpt lat="45.558455112479756" lon="8.208333436538876"><ele>270.0</ele><time>2026-04-06T14:23:41Z</time></trkpt><trkpt lat="45.558546926181315" lon="8.208305788795942"><ele>270.0</ele><time>2026-04-06T14:23:42Z</time></trkpt><trkpt lat="45.558636337626005" lon="8.2082815469001"><ele>270.0</ele><time>2026-04-06T14:23:43Z</time></trkpt><trkpt lat="45.55872339358963" lon="8.208266432223281"><ele>270.0</ele><time>2026-04-06T14:23:44Z</time></trkpt><trkpt lat="45.55879667943609" lon="8.208273914481241"><ele>270.0</ele><time>2026-04-06T14:23:45Z</time></trkpt><trkpt lat="45.55893669510615" lon="8.208271674529394"><ele>269.5</ele><time>2026-04-06T14:23:47Z</time></trkpt><trkpt lat="45.55901091592474" lon="8.208284895218965"><ele>269.0</ele><time>2026-04-06T14:23:48Z</time></trkpt><trkpt lat="45.559146672944934" lon="8.208355477686133"><ele>268.5</ele><time>2026-04-06T14:23:50Z</time></trkpt><trkpt lat="45.55921056238199" lon="8.208392033397244"><ele>268.0</ele><time>2026-04-06T14:23:51Z</time></trkpt><trkpt lat="45.559275620739285" lon="8.208410150318684"><ele>267.5</ele><time>2026-04-06T14:23:52Z</time></trkpt><trkpt lat="45.55936947060941" lon="8.2084021811635"><ele>267.0</ele><time>2026-04-06T14:23:53Z</time></trkpt><trkpt lat="45.5594885019543" lon="8.20844739939741"><ele>267.3333333333333</ele><time>2026-04-06T14:23:54Z</time></trkpt><trkpt lat="45.55960063845815" lon="8.208488445972689"><ele>267.6666666666667</ele><time>2026-04-06T14:23:55Z</time></trkpt><trkpt lat="45.55967727901016" lon="8.208475568293457"><ele>268.0</ele><time>2026-04-06T14:23:56Z</time></trkpt><trkpt lat="45.559759490606" lon="8.208488518689512"><ele>268.33333333333337</ele><time>2026-04-06T14:23:57Z</time></trkpt><trkpt lat="45.55973177838914" lon="8.208584602730394"><ele>268.6666666666667</ele><time>2026-04-06T14:23:58Z</time></trkpt><trkpt lat="45.55980638274092" lon="8.208534619144345"><ele>269.0</ele><time>2026-04-06T14:23:59Z</time></trkpt><trkpt lat="45.55986382961543" lon="8.208586212972866"><ele>269.0</ele><time>2026-04-06T14:24:00Z</time></trkpt><trkpt lat="45.55996951852041" lon="8.20864503432303"><ele>269.0</ele><time>2026-04-06T14:24:01Z</time></trkpt><trkpt lat="45.56011586695104" lon="8.208643594637733"><ele>269.0</ele><time>2026-04-06T14:24:02Z</time></trkpt><trkpt lat="45.560233899422194" lon="8.20864338822616"><ele>269.0</ele><time>2026-04-06T14:24:03Z</time></trkpt><trkpt lat="45.56025158706899" lon="8.20873505629461"><ele>269.0</ele><time>2026-04-06T14:24:04Z</time></trkpt><trkpt lat="45.560369960592375" lon="8.208718350337936"><ele>268.8</ele><time>2026-04-06T14:24:06Z</time></trkpt><trkpt lat="45.56047517751619" lon="8.208751023242476"><ele>268.59999999999997</ele><time>2026-04-06T14:24:07Z</time></trkpt><trkpt lat="45.56054947286391" lon="8.208731675181458"><ele>268.4</ele><time>2026-04-06T14:24:08Z</time></trkpt><trkpt lat="45.56062333729006" lon="8.208688886264357"><ele>268.2</ele><time>2026-04-06T14:24:09Z</time></trkpt><trkpt lat="45.56079490200666" lon="8.208629451122633"><ele>268.0</ele><time>2026-04-06T14:24:11Z</time></trkpt><trkpt lat="45.56089501079102" lon="8.20853846158697"><ele>268.0</ele><time>2026-04-06T14:24:12Z</time></trkpt><trkpt lat="45.561136734998925" lon="8.208381928657912"><ele>268.0</ele><time>2026-04-06T14:24:13Z</time></trkpt><trkpt lat="45.561201314290635" lon="8.208266961627668"><ele>268.0</ele><time>2026-04-06T14:24:14Z</time></trkpt><trkpt lat="45.56127426751772" lon="8.208220271788333"><ele>268.0</ele><time>2026-04-06T14:24:15Z</time></trkpt><trkpt lat="45.561325472138066" lon="8.208143448926409"><ele>268.8</ele><time>2026-04-06T14:24:17Z</time></trkpt><trkpt lat="45.561437337846094" lon="8.20813197013975"><ele>269.6</ele><time>2026-04-06T14:24:19Z</time></trkpt><trkpt lat="45.56149893381092" lon="8.20815077910958"><ele>270.4</ele><time>2026-04-06T14:24:20Z</time></trkpt><trkpt lat="45.56160091612586" lon="8.20818041375252"><ele>271.2</ele><time>2026-04-06T14:24:21Z</time></trkpt><trkpt lat="45.561715089237545" lon="8.208189198750436"><ele>272.0</ele><time>2026-04-06T14:24:22Z</time></trkpt><trkpt lat="45.56180797669389" lon="8.208204431323328"><ele>272.0</ele><time>2026-04-06T14:24:23Z</time></trkpt><trkpt lat="45.56194951514715" lon="8.208189321896873"><ele>272.0</ele><time>2026-04-06T14:24:24Z</time></trkpt><trkpt lat="45.56206532505366" lon="8.20817034317683"><ele>272.0</ele><time>2026-04-06T14:24:25Z</time></trkpt><trkpt lat="45.56218692284067" lon="8.208183725350723"><ele>272.0</ele><time>2026-04-06T14:24:26Z</time></trkpt><trkpt lat="45.562264557853965" lon="8.208273971530026"><ele>272.4</ele><time>2026-04-06T14:24:28Z</time></trkpt><trkpt lat="45.56234537509701" lon="8.208239496556558"><ele>272.79999999999995</ele><time>2026-04-06T14:24:29Z</time></trkpt><trkpt lat="45.562462414514265" lon="8.208190903023224"><ele>273.2</ele><time>2026-04-06T14:24:30Z</time></trkpt><trkpt lat="45.56256328647616" lon="8.208174223947351"><ele>273.59999999999997</ele><time>2026-04-06T14:24:31Z</time></trkpt><trkpt lat="45.56264876135181" lon="8.208152530977959"><ele>274.0</ele><time>2026-04-06T14:24:32Z</time></trkpt><trkpt lat="45.56271454655963" lon="8.208143799431388"><ele>274.2</ele><time>2026-04-06T14:24:33Z</time></trkpt><trkpt lat="45.56278102705514" lon="8.208091112811493"><ele>274.4</ele><time>2026-04-06T14:24:34Z</time></trkpt><trkpt lat="45.56287066415216" lon="8.208022175379448"><ele>274.6</ele><time>2026-04-06T14:24:35Z</time></trkpt><trkpt lat="45.56299000238709" lon="8.207955282156318"><ele>274.8</ele><time>2026-04-06T14:24:36Z</time></trkpt><trkpt lat="45.56310998506203" lon="8.207905029918257"><ele>275.0</ele><time>2026-04-06T14:24:37Z</time></trkpt><trkpt lat="45.563193107069765" lon="8.207863982615406"><ele>275.0</ele><time>2026-04-06T14:24:38Z</time></trkpt><trkpt lat="45.563228543503286" lon="8.20770540953196"><ele>275.0</ele><time>2026-04-06T14:24:40Z</time></trkpt><trkpt lat="45.563236439326225" lon="8.207582475406497"><ele>275.0</ele><time>2026-04-06T14:24:41Z</time></trkpt><trkpt lat="45.563310147489595" lon="8.207510099849276"><ele>275.0</ele><time>2026-04-06T14:24:42Z</time></trkpt><trkpt lat="45.56336852724338" lon="8.20745015185417"><ele>275.0</ele><time>2026-04-06T14:24:43Z</time></trkpt><trkpt lat="45.563419560488526" lon="8.207505629182647"><ele>275.0</ele><time>2026-04-06T14:24:47Z</time></trkpt><trkpt lat="45.56354068723882" lon="8.207427542883812"><ele>275.0</ele><time>2026-04-06T14:24:48Z</time></trkpt><trkpt lat="45.56360866243528" lon="8.207406632677722"><ele>275.0</ele><time>2026-04-06T14:24:50Z</time></trkpt><trkpt lat="45.56365001376672" lon="8.207329754254847"><ele>275.0</ele><time>2026-04-06T14:24:54Z</time></trkpt><trkpt lat="45.56367682592311" lon="8.207228905312206"><ele>275.0</ele><time>2026-04-06T14:25:11Z</time></trkpt><trkpt lat="45.563720518326534" lon="8.207159848868637"><ele>275.0</ele><time>2026-04-06T14:25:12Z</time></trkpt><trkpt lat="45.563782252556166" lon="8.207105153450575"><ele>275.0</ele><time>2026-04-06T14:25:13Z</time></trkpt><trkpt lat="45.56386919422698" lon="8.207111852247472"><ele>275.0</ele><time>2026-04-06T14:25:14Z</time></trkpt><trkpt lat="45.56395860664506" lon="8.207066523958888"><ele>276.0</ele><time>2026-04-06T14:25:15Z</time></trkpt><trkpt lat="45.564023697127006" lon="8.207027874132931"><ele>277.0</ele><time>2026-04-06T14:25:16Z</time></trkpt><trkpt lat="45.5640984942487" lon="8.206908723293177"><ele>278.0</ele><time>2026-04-06T14:25:17Z</time></trkpt><trkpt lat="45.56417599565131" lon="8.206813877027377"><ele>279.0</ele><time>2026-04-06T14:25:18Z</time></trkpt><trkpt lat="45.56426447361734" lon="8.206704939983618"><ele>280.0</ele><time>2026-04-06T14:25:19Z</time></trkpt><trkpt lat="45.56435569920778" lon="8.20674062712504"><ele>280.0</ele><time>2026-04-06T14:25:22Z</time></trkpt><trkpt lat="45.564424347320326" lon="8.206763249028286"><ele>280.0</ele><time>2026-04-06T14:25:27Z</time></trkpt><trkpt lat="45.56448716265904" lon="8.206809494716575"><ele>280.0</ele><time>2026-04-06T14:25:30Z</time></trkpt><trkpt lat="45.564549737774364" lon="8.20689565658819"><ele>280.0</ele><time>2026-04-06T14:25:33Z</time></trkpt><trkpt lat="45.56456529099718" lon="8.207037901479396"><ele>280.0</ele><time>2026-04-06T14:25:35Z</time></trkpt><trkpt lat="45.56460577245845" lon="8.207111726812098"><ele>280.0</ele><time>2026-04-06T14:25:37Z</time></trkpt><trkpt lat="45.564658167062085" lon="8.20719543728416"><ele>279.0</ele><time>2026-04-06T14:25:44Z</time></trkpt><trkpt lat="45.56469425526195" lon="8.207063754264626"><ele>278.0</ele><time>2026-04-06T14:26:05Z</time></trkpt><trkpt lat="45.5647448797324" lon="8.206979566595914"><ele>277.0</ele><time>2026-04-06T14:26:08Z</time></trkpt><trkpt lat="45.56482089257096" lon="8.206935542363428"><ele>276.0</ele><time>2026-04-06T14:26:10Z</time></trkpt><trkpt lat="45.56484938793451" lon="8.207015816635964"><ele>275.0</ele><time>2026-04-06T14:26:12Z</time></trkpt><trkpt lat="45.56489618983806" lon="8.20708553892888"><ele>274.0</ele><time>2026-04-06T14:26:14Z</time></trkpt><trkpt lat="45.564927275738555" lon="8.207175024122625"><ele>274.0</ele><time>2026-04-06T14:26:18Z</time></trkpt><trkpt lat="45.56489429402437" lon="8.207269807887712"><ele>274.0</ele><time>2026-04-06T14:26:25Z</time></trkpt><trkpt lat="45.5647995824391" lon="8.207305805832906"><ele>274.0</ele><time>2026-04-06T14:26:27Z</time></trkpt><trkpt lat="45.5647123932193" lon="8.207296062502833"><ele>274.0</ele><time>2026-04-06T14:26:31Z</time></trkpt><trkpt lat="45.56463116173073" lon="8.207403331966612"><ele>274.0</ele><time>2026-04-06T14:26:35Z</time></trkpt><trkpt lat="45.56453666463236" lon="8.207466894787977"><ele>273.8333333333333</ele><time>2026-04-06T14:26:37Z</time></trkpt><trkpt lat="45.56446634563331" lon="8.20750576429668"><ele>273.66666666666663</ele><time>2026-04-06T14:26:39Z</time></trkpt><trkpt lat="45.56441796429715" lon="8.207588181127896"><ele>273.5</ele><time>2026-04-06T14:26:43Z</time></trkpt><trkpt lat="45.56442164109321" lon="8.2076966167658"><ele>273.3333333333333</ele><time>2026-04-06T14:26:47Z</time></trkpt><trkpt lat="45.56449942840415" lon="8.207747214887963"><ele>273.1666666666667</ele><time>2026-04-06T14:26:50Z</time></trkpt><trkpt lat="45.564579379749475" lon="8.207744582222352"><ele>273.0</ele><time>2026-04-06T14:26:52Z</time></trkpt><trkpt lat="45.56465912877811" lon="8.207745956549795"><ele>273.0</ele><time>2026-04-06T14:26:54Z</time></trkpt><trkpt lat="45.564753050553065" lon="8.207780594663985"><ele>273.0</ele><time>2026-04-06T14:26:56Z</time></trkpt><trkpt lat="45.564847856514056" lon="8.207834694082088"><ele>273.0</ele><time>2026-04-06T14:26:58Z</time></trkpt><trkpt lat="45.5649350841834" lon="8.207855199941338"><ele>273.0</ele><time>2026-04-06T14:27:00Z</time></trkpt><trkpt lat="45.565135721572005" lon="8.20784549092625"><ele>273.0</ele><time>2026-04-06T14:27:01Z</time></trkpt><trkpt lat="45.56521284574666" lon="8.207845833080432"><ele>273.0</ele><time>2026-04-06T14:27:03Z</time></trkpt><trkpt lat="45.56531276467202" lon="8.207841499410002"><ele>273.0</ele><time>2026-04-06T14:27:05Z</time></trkpt><trkpt lat="45.56525372717216" lon="8.207892044736386"><ele>273.0</ele><time>2026-04-06T14:27:10Z</time></trkpt><trkpt lat="45.5651929198657" lon="8.207933508867212"><ele>273.0</ele><time>2026-04-06T14:27:12Z</time></trkpt><trkpt lat="45.56512663320258" lon="8.207965731461206"><ele>273.0</ele><time>2026-04-06T14:27:14Z</time></trkpt><trkpt lat="45.56507989950728" lon="8.208026115006412"><ele>273.0</ele><time>2026-04-06T14:27:16Z</time></trkpt><trkpt lat="45.565098003391405" lon="8.208140075862435"><ele>274.0</ele><time>2026-04-06T14:27:18Z</time></trkpt><trkpt lat="45.56518702148156" lon="8.20822000252222"><ele>275.0</ele><time>2026-04-06T14:27:20Z</time></trkpt><trkpt lat="45.56530593504901" lon="8.20821043320616"><ele>276.0</ele><time>2026-04-06T14:27:22Z</time></trkpt><trkpt lat="45.56540218470947" lon="8.208191057102887"><ele>277.0</ele><time>2026-04-06T14:27:23.999Z</time></trkpt><trkpt lat="45.56546544299846" lon="8.2082041379008"><ele>278.0</ele><time>2026-04-06T14:27:25.999Z</time></trkpt><trkpt lat="45.56539939740647" lon="8.208293654912335"><ele>278.0</ele><time>2026-04-06T14:27:29.999Z</time></trkpt><trkpt lat="45.56528094416202" lon="8.208364789226831"><ele>278.0</ele><time>2026-04-06T14:27:31.999Z</time></trkpt><trkpt lat="45.56519757357112" lon="8.208421873490389"><ele>278.0</ele><time>2026-04-06T14:27:32.999Z</time></trkpt><trkpt lat="45.565110393777566" lon="8.208444696731407"><ele>278.0</ele><time>2026-04-06T14:27:33.999Z</time></trkpt><trkpt lat="45.56503279127722" lon="8.208435147965053"><ele>278.0</ele><time>2026-04-06T14:27:34.999Z</time></trkpt><trkpt lat="45.56496696085311" lon="8.208412630552388"><ele>278.0</ele><time>2026-04-06T14:27:35.999Z</time></trkpt><trkpt lat="45.56489973397049" lon="8.208441088389238"><ele>278.0</ele><time>2026-04-06T14:27:36.999Z</time></trkpt><trkpt lat="45.56487586261774" lon="8.20856407821017"><ele>278.0</ele><time>2026-04-06T14:27:37.999Z</time></trkpt><trkpt lat="45.564870161643825" lon="8.20869412312337"><ele>278.0</ele><time>2026-04-06T14:27:38.999Z</time></trkpt><trkpt lat="45.56486321537886" lon="8.208804192735903"><ele>278.0</ele><time>2026-04-06T14:27:39.999Z</time></trkpt><trkpt lat="45.5649345951136" lon="8.20890823219705"><ele>278.0</ele><time>2026-04-06T14:27:41.999Z</time></trkpt><trkpt lat="45.56499115302707" lon="8.208976097879816"><ele>279.6666666666667</ele><time>2026-04-06T14:27:42.999Z</time></trkpt><trkpt lat="45.565064819865455" lon="8.209049615823591"><ele>281.33333333333337</ele><time>2026-04-06T14:27:43.999Z</time></trkpt><trkpt lat="45.56515039386056" lon="8.209079738654035"><ele>283.0</ele><time>2026-04-06T14:27:44.999Z</time></trkpt><trkpt lat="45.565269229793586" lon="8.209081721908472"><ele>284.6666666666667</ele><time>2026-04-06T14:27:46.999Z</time></trkpt><trkpt lat="45.56533273402552" lon="8.209108345903427"><ele>286.3333333333333</ele><time>2026-04-06T14:27:47.999Z</time></trkpt><trkpt lat="45.56540692172057" lon="8.209133010638881"><ele>288.0</ele><time>2026-04-06T14:27:48.999Z</time></trkpt><trkpt lat="45.5655476117741" lon="8.209184432723623"><ele>288.0</ele><time>2026-04-06T14:27:49.999Z</time></trkpt><trkpt lat="45.56567942949706" lon="8.209230320695438"><ele>288.0</ele><time>2026-04-06T14:27:50.999Z</time></trkpt><trkpt lat="45.56575520856995" lon="8.209257137017152"><ele>288.0</ele><time>2026-04-06T14:27:52.999Z</time></trkpt><trkpt lat="45.565624254392446" lon="8.209183200738087"><ele>288.0</ele><time>2026-04-06T14:27:53.999Z</time></trkpt><trkpt lat="45.56556177197221" lon="8.209150953240451"><ele>288.0</ele><time>2026-04-06T14:27:54.999Z</time></trkpt><trkpt lat="45.56549666373198" lon="8.209113654524185"><ele>288.0</ele><time>2026-04-06T14:27:55.999Z</time></trkpt><trkpt lat="45.56542002925158" lon="8.209096604857615"><ele>288.0</ele><time>2026-04-06T14:27:56.999Z</time></trkpt><trkpt lat="45.56529552397408" lon="8.209091700188987"><ele>288.0</ele><time>2026-04-06T14:27:57.999Z</time></trkpt><trkpt lat="45.565182481322196" lon="8.209096536671524"><ele>288.0</ele><time>2026-04-06T14:27:58.999Z</time></trkpt><trkpt lat="45.56510476456333" lon="8.209105742609259"><ele>288.0</ele><time>2026-04-06T14:27:59.999Z</time></trkpt><trkpt lat="45.56503511789165" lon="8.2091463985692"><ele>288.0</ele><time>2026-04-06T14:28:00.999Z</time></trkpt><trkpt lat="45.565110499738246" lon="8.209204505224104"><ele>288.0</ele><time>2026-04-06T14:28:02.999Z</time></trkpt><trkpt lat="45.56518036190849" lon="8.209191326742715"><ele>288.0</ele><time>2026-04-06T14:28:04Z</time></trkpt><trkpt lat="45.56531175069104" lon="8.209169115200893"><ele>288.0</ele><time>2026-04-06T14:28:05Z</time></trkpt><trkpt lat="45.565430841589254" lon="8.209145113871854"><ele>288.0</ele><time>2026-04-06T14:28:06Z</time></trkpt><trkpt lat="45.56553748467142" lon="8.209144866009833"><ele>288.0</ele><time>2026-04-06T14:28:07Z</time></trkpt><trkpt lat="45.56540816589412" lon="8.209203110441273"><ele>288.0</ele><time>2026-04-06T14:28:10Z</time></trkpt><trkpt lat="45.565282346921734" lon="8.209199230642751"><ele>288.0</ele><time>2026-04-06T14:28:11Z</time></trkpt><trkpt lat="45.5652007888715" lon="8.20923638664259"><ele>288.0</ele><time>2026-04-06T14:28:12Z</time></trkpt><trkpt lat="45.565106242284244" lon="8.209249160557867"><ele>288.0</ele><time>2026-04-06T14:28:13Z</time></trkpt><trkpt lat="45.56514977743933" lon="8.209338177037056"><ele>288.0</ele><time>2026-04-06T14:28:16Z</time></trkpt><trkpt lat="45.56515634921065" lon="8.209447627257244"><ele>288.0</ele><time>2026-04-06T14:28:18Z</time></trkpt><trkpt lat="45.565151999911386" lon="8.209547364496572"><ele>288.0</ele><time>2026-04-06T14:28:20Z</time></trkpt><trkpt lat="45.5651076049334" lon="8.209633263710113"><ele>288.0</ele><time>2026-04-06T14:28:22Z</time></trkpt></trkseg></trk></gpx>